<?xml version="1.0" encoding="UTF-8" standalone="no" ?>
<gpx xmlns="http://www.topografix.com/GPX/1/1" xmlns:xsi="http://www.w3.org/2001/XMLSchema-instance" xsi:schemaLocation="http://www.topografix.com/GPX/1/1 http://www.topografix.com/GPX/1/1/gpx.xsd" version="1.1" creator="VisuGPX - https://www.visugpx.com">
  <metadata>
    <name>Champagnat Cyclisme sur route</name>
  </metadata>
  <trk>
    <name><![CDATA[Champagnat Cyclisme sur route_1]]></name>
    <trkseg>
      <trkpt lat="46.48275" lon="5.36841">
        <ele>265.8</ele>
        <time>2022-03-21T12:04:52Z</time>
      </trkpt>
      <trkpt lat="46.48267" lon="5.3683">
        <ele>264.8</ele>
        <time>2022-03-21T12:04:53Z</time>
      </trkpt>
      <trkpt lat="46.48248" lon="5.3681">
        <ele>264.4</ele>
        <time>2022-03-21T12:04:54Z</time>
      </trkpt>
      <trkpt lat="46.48248" lon="5.3681">
        <ele>263.4</ele>
        <time>2022-03-21T12:04:55Z</time>
      </trkpt>
      <trkpt lat="46.48228" lon="5.36792">
        <ele>262.4</ele>
        <time>2022-03-21T12:04:56Z</time>
      </trkpt>
      <trkpt lat="46.48218" lon="5.36784">
        <ele>260</ele>
        <time>2022-03-21T12:04:58Z</time>
      </trkpt>
      <trkpt lat="46.48198" lon="5.36768">
        <ele>258.4</ele>
        <time>2022-03-21T12:05:00Z</time>
      </trkpt>
      <trkpt lat="46.48169" lon="5.36744">
        <ele>257.2</ele>
        <time>2022-03-21T12:05:02Z</time>
      </trkpt>
      <trkpt lat="46.48159" lon="5.36737">
        <ele>255.8</ele>
        <time>2022-03-21T12:05:04Z</time>
      </trkpt>
      <trkpt lat="46.48149" lon="5.36729">
        <ele>254.6</ele>
        <time>2022-03-21T12:05:05Z</time>
      </trkpt>
      <trkpt lat="46.48121" lon="5.36709">
        <ele>253.4</ele>
        <time>2022-03-21T12:05:07Z</time>
      </trkpt>
      <trkpt lat="46.48114" lon="5.36703">
        <ele>252.6</ele>
        <time>2022-03-21T12:05:09Z</time>
      </trkpt>
      <trkpt lat="46.4811" lon="5.36695">
        <ele>252</ele>
        <time>2022-03-21T12:05:10Z</time>
      </trkpt>
      <trkpt lat="46.4811" lon="5.36686">
        <ele>251.6</ele>
        <time>2022-03-21T12:05:11Z</time>
      </trkpt>
      <trkpt lat="46.48112" lon="5.36678">
        <ele>251</ele>
        <time>2022-03-21T12:05:12Z</time>
      </trkpt>
      <trkpt lat="46.48116" lon="5.36671">
        <ele>250.6</ele>
        <time>2022-03-21T12:05:13Z</time>
      </trkpt>
      <trkpt lat="46.48121" lon="5.36665">
        <ele>249.8</ele>
        <time>2022-03-21T12:05:14Z</time>
      </trkpt>
      <trkpt lat="46.48137" lon="5.36652">
        <ele>249.4</ele>
        <time>2022-03-21T12:05:15Z</time>
      </trkpt>
      <trkpt lat="46.48182" lon="5.3661">
        <ele>246.6</ele>
        <time>2022-03-21T12:05:22Z</time>
      </trkpt>
      <trkpt lat="46.48191" lon="5.36604">
        <ele>246.4</ele>
        <time>2022-03-21T12:05:23Z</time>
      </trkpt>
      <trkpt lat="46.48206" lon="5.36602">
        <ele>246.2</ele>
        <time>2022-03-21T12:05:25Z</time>
      </trkpt>
      <trkpt lat="46.48222" lon="5.3658">
        <ele>246.2</ele>
        <time>2022-03-21T12:05:27Z</time>
      </trkpt>
      <trkpt lat="46.48235" lon="5.36551">
        <ele>245.8</ele>
        <time>2022-03-21T12:05:30Z</time>
      </trkpt>
      <trkpt lat="46.48241" lon="5.36544">
        <ele>245.8</ele>
        <time>2022-03-21T12:05:31Z</time>
      </trkpt>
      <trkpt lat="46.48248" lon="5.36537">
        <ele>245.6</ele>
        <time>2022-03-21T12:05:32Z</time>
      </trkpt>
      <trkpt lat="46.48293" lon="5.36488">
        <ele>244.6</ele>
        <time>2022-03-21T12:05:39Z</time>
      </trkpt>
      <trkpt lat="46.48307" lon="5.36473">
        <ele>244.4</ele>
        <time>2022-03-21T12:05:41Z</time>
      </trkpt>
      <trkpt lat="46.48327" lon="5.3645">
        <ele>243.2</ele>
        <time>2022-03-21T12:05:44Z</time>
      </trkpt>
      <trkpt lat="46.48339" lon="5.36437">
        <ele>242.6</ele>
        <time>2022-03-21T12:05:46Z</time>
      </trkpt>
      <trkpt lat="46.48339" lon="5.36437">
        <ele>242.2</ele>
        <time>2022-03-21T12:05:47Z</time>
      </trkpt>
      <trkpt lat="46.48376" lon="5.36398">
        <ele>241</ele>
        <time>2022-03-21T12:05:51Z</time>
      </trkpt>
      <trkpt lat="46.48381" lon="5.36392">
        <ele>240.8</ele>
        <time>2022-03-21T12:05:52Z</time>
      </trkpt>
      <trkpt lat="46.48404" lon="5.36368">
        <ele>239.8</ele>
        <time>2022-03-21T12:05:55Z</time>
      </trkpt>
      <trkpt lat="46.48419" lon="5.36357">
        <ele>239.2</ele>
        <time>2022-03-21T12:05:57Z</time>
      </trkpt>
      <trkpt lat="46.48427" lon="5.36354">
        <ele>239</ele>
        <time>2022-03-21T12:05:58Z</time>
      </trkpt>
      <trkpt lat="46.48443" lon="5.36348">
        <ele>238.8</ele>
        <time>2022-03-21T12:06:00Z</time>
      </trkpt>
      <trkpt lat="46.48459" lon="5.36345">
        <ele>238</ele>
        <time>2022-03-21T12:06:03Z</time>
      </trkpt>
      <trkpt lat="46.48491" lon="5.36341">
        <ele>237.8</ele>
        <time>2022-03-21T12:06:06Z</time>
      </trkpt>
      <trkpt lat="46.48554" lon="5.3633">
        <ele>238.4</ele>
        <time>2022-03-21T12:06:15Z</time>
      </trkpt>
      <trkpt lat="46.4857" lon="5.36328">
        <ele>238.4</ele>
        <time>2022-03-21T12:06:16Z</time>
      </trkpt>
      <trkpt lat="46.48593" lon="5.36324">
        <ele>238</ele>
        <time>2022-03-21T12:06:20Z</time>
      </trkpt>
      <trkpt lat="46.48611" lon="5.36321">
        <ele>237.4</ele>
        <time>2022-03-21T12:06:22Z</time>
      </trkpt>
      <trkpt lat="46.48622" lon="5.36315">
        <ele>237.2</ele>
        <time>2022-03-21T12:06:23Z</time>
      </trkpt>
      <trkpt lat="46.48634" lon="5.36298">
        <ele>236.6</ele>
        <time>2022-03-21T12:06:24Z</time>
      </trkpt>
      <trkpt lat="46.48639" lon="5.36284">
        <ele>235.8</ele>
        <time>2022-03-21T12:06:26Z</time>
      </trkpt>
      <trkpt lat="46.48641" lon="5.3627">
        <ele>235.4</ele>
        <time>2022-03-21T12:06:27Z</time>
      </trkpt>
      <trkpt lat="46.48644" lon="5.3623">
        <ele>234.2</ele>
        <time>2022-03-21T12:06:30Z</time>
      </trkpt>
      <trkpt lat="46.4865" lon="5.36149">
        <ele>233.2</ele>
        <time>2022-03-21T12:06:35Z</time>
      </trkpt>
      <trkpt lat="46.4865" lon="5.36149">
        <ele>233.2</ele>
        <time>2022-03-21T12:06:36Z</time>
      </trkpt>
      <trkpt lat="46.48654" lon="5.36121">
        <ele>232.8</ele>
        <time>2022-03-21T12:06:37Z</time>
      </trkpt>
      <trkpt lat="46.48654" lon="5.36121">
        <ele>232.6</ele>
        <time>2022-03-21T12:06:38Z</time>
      </trkpt>
      <trkpt lat="46.48659" lon="5.36098">
        <ele>231.8</ele>
        <time>2022-03-21T12:06:40Z</time>
      </trkpt>
      <trkpt lat="46.48671" lon="5.36043">
        <ele>231.2</ele>
        <time>2022-03-21T12:06:44Z</time>
      </trkpt>
      <trkpt lat="46.48677" lon="5.36012">
        <ele>231</ele>
        <time>2022-03-21T12:06:47Z</time>
      </trkpt>
      <trkpt lat="46.48679" lon="5.35994">
        <ele>231.2</ele>
        <time>2022-03-21T12:06:49Z</time>
      </trkpt>
      <trkpt lat="46.48688" lon="5.35929">
        <ele>232.4</ele>
        <time>2022-03-21T12:06:57Z</time>
      </trkpt>
      <trkpt lat="46.48694" lon="5.35907">
        <ele>232.6</ele>
        <time>2022-03-21T12:06:58Z</time>
      </trkpt>
      <trkpt lat="46.48697" lon="5.35897">
        <ele>232.6</ele>
        <time>2022-03-21T12:06:59Z</time>
      </trkpt>
      <trkpt lat="46.48703" lon="5.3588">
        <ele>232.6</ele>
        <time>2022-03-21T12:07:01Z</time>
      </trkpt>
      <trkpt lat="46.48732" lon="5.35809">
        <ele>231.6</ele>
        <time>2022-03-21T12:07:08Z</time>
      </trkpt>
      <trkpt lat="46.4874" lon="5.35791">
        <ele>231.2</ele>
        <time>2022-03-21T12:07:10Z</time>
      </trkpt>
      <trkpt lat="46.48748" lon="5.35775">
        <ele>230.8</ele>
        <time>2022-03-21T12:07:12Z</time>
      </trkpt>
      <trkpt lat="46.48764" lon="5.35738">
        <ele>230</ele>
        <time>2022-03-21T12:07:17Z</time>
      </trkpt>
      <trkpt lat="46.4878" lon="5.357">
        <ele>229.6</ele>
        <time>2022-03-21T12:07:21Z</time>
      </trkpt>
      <trkpt lat="46.48804" lon="5.3565">
        <ele>229.6</ele>
        <time>2022-03-21T12:07:26Z</time>
      </trkpt>
      <trkpt lat="46.48807" lon="5.35643">
        <ele>229.6</ele>
        <time>2022-03-21T12:07:27Z</time>
      </trkpt>
      <trkpt lat="46.48838" lon="5.35573">
        <ele>229.6</ele>
        <time>2022-03-21T12:07:35Z</time>
      </trkpt>
      <trkpt lat="46.48869" lon="5.35501">
        <ele>229.8</ele>
        <time>2022-03-21T12:07:44Z</time>
      </trkpt>
      <trkpt lat="46.48872" lon="5.35493">
        <ele>229.8</ele>
        <time>2022-03-21T12:07:45Z</time>
      </trkpt>
      <trkpt lat="46.48901" lon="5.35424">
        <ele>229.6</ele>
        <time>2022-03-21T12:07:53Z</time>
      </trkpt>
      <trkpt lat="46.48908" lon="5.35409">
        <ele>229.4</ele>
        <time>2022-03-21T12:07:55Z</time>
      </trkpt>
      <trkpt lat="46.4894" lon="5.35337">
        <ele>229.2</ele>
        <time>2022-03-21T12:08:03Z</time>
      </trkpt>
      <trkpt lat="46.48944" lon="5.35329">
        <ele>229</ele>
        <time>2022-03-21T12:08:04Z</time>
      </trkpt>
      <trkpt lat="46.48944" lon="5.35329">
        <ele>229</ele>
        <time>2022-03-21T12:08:05Z</time>
      </trkpt>
      <trkpt lat="46.48977" lon="5.35254">
        <ele>229</ele>
        <time>2022-03-21T12:08:13Z</time>
      </trkpt>
      <trkpt lat="46.48984" lon="5.35238">
        <ele>229</ele>
        <time>2022-03-21T12:08:15Z</time>
      </trkpt>
      <trkpt lat="46.48995" lon="5.35215">
        <ele>229</ele>
        <time>2022-03-21T12:08:18Z</time>
      </trkpt>
      <trkpt lat="46.49005" lon="5.35193">
        <ele>229</ele>
        <time>2022-03-21T12:08:21Z</time>
      </trkpt>
      <trkpt lat="46.49034" lon="5.35126">
        <ele>229.6</ele>
        <time>2022-03-21T12:08:30Z</time>
      </trkpt>
      <trkpt lat="46.49048" lon="5.3507">
        <ele>230.2</ele>
        <time>2022-03-21T12:08:36Z</time>
      </trkpt>
      <trkpt lat="46.49063" lon="5.34989">
        <ele>229.6</ele>
        <time>2022-03-21T12:08:44Z</time>
      </trkpt>
      <trkpt lat="46.49075" lon="5.34925">
        <ele>228.2</ele>
        <time>2022-03-21T12:08:50Z</time>
      </trkpt>
      <trkpt lat="46.49077" lon="5.34915">
        <ele>228.4</ele>
        <time>2022-03-21T12:08:51Z</time>
      </trkpt>
      <trkpt lat="46.49084" lon="5.34884">
        <ele>227.6</ele>
        <time>2022-03-21T12:08:55Z</time>
      </trkpt>
      <trkpt lat="46.49087" lon="5.34862">
        <ele>227.4</ele>
        <time>2022-03-21T12:08:56Z</time>
      </trkpt>
      <trkpt lat="46.49094" lon="5.34828">
        <ele>226.4</ele>
        <time>2022-03-21T12:09:00Z</time>
      </trkpt>
      <trkpt lat="46.49101" lon="5.34794">
        <ele>226.2</ele>
        <time>2022-03-21T12:09:02Z</time>
      </trkpt>
      <trkpt lat="46.49112" lon="5.34736">
        <ele>225</ele>
        <time>2022-03-21T12:09:08Z</time>
      </trkpt>
      <trkpt lat="46.49128" lon="5.34658">
        <ele>224.2</ele>
        <time>2022-03-21T12:09:14Z</time>
      </trkpt>
      <trkpt lat="46.4913" lon="5.34648">
        <ele>224</ele>
        <time>2022-03-21T12:09:15Z</time>
      </trkpt>
      <trkpt lat="46.49139" lon="5.34606">
        <ele>223.6</ele>
        <time>2022-03-21T12:09:20Z</time>
      </trkpt>
      <trkpt lat="46.49141" lon="5.34599">
        <ele>223.8</ele>
        <time>2022-03-21T12:09:21Z</time>
      </trkpt>
      <trkpt lat="46.49153" lon="5.3453">
        <ele>224.4</ele>
        <time>2022-03-21T12:09:29Z</time>
      </trkpt>
      <trkpt lat="46.49167" lon="5.34455">
        <ele>223.8</ele>
        <time>2022-03-21T12:09:37Z</time>
      </trkpt>
      <trkpt lat="46.49176" lon="5.34411">
        <ele>223.6</ele>
        <time>2022-03-21T12:09:42Z</time>
      </trkpt>
      <trkpt lat="46.49181" lon="5.34387">
        <ele>223.8</ele>
        <time>2022-03-21T12:09:45Z</time>
      </trkpt>
      <trkpt lat="46.49191" lon="5.3434">
        <ele>224.6</ele>
        <time>2022-03-21T12:09:51Z</time>
      </trkpt>
      <trkpt lat="46.49196" lon="5.34312">
        <ele>225.2</ele>
        <time>2022-03-21T12:09:54Z</time>
      </trkpt>
      <trkpt lat="46.492" lon="5.34291">
        <ele>225.2</ele>
        <time>2022-03-21T12:09:57Z</time>
      </trkpt>
      <trkpt lat="46.49215" lon="5.34206">
        <ele>224.8</ele>
        <time>2022-03-21T12:10:04Z</time>
      </trkpt>
      <trkpt lat="46.49222" lon="5.34166">
        <ele>224.2</ele>
        <time>2022-03-21T12:10:09Z</time>
      </trkpt>
      <trkpt lat="46.49231" lon="5.34128">
        <ele>224</ele>
        <time>2022-03-21T12:10:12Z</time>
      </trkpt>
      <trkpt lat="46.4924" lon="5.34081">
        <ele>224.6</ele>
        <time>2022-03-21T12:10:18Z</time>
      </trkpt>
      <trkpt lat="46.49247" lon="5.34054">
        <ele>225.2</ele>
        <time>2022-03-21T12:10:22Z</time>
      </trkpt>
      <trkpt lat="46.49251" lon="5.34033">
        <ele>225.8</ele>
        <time>2022-03-21T12:10:25Z</time>
      </trkpt>
      <trkpt lat="46.49254" lon="5.34018">
        <ele>226.4</ele>
        <time>2022-03-21T12:10:27Z</time>
      </trkpt>
      <trkpt lat="46.49265" lon="5.33952">
        <ele>227.2</ele>
        <time>2022-03-21T12:10:35Z</time>
      </trkpt>
      <trkpt lat="46.49268" lon="5.33935">
        <ele>227.2</ele>
        <time>2022-03-21T12:10:37Z</time>
      </trkpt>
      <trkpt lat="46.49274" lon="5.33901">
        <ele>227.2</ele>
        <time>2022-03-21T12:10:41Z</time>
      </trkpt>
      <trkpt lat="46.49278" lon="5.33883">
        <ele>227.4</ele>
        <time>2022-03-21T12:10:43Z</time>
      </trkpt>
      <trkpt lat="46.49289" lon="5.33827">
        <ele>227.2</ele>
        <time>2022-03-21T12:10:49Z</time>
      </trkpt>
      <trkpt lat="46.49303" lon="5.33742">
        <ele>226.8</ele>
        <time>2022-03-21T12:10:58Z</time>
      </trkpt>
      <trkpt lat="46.49304" lon="5.33732">
        <ele>226.8</ele>
        <time>2022-03-21T12:10:59Z</time>
      </trkpt>
      <trkpt lat="46.49308" lon="5.3366">
        <ele>226.2</ele>
        <time>2022-03-21T12:11:07Z</time>
      </trkpt>
      <trkpt lat="46.49308" lon="5.33639">
        <ele>226.2</ele>
        <time>2022-03-21T12:11:08Z</time>
      </trkpt>
      <trkpt lat="46.4931" lon="5.33618">
        <ele>225.8</ele>
        <time>2022-03-21T12:11:10Z</time>
      </trkpt>
      <trkpt lat="46.49316" lon="5.33587">
        <ele>225.6</ele>
        <time>2022-03-21T12:11:13Z</time>
      </trkpt>
      <trkpt lat="46.4932" lon="5.33567">
        <ele>225.2</ele>
        <time>2022-03-21T12:11:15Z</time>
      </trkpt>
      <trkpt lat="46.49321" lon="5.33538">
        <ele>225.2</ele>
        <time>2022-03-21T12:11:18Z</time>
      </trkpt>
      <trkpt lat="46.49321" lon="5.3353">
        <ele>225</ele>
        <time>2022-03-21T12:11:19Z</time>
      </trkpt>
      <trkpt lat="46.49316" lon="5.3348">
        <ele>225</ele>
        <time>2022-03-21T12:11:24Z</time>
      </trkpt>
      <trkpt lat="46.49302" lon="5.334">
        <ele>224.8</ele>
        <time>2022-03-21T12:11:33Z</time>
      </trkpt>
      <trkpt lat="46.49285" lon="5.33319">
        <ele>224.2</ele>
        <time>2022-03-21T12:11:41Z</time>
      </trkpt>
      <trkpt lat="46.49283" lon="5.33309">
        <ele>224.2</ele>
        <time>2022-03-21T12:11:42Z</time>
      </trkpt>
      <trkpt lat="46.49282" lon="5.33301">
        <ele>224</ele>
        <time>2022-03-21T12:11:43Z</time>
      </trkpt>
      <trkpt lat="46.4927" lon="5.33241">
        <ele>222.8</ele>
        <time>2022-03-21T12:11:49Z</time>
      </trkpt>
      <trkpt lat="46.4927" lon="5.33241">
        <ele>222.8</ele>
        <time>2022-03-21T12:11:50Z</time>
      </trkpt>
      <trkpt lat="46.49264" lon="5.33222">
        <ele>222.6</ele>
        <time>2022-03-21T12:11:51Z</time>
      </trkpt>
      <trkpt lat="46.49256" lon="5.33205">
        <ele>222.4</ele>
        <time>2022-03-21T12:11:53Z</time>
      </trkpt>
      <trkpt lat="46.49251" lon="5.33197">
        <ele>222.4</ele>
        <time>2022-03-21T12:11:54Z</time>
      </trkpt>
      <trkpt lat="46.49239" lon="5.33184">
        <ele>222.2</ele>
        <time>2022-03-21T12:11:56Z</time>
      </trkpt>
      <trkpt lat="46.49226" lon="5.33175">
        <ele>221.8</ele>
        <time>2022-03-21T12:11:58Z</time>
      </trkpt>
      <trkpt lat="46.4922" lon="5.33172">
        <ele>221.6</ele>
        <time>2022-03-21T12:11:59Z</time>
      </trkpt>
      <trkpt lat="46.49182" lon="5.33139">
        <ele>220.8</ele>
        <time>2022-03-21T12:12:05Z</time>
      </trkpt>
      <trkpt lat="46.49168" lon="5.33124">
        <ele>220.6</ele>
        <time>2022-03-21T12:12:07Z</time>
      </trkpt>
      <trkpt lat="46.49163" lon="5.33117">
        <ele>220.2</ele>
        <time>2022-03-21T12:12:08Z</time>
      </trkpt>
      <trkpt lat="46.4916" lon="5.3311">
        <ele>220</ele>
        <time>2022-03-21T12:12:09Z</time>
      </trkpt>
      <trkpt lat="46.49145" lon="5.33065">
        <ele>219.8</ele>
        <time>2022-03-21T12:12:14Z</time>
      </trkpt>
      <trkpt lat="46.49133" lon="5.3301">
        <ele>219.8</ele>
        <time>2022-03-21T12:12:20Z</time>
      </trkpt>
      <trkpt lat="46.49129" lon="5.32967">
        <ele>219.4</ele>
        <time>2022-03-21T12:12:24Z</time>
      </trkpt>
      <trkpt lat="46.49128" lon="5.32956">
        <ele>219.2</ele>
        <time>2022-03-21T12:12:26Z</time>
      </trkpt>
      <trkpt lat="46.49128" lon="5.32901">
        <ele>218.4</ele>
        <time>2022-03-21T12:12:30Z</time>
      </trkpt>
      <trkpt lat="46.49129" lon="5.32891">
        <ele>218.2</ele>
        <time>2022-03-21T12:12:31Z</time>
      </trkpt>
      <trkpt lat="46.49131" lon="5.32877">
        <ele>218.2</ele>
        <time>2022-03-21T12:12:32Z</time>
      </trkpt>
      <trkpt lat="46.49138" lon="5.32849">
        <ele>217.8</ele>
        <time>2022-03-21T12:12:35Z</time>
      </trkpt>
      <trkpt lat="46.49147" lon="5.32809">
        <ele>217.8</ele>
        <time>2022-03-21T12:12:39Z</time>
      </trkpt>
      <trkpt lat="46.49147" lon="5.32802">
        <ele>217.8</ele>
        <time>2022-03-21T12:12:40Z</time>
      </trkpt>
      <trkpt lat="46.49146" lon="5.32792">
        <ele>217.8</ele>
        <time>2022-03-21T12:12:41Z</time>
      </trkpt>
      <trkpt lat="46.4914" lon="5.32754">
        <ele>217.8</ele>
        <time>2022-03-21T12:12:45Z</time>
      </trkpt>
      <trkpt lat="46.49135" lon="5.32728">
        <ele>218</ele>
        <time>2022-03-21T12:12:48Z</time>
      </trkpt>
      <trkpt lat="46.49128" lon="5.32711">
        <ele>218</ele>
        <time>2022-03-21T12:12:50Z</time>
      </trkpt>
      <trkpt lat="46.4912" lon="5.32697">
        <ele>218</ele>
        <time>2022-03-21T12:12:52Z</time>
      </trkpt>
      <trkpt lat="46.49107" lon="5.32688">
        <ele>217.8</ele>
        <time>2022-03-21T12:12:54Z</time>
      </trkpt>
      <trkpt lat="46.49095" lon="5.32688">
        <ele>217.8</ele>
        <time>2022-03-21T12:12:56Z</time>
      </trkpt>
      <trkpt lat="46.49088" lon="5.3269">
        <ele>217.8</ele>
        <time>2022-03-21T12:12:57Z</time>
      </trkpt>
      <trkpt lat="46.49054" lon="5.32696">
        <ele>217.2</ele>
        <time>2022-03-21T12:13:01Z</time>
      </trkpt>
      <trkpt lat="46.49039" lon="5.327">
        <ele>216.8</ele>
        <time>2022-03-21T12:13:03Z</time>
      </trkpt>
      <trkpt lat="46.4902" lon="5.32703">
        <ele>216.2</ele>
        <time>2022-03-21T12:13:05Z</time>
      </trkpt>
      <trkpt lat="46.48994" lon="5.32707">
        <ele>215</ele>
        <time>2022-03-21T12:13:08Z</time>
      </trkpt>
      <trkpt lat="46.48982" lon="5.32707">
        <ele>214.6</ele>
        <time>2022-03-21T12:13:09Z</time>
      </trkpt>
      <trkpt lat="46.48973" lon="5.32705">
        <ele>214.4</ele>
        <time>2022-03-21T12:13:10Z</time>
      </trkpt>
      <trkpt lat="46.48955" lon="5.32698">
        <ele>213</ele>
        <time>2022-03-21T12:13:12Z</time>
      </trkpt>
      <trkpt lat="46.48947" lon="5.32691">
        <ele>212.6</ele>
        <time>2022-03-21T12:13:13Z</time>
      </trkpt>
      <trkpt lat="46.48929" lon="5.3267">
        <ele>211.4</ele>
        <time>2022-03-21T12:13:15Z</time>
      </trkpt>
      <trkpt lat="46.48922" lon="5.32658">
        <ele>211</ele>
        <time>2022-03-21T12:13:16Z</time>
      </trkpt>
      <trkpt lat="46.48919" lon="5.32644">
        <ele>210.4</ele>
        <time>2022-03-21T12:13:17Z</time>
      </trkpt>
      <trkpt lat="46.48918" lon="5.32632">
        <ele>210</ele>
        <time>2022-03-21T12:13:18Z</time>
      </trkpt>
      <trkpt lat="46.48919" lon="5.32618">
        <ele>209.4</ele>
        <time>2022-03-21T12:13:19Z</time>
      </trkpt>
      <trkpt lat="46.48924" lon="5.32603">
        <ele>209</ele>
        <time>2022-03-21T12:13:20Z</time>
      </trkpt>
      <trkpt lat="46.48931" lon="5.3259">
        <ele>208</ele>
        <time>2022-03-21T12:13:21Z</time>
      </trkpt>
      <trkpt lat="46.48939" lon="5.32579">
        <ele>207</ele>
        <time>2022-03-21T12:13:22Z</time>
      </trkpt>
      <trkpt lat="46.48953" lon="5.32556">
        <ele>205.8</ele>
        <time>2022-03-21T12:13:24Z</time>
      </trkpt>
      <trkpt lat="46.48957" lon="5.3254">
        <ele>205.2</ele>
        <time>2022-03-21T12:13:25Z</time>
      </trkpt>
      <trkpt lat="46.48957" lon="5.32525">
        <ele>204.4</ele>
        <time>2022-03-21T12:13:26Z</time>
      </trkpt>
      <trkpt lat="46.48955" lon="5.32511">
        <ele>204</ele>
        <time>2022-03-21T12:13:27Z</time>
      </trkpt>
      <trkpt lat="46.48953" lon="5.325">
        <ele>203</ele>
        <time>2022-03-21T12:13:28Z</time>
      </trkpt>
      <trkpt lat="46.48949" lon="5.32488">
        <ele>201.8</ele>
        <time>2022-03-21T12:13:30Z</time>
      </trkpt>
      <trkpt lat="46.48941" lon="5.3246">
        <ele>201.4</ele>
        <time>2022-03-21T12:13:31Z</time>
      </trkpt>
      <trkpt lat="46.48921" lon="5.32392">
        <ele>201.2</ele>
        <time>2022-03-21T12:13:37Z</time>
      </trkpt>
      <trkpt lat="46.48909" lon="5.32348">
        <ele>201.6</ele>
        <time>2022-03-21T12:13:41Z</time>
      </trkpt>
      <trkpt lat="46.489" lon="5.32329">
        <ele>201.8</ele>
        <time>2022-03-21T12:13:43Z</time>
      </trkpt>
      <trkpt lat="46.48879" lon="5.32297">
        <ele>202.6</ele>
        <time>2022-03-21T12:13:48Z</time>
      </trkpt>
      <trkpt lat="46.4887" lon="5.32284">
        <ele>203.2</ele>
        <time>2022-03-21T12:13:51Z</time>
      </trkpt>
      <trkpt lat="46.4886" lon="5.32271">
        <ele>204</ele>
        <time>2022-03-21T12:13:54Z</time>
      </trkpt>
      <trkpt lat="46.48858" lon="5.32268">
        <ele>204.4</ele>
        <time>2022-03-21T12:13:55Z</time>
      </trkpt>
      <trkpt lat="46.48849" lon="5.32255">
        <ele>205.8</ele>
        <time>2022-03-21T12:13:58Z</time>
      </trkpt>
      <trkpt lat="46.48846" lon="5.3225">
        <ele>206.2</ele>
        <time>2022-03-21T12:13:59Z</time>
      </trkpt>
      <trkpt lat="46.48842" lon="5.32242">
        <ele>207</ele>
        <time>2022-03-21T12:14:01Z</time>
      </trkpt>
      <trkpt lat="46.48834" lon="5.32223">
        <ele>207.8</ele>
        <time>2022-03-21T12:14:04Z</time>
      </trkpt>
      <trkpt lat="46.48833" lon="5.32217">
        <ele>208.2</ele>
        <time>2022-03-21T12:14:05Z</time>
      </trkpt>
      <trkpt lat="46.48832" lon="5.3221">
        <ele>208.4</ele>
        <time>2022-03-21T12:14:06Z</time>
      </trkpt>
      <trkpt lat="46.48826" lon="5.32161">
        <ele>208.4</ele>
        <time>2022-03-21T12:14:12Z</time>
      </trkpt>
      <trkpt lat="46.48827" lon="5.3213">
        <ele>207.8</ele>
        <time>2022-03-21T12:14:15Z</time>
      </trkpt>
      <trkpt lat="46.48829" lon="5.32113">
        <ele>207.2</ele>
        <time>2022-03-21T12:14:17Z</time>
      </trkpt>
      <trkpt lat="46.48831" lon="5.32101">
        <ele>207</ele>
        <time>2022-03-21T12:14:18Z</time>
      </trkpt>
      <trkpt lat="46.48841" lon="5.32052">
        <ele>206</ele>
        <time>2022-03-21T12:14:23Z</time>
      </trkpt>
      <trkpt lat="46.48845" lon="5.3203">
        <ele>205.8</ele>
        <time>2022-03-21T12:14:25Z</time>
      </trkpt>
      <trkpt lat="46.48849" lon="5.31988">
        <ele>205.2</ele>
        <time>2022-03-21T12:14:29Z</time>
      </trkpt>
      <trkpt lat="46.48849" lon="5.31966">
        <ele>205</ele>
        <time>2022-03-21T12:14:31Z</time>
      </trkpt>
      <trkpt lat="46.48842" lon="5.31888">
        <ele>204</ele>
        <time>2022-03-21T12:14:38Z</time>
      </trkpt>
      <trkpt lat="46.4884" lon="5.3188">
        <ele>204</ele>
        <time>2022-03-21T12:14:39Z</time>
      </trkpt>
      <trkpt lat="46.48836" lon="5.3187">
        <ele>203.8</ele>
        <time>2022-03-21T12:14:40Z</time>
      </trkpt>
      <trkpt lat="46.48825" lon="5.31855">
        <ele>203.6</ele>
        <time>2022-03-21T12:14:42Z</time>
      </trkpt>
      <trkpt lat="46.48803" lon="5.31844">
        <ele>203</ele>
        <time>2022-03-21T12:14:45Z</time>
      </trkpt>
      <trkpt lat="46.48797" lon="5.3184">
        <ele>203</ele>
        <time>2022-03-21T12:14:46Z</time>
      </trkpt>
      <trkpt lat="46.48786" lon="5.31827">
        <ele>202.8</ele>
        <time>2022-03-21T12:14:48Z</time>
      </trkpt>
      <trkpt lat="46.48782" lon="5.3181">
        <ele>202.8</ele>
        <time>2022-03-21T12:14:50Z</time>
      </trkpt>
      <trkpt lat="46.48781" lon="5.31799">
        <ele>202.8</ele>
        <time>2022-03-21T12:14:51Z</time>
      </trkpt>
      <trkpt lat="46.48778" lon="5.31732">
        <ele>203</ele>
        <time>2022-03-21T12:14:58Z</time>
      </trkpt>
      <trkpt lat="46.4877" lon="5.31709">
        <ele>203.2</ele>
        <time>2022-03-21T12:15:01Z</time>
      </trkpt>
      <trkpt lat="46.48762" lon="5.31696">
        <ele>203.2</ele>
        <time>2022-03-21T12:15:03Z</time>
      </trkpt>
      <trkpt lat="46.48755" lon="5.31685">
        <ele>203.6</ele>
        <time>2022-03-21T12:15:05Z</time>
      </trkpt>
      <trkpt lat="46.48743" lon="5.31673">
        <ele>204</ele>
        <time>2022-03-21T12:15:07Z</time>
      </trkpt>
      <trkpt lat="46.48724" lon="5.31651">
        <ele>204.4</ele>
        <time>2022-03-21T12:15:11Z</time>
      </trkpt>
      <trkpt lat="46.48701" lon="5.31621">
        <ele>204.2</ele>
        <time>2022-03-21T12:15:16Z</time>
      </trkpt>
      <trkpt lat="46.48693" lon="5.31609">
        <ele>204.2</ele>
        <time>2022-03-21T12:15:18Z</time>
      </trkpt>
      <trkpt lat="46.48663" lon="5.31572">
        <ele>204.2</ele>
        <time>2022-03-21T12:15:24Z</time>
      </trkpt>
      <trkpt lat="46.48637" lon="5.31536">
        <ele>204.6</ele>
        <time>2022-03-21T12:15:30Z</time>
      </trkpt>
      <trkpt lat="46.48628" lon="5.31524">
        <ele>204.6</ele>
        <time>2022-03-21T12:15:32Z</time>
      </trkpt>
      <trkpt lat="46.4862" lon="5.31514">
        <ele>204.6</ele>
        <time>2022-03-21T12:15:34Z</time>
      </trkpt>
      <trkpt lat="46.48616" lon="5.31509">
        <ele>204.8</ele>
        <time>2022-03-21T12:15:35Z</time>
      </trkpt>
      <trkpt lat="46.48613" lon="5.31502">
        <ele>204.8</ele>
        <time>2022-03-21T12:15:36Z</time>
      </trkpt>
      <trkpt lat="46.48609" lon="5.31489">
        <ele>204.8</ele>
        <time>2022-03-21T12:15:38Z</time>
      </trkpt>
      <trkpt lat="46.48609" lon="5.31478">
        <ele>204.8</ele>
        <time>2022-03-21T12:15:39Z</time>
      </trkpt>
      <trkpt lat="46.4861" lon="5.31444">
        <ele>204.6</ele>
        <time>2022-03-21T12:15:43Z</time>
      </trkpt>
      <trkpt lat="46.48608" lon="5.31434">
        <ele>204.6</ele>
        <time>2022-03-21T12:15:44Z</time>
      </trkpt>
      <trkpt lat="46.48606" lon="5.31427">
        <ele>204.4</ele>
        <time>2022-03-21T12:15:45Z</time>
      </trkpt>
      <trkpt lat="46.48601" lon="5.31415">
        <ele>204.4</ele>
        <time>2022-03-21T12:15:47Z</time>
      </trkpt>
      <trkpt lat="46.48597" lon="5.3141">
        <ele>204.8</ele>
        <time>2022-03-21T12:15:48Z</time>
      </trkpt>
      <trkpt lat="46.48589" lon="5.31401">
        <ele>204.8</ele>
        <time>2022-03-21T12:15:50Z</time>
      </trkpt>
      <trkpt lat="46.48581" lon="5.31393">
        <ele>204.8</ele>
        <time>2022-03-21T12:15:52Z</time>
      </trkpt>
      <trkpt lat="46.48579" lon="5.3139">
        <ele>205</ele>
        <time>2022-03-21T12:15:53Z</time>
      </trkpt>
      <trkpt lat="46.48567" lon="5.3137">
        <ele>205.8</ele>
        <time>2022-03-21T12:15:57Z</time>
      </trkpt>
      <trkpt lat="46.48565" lon="5.31364">
        <ele>206</ele>
        <time>2022-03-21T12:15:58Z</time>
      </trkpt>
      <trkpt lat="46.48562" lon="5.31354">
        <ele>206.4</ele>
        <time>2022-03-21T12:16:00Z</time>
      </trkpt>
      <trkpt lat="46.48559" lon="5.31333">
        <ele>207</ele>
        <time>2022-03-21T12:16:04Z</time>
      </trkpt>
      <trkpt lat="46.48558" lon="5.3132">
        <ele>207.6</ele>
        <time>2022-03-21T12:16:06Z</time>
      </trkpt>
      <trkpt lat="46.48557" lon="5.31309">
        <ele>208</ele>
        <time>2022-03-21T12:16:08Z</time>
      </trkpt>
      <trkpt lat="46.48554" lon="5.31267">
        <ele>209.4</ele>
        <time>2022-03-21T12:16:15Z</time>
      </trkpt>
      <trkpt lat="46.48554" lon="5.31253">
        <ele>209.6</ele>
        <time>2022-03-21T12:16:17Z</time>
      </trkpt>
      <trkpt lat="46.48556" lon="5.3124">
        <ele>209.8</ele>
        <time>2022-03-21T12:16:19Z</time>
      </trkpt>
      <trkpt lat="46.48557" lon="5.31236">
        <ele>209.8</ele>
        <time>2022-03-21T12:16:20Z</time>
      </trkpt>
      <trkpt lat="46.48561" lon="5.31223">
        <ele>209.8</ele>
        <time>2022-03-21T12:16:22Z</time>
      </trkpt>
      <trkpt lat="46.48571" lon="5.31204">
        <ele>210.4</ele>
        <time>2022-03-21T12:16:26Z</time>
      </trkpt>
      <trkpt lat="46.48579" lon="5.31187">
        <ele>210.8</ele>
        <time>2022-03-21T12:16:29Z</time>
      </trkpt>
      <trkpt lat="46.48589" lon="5.31167">
        <ele>211.2</ele>
        <time>2022-03-21T12:16:33Z</time>
      </trkpt>
      <trkpt lat="46.48591" lon="5.31161">
        <ele>211.4</ele>
        <time>2022-03-21T12:16:34Z</time>
      </trkpt>
      <trkpt lat="46.48609" lon="5.31125">
        <ele>212.4</ele>
        <time>2022-03-21T12:16:41Z</time>
      </trkpt>
      <trkpt lat="46.48614" lon="5.31114">
        <ele>212.8</ele>
        <time>2022-03-21T12:16:43Z</time>
      </trkpt>
      <trkpt lat="46.48629" lon="5.31084">
        <ele>213.4</ele>
        <time>2022-03-21T12:16:49Z</time>
      </trkpt>
      <trkpt lat="46.48637" lon="5.3107">
        <ele>214</ele>
        <time>2022-03-21T12:16:52Z</time>
      </trkpt>
      <trkpt lat="46.48644" lon="5.31054">
        <ele>214.6</ele>
        <time>2022-03-21T12:16:55Z</time>
      </trkpt>
      <trkpt lat="46.48648" lon="5.31045">
        <ele>215</ele>
        <time>2022-03-21T12:16:57Z</time>
      </trkpt>
      <trkpt lat="46.48659" lon="5.31023">
        <ele>215.6</ele>
        <time>2022-03-21T12:17:01Z</time>
      </trkpt>
      <trkpt lat="46.48671" lon="5.30996">
        <ele>216.2</ele>
        <time>2022-03-21T12:17:06Z</time>
      </trkpt>
      <trkpt lat="46.48694" lon="5.30949">
        <ele>217.2</ele>
        <time>2022-03-21T12:17:14Z</time>
      </trkpt>
      <trkpt lat="46.48704" lon="5.30929">
        <ele>217.2</ele>
        <time>2022-03-21T12:17:17Z</time>
      </trkpt>
      <trkpt lat="46.48714" lon="5.30916">
        <ele>217</ele>
        <time>2022-03-21T12:17:19Z</time>
      </trkpt>
      <trkpt lat="46.48719" lon="5.30908">
        <ele>216.8</ele>
        <time>2022-03-21T12:17:20Z</time>
      </trkpt>
      <trkpt lat="46.48725" lon="5.30889">
        <ele>216.4</ele>
        <time>2022-03-21T12:17:22Z</time>
      </trkpt>
      <trkpt lat="46.48722" lon="5.30869">
        <ele>215.8</ele>
        <time>2022-03-21T12:17:24Z</time>
      </trkpt>
      <trkpt lat="46.48717" lon="5.3086">
        <ele>215.6</ele>
        <time>2022-03-21T12:17:25Z</time>
      </trkpt>
      <trkpt lat="46.48712" lon="5.30853">
        <ele>215.2</ele>
        <time>2022-03-21T12:17:26Z</time>
      </trkpt>
      <trkpt lat="46.48706" lon="5.30847">
        <ele>214.6</ele>
        <time>2022-03-21T12:17:27Z</time>
      </trkpt>
      <trkpt lat="46.48699" lon="5.30841">
        <ele>214.4</ele>
        <time>2022-03-21T12:17:28Z</time>
      </trkpt>
      <trkpt lat="46.48665" lon="5.3082">
        <ele>213.4</ele>
        <time>2022-03-21T12:17:33Z</time>
      </trkpt>
      <trkpt lat="46.48658" lon="5.30815">
        <ele>213.2</ele>
        <time>2022-03-21T12:17:34Z</time>
      </trkpt>
      <trkpt lat="46.4862" lon="5.30792">
        <ele>212.4</ele>
        <time>2022-03-21T12:17:39Z</time>
      </trkpt>
      <trkpt lat="46.48601" lon="5.30778">
        <ele>212</ele>
        <time>2022-03-21T12:17:42Z</time>
      </trkpt>
      <trkpt lat="46.48595" lon="5.30773">
        <ele>211.8</ele>
        <time>2022-03-21T12:17:43Z</time>
      </trkpt>
      <trkpt lat="46.48581" lon="5.3076">
        <ele>211.6</ele>
        <time>2022-03-21T12:17:46Z</time>
      </trkpt>
      <trkpt lat="46.4856" lon="5.30734">
        <ele>212.4</ele>
        <time>2022-03-21T12:17:51Z</time>
      </trkpt>
      <trkpt lat="46.48558" lon="5.3073">
        <ele>212.6</ele>
        <time>2022-03-21T12:17:52Z</time>
      </trkpt>
      <trkpt lat="46.4855" lon="5.3071">
        <ele>213.2</ele>
        <time>2022-03-21T12:17:55Z</time>
      </trkpt>
      <trkpt lat="46.48548" lon="5.30697">
        <ele>213.6</ele>
        <time>2022-03-21T12:17:57Z</time>
      </trkpt>
      <trkpt lat="46.48546" lon="5.30685">
        <ele>213.8</ele>
        <time>2022-03-21T12:17:59Z</time>
      </trkpt>
      <trkpt lat="46.48545" lon="5.30674">
        <ele>214</ele>
        <time>2022-03-21T12:18:01Z</time>
      </trkpt>
      <trkpt lat="46.48545" lon="5.30668">
        <ele>214</ele>
        <time>2022-03-21T12:18:02Z</time>
      </trkpt>
      <trkpt lat="46.48548" lon="5.30642">
        <ele>214.6</ele>
        <time>2022-03-21T12:18:06Z</time>
      </trkpt>
      <trkpt lat="46.48549" lon="5.30636">
        <ele>214.8</ele>
        <time>2022-03-21T12:18:07Z</time>
      </trkpt>
      <trkpt lat="46.48552" lon="5.30613">
        <ele>216</ele>
        <time>2022-03-21T12:18:11Z</time>
      </trkpt>
      <trkpt lat="46.48553" lon="5.30606">
        <ele>216.2</ele>
        <time>2022-03-21T12:18:12Z</time>
      </trkpt>
      <trkpt lat="46.48557" lon="5.3057">
        <ele>217</ele>
        <time>2022-03-21T12:18:18Z</time>
      </trkpt>
      <trkpt lat="46.48561" lon="5.3054">
        <ele>217.8</ele>
        <time>2022-03-21T12:18:23Z</time>
      </trkpt>
      <trkpt lat="46.48562" lon="5.30524">
        <ele>218.2</ele>
        <time>2022-03-21T12:18:25Z</time>
      </trkpt>
      <trkpt lat="46.48565" lon="5.30498">
        <ele>218.8</ele>
        <time>2022-03-21T12:18:30Z</time>
      </trkpt>
      <trkpt lat="46.48565" lon="5.30491">
        <ele>219</ele>
        <time>2022-03-21T12:18:32Z</time>
      </trkpt>
      <trkpt lat="46.48563" lon="5.30488">
        <ele>219</ele>
        <time>2022-03-21T12:18:33Z</time>
      </trkpt>
      <trkpt lat="46.4856" lon="5.30488">
        <ele>219</ele>
        <time>2022-03-21T12:18:34Z</time>
      </trkpt>
      <trkpt lat="46.48553" lon="5.30491">
        <ele>219</ele>
        <time>2022-03-21T12:18:36Z</time>
      </trkpt>
      <trkpt lat="46.48528" lon="5.30507">
        <ele>218.8</ele>
        <time>2022-03-21T12:18:42Z</time>
      </trkpt>
      <trkpt lat="46.48491" lon="5.30537">
        <ele>219</ele>
        <time>2022-03-21T12:18:50Z</time>
      </trkpt>
      <trkpt lat="46.48462" lon="5.30565">
        <ele>219.2</ele>
        <time>2022-03-21T12:18:56Z</time>
      </trkpt>
      <trkpt lat="46.48419" lon="5.30606">
        <ele>219</ele>
        <time>2022-03-21T12:19:04Z</time>
      </trkpt>
      <trkpt lat="46.48376" lon="5.30647">
        <ele>218</ele>
        <time>2022-03-21T12:19:12Z</time>
      </trkpt>
      <trkpt lat="46.48341" lon="5.30679">
        <ele>217.6</ele>
        <time>2022-03-21T12:19:18Z</time>
      </trkpt>
      <trkpt lat="46.48328" lon="5.30688">
        <ele>217.6</ele>
        <time>2022-03-21T12:19:20Z</time>
      </trkpt>
      <trkpt lat="46.48295" lon="5.30696">
        <ele>217.2</ele>
        <time>2022-03-21T12:19:25Z</time>
      </trkpt>
      <trkpt lat="46.4827" lon="5.30693">
        <ele>217.2</ele>
        <time>2022-03-21T12:19:29Z</time>
      </trkpt>
      <trkpt lat="46.48264" lon="5.30691">
        <ele>217.2</ele>
        <time>2022-03-21T12:19:30Z</time>
      </trkpt>
      <trkpt lat="46.48236" lon="5.30686">
        <ele>217.4</ele>
        <time>2022-03-21T12:19:35Z</time>
      </trkpt>
      <trkpt lat="46.48209" lon="5.30687">
        <ele>217.8</ele>
        <time>2022-03-21T12:19:40Z</time>
      </trkpt>
      <trkpt lat="46.48204" lon="5.30689">
        <ele>217.8</ele>
        <time>2022-03-21T12:19:41Z</time>
      </trkpt>
      <trkpt lat="46.48195" lon="5.30692">
        <ele>218.2</ele>
        <time>2022-03-21T12:19:43Z</time>
      </trkpt>
      <trkpt lat="46.4817" lon="5.30705">
        <ele>219.4</ele>
        <time>2022-03-21T12:19:48Z</time>
      </trkpt>
      <trkpt lat="46.48156" lon="5.30714">
        <ele>219.8</ele>
        <time>2022-03-21T12:19:51Z</time>
      </trkpt>
      <trkpt lat="46.48141" lon="5.30721">
        <ele>220.4</ele>
        <time>2022-03-21T12:19:54Z</time>
      </trkpt>
      <trkpt lat="46.48137" lon="5.30723">
        <ele>220.6</ele>
        <time>2022-03-21T12:19:55Z</time>
      </trkpt>
      <trkpt lat="46.48106" lon="5.3074">
        <ele>221.4</ele>
        <time>2022-03-21T12:20:01Z</time>
      </trkpt>
      <trkpt lat="46.48072" lon="5.30759">
        <ele>222</ele>
        <time>2022-03-21T12:20:08Z</time>
      </trkpt>
      <trkpt lat="46.48045" lon="5.30773">
        <ele>222.6</ele>
        <time>2022-03-21T12:20:13Z</time>
      </trkpt>
      <trkpt lat="46.48021" lon="5.30786">
        <ele>222.4</ele>
        <time>2022-03-21T12:20:17Z</time>
      </trkpt>
      <trkpt lat="46.47974" lon="5.30811">
        <ele>222</ele>
        <time>2022-03-21T12:20:24Z</time>
      </trkpt>
      <trkpt lat="46.47952" lon="5.30817">
        <ele>221.4</ele>
        <time>2022-03-21T12:20:27Z</time>
      </trkpt>
      <trkpt lat="46.47938" lon="5.30818">
        <ele>221</ele>
        <time>2022-03-21T12:20:29Z</time>
      </trkpt>
      <trkpt lat="46.47915" lon="5.30814">
        <ele>220.6</ele>
        <time>2022-03-21T12:20:33Z</time>
      </trkpt>
      <trkpt lat="46.47891" lon="5.30804">
        <ele>221.6</ele>
        <time>2022-03-21T12:20:39Z</time>
      </trkpt>
      <trkpt lat="46.47876" lon="5.30799">
        <ele>222.6</ele>
        <time>2022-03-21T12:20:43Z</time>
      </trkpt>
      <trkpt lat="46.47864" lon="5.30798">
        <ele>223.4</ele>
        <time>2022-03-21T12:20:46Z</time>
      </trkpt>
      <trkpt lat="46.4786" lon="5.30798">
        <ele>223.8</ele>
        <time>2022-03-21T12:20:47Z</time>
      </trkpt>
      <trkpt lat="46.47849" lon="5.308">
        <ele>224.8</ele>
        <time>2022-03-21T12:20:50Z</time>
      </trkpt>
      <trkpt lat="46.47838" lon="5.30806">
        <ele>225.6</ele>
        <time>2022-03-21T12:20:53Z</time>
      </trkpt>
      <trkpt lat="46.47832" lon="5.30811">
        <ele>226.2</ele>
        <time>2022-03-21T12:20:55Z</time>
      </trkpt>
      <trkpt lat="46.47815" lon="5.30829">
        <ele>227.4</ele>
        <time>2022-03-21T12:21:00Z</time>
      </trkpt>
      <trkpt lat="46.47793" lon="5.30862">
        <ele>228.8</ele>
        <time>2022-03-21T12:21:07Z</time>
      </trkpt>
      <trkpt lat="46.47768" lon="5.30893">
        <ele>229</ele>
        <time>2022-03-21T12:21:13Z</time>
      </trkpt>
      <trkpt lat="46.47757" lon="5.30901">
        <ele>229</ele>
        <time>2022-03-21T12:21:15Z</time>
      </trkpt>
      <trkpt lat="46.47744" lon="5.30906">
        <ele>228.8</ele>
        <time>2022-03-21T12:21:17Z</time>
      </trkpt>
      <trkpt lat="46.47728" lon="5.30908">
        <ele>228.6</ele>
        <time>2022-03-21T12:21:19Z</time>
      </trkpt>
      <trkpt lat="46.47712" lon="5.30904">
        <ele>228</ele>
        <time>2022-03-21T12:21:21Z</time>
      </trkpt>
      <trkpt lat="46.47704" lon="5.30901">
        <ele>227.6</ele>
        <time>2022-03-21T12:21:22Z</time>
      </trkpt>
      <trkpt lat="46.47688" lon="5.30895">
        <ele>226.6</ele>
        <time>2022-03-21T12:21:24Z</time>
      </trkpt>
      <trkpt lat="46.47664" lon="5.30889">
        <ele>225.6</ele>
        <time>2022-03-21T12:21:27Z</time>
      </trkpt>
      <trkpt lat="46.47648" lon="5.30891">
        <ele>225</ele>
        <time>2022-03-21T12:21:29Z</time>
      </trkpt>
      <trkpt lat="46.47632" lon="5.30896">
        <ele>224.4</ele>
        <time>2022-03-21T12:21:31Z</time>
      </trkpt>
      <trkpt lat="46.47599" lon="5.30911">
        <ele>223.4</ele>
        <time>2022-03-21T12:21:35Z</time>
      </trkpt>
      <trkpt lat="46.47567" lon="5.30925">
        <ele>222</ele>
        <time>2022-03-21T12:21:39Z</time>
      </trkpt>
      <trkpt lat="46.47551" lon="5.30933">
        <ele>221.6</ele>
        <time>2022-03-21T12:21:41Z</time>
      </trkpt>
      <trkpt lat="46.47528" lon="5.30947">
        <ele>221</ele>
        <time>2022-03-21T12:21:44Z</time>
      </trkpt>
      <trkpt lat="46.47492" lon="5.30971">
        <ele>220.2</ele>
        <time>2022-03-21T12:21:49Z</time>
      </trkpt>
      <trkpt lat="46.47485" lon="5.30976">
        <ele>220</ele>
        <time>2022-03-21T12:21:50Z</time>
      </trkpt>
      <trkpt lat="46.47438" lon="5.31006">
        <ele>219.4</ele>
        <time>2022-03-21T12:21:57Z</time>
      </trkpt>
      <trkpt lat="46.47413" lon="5.31023">
        <ele>219.4</ele>
        <time>2022-03-21T12:22:02Z</time>
      </trkpt>
      <trkpt lat="46.47378" lon="5.31043">
        <ele>220.8</ele>
        <time>2022-03-21T12:22:10Z</time>
      </trkpt>
      <trkpt lat="46.47373" lon="5.31046">
        <ele>221</ele>
        <time>2022-03-21T12:22:11Z</time>
      </trkpt>
      <trkpt lat="46.47353" lon="5.3106">
        <ele>222</ele>
        <time>2022-03-21T12:22:16Z</time>
      </trkpt>
      <trkpt lat="46.47345" lon="5.31066">
        <ele>222.6</ele>
        <time>2022-03-21T12:22:18Z</time>
      </trkpt>
      <trkpt lat="46.47325" lon="5.31084">
        <ele>223.2</ele>
        <time>2022-03-21T12:22:23Z</time>
      </trkpt>
      <trkpt lat="46.47317" lon="5.31093">
        <ele>223.6</ele>
        <time>2022-03-21T12:22:25Z</time>
      </trkpt>
      <trkpt lat="46.47307" lon="5.31106">
        <ele>224.4</ele>
        <time>2022-03-21T12:22:28Z</time>
      </trkpt>
      <trkpt lat="46.473" lon="5.31117">
        <ele>224.8</ele>
        <time>2022-03-21T12:22:30Z</time>
      </trkpt>
      <trkpt lat="46.47292" lon="5.31129">
        <ele>225.2</ele>
        <time>2022-03-21T12:22:32Z</time>
      </trkpt>
      <trkpt lat="46.47285" lon="5.3114">
        <ele>225.4</ele>
        <time>2022-03-21T12:22:34Z</time>
      </trkpt>
      <trkpt lat="46.47282" lon="5.31146">
        <ele>225.4</ele>
        <time>2022-03-21T12:22:35Z</time>
      </trkpt>
      <trkpt lat="46.47278" lon="5.31152">
        <ele>225.4</ele>
        <time>2022-03-21T12:22:36Z</time>
      </trkpt>
      <trkpt lat="46.47261" lon="5.31178">
        <ele>225.4</ele>
        <time>2022-03-21T12:22:41Z</time>
      </trkpt>
      <trkpt lat="46.47258" lon="5.31182">
        <ele>225.6</ele>
        <time>2022-03-21T12:22:42Z</time>
      </trkpt>
      <trkpt lat="46.4725" lon="5.31192">
        <ele>225.6</ele>
        <time>2022-03-21T12:22:44Z</time>
      </trkpt>
      <trkpt lat="46.47243" lon="5.31204">
        <ele>225.8</ele>
        <time>2022-03-21T12:22:46Z</time>
      </trkpt>
      <trkpt lat="46.47237" lon="5.31211">
        <ele>225.8</ele>
        <time>2022-03-21T12:22:47Z</time>
      </trkpt>
      <trkpt lat="46.47224" lon="5.31235">
        <ele>226.4</ele>
        <time>2022-03-21T12:22:51Z</time>
      </trkpt>
      <trkpt lat="46.47212" lon="5.31256">
        <ele>226.6</ele>
        <time>2022-03-21T12:22:54Z</time>
      </trkpt>
      <trkpt lat="46.47183" lon="5.31302">
        <ele>227.4</ele>
        <time>2022-03-21T12:23:02Z</time>
      </trkpt>
      <trkpt lat="46.4717" lon="5.31315">
        <ele>227.4</ele>
        <time>2022-03-21T12:23:05Z</time>
      </trkpt>
      <trkpt lat="46.47149" lon="5.31344">
        <ele>227.6</ele>
        <time>2022-03-21T12:23:10Z</time>
      </trkpt>
      <trkpt lat="46.47143" lon="5.31356">
        <ele>227.6</ele>
        <time>2022-03-21T12:23:12Z</time>
      </trkpt>
      <trkpt lat="46.4713" lon="5.31378">
        <ele>227.6</ele>
        <time>2022-03-21T12:23:15Z</time>
      </trkpt>
      <trkpt lat="46.47101" lon="5.31414">
        <ele>227.8</ele>
        <time>2022-03-21T12:23:21Z</time>
      </trkpt>
      <trkpt lat="46.47069" lon="5.31452">
        <ele>227.8</ele>
        <time>2022-03-21T12:23:29Z</time>
      </trkpt>
      <trkpt lat="46.47032" lon="5.315">
        <ele>228</ele>
        <time>2022-03-21T12:23:38Z</time>
      </trkpt>
      <trkpt lat="46.47023" lon="5.31512">
        <ele>228.2</ele>
        <time>2022-03-21T12:23:40Z</time>
      </trkpt>
      <trkpt lat="46.47" lon="5.31541">
        <ele>228.4</ele>
        <time>2022-03-21T12:23:46Z</time>
      </trkpt>
      <trkpt lat="46.46989" lon="5.31555">
        <ele>228.6</ele>
        <time>2022-03-21T12:23:49Z</time>
      </trkpt>
      <trkpt lat="46.46981" lon="5.31565">
        <ele>229</ele>
        <time>2022-03-21T12:23:52Z</time>
      </trkpt>
      <trkpt lat="46.46966" lon="5.31583">
        <ele>229.2</ele>
        <time>2022-03-21T12:23:56Z</time>
      </trkpt>
      <trkpt lat="46.46959" lon="5.31593">
        <ele>229.2</ele>
        <time>2022-03-21T12:23:58Z</time>
      </trkpt>
      <trkpt lat="46.46949" lon="5.31603">
        <ele>229.2</ele>
        <time>2022-03-21T12:24:00Z</time>
      </trkpt>
      <trkpt lat="46.46934" lon="5.31618">
        <ele>229.6</ele>
        <time>2022-03-21T12:24:04Z</time>
      </trkpt>
      <trkpt lat="46.46914" lon="5.31652">
        <ele>229.8</ele>
        <time>2022-03-21T12:24:10Z</time>
      </trkpt>
      <trkpt lat="46.4689" lon="5.31675">
        <ele>229.8</ele>
        <time>2022-03-21T12:24:14Z</time>
      </trkpt>
      <trkpt lat="46.46874" lon="5.31697">
        <ele>229.6</ele>
        <time>2022-03-21T12:24:17Z</time>
      </trkpt>
      <trkpt lat="46.46861" lon="5.31716">
        <ele>229.6</ele>
        <time>2022-03-21T12:24:20Z</time>
      </trkpt>
      <trkpt lat="46.46827" lon="5.31758">
        <ele>228.8</ele>
        <time>2022-03-21T12:24:26Z</time>
      </trkpt>
      <trkpt lat="46.46794" lon="5.31795">
        <ele>228</ele>
        <time>2022-03-21T12:24:32Z</time>
      </trkpt>
      <trkpt lat="46.4678" lon="5.31813">
        <ele>227.6</ele>
        <time>2022-03-21T12:24:35Z</time>
      </trkpt>
      <trkpt lat="46.46734" lon="5.31866">
        <ele>227.4</ele>
        <time>2022-03-21T12:24:44Z</time>
      </trkpt>
      <trkpt lat="46.46729" lon="5.31871">
        <ele>227.4</ele>
        <time>2022-03-21T12:24:45Z</time>
      </trkpt>
      <trkpt lat="46.46712" lon="5.31885">
        <ele>227.2</ele>
        <time>2022-03-21T12:24:48Z</time>
      </trkpt>
      <trkpt lat="46.46695" lon="5.31897">
        <ele>227.2</ele>
        <time>2022-03-21T12:24:51Z</time>
      </trkpt>
      <trkpt lat="46.4665" lon="5.31935">
        <ele>227.6</ele>
        <time>2022-03-21T12:25:00Z</time>
      </trkpt>
      <trkpt lat="46.46623" lon="5.31972">
        <ele>228.4</ele>
        <time>2022-03-21T12:25:07Z</time>
      </trkpt>
      <trkpt lat="46.46603" lon="5.32009">
        <ele>229.2</ele>
        <time>2022-03-21T12:25:13Z</time>
      </trkpt>
      <trkpt lat="46.46587" lon="5.32035">
        <ele>229.2</ele>
        <time>2022-03-21T12:25:17Z</time>
      </trkpt>
      <trkpt lat="46.46553" lon="5.32097">
        <ele>229.4</ele>
        <time>2022-03-21T12:25:26Z</time>
      </trkpt>
      <trkpt lat="46.46516" lon="5.32163">
        <ele>229.2</ele>
        <time>2022-03-21T12:25:36Z</time>
      </trkpt>
      <trkpt lat="46.4648" lon="5.3223">
        <ele>229.4</ele>
        <time>2022-03-21T12:25:46Z</time>
      </trkpt>
      <trkpt lat="46.46446" lon="5.32293">
        <ele>230</ele>
        <time>2022-03-21T12:25:55Z</time>
      </trkpt>
      <trkpt lat="46.46442" lon="5.323">
        <ele>230</ele>
        <time>2022-03-21T12:25:56Z</time>
      </trkpt>
      <trkpt lat="46.4642" lon="5.32342">
        <ele>230.2</ele>
        <time>2022-03-21T12:26:02Z</time>
      </trkpt>
      <trkpt lat="46.46402" lon="5.32375">
        <ele>230.4</ele>
        <time>2022-03-21T12:26:07Z</time>
      </trkpt>
      <trkpt lat="46.46373" lon="5.32442">
        <ele>230.4</ele>
        <time>2022-03-21T12:26:16Z</time>
      </trkpt>
      <trkpt lat="46.46348" lon="5.32508">
        <ele>230.2</ele>
        <time>2022-03-21T12:26:24Z</time>
      </trkpt>
      <trkpt lat="46.46327" lon="5.3257">
        <ele>230</ele>
        <time>2022-03-21T12:26:31Z</time>
      </trkpt>
      <trkpt lat="46.46319" lon="5.32633">
        <ele>230</ele>
        <time>2022-03-21T12:26:37Z</time>
      </trkpt>
      <trkpt lat="46.4632" lon="5.32716">
        <ele>229.8</ele>
        <time>2022-03-21T12:26:45Z</time>
      </trkpt>
      <trkpt lat="46.4632" lon="5.32726">
        <ele>229.8</ele>
        <time>2022-03-21T12:26:46Z</time>
      </trkpt>
      <trkpt lat="46.46314" lon="5.32775">
        <ele>230.2</ele>
        <time>2022-03-21T12:26:51Z</time>
      </trkpt>
      <trkpt lat="46.46311" lon="5.32783">
        <ele>230.4</ele>
        <time>2022-03-21T12:26:52Z</time>
      </trkpt>
      <trkpt lat="46.463" lon="5.32806">
        <ele>230.6</ele>
        <time>2022-03-21T12:26:55Z</time>
      </trkpt>
      <trkpt lat="46.46272" lon="5.32844">
        <ele>231</ele>
        <time>2022-03-21T12:27:01Z</time>
      </trkpt>
      <trkpt lat="46.46239" lon="5.32891">
        <ele>231</ele>
        <time>2022-03-21T12:27:08Z</time>
      </trkpt>
      <trkpt lat="46.462" lon="5.32944">
        <ele>230.6</ele>
        <time>2022-03-21T12:27:16Z</time>
      </trkpt>
      <trkpt lat="46.46173" lon="5.32967">
        <ele>230.4</ele>
        <time>2022-03-21T12:27:21Z</time>
      </trkpt>
      <trkpt lat="46.46135" lon="5.32989">
        <ele>230.8</ele>
        <time>2022-03-21T12:27:28Z</time>
      </trkpt>
      <trkpt lat="46.46106" lon="5.33005">
        <ele>231.6</ele>
        <time>2022-03-21T12:27:34Z</time>
      </trkpt>
      <trkpt lat="46.46096" lon="5.33011">
        <ele>231.8</ele>
        <time>2022-03-21T12:27:36Z</time>
      </trkpt>
      <trkpt lat="46.46076" lon="5.33028">
        <ele>232.2</ele>
        <time>2022-03-21T12:27:40Z</time>
      </trkpt>
      <trkpt lat="46.46066" lon="5.33035">
        <ele>232.2</ele>
        <time>2022-03-21T12:27:42Z</time>
      </trkpt>
      <trkpt lat="46.46049" lon="5.33052">
        <ele>232.2</ele>
        <time>2022-03-21T12:27:45Z</time>
      </trkpt>
      <trkpt lat="46.46005" lon="5.33095">
        <ele>232.4</ele>
        <time>2022-03-21T12:27:53Z</time>
      </trkpt>
      <trkpt lat="46.45957" lon="5.33145">
        <ele>232.4</ele>
        <time>2022-03-21T12:28:02Z</time>
      </trkpt>
      <trkpt lat="46.45948" lon="5.33154">
        <ele>232.4</ele>
        <time>2022-03-21T12:28:04Z</time>
      </trkpt>
      <trkpt lat="46.45927" lon="5.33178">
        <ele>232.6</ele>
        <time>2022-03-21T12:28:09Z</time>
      </trkpt>
      <trkpt lat="46.45918" lon="5.33187">
        <ele>233</ele>
        <time>2022-03-21T12:28:11Z</time>
      </trkpt>
      <trkpt lat="46.45875" lon="5.33234">
        <ele>233.8</ele>
        <time>2022-03-21T12:28:21Z</time>
      </trkpt>
      <trkpt lat="46.45871" lon="5.33239">
        <ele>233.8</ele>
        <time>2022-03-21T12:28:22Z</time>
      </trkpt>
      <trkpt lat="46.45839" lon="5.33293">
        <ele>234</ele>
        <time>2022-03-21T12:28:31Z</time>
      </trkpt>
      <trkpt lat="46.45804" lon="5.3336">
        <ele>234.4</ele>
        <time>2022-03-21T12:28:41Z</time>
      </trkpt>
      <trkpt lat="46.458" lon="5.33367">
        <ele>234.4</ele>
        <time>2022-03-21T12:28:42Z</time>
      </trkpt>
      <trkpt lat="46.45777" lon="5.33415">
        <ele>234.4</ele>
        <time>2022-03-21T12:28:49Z</time>
      </trkpt>
      <trkpt lat="46.45773" lon="5.33421">
        <ele>234.4</ele>
        <time>2022-03-21T12:28:50Z</time>
      </trkpt>
      <trkpt lat="46.45759" lon="5.33455">
        <ele>234.8</ele>
        <time>2022-03-21T12:28:55Z</time>
      </trkpt>
      <trkpt lat="46.45756" lon="5.33462">
        <ele>234.8</ele>
        <time>2022-03-21T12:28:56Z</time>
      </trkpt>
      <trkpt lat="46.45741" lon="5.33505">
        <ele>235.6</ele>
        <time>2022-03-21T12:29:02Z</time>
      </trkpt>
      <trkpt lat="46.45739" lon="5.33511">
        <ele>235.6</ele>
        <time>2022-03-21T12:29:03Z</time>
      </trkpt>
      <trkpt lat="46.45735" lon="5.33519">
        <ele>235.6</ele>
        <time>2022-03-21T12:29:04Z</time>
      </trkpt>
      <trkpt lat="46.45731" lon="5.33526">
        <ele>236</ele>
        <time>2022-03-21T12:29:05Z</time>
      </trkpt>
      <trkpt lat="46.45725" lon="5.33541">
        <ele>236.2</ele>
        <time>2022-03-21T12:29:07Z</time>
      </trkpt>
      <trkpt lat="46.45707" lon="5.33586">
        <ele>237</ele>
        <time>2022-03-21T12:29:13Z</time>
      </trkpt>
      <trkpt lat="46.457" lon="5.33604">
        <ele>237.4</ele>
        <time>2022-03-21T12:29:16Z</time>
      </trkpt>
      <trkpt lat="46.45693" lon="5.33622">
        <ele>237.8</ele>
        <time>2022-03-21T12:29:19Z</time>
      </trkpt>
      <trkpt lat="46.4569" lon="5.33627">
        <ele>238</ele>
        <time>2022-03-21T12:29:20Z</time>
      </trkpt>
      <trkpt lat="46.45674" lon="5.33666">
        <ele>238.8</ele>
        <time>2022-03-21T12:29:26Z</time>
      </trkpt>
      <trkpt lat="46.45667" lon="5.33685">
        <ele>239</ele>
        <time>2022-03-21T12:29:29Z</time>
      </trkpt>
      <trkpt lat="46.45664" lon="5.33691">
        <ele>239</ele>
        <time>2022-03-21T12:29:30Z</time>
      </trkpt>
      <trkpt lat="46.45649" lon="5.33725">
        <ele>239.6</ele>
        <time>2022-03-21T12:29:36Z</time>
      </trkpt>
      <trkpt lat="46.45642" lon="5.33743">
        <ele>240.2</ele>
        <time>2022-03-21T12:29:39Z</time>
      </trkpt>
      <trkpt lat="46.45633" lon="5.33765">
        <ele>240.6</ele>
        <time>2022-03-21T12:29:43Z</time>
      </trkpt>
      <trkpt lat="46.4563" lon="5.33771">
        <ele>240.8</ele>
        <time>2022-03-21T12:29:44Z</time>
      </trkpt>
      <trkpt lat="46.45626" lon="5.33784">
        <ele>241</ele>
        <time>2022-03-21T12:29:46Z</time>
      </trkpt>
      <trkpt lat="46.45621" lon="5.33796">
        <ele>241</ele>
        <time>2022-03-21T12:29:48Z</time>
      </trkpt>
      <trkpt lat="46.45618" lon="5.33801">
        <ele>241.2</ele>
        <time>2022-03-21T12:29:49Z</time>
      </trkpt>
      <trkpt lat="46.45614" lon="5.3381">
        <ele>241.4</ele>
        <time>2022-03-21T12:29:51Z</time>
      </trkpt>
      <trkpt lat="46.45605" lon="5.33834">
        <ele>241.8</ele>
        <time>2022-03-21T12:29:55Z</time>
      </trkpt>
      <trkpt lat="46.45593" lon="5.33862">
        <ele>242.4</ele>
        <time>2022-03-21T12:30:00Z</time>
      </trkpt>
      <trkpt lat="46.45576" lon="5.339">
        <ele>243</ele>
        <time>2022-03-21T12:30:06Z</time>
      </trkpt>
      <trkpt lat="46.45565" lon="5.3392">
        <ele>243.6</ele>
        <time>2022-03-21T12:30:09Z</time>
      </trkpt>
      <trkpt lat="46.4556" lon="5.3393">
        <ele>244</ele>
        <time>2022-03-21T12:30:11Z</time>
      </trkpt>
      <trkpt lat="46.4555" lon="5.33956">
        <ele>244.8</ele>
        <time>2022-03-21T12:30:16Z</time>
      </trkpt>
      <trkpt lat="46.45547" lon="5.33961">
        <ele>245.2</ele>
        <time>2022-03-21T12:30:17Z</time>
      </trkpt>
      <trkpt lat="46.4554" lon="5.33983">
        <ele>246</ele>
        <time>2022-03-21T12:30:21Z</time>
      </trkpt>
      <trkpt lat="46.45548" lon="5.34002">
        <ele>246.8</ele>
        <time>2022-03-21T12:30:25Z</time>
      </trkpt>
      <trkpt lat="46.45557" lon="5.34011">
        <ele>247</ele>
        <time>2022-03-21T12:30:29Z</time>
      </trkpt>
      <trkpt lat="46.45558" lon="5.34013">
        <ele>247.2</ele>
        <time>2022-03-21T12:30:30Z</time>
      </trkpt>
      <trkpt lat="46.4556" lon="5.34014">
        <ele>247.6</ele>
        <time>2022-03-21T12:30:34Z</time>
      </trkpt>
      <trkpt lat="46.45556" lon="5.34009">
        <ele>247.2</ele>
        <time>2022-03-21T12:31:26Z</time>
      </trkpt>
      <trkpt lat="46.4555" lon="5.34002">
        <ele>247.2</ele>
        <time>2022-03-21T12:31:28Z</time>
      </trkpt>
      <trkpt lat="46.45543" lon="5.33993">
        <ele>247</ele>
        <time>2022-03-21T12:31:30Z</time>
      </trkpt>
      <trkpt lat="46.45534" lon="5.3399">
        <ele>247</ele>
        <time>2022-03-21T12:31:32Z</time>
      </trkpt>
      <trkpt lat="46.45524" lon="5.33994">
        <ele>247</ele>
        <time>2022-03-21T12:31:34Z</time>
      </trkpt>
      <trkpt lat="46.45516" lon="5.34">
        <ele>247</ele>
        <time>2022-03-21T12:31:36Z</time>
      </trkpt>
      <trkpt lat="46.45485" lon="5.34026">
        <ele>248</ele>
        <time>2022-03-21T12:31:44Z</time>
      </trkpt>
      <trkpt lat="46.45482" lon="5.34028">
        <ele>248.4</ele>
        <time>2022-03-21T12:31:45Z</time>
      </trkpt>
      <trkpt lat="46.45468" lon="5.34033">
        <ele>249.2</ele>
        <time>2022-03-21T12:31:49Z</time>
      </trkpt>
      <trkpt lat="46.45464" lon="5.34034">
        <ele>249.4</ele>
        <time>2022-03-21T12:31:50Z</time>
      </trkpt>
      <trkpt lat="46.45446" lon="5.34041">
        <ele>250.4</ele>
        <time>2022-03-21T12:31:55Z</time>
      </trkpt>
      <trkpt lat="46.45435" lon="5.34046">
        <ele>251.2</ele>
        <time>2022-03-21T12:31:58Z</time>
      </trkpt>
      <trkpt lat="46.45431" lon="5.34047">
        <ele>251.6</ele>
        <time>2022-03-21T12:31:59Z</time>
      </trkpt>
      <trkpt lat="46.45407" lon="5.34051">
        <ele>252.4</ele>
        <time>2022-03-21T12:32:04Z</time>
      </trkpt>
      <trkpt lat="46.45402" lon="5.34052">
        <ele>252.6</ele>
        <time>2022-03-21T12:32:05Z</time>
      </trkpt>
      <trkpt lat="46.45378" lon="5.34055">
        <ele>253.8</ele>
        <time>2022-03-21T12:32:10Z</time>
      </trkpt>
      <trkpt lat="46.45374" lon="5.34056">
        <ele>254</ele>
        <time>2022-03-21T12:32:11Z</time>
      </trkpt>
      <trkpt lat="46.4535" lon="5.3406">
        <ele>254.8</ele>
        <time>2022-03-21T12:32:17Z</time>
      </trkpt>
      <trkpt lat="46.45312" lon="5.34068">
        <ele>255.6</ele>
        <time>2022-03-21T12:32:24Z</time>
      </trkpt>
      <trkpt lat="46.45289" lon="5.34073">
        <ele>256</ele>
        <time>2022-03-21T12:32:28Z</time>
      </trkpt>
      <trkpt lat="46.45274" lon="5.34075">
        <ele>256.2</ele>
        <time>2022-03-21T12:32:31Z</time>
      </trkpt>
      <trkpt lat="46.45233" lon="5.34083">
        <ele>256.8</ele>
        <time>2022-03-21T12:32:40Z</time>
      </trkpt>
      <trkpt lat="46.45219" lon="5.34086">
        <ele>257</ele>
        <time>2022-03-21T12:32:43Z</time>
      </trkpt>
      <trkpt lat="46.45188" lon="5.34093">
        <ele>257.6</ele>
        <time>2022-03-21T12:32:50Z</time>
      </trkpt>
      <trkpt lat="46.45161" lon="5.34098">
        <ele>258</ele>
        <time>2022-03-21T12:32:56Z</time>
      </trkpt>
      <trkpt lat="46.45142" lon="5.34102">
        <ele>258.4</ele>
        <time>2022-03-21T12:33:00Z</time>
      </trkpt>
      <trkpt lat="46.45103" lon="5.34111">
        <ele>258.8</ele>
        <time>2022-03-21T12:33:08Z</time>
      </trkpt>
      <trkpt lat="46.45092" lon="5.34113">
        <ele>259</ele>
        <time>2022-03-21T12:33:10Z</time>
      </trkpt>
      <trkpt lat="46.45059" lon="5.34118">
        <ele>259</ele>
        <time>2022-03-21T12:33:16Z</time>
      </trkpt>
      <trkpt lat="46.45054" lon="5.34119">
        <ele>259</ele>
        <time>2022-03-21T12:33:17Z</time>
      </trkpt>
      <trkpt lat="46.45022" lon="5.3412">
        <ele>257.8</ele>
        <time>2022-03-21T12:33:22Z</time>
      </trkpt>
      <trkpt lat="46.44994" lon="5.34117">
        <ele>256.8</ele>
        <time>2022-03-21T12:33:26Z</time>
      </trkpt>
      <trkpt lat="46.4498" lon="5.34114">
        <ele>256</ele>
        <time>2022-03-21T12:33:28Z</time>
      </trkpt>
      <trkpt lat="46.44973" lon="5.34112">
        <ele>255.6</ele>
        <time>2022-03-21T12:33:29Z</time>
      </trkpt>
      <trkpt lat="46.44943" lon="5.34103">
        <ele>254.4</ele>
        <time>2022-03-21T12:33:33Z</time>
      </trkpt>
      <trkpt lat="46.4492" lon="5.34096">
        <ele>253.8</ele>
        <time>2022-03-21T12:33:36Z</time>
      </trkpt>
      <trkpt lat="46.44903" lon="5.34091">
        <ele>253.4</ele>
        <time>2022-03-21T12:33:38Z</time>
      </trkpt>
      <trkpt lat="46.44881" lon="5.34088">
        <ele>252.4</ele>
        <time>2022-03-21T12:33:41Z</time>
      </trkpt>
      <trkpt lat="46.44873" lon="5.34088">
        <ele>252.2</ele>
        <time>2022-03-21T12:33:42Z</time>
      </trkpt>
      <trkpt lat="46.44863" lon="5.34089">
        <ele>251.8</ele>
        <time>2022-03-21T12:33:43Z</time>
      </trkpt>
      <trkpt lat="46.44856" lon="5.34091">
        <ele>251.4</ele>
        <time>2022-03-21T12:33:44Z</time>
      </trkpt>
      <trkpt lat="46.44848" lon="5.34094">
        <ele>251</ele>
        <time>2022-03-21T12:33:45Z</time>
      </trkpt>
      <trkpt lat="46.4484" lon="5.34098">
        <ele>250.8</ele>
        <time>2022-03-21T12:33:46Z</time>
      </trkpt>
      <trkpt lat="46.44833" lon="5.34104">
        <ele>250.2</ele>
        <time>2022-03-21T12:33:47Z</time>
      </trkpt>
      <trkpt lat="46.44821" lon="5.34119">
        <ele>249.8</ele>
        <time>2022-03-21T12:33:49Z</time>
      </trkpt>
      <trkpt lat="46.44816" lon="5.34126">
        <ele>249.2</ele>
        <time>2022-03-21T12:33:50Z</time>
      </trkpt>
      <trkpt lat="46.4481" lon="5.34133">
        <ele>248.8</ele>
        <time>2022-03-21T12:33:51Z</time>
      </trkpt>
      <trkpt lat="46.44801" lon="5.34134">
        <ele>248.4</ele>
        <time>2022-03-21T12:33:52Z</time>
      </trkpt>
      <trkpt lat="46.44792" lon="5.34123">
        <ele>247.8</ele>
        <time>2022-03-21T12:33:54Z</time>
      </trkpt>
      <trkpt lat="46.44792" lon="5.34108">
        <ele>247.6</ele>
        <time>2022-03-21T12:33:56Z</time>
      </trkpt>
      <trkpt lat="46.44792" lon="5.341">
        <ele>247.6</ele>
        <time>2022-03-21T12:33:57Z</time>
      </trkpt>
      <trkpt lat="46.44791" lon="5.34084">
        <ele>247.4</ele>
        <time>2022-03-21T12:33:59Z</time>
      </trkpt>
      <trkpt lat="46.44789" lon="5.34063">
        <ele>247.6</ele>
        <time>2022-03-21T12:34:02Z</time>
      </trkpt>
      <trkpt lat="46.44787" lon="5.34038">
        <ele>248.6</ele>
        <time>2022-03-21T12:34:06Z</time>
      </trkpt>
      <trkpt lat="46.44785" lon="5.34025">
        <ele>249</ele>
        <time>2022-03-21T12:34:08Z</time>
      </trkpt>
      <trkpt lat="46.44783" lon="5.34013">
        <ele>249.4</ele>
        <time>2022-03-21T12:34:10Z</time>
      </trkpt>
      <trkpt lat="46.44781" lon="5.33996">
        <ele>250.4</ele>
        <time>2022-03-21T12:34:13Z</time>
      </trkpt>
      <trkpt lat="46.44779" lon="5.33985">
        <ele>251</ele>
        <time>2022-03-21T12:34:15Z</time>
      </trkpt>
      <trkpt lat="46.44779" lon="5.33968">
        <ele>251.6</ele>
        <time>2022-03-21T12:34:18Z</time>
      </trkpt>
      <trkpt lat="46.44776" lon="5.33947">
        <ele>252.6</ele>
        <time>2022-03-21T12:34:21Z</time>
      </trkpt>
      <trkpt lat="46.44774" lon="5.33935">
        <ele>252.8</ele>
        <time>2022-03-21T12:34:23Z</time>
      </trkpt>
      <trkpt lat="46.44772" lon="5.33911">
        <ele>253.4</ele>
        <time>2022-03-21T12:34:26Z</time>
      </trkpt>
      <trkpt lat="46.44771" lon="5.33896">
        <ele>253.6</ele>
        <time>2022-03-21T12:34:28Z</time>
      </trkpt>
      <trkpt lat="46.44762" lon="5.33883">
        <ele>253.8</ele>
        <time>2022-03-21T12:34:30Z</time>
      </trkpt>
      <trkpt lat="46.44756" lon="5.3388">
        <ele>253.8</ele>
        <time>2022-03-21T12:34:31Z</time>
      </trkpt>
      <trkpt lat="46.44723" lon="5.33865">
        <ele>253.6</ele>
        <time>2022-03-21T12:34:36Z</time>
      </trkpt>
      <trkpt lat="46.44689" lon="5.3385">
        <ele>252.6</ele>
        <time>2022-03-21T12:34:41Z</time>
      </trkpt>
      <trkpt lat="46.44677" lon="5.33842">
        <ele>252.2</ele>
        <time>2022-03-21T12:34:43Z</time>
      </trkpt>
      <trkpt lat="46.44666" lon="5.33831">
        <ele>252</ele>
        <time>2022-03-21T12:34:45Z</time>
      </trkpt>
      <trkpt lat="46.44658" lon="5.33815">
        <ele>251.8</ele>
        <time>2022-03-21T12:34:47Z</time>
      </trkpt>
      <trkpt lat="46.44651" lon="5.33797">
        <ele>251.6</ele>
        <time>2022-03-21T12:34:49Z</time>
      </trkpt>
      <trkpt lat="46.44633" lon="5.33749">
        <ele>250.8</ele>
        <time>2022-03-21T12:34:54Z</time>
      </trkpt>
      <trkpt lat="46.44625" lon="5.3373">
        <ele>250</ele>
        <time>2022-03-21T12:34:56Z</time>
      </trkpt>
      <trkpt lat="46.44612" lon="5.33695">
        <ele>248.8</ele>
        <time>2022-03-21T12:34:59Z</time>
      </trkpt>
      <trkpt lat="46.44608" lon="5.33684">
        <ele>248.6</ele>
        <time>2022-03-21T12:35:00Z</time>
      </trkpt>
      <trkpt lat="46.44595" lon="5.33651">
        <ele>247.4</ele>
        <time>2022-03-21T12:35:03Z</time>
      </trkpt>
      <trkpt lat="46.44581" lon="5.33613">
        <ele>246</ele>
        <time>2022-03-21T12:35:06Z</time>
      </trkpt>
      <trkpt lat="46.44573" lon="5.33591">
        <ele>245</ele>
        <time>2022-03-21T12:35:08Z</time>
      </trkpt>
      <trkpt lat="46.44569" lon="5.3358">
        <ele>244.6</ele>
        <time>2022-03-21T12:35:09Z</time>
      </trkpt>
      <trkpt lat="46.44561" lon="5.33559">
        <ele>243.6</ele>
        <time>2022-03-21T12:35:11Z</time>
      </trkpt>
      <trkpt lat="46.4455" lon="5.3353">
        <ele>242.6</ele>
        <time>2022-03-21T12:35:14Z</time>
      </trkpt>
      <trkpt lat="46.44543" lon="5.33512">
        <ele>242.6</ele>
        <time>2022-03-21T12:35:16Z</time>
      </trkpt>
      <trkpt lat="46.44527" lon="5.33468">
        <ele>242.4</ele>
        <time>2022-03-21T12:35:21Z</time>
      </trkpt>
      <trkpt lat="46.44501" lon="5.33402">
        <ele>242.2</ele>
        <time>2022-03-21T12:35:29Z</time>
      </trkpt>
      <trkpt lat="46.44481" lon="5.33358">
        <ele>241.8</ele>
        <time>2022-03-21T12:35:35Z</time>
      </trkpt>
      <trkpt lat="46.44477" lon="5.33351">
        <ele>241.8</ele>
        <time>2022-03-21T12:35:36Z</time>
      </trkpt>
      <trkpt lat="46.44448" lon="5.3332">
        <ele>241.6</ele>
        <time>2022-03-21T12:35:42Z</time>
      </trkpt>
      <trkpt lat="46.44404" lon="5.33272">
        <ele>241.4</ele>
        <time>2022-03-21T12:35:51Z</time>
      </trkpt>
      <trkpt lat="46.44399" lon="5.33266">
        <ele>241.4</ele>
        <time>2022-03-21T12:35:52Z</time>
      </trkpt>
      <trkpt lat="46.44359" lon="5.33222">
        <ele>240.8</ele>
        <time>2022-03-21T12:36:00Z</time>
      </trkpt>
      <trkpt lat="46.44353" lon="5.33216">
        <ele>240.6</ele>
        <time>2022-03-21T12:36:01Z</time>
      </trkpt>
      <trkpt lat="46.4433" lon="5.33193">
        <ele>240.2</ele>
        <time>2022-03-21T12:36:05Z</time>
      </trkpt>
      <trkpt lat="46.44323" lon="5.33189">
        <ele>239.8</ele>
        <time>2022-03-21T12:36:06Z</time>
      </trkpt>
      <trkpt lat="46.44316" lon="5.33186">
        <ele>239.6</ele>
        <time>2022-03-21T12:36:07Z</time>
      </trkpt>
      <trkpt lat="46.44296" lon="5.33181">
        <ele>238.6</ele>
        <time>2022-03-21T12:36:10Z</time>
      </trkpt>
      <trkpt lat="46.44287" lon="5.3318">
        <ele>238.4</ele>
        <time>2022-03-21T12:36:11Z</time>
      </trkpt>
      <trkpt lat="46.44259" lon="5.33182">
        <ele>237.4</ele>
        <time>2022-03-21T12:36:15Z</time>
      </trkpt>
      <trkpt lat="46.4423" lon="5.33185">
        <ele>237</ele>
        <time>2022-03-21T12:36:19Z</time>
      </trkpt>
      <trkpt lat="46.44223" lon="5.33187">
        <ele>236.8</ele>
        <time>2022-03-21T12:36:20Z</time>
      </trkpt>
      <trkpt lat="46.44199" lon="5.33201">
        <ele>236.6</ele>
        <time>2022-03-21T12:36:24Z</time>
      </trkpt>
      <trkpt lat="46.4417" lon="5.33224">
        <ele>236.8</ele>
        <time>2022-03-21T12:36:30Z</time>
      </trkpt>
      <trkpt lat="46.44158" lon="5.33232">
        <ele>237</ele>
        <time>2022-03-21T12:36:33Z</time>
      </trkpt>
      <trkpt lat="46.44151" lon="5.33235">
        <ele>237.4</ele>
        <time>2022-03-21T12:36:35Z</time>
      </trkpt>
      <trkpt lat="46.44143" lon="5.33237">
        <ele>237.8</ele>
        <time>2022-03-21T12:36:38Z</time>
      </trkpt>
      <trkpt lat="46.44142" lon="5.33241">
        <ele>237.8</ele>
        <time>2022-03-21T12:36:39Z</time>
      </trkpt>
      <trkpt lat="46.44146" lon="5.33261">
        <ele>238</ele>
        <time>2022-03-21T12:36:43Z</time>
      </trkpt>
      <trkpt lat="46.44162" lon="5.33294">
        <ele>238</ele>
        <time>2022-03-21T12:36:48Z</time>
      </trkpt>
      <trkpt lat="46.44166" lon="5.333">
        <ele>238</ele>
        <time>2022-03-21T12:36:49Z</time>
      </trkpt>
      <trkpt lat="46.44187" lon="5.33324">
        <ele>238</ele>
        <time>2022-03-21T12:36:53Z</time>
      </trkpt>
      <trkpt lat="46.4423" lon="5.33363">
        <ele>237.2</ele>
        <time>2022-03-21T12:37:00Z</time>
      </trkpt>
      <trkpt lat="46.4426" lon="5.33401">
        <ele>236.4</ele>
        <time>2022-03-21T12:37:05Z</time>
      </trkpt>
      <trkpt lat="46.44272" lon="5.33417">
        <ele>236.2</ele>
        <time>2022-03-21T12:37:07Z</time>
      </trkpt>
      <trkpt lat="46.44285" lon="5.33432">
        <ele>235.4</ele>
        <time>2022-03-21T12:37:09Z</time>
      </trkpt>
      <trkpt lat="46.44316" lon="5.33475">
        <ele>234.4</ele>
        <time>2022-03-21T12:37:14Z</time>
      </trkpt>
      <trkpt lat="46.44321" lon="5.33485">
        <ele>234</ele>
        <time>2022-03-21T12:37:15Z</time>
      </trkpt>
      <trkpt lat="46.44325" lon="5.33496">
        <ele>233.8</ele>
        <time>2022-03-21T12:37:16Z</time>
      </trkpt>
      <trkpt lat="46.44333" lon="5.33519">
        <ele>233.6</ele>
        <time>2022-03-21T12:37:18Z</time>
      </trkpt>
      <trkpt lat="46.44336" lon="5.33531">
        <ele>233.4</ele>
        <time>2022-03-21T12:37:19Z</time>
      </trkpt>
      <trkpt lat="46.4434" lon="5.33557">
        <ele>233</ele>
        <time>2022-03-21T12:37:21Z</time>
      </trkpt>
      <trkpt lat="46.4434" lon="5.3357">
        <ele>232.8</ele>
        <time>2022-03-21T12:37:22Z</time>
      </trkpt>
      <trkpt lat="46.44339" lon="5.33597">
        <ele>231.8</ele>
        <time>2022-03-21T12:37:24Z</time>
      </trkpt>
      <trkpt lat="46.44338" lon="5.33611">
        <ele>231.4</ele>
        <time>2022-03-21T12:37:25Z</time>
      </trkpt>
      <trkpt lat="46.44335" lon="5.33623">
        <ele>231.2</ele>
        <time>2022-03-21T12:37:26Z</time>
      </trkpt>
      <trkpt lat="46.44332" lon="5.33636">
        <ele>230.8</ele>
        <time>2022-03-21T12:37:27Z</time>
      </trkpt>
      <trkpt lat="46.44328" lon="5.33648">
        <ele>230.6</ele>
        <time>2022-03-21T12:37:28Z</time>
      </trkpt>
      <trkpt lat="46.44323" lon="5.33659">
        <ele>230.4</ele>
        <time>2022-03-21T12:37:29Z</time>
      </trkpt>
      <trkpt lat="46.44318" lon="5.33669">
        <ele>230.2</ele>
        <time>2022-03-21T12:37:30Z</time>
      </trkpt>
      <trkpt lat="46.44302" lon="5.33698">
        <ele>229.6</ele>
        <time>2022-03-21T12:37:33Z</time>
      </trkpt>
      <trkpt lat="46.44279" lon="5.33732">
        <ele>228.8</ele>
        <time>2022-03-21T12:37:37Z</time>
      </trkpt>
      <trkpt lat="46.44269" lon="5.33744">
        <ele>228.4</ele>
        <time>2022-03-21T12:37:39Z</time>
      </trkpt>
      <trkpt lat="46.4426" lon="5.33753">
        <ele>228</ele>
        <time>2022-03-21T12:37:41Z</time>
      </trkpt>
      <trkpt lat="46.44255" lon="5.33756">
        <ele>228</ele>
        <time>2022-03-21T12:37:42Z</time>
      </trkpt>
      <trkpt lat="46.44247" lon="5.33761">
        <ele>227.8</ele>
        <time>2022-03-21T12:37:44Z</time>
      </trkpt>
      <trkpt lat="46.44243" lon="5.33761">
        <ele>227.6</ele>
        <time>2022-03-21T12:37:45Z</time>
      </trkpt>
      <trkpt lat="46.44239" lon="5.33761">
        <ele>227.6</ele>
        <time>2022-03-21T12:37:46Z</time>
      </trkpt>
      <trkpt lat="46.44225" lon="5.33751">
        <ele>227.2</ele>
        <time>2022-03-21T12:37:49Z</time>
      </trkpt>
      <trkpt lat="46.44193" lon="5.33724">
        <ele>226.6</ele>
        <time>2022-03-21T12:37:55Z</time>
      </trkpt>
      <trkpt lat="46.44147" lon="5.33673">
        <ele>226.6</ele>
        <time>2022-03-21T12:38:04Z</time>
      </trkpt>
      <trkpt lat="46.44142" lon="5.33667">
        <ele>226.6</ele>
        <time>2022-03-21T12:38:05Z</time>
      </trkpt>
      <trkpt lat="46.44098" lon="5.33617">
        <ele>226.4</ele>
        <time>2022-03-21T12:38:14Z</time>
      </trkpt>
      <trkpt lat="46.44085" lon="5.33596">
        <ele>226.2</ele>
        <time>2022-03-21T12:38:17Z</time>
      </trkpt>
      <trkpt lat="46.44079" lon="5.33581">
        <ele>226.2</ele>
        <time>2022-03-21T12:38:19Z</time>
      </trkpt>
      <trkpt lat="46.44074" lon="5.33563">
        <ele>226</ele>
        <time>2022-03-21T12:38:21Z</time>
      </trkpt>
      <trkpt lat="46.44069" lon="5.33537">
        <ele>225.8</ele>
        <time>2022-03-21T12:38:24Z</time>
      </trkpt>
      <trkpt lat="46.4406" lon="5.33524">
        <ele>225.6</ele>
        <time>2022-03-21T12:38:26Z</time>
      </trkpt>
      <trkpt lat="46.44054" lon="5.3352">
        <ele>225.6</ele>
        <time>2022-03-21T12:38:27Z</time>
      </trkpt>
      <trkpt lat="46.44008" lon="5.33502">
        <ele>225.2</ele>
        <time>2022-03-21T12:38:34Z</time>
      </trkpt>
      <trkpt lat="46.43995" lon="5.33497">
        <ele>225</ele>
        <time>2022-03-21T12:38:36Z</time>
      </trkpt>
      <trkpt lat="46.43965" lon="5.3348">
        <ele>225</ele>
        <time>2022-03-21T12:38:41Z</time>
      </trkpt>
      <trkpt lat="46.4392" lon="5.33452">
        <ele>224.8</ele>
        <time>2022-03-21T12:38:49Z</time>
      </trkpt>
      <trkpt lat="46.4387" lon="5.33435">
        <ele>224.4</ele>
        <time>2022-03-21T12:38:57Z</time>
      </trkpt>
      <trkpt lat="46.43858" lon="5.33433">
        <ele>224.2</ele>
        <time>2022-03-21T12:38:59Z</time>
      </trkpt>
      <trkpt lat="46.43813" lon="5.33432">
        <ele>224</ele>
        <time>2022-03-21T12:39:06Z</time>
      </trkpt>
      <trkpt lat="46.43755" lon="5.3344">
        <ele>223.8</ele>
        <time>2022-03-21T12:39:15Z</time>
      </trkpt>
      <trkpt lat="46.43742" lon="5.33443">
        <ele>223.8</ele>
        <time>2022-03-21T12:39:17Z</time>
      </trkpt>
      <trkpt lat="46.43685" lon="5.33448">
        <ele>223.6</ele>
        <time>2022-03-21T12:39:26Z</time>
      </trkpt>
      <trkpt lat="46.43678" lon="5.33448">
        <ele>223.6</ele>
        <time>2022-03-21T12:39:27Z</time>
      </trkpt>
      <trkpt lat="46.43622" lon="5.33451">
        <ele>223.6</ele>
        <time>2022-03-21T12:39:36Z</time>
      </trkpt>
      <trkpt lat="46.43611" lon="5.33451">
        <ele>223.8</ele>
        <time>2022-03-21T12:39:38Z</time>
      </trkpt>
      <trkpt lat="46.43569" lon="5.33448">
        <ele>224.4</ele>
        <time>2022-03-21T12:39:46Z</time>
      </trkpt>
      <trkpt lat="46.43547" lon="5.33446">
        <ele>224.4</ele>
        <time>2022-03-21T12:39:50Z</time>
      </trkpt>
      <trkpt lat="46.43537" lon="5.3345">
        <ele>224.4</ele>
        <time>2022-03-21T12:39:52Z</time>
      </trkpt>
      <trkpt lat="46.43527" lon="5.33458">
        <ele>224.4</ele>
        <time>2022-03-21T12:39:54Z</time>
      </trkpt>
      <trkpt lat="46.43514" lon="5.33474">
        <ele>224.2</ele>
        <time>2022-03-21T12:39:57Z</time>
      </trkpt>
      <trkpt lat="46.43472" lon="5.33532">
        <ele>224.8</ele>
        <time>2022-03-21T12:40:07Z</time>
      </trkpt>
      <trkpt lat="46.43458" lon="5.33566">
        <ele>225</ele>
        <time>2022-03-21T12:40:12Z</time>
      </trkpt>
      <trkpt lat="46.43457" lon="5.33573">
        <ele>225</ele>
        <time>2022-03-21T12:40:13Z</time>
      </trkpt>
      <trkpt lat="46.43455" lon="5.33586">
        <ele>225.2</ele>
        <time>2022-03-21T12:40:15Z</time>
      </trkpt>
      <trkpt lat="46.43455" lon="5.336">
        <ele>225.6</ele>
        <time>2022-03-21T12:40:17Z</time>
      </trkpt>
      <trkpt lat="46.43457" lon="5.33627">
        <ele>226.2</ele>
        <time>2022-03-21T12:40:22Z</time>
      </trkpt>
      <trkpt lat="46.43461" lon="5.33644">
        <ele>226.8</ele>
        <time>2022-03-21T12:40:26Z</time>
      </trkpt>
      <trkpt lat="46.43463" lon="5.33653">
        <ele>227.2</ele>
        <time>2022-03-21T12:40:28Z</time>
      </trkpt>
      <trkpt lat="46.43468" lon="5.33668">
        <ele>227.8</ele>
        <time>2022-03-21T12:40:31Z</time>
      </trkpt>
      <trkpt lat="46.43475" lon="5.3369">
        <ele>228.4</ele>
        <time>2022-03-21T12:40:35Z</time>
      </trkpt>
      <trkpt lat="46.43481" lon="5.33705">
        <ele>229</ele>
        <time>2022-03-21T12:40:38Z</time>
      </trkpt>
      <trkpt lat="46.43486" lon="5.33714">
        <ele>229.6</ele>
        <time>2022-03-21T12:40:40Z</time>
      </trkpt>
      <trkpt lat="46.43496" lon="5.33735">
        <ele>230.2</ele>
        <time>2022-03-21T12:40:44Z</time>
      </trkpt>
      <trkpt lat="46.43498" lon="5.3374">
        <ele>230.4</ele>
        <time>2022-03-21T12:40:45Z</time>
      </trkpt>
      <trkpt lat="46.43499" lon="5.33746">
        <ele>230.6</ele>
        <time>2022-03-21T12:40:46Z</time>
      </trkpt>
      <trkpt lat="46.435" lon="5.33761">
        <ele>231</ele>
        <time>2022-03-21T12:40:48Z</time>
      </trkpt>
      <trkpt lat="46.435" lon="5.33767">
        <ele>231.2</ele>
        <time>2022-03-21T12:40:49Z</time>
      </trkpt>
      <trkpt lat="46.43497" lon="5.33801">
        <ele>231.8</ele>
        <time>2022-03-21T12:40:55Z</time>
      </trkpt>
      <trkpt lat="46.43496" lon="5.33817">
        <ele>232.2</ele>
        <time>2022-03-21T12:40:58Z</time>
      </trkpt>
      <trkpt lat="46.43493" lon="5.33839">
        <ele>232.8</ele>
        <time>2022-03-21T12:41:02Z</time>
      </trkpt>
      <trkpt lat="46.43492" lon="5.33856">
        <ele>233.2</ele>
        <time>2022-03-21T12:41:05Z</time>
      </trkpt>
      <trkpt lat="46.43489" lon="5.33878">
        <ele>234.2</ele>
        <time>2022-03-21T12:41:10Z</time>
      </trkpt>
      <trkpt lat="46.43488" lon="5.33882">
        <ele>234.4</ele>
        <time>2022-03-21T12:41:11Z</time>
      </trkpt>
      <trkpt lat="46.43486" lon="5.33895">
        <ele>235.4</ele>
        <time>2022-03-21T12:41:14Z</time>
      </trkpt>
      <trkpt lat="46.43484" lon="5.33904">
        <ele>235.8</ele>
        <time>2022-03-21T12:41:16Z</time>
      </trkpt>
      <trkpt lat="46.43483" lon="5.33912">
        <ele>236.6</ele>
        <time>2022-03-21T12:41:18Z</time>
      </trkpt>
      <trkpt lat="46.43482" lon="5.33939">
        <ele>237.6</ele>
        <time>2022-03-21T12:41:23Z</time>
      </trkpt>
      <trkpt lat="46.43482" lon="5.3395">
        <ele>238</ele>
        <time>2022-03-21T12:41:25Z</time>
      </trkpt>
      <trkpt lat="46.4348" lon="5.33967">
        <ele>238.8</ele>
        <time>2022-03-21T12:41:28Z</time>
      </trkpt>
      <trkpt lat="46.43478" lon="5.33991">
        <ele>239.8</ele>
        <time>2022-03-21T12:41:33Z</time>
      </trkpt>
      <trkpt lat="46.43477" lon="5.34011">
        <ele>240.6</ele>
        <time>2022-03-21T12:41:37Z</time>
      </trkpt>
      <trkpt lat="46.43475" lon="5.34022">
        <ele>240.8</ele>
        <time>2022-03-21T12:41:39Z</time>
      </trkpt>
      <trkpt lat="46.43472" lon="5.34057">
        <ele>241.6</ele>
        <time>2022-03-21T12:41:45Z</time>
      </trkpt>
      <trkpt lat="46.43469" lon="5.34082">
        <ele>242</ele>
        <time>2022-03-21T12:41:49Z</time>
      </trkpt>
      <trkpt lat="46.43467" lon="5.34108">
        <ele>242.4</ele>
        <time>2022-03-21T12:41:53Z</time>
      </trkpt>
      <trkpt lat="46.43463" lon="5.34147">
        <ele>243</ele>
        <time>2022-03-21T12:41:59Z</time>
      </trkpt>
      <trkpt lat="46.43459" lon="5.34172">
        <ele>243.2</ele>
        <time>2022-03-21T12:42:03Z</time>
      </trkpt>
      <trkpt lat="46.43457" lon="5.34184">
        <ele>243.2</ele>
        <time>2022-03-21T12:42:05Z</time>
      </trkpt>
      <trkpt lat="46.4345" lon="5.34208">
        <ele>243.6</ele>
        <time>2022-03-21T12:42:09Z</time>
      </trkpt>
      <trkpt lat="46.43446" lon="5.34228">
        <ele>244</ele>
        <time>2022-03-21T12:42:12Z</time>
      </trkpt>
      <trkpt lat="46.43445" lon="5.34234">
        <ele>244.2</ele>
        <time>2022-03-21T12:42:13Z</time>
      </trkpt>
      <trkpt lat="46.43445" lon="5.34248">
        <ele>244.2</ele>
        <time>2022-03-21T12:42:15Z</time>
      </trkpt>
      <trkpt lat="46.43445" lon="5.34261">
        <ele>244.2</ele>
        <time>2022-03-21T12:42:17Z</time>
      </trkpt>
      <trkpt lat="46.43438" lon="5.3427">
        <ele>244.2</ele>
        <time>2022-03-21T12:42:19Z</time>
      </trkpt>
      <trkpt lat="46.43433" lon="5.34271">
        <ele>244.2</ele>
        <time>2022-03-21T12:42:20Z</time>
      </trkpt>
      <trkpt lat="46.43426" lon="5.34269">
        <ele>244.2</ele>
        <time>2022-03-21T12:42:21Z</time>
      </trkpt>
      <trkpt lat="46.43386" lon="5.34255">
        <ele>242.4</ele>
        <time>2022-03-21T12:42:26Z</time>
      </trkpt>
      <trkpt lat="46.43357" lon="5.34247">
        <ele>240.8</ele>
        <time>2022-03-21T12:42:29Z</time>
      </trkpt>
      <trkpt lat="46.43338" lon="5.34239">
        <ele>239.2</ele>
        <time>2022-03-21T12:42:31Z</time>
      </trkpt>
      <trkpt lat="46.43322" lon="5.34231">
        <ele>238.2</ele>
        <time>2022-03-21T12:42:33Z</time>
      </trkpt>
      <trkpt lat="46.43307" lon="5.34222">
        <ele>237</ele>
        <time>2022-03-21T12:42:35Z</time>
      </trkpt>
      <trkpt lat="46.43293" lon="5.34212">
        <ele>235.8</ele>
        <time>2022-03-21T12:42:37Z</time>
      </trkpt>
      <trkpt lat="46.43277" lon="5.34198">
        <ele>234.6</ele>
        <time>2022-03-21T12:42:40Z</time>
      </trkpt>
      <trkpt lat="46.43262" lon="5.34185">
        <ele>233.2</ele>
        <time>2022-03-21T12:42:43Z</time>
      </trkpt>
      <trkpt lat="46.43255" lon="5.34179">
        <ele>232.4</ele>
        <time>2022-03-21T12:42:45Z</time>
      </trkpt>
      <trkpt lat="46.43251" lon="5.34176">
        <ele>232.2</ele>
        <time>2022-03-21T12:42:46Z</time>
      </trkpt>
      <trkpt lat="46.43241" lon="5.34166">
        <ele>231.2</ele>
        <time>2022-03-21T12:42:49Z</time>
      </trkpt>
      <trkpt lat="46.43234" lon="5.3416">
        <ele>230.8</ele>
        <time>2022-03-21T12:42:51Z</time>
      </trkpt>
      <trkpt lat="46.43224" lon="5.3415">
        <ele>230.4</ele>
        <time>2022-03-21T12:42:54Z</time>
      </trkpt>
      <trkpt lat="46.43218" lon="5.34145">
        <ele>230</ele>
        <time>2022-03-21T12:42:57Z</time>
      </trkpt>
      <trkpt lat="46.43202" lon="5.34128">
        <ele>229.6</ele>
        <time>2022-03-21T12:43:04Z</time>
      </trkpt>
      <trkpt lat="46.43192" lon="5.34116">
        <ele>229.4</ele>
        <time>2022-03-21T12:43:07Z</time>
      </trkpt>
      <trkpt lat="46.43184" lon="5.34107">
        <ele>229.2</ele>
        <time>2022-03-21T12:43:09Z</time>
      </trkpt>
      <trkpt lat="46.43157" lon="5.34069">
        <ele>230</ele>
        <time>2022-03-21T12:43:16Z</time>
      </trkpt>
      <trkpt lat="46.43131" lon="5.34025">
        <ele>231.2</ele>
        <time>2022-03-21T12:43:24Z</time>
      </trkpt>
      <trkpt lat="46.43101" lon="5.33982">
        <ele>232.4</ele>
        <time>2022-03-21T12:43:32Z</time>
      </trkpt>
      <trkpt lat="46.43096" lon="5.33978">
        <ele>232.4</ele>
        <time>2022-03-21T12:43:33Z</time>
      </trkpt>
      <trkpt lat="46.43054" lon="5.33936">
        <ele>232.8</ele>
        <time>2022-03-21T12:43:42Z</time>
      </trkpt>
      <trkpt lat="46.43007" lon="5.33894">
        <ele>233</ele>
        <time>2022-03-21T12:43:51Z</time>
      </trkpt>
      <trkpt lat="46.42996" lon="5.33886">
        <ele>233</ele>
        <time>2022-03-21T12:43:53Z</time>
      </trkpt>
      <trkpt lat="46.42949" lon="5.33856">
        <ele>233</ele>
        <time>2022-03-21T12:44:01Z</time>
      </trkpt>
      <trkpt lat="46.42925" lon="5.33844">
        <ele>232.8</ele>
        <time>2022-03-21T12:44:05Z</time>
      </trkpt>
      <trkpt lat="46.42911" lon="5.33841">
        <ele>232.8</ele>
        <time>2022-03-21T12:44:07Z</time>
      </trkpt>
      <trkpt lat="46.42855" lon="5.33836">
        <ele>231.8</ele>
        <time>2022-03-21T12:44:15Z</time>
      </trkpt>
      <trkpt lat="46.42848" lon="5.33836">
        <ele>231.8</ele>
        <time>2022-03-21T12:44:16Z</time>
      </trkpt>
      <trkpt lat="46.42834" lon="5.33834">
        <ele>231.4</ele>
        <time>2022-03-21T12:44:18Z</time>
      </trkpt>
      <trkpt lat="46.42799" lon="5.33831">
        <ele>231</ele>
        <time>2022-03-21T12:44:23Z</time>
      </trkpt>
      <trkpt lat="46.42772" lon="5.33828">
        <ele>231.6</ele>
        <time>2022-03-21T12:44:28Z</time>
      </trkpt>
      <trkpt lat="46.42762" lon="5.33824">
        <ele>232</ele>
        <time>2022-03-21T12:44:30Z</time>
      </trkpt>
      <trkpt lat="46.42754" lon="5.33817">
        <ele>232.4</ele>
        <time>2022-03-21T12:44:32Z</time>
      </trkpt>
      <trkpt lat="46.42749" lon="5.33814">
        <ele>232.8</ele>
        <time>2022-03-21T12:44:33Z</time>
      </trkpt>
      <trkpt lat="46.42732" lon="5.33803">
        <ele>233.8</ele>
        <time>2022-03-21T12:44:37Z</time>
      </trkpt>
      <trkpt lat="46.42718" lon="5.33798">
        <ele>235</ele>
        <time>2022-03-21T12:44:40Z</time>
      </trkpt>
      <trkpt lat="46.42704" lon="5.33796">
        <ele>235.6</ele>
        <time>2022-03-21T12:44:43Z</time>
      </trkpt>
      <trkpt lat="46.42699" lon="5.33795">
        <ele>235.8</ele>
        <time>2022-03-21T12:44:44Z</time>
      </trkpt>
      <trkpt lat="46.42695" lon="5.33795">
        <ele>236.2</ele>
        <time>2022-03-21T12:44:45Z</time>
      </trkpt>
      <trkpt lat="46.42664" lon="5.33796">
        <ele>237.2</ele>
        <time>2022-03-21T12:44:52Z</time>
      </trkpt>
      <trkpt lat="46.42645" lon="5.33798">
        <ele>237.8</ele>
        <time>2022-03-21T12:44:56Z</time>
      </trkpt>
      <trkpt lat="46.426" lon="5.338">
        <ele>238.2</ele>
        <time>2022-03-21T12:45:05Z</time>
      </trkpt>
      <trkpt lat="46.42586" lon="5.33797">
        <ele>238.2</ele>
        <time>2022-03-21T12:45:08Z</time>
      </trkpt>
      <trkpt lat="46.42572" lon="5.33791">
        <ele>238.6</ele>
        <time>2022-03-21T12:45:11Z</time>
      </trkpt>
      <trkpt lat="46.42568" lon="5.33789">
        <ele>238.8</ele>
        <time>2022-03-21T12:45:12Z</time>
      </trkpt>
      <trkpt lat="46.42545" lon="5.33775">
        <ele>239.6</ele>
        <time>2022-03-21T12:45:18Z</time>
      </trkpt>
      <trkpt lat="46.42542" lon="5.33772">
        <ele>239.8</ele>
        <time>2022-03-21T12:45:19Z</time>
      </trkpt>
      <trkpt lat="46.42526" lon="5.33761">
        <ele>240.6</ele>
        <time>2022-03-21T12:45:24Z</time>
      </trkpt>
      <trkpt lat="46.42523" lon="5.33759">
        <ele>240.6</ele>
        <time>2022-03-21T12:45:25Z</time>
      </trkpt>
      <trkpt lat="46.42508" lon="5.3375">
        <ele>241.8</ele>
        <time>2022-03-21T12:45:30Z</time>
      </trkpt>
      <trkpt lat="46.42496" lon="5.33741">
        <ele>242.6</ele>
        <time>2022-03-21T12:45:34Z</time>
      </trkpt>
      <trkpt lat="46.42493" lon="5.33739">
        <ele>242.8</ele>
        <time>2022-03-21T12:45:35Z</time>
      </trkpt>
      <trkpt lat="46.42478" lon="5.33726">
        <ele>244</ele>
        <time>2022-03-21T12:45:40Z</time>
      </trkpt>
      <trkpt lat="46.42475" lon="5.33723">
        <ele>244.2</ele>
        <time>2022-03-21T12:45:41Z</time>
      </trkpt>
      <trkpt lat="46.42461" lon="5.33711">
        <ele>245.2</ele>
        <time>2022-03-21T12:45:45Z</time>
      </trkpt>
      <trkpt lat="46.42446" lon="5.33699">
        <ele>245.6</ele>
        <time>2022-03-21T12:45:49Z</time>
      </trkpt>
      <trkpt lat="46.42426" lon="5.33686">
        <ele>245.8</ele>
        <time>2022-03-21T12:45:54Z</time>
      </trkpt>
      <trkpt lat="46.42418" lon="5.33683">
        <ele>245.8</ele>
        <time>2022-03-21T12:45:56Z</time>
      </trkpt>
      <trkpt lat="46.42405" lon="5.33677">
        <ele>245.8</ele>
        <time>2022-03-21T12:45:59Z</time>
      </trkpt>
      <trkpt lat="46.42392" lon="5.33675">
        <ele>246.2</ele>
        <time>2022-03-21T12:46:02Z</time>
      </trkpt>
      <trkpt lat="46.42387" lon="5.33674">
        <ele>246.2</ele>
        <time>2022-03-21T12:46:03Z</time>
      </trkpt>
      <trkpt lat="46.42383" lon="5.33675">
        <ele>246.4</ele>
        <time>2022-03-21T12:46:04Z</time>
      </trkpt>
      <trkpt lat="46.42375" lon="5.33678">
        <ele>246.8</ele>
        <time>2022-03-21T12:46:06Z</time>
      </trkpt>
      <trkpt lat="46.42367" lon="5.33683">
        <ele>246.8</ele>
        <time>2022-03-21T12:46:08Z</time>
      </trkpt>
      <trkpt lat="46.42353" lon="5.33692">
        <ele>247.4</ele>
        <time>2022-03-21T12:46:12Z</time>
      </trkpt>
      <trkpt lat="46.42347" lon="5.33697">
        <ele>247.6</ele>
        <time>2022-03-21T12:46:14Z</time>
      </trkpt>
      <trkpt lat="46.42337" lon="5.33703">
        <ele>248.6</ele>
        <time>2022-03-21T12:46:17Z</time>
      </trkpt>
      <trkpt lat="46.42324" lon="5.33711">
        <ele>249.4</ele>
        <time>2022-03-21T12:46:21Z</time>
      </trkpt>
      <trkpt lat="46.42322" lon="5.33713">
        <ele>249.8</ele>
        <time>2022-03-21T12:46:22Z</time>
      </trkpt>
      <trkpt lat="46.42311" lon="5.33723">
        <ele>250.6</ele>
        <time>2022-03-21T12:46:26Z</time>
      </trkpt>
      <trkpt lat="46.42306" lon="5.33729">
        <ele>250.8</ele>
        <time>2022-03-21T12:46:28Z</time>
      </trkpt>
      <trkpt lat="46.42296" lon="5.33744">
        <ele>252</ele>
        <time>2022-03-21T12:46:32Z</time>
      </trkpt>
      <trkpt lat="46.42279" lon="5.33774">
        <ele>253</ele>
        <time>2022-03-21T12:46:40Z</time>
      </trkpt>
      <trkpt lat="46.42274" lon="5.33783">
        <ele>253.2</ele>
        <time>2022-03-21T12:46:42Z</time>
      </trkpt>
      <trkpt lat="46.4226" lon="5.33814">
        <ele>254.2</ele>
        <time>2022-03-21T12:46:49Z</time>
      </trkpt>
      <trkpt lat="46.42257" lon="5.33818">
        <ele>254.4</ele>
        <time>2022-03-21T12:46:50Z</time>
      </trkpt>
      <trkpt lat="46.42248" lon="5.33835">
        <ele>255.2</ele>
        <time>2022-03-21T12:46:54Z</time>
      </trkpt>
      <trkpt lat="46.42237" lon="5.33858">
        <ele>256</ele>
        <time>2022-03-21T12:46:59Z</time>
      </trkpt>
      <trkpt lat="46.42233" lon="5.33867">
        <ele>256.4</ele>
        <time>2022-03-21T12:47:01Z</time>
      </trkpt>
      <trkpt lat="46.42223" lon="5.33887">
        <ele>257</ele>
        <time>2022-03-21T12:47:06Z</time>
      </trkpt>
      <trkpt lat="46.42212" lon="5.33908">
        <ele>257.6</ele>
        <time>2022-03-21T12:47:11Z</time>
      </trkpt>
      <trkpt lat="46.42198" lon="5.33927">
        <ele>258.2</ele>
        <time>2022-03-21T12:47:16Z</time>
      </trkpt>
      <trkpt lat="46.42195" lon="5.3393">
        <ele>258.6</ele>
        <time>2022-03-21T12:47:17Z</time>
      </trkpt>
      <trkpt lat="46.42179" lon="5.33938">
        <ele>260</ele>
        <time>2022-03-21T12:47:22Z</time>
      </trkpt>
      <trkpt lat="46.42158" lon="5.33936">
        <ele>260.6</ele>
        <time>2022-03-21T12:47:28Z</time>
      </trkpt>
      <trkpt lat="46.42149" lon="5.33932">
        <ele>261.4</ele>
        <time>2022-03-21T12:47:31Z</time>
      </trkpt>
      <trkpt lat="46.42131" lon="5.33924">
        <ele>262.6</ele>
        <time>2022-03-21T12:47:36Z</time>
      </trkpt>
      <trkpt lat="46.42123" lon="5.3392">
        <ele>263</ele>
        <time>2022-03-21T12:47:38Z</time>
      </trkpt>
      <trkpt lat="46.42096" lon="5.33907">
        <ele>263.4</ele>
        <time>2022-03-21T12:47:44Z</time>
      </trkpt>
      <trkpt lat="46.42068" lon="5.33902">
        <ele>263.4</ele>
        <time>2022-03-21T12:47:50Z</time>
      </trkpt>
      <trkpt lat="46.42017" lon="5.33902">
        <ele>263</ele>
        <time>2022-03-21T12:48:00Z</time>
      </trkpt>
      <trkpt lat="46.42005" lon="5.339">
        <ele>262.8</ele>
        <time>2022-03-21T12:48:02Z</time>
      </trkpt>
      <trkpt lat="46.41992" lon="5.33895">
        <ele>262.6</ele>
        <time>2022-03-21T12:48:04Z</time>
      </trkpt>
      <trkpt lat="46.41959" lon="5.33873">
        <ele>261.8</ele>
        <time>2022-03-21T12:48:09Z</time>
      </trkpt>
      <trkpt lat="46.41951" lon="5.33871">
        <ele>261.4</ele>
        <time>2022-03-21T12:48:10Z</time>
      </trkpt>
      <trkpt lat="46.41927" lon="5.3387">
        <ele>260</ele>
        <time>2022-03-21T12:48:13Z</time>
      </trkpt>
      <trkpt lat="46.41902" lon="5.33876">
        <ele>258.8</ele>
        <time>2022-03-21T12:48:16Z</time>
      </trkpt>
      <trkpt lat="46.41878" lon="5.33879">
        <ele>258</ele>
        <time>2022-03-21T12:48:19Z</time>
      </trkpt>
      <trkpt lat="46.41864" lon="5.3388">
        <ele>257.6</ele>
        <time>2022-03-21T12:48:21Z</time>
      </trkpt>
      <trkpt lat="46.41845" lon="5.3388">
        <ele>257.4</ele>
        <time>2022-03-21T12:48:24Z</time>
      </trkpt>
      <trkpt lat="46.41813" lon="5.33874">
        <ele>257.8</ele>
        <time>2022-03-21T12:48:30Z</time>
      </trkpt>
      <trkpt lat="46.41784" lon="5.33863">
        <ele>258.8</ele>
        <time>2022-03-21T12:48:37Z</time>
      </trkpt>
      <trkpt lat="46.4178" lon="5.33862">
        <ele>259.2</ele>
        <time>2022-03-21T12:48:38Z</time>
      </trkpt>
      <trkpt lat="46.41764" lon="5.33858">
        <ele>260.2</ele>
        <time>2022-03-21T12:48:42Z</time>
      </trkpt>
      <trkpt lat="46.41753" lon="5.33857">
        <ele>261.2</ele>
        <time>2022-03-21T12:48:45Z</time>
      </trkpt>
      <trkpt lat="46.41732" lon="5.33864">
        <ele>262.4</ele>
        <time>2022-03-21T12:48:51Z</time>
      </trkpt>
      <trkpt lat="46.4172" lon="5.33868">
        <ele>263.6</ele>
        <time>2022-03-21T12:48:55Z</time>
      </trkpt>
      <trkpt lat="46.41712" lon="5.3387">
        <ele>264.2</ele>
        <time>2022-03-21T12:48:58Z</time>
      </trkpt>
      <trkpt lat="46.41707" lon="5.33872">
        <ele>264.6</ele>
        <time>2022-03-21T12:49:00Z</time>
      </trkpt>
      <trkpt lat="46.41695" lon="5.33874">
        <ele>265.8</ele>
        <time>2022-03-21T12:49:04Z</time>
      </trkpt>
      <trkpt lat="46.41692" lon="5.33874">
        <ele>266</ele>
        <time>2022-03-21T12:49:05Z</time>
      </trkpt>
      <trkpt lat="46.41675" lon="5.33875">
        <ele>267</ele>
        <time>2022-03-21T12:49:10Z</time>
      </trkpt>
      <trkpt lat="46.41664" lon="5.33875">
        <ele>267.4</ele>
        <time>2022-03-21T12:49:13Z</time>
      </trkpt>
      <trkpt lat="46.41657" lon="5.33875">
        <ele>268</ele>
        <time>2022-03-21T12:49:15Z</time>
      </trkpt>
      <trkpt lat="46.41643" lon="5.33874">
        <ele>269.2</ele>
        <time>2022-03-21T12:49:19Z</time>
      </trkpt>
      <trkpt lat="46.4163" lon="5.33876">
        <ele>269.6</ele>
        <time>2022-03-21T12:49:22Z</time>
      </trkpt>
      <trkpt lat="46.41604" lon="5.33885">
        <ele>270.2</ele>
        <time>2022-03-21T12:49:28Z</time>
      </trkpt>
      <trkpt lat="46.41597" lon="5.33886">
        <ele>270.4</ele>
        <time>2022-03-21T12:49:30Z</time>
      </trkpt>
      <trkpt lat="46.41567" lon="5.33883">
        <ele>270.8</ele>
        <time>2022-03-21T12:49:37Z</time>
      </trkpt>
      <trkpt lat="46.41536" lon="5.33876">
        <ele>270.8</ele>
        <time>2022-03-21T12:49:43Z</time>
      </trkpt>
      <trkpt lat="46.41505" lon="5.3387">
        <ele>270.4</ele>
        <time>2022-03-21T12:49:48Z</time>
      </trkpt>
      <trkpt lat="46.41493" lon="5.33863">
        <ele>270.2</ele>
        <time>2022-03-21T12:49:50Z</time>
      </trkpt>
      <trkpt lat="46.41453" lon="5.33836">
        <ele>269.2</ele>
        <time>2022-03-21T12:49:56Z</time>
      </trkpt>
      <trkpt lat="46.41446" lon="5.33832">
        <ele>269.2</ele>
        <time>2022-03-21T12:49:57Z</time>
      </trkpt>
      <trkpt lat="46.41414" lon="5.33822">
        <ele>268</ele>
        <time>2022-03-21T12:50:01Z</time>
      </trkpt>
      <trkpt lat="46.41382" lon="5.33813">
        <ele>266.6</ele>
        <time>2022-03-21T12:50:05Z</time>
      </trkpt>
      <trkpt lat="46.41351" lon="5.33804">
        <ele>265.6</ele>
        <time>2022-03-21T12:50:09Z</time>
      </trkpt>
      <trkpt lat="46.41319" lon="5.33791">
        <ele>264.2</ele>
        <time>2022-03-21T12:50:13Z</time>
      </trkpt>
      <trkpt lat="46.41311" lon="5.33784">
        <ele>264</ele>
        <time>2022-03-21T12:50:14Z</time>
      </trkpt>
      <trkpt lat="46.41291" lon="5.33761">
        <ele>263</ele>
        <time>2022-03-21T12:50:17Z</time>
      </trkpt>
      <trkpt lat="46.41276" lon="5.33746">
        <ele>262</ele>
        <time>2022-03-21T12:50:19Z</time>
      </trkpt>
      <trkpt lat="46.41269" lon="5.33738">
        <ele>261.6</ele>
        <time>2022-03-21T12:50:20Z</time>
      </trkpt>
      <trkpt lat="46.41248" lon="5.33718">
        <ele>260.4</ele>
        <time>2022-03-21T12:50:23Z</time>
      </trkpt>
      <trkpt lat="46.41227" lon="5.33698">
        <ele>259.6</ele>
        <time>2022-03-21T12:50:26Z</time>
      </trkpt>
      <trkpt lat="46.4122" lon="5.33692">
        <ele>259.4</ele>
        <time>2022-03-21T12:50:27Z</time>
      </trkpt>
      <trkpt lat="46.41179" lon="5.33655">
        <ele>258.2</ele>
        <time>2022-03-21T12:50:33Z</time>
      </trkpt>
      <trkpt lat="46.41172" lon="5.33649">
        <ele>258</ele>
        <time>2022-03-21T12:50:34Z</time>
      </trkpt>
      <trkpt lat="46.41135" lon="5.33615">
        <ele>257.2</ele>
        <time>2022-03-21T12:50:40Z</time>
      </trkpt>
      <trkpt lat="46.41128" lon="5.3361">
        <ele>257.2</ele>
        <time>2022-03-21T12:50:41Z</time>
      </trkpt>
      <trkpt lat="46.41092" lon="5.33585">
        <ele>257</ele>
        <time>2022-03-21T12:50:47Z</time>
      </trkpt>
      <trkpt lat="46.41058" lon="5.3357">
        <ele>257</ele>
        <time>2022-03-21T12:50:53Z</time>
      </trkpt>
      <trkpt lat="46.41021" lon="5.33558">
        <ele>258</ele>
        <time>2022-03-21T12:51:00Z</time>
      </trkpt>
      <trkpt lat="46.41011" lon="5.33556">
        <ele>258.4</ele>
        <time>2022-03-21T12:51:02Z</time>
      </trkpt>
      <trkpt lat="46.40998" lon="5.33551">
        <ele>258.8</ele>
        <time>2022-03-21T12:51:05Z</time>
      </trkpt>
      <trkpt lat="46.40989" lon="5.33548">
        <ele>259.4</ele>
        <time>2022-03-21T12:51:07Z</time>
      </trkpt>
      <trkpt lat="46.40971" lon="5.33544">
        <ele>260.2</ele>
        <time>2022-03-21T12:51:11Z</time>
      </trkpt>
      <trkpt lat="46.40966" lon="5.33543">
        <ele>260.2</ele>
        <time>2022-03-21T12:51:12Z</time>
      </trkpt>
      <trkpt lat="46.40962" lon="5.33542">
        <ele>260.4</ele>
        <time>2022-03-21T12:51:13Z</time>
      </trkpt>
      <trkpt lat="46.40925" lon="5.33532">
        <ele>261.6</ele>
        <time>2022-03-21T12:51:21Z</time>
      </trkpt>
      <trkpt lat="46.40884" lon="5.33521">
        <ele>262.2</ele>
        <time>2022-03-21T12:51:29Z</time>
      </trkpt>
      <trkpt lat="46.40832" lon="5.33508">
        <ele>261.2</ele>
        <time>2022-03-21T12:51:37Z</time>
      </trkpt>
      <trkpt lat="46.4081" lon="5.33502">
        <ele>260.4</ele>
        <time>2022-03-21T12:51:40Z</time>
      </trkpt>
      <trkpt lat="46.40781" lon="5.33492">
        <ele>259.4</ele>
        <time>2022-03-21T12:51:44Z</time>
      </trkpt>
      <trkpt lat="46.40744" lon="5.33475">
        <ele>258.2</ele>
        <time>2022-03-21T12:51:49Z</time>
      </trkpt>
      <trkpt lat="46.4073" lon="5.33467">
        <ele>257.4</ele>
        <time>2022-03-21T12:51:51Z</time>
      </trkpt>
      <trkpt lat="46.40723" lon="5.33462">
        <ele>257.2</ele>
        <time>2022-03-21T12:51:52Z</time>
      </trkpt>
      <trkpt lat="46.40679" lon="5.33436">
        <ele>256</ele>
        <time>2022-03-21T12:51:58Z</time>
      </trkpt>
      <trkpt lat="46.40664" lon="5.33426">
        <ele>255.8</ele>
        <time>2022-03-21T12:52:00Z</time>
      </trkpt>
      <trkpt lat="46.40643" lon="5.33413">
        <ele>254.6</ele>
        <time>2022-03-21T12:52:03Z</time>
      </trkpt>
      <trkpt lat="46.40604" lon="5.33389">
        <ele>253</ele>
        <time>2022-03-21T12:52:08Z</time>
      </trkpt>
      <trkpt lat="46.40589" lon="5.33379">
        <ele>252.4</ele>
        <time>2022-03-21T12:52:10Z</time>
      </trkpt>
      <trkpt lat="46.40573" lon="5.3337">
        <ele>251.6</ele>
        <time>2022-03-21T12:52:12Z</time>
      </trkpt>
      <trkpt lat="46.40549" lon="5.33355">
        <ele>250.6</ele>
        <time>2022-03-21T12:52:15Z</time>
      </trkpt>
      <trkpt lat="46.40525" lon="5.3334">
        <ele>249.2</ele>
        <time>2022-03-21T12:52:18Z</time>
      </trkpt>
      <trkpt lat="46.40517" lon="5.33333">
        <ele>248.8</ele>
        <time>2022-03-21T12:52:19Z</time>
      </trkpt>
      <trkpt lat="46.40504" lon="5.33317">
        <ele>248.2</ele>
        <time>2022-03-21T12:52:21Z</time>
      </trkpt>
      <trkpt lat="46.40497" lon="5.3331">
        <ele>247.8</ele>
        <time>2022-03-21T12:52:22Z</time>
      </trkpt>
      <trkpt lat="46.40489" lon="5.33304">
        <ele>247.4</ele>
        <time>2022-03-21T12:52:23Z</time>
      </trkpt>
      <trkpt lat="46.40481" lon="5.33298">
        <ele>247</ele>
        <time>2022-03-21T12:52:24Z</time>
      </trkpt>
      <trkpt lat="46.40473" lon="5.33294">
        <ele>246.8</ele>
        <time>2022-03-21T12:52:25Z</time>
      </trkpt>
      <trkpt lat="46.40449" lon="5.33283">
        <ele>246</ele>
        <time>2022-03-21T12:52:28Z</time>
      </trkpt>
      <trkpt lat="46.40443" lon="5.3328">
        <ele>245.8</ele>
        <time>2022-03-21T12:52:29Z</time>
      </trkpt>
      <trkpt lat="46.40435" lon="5.33274">
        <ele>245.8</ele>
        <time>2022-03-21T12:52:30Z</time>
      </trkpt>
      <trkpt lat="46.40421" lon="5.33262">
        <ele>245.4</ele>
        <time>2022-03-21T12:52:32Z</time>
      </trkpt>
      <trkpt lat="46.40381" lon="5.33214">
        <ele>245</ele>
        <time>2022-03-21T12:52:39Z</time>
      </trkpt>
      <trkpt lat="46.40351" lon="5.33172">
        <ele>245.8</ele>
        <time>2022-03-21T12:52:45Z</time>
      </trkpt>
      <trkpt lat="46.40328" lon="5.33142">
        <ele>246.8</ele>
        <time>2022-03-21T12:52:50Z</time>
      </trkpt>
      <trkpt lat="46.40324" lon="5.33136">
        <ele>247</ele>
        <time>2022-03-21T12:52:51Z</time>
      </trkpt>
      <trkpt lat="46.40294" lon="5.33091">
        <ele>247.8</ele>
        <time>2022-03-21T12:52:59Z</time>
      </trkpt>
      <trkpt lat="46.4029" lon="5.33086">
        <ele>247.8</ele>
        <time>2022-03-21T12:53:00Z</time>
      </trkpt>
      <trkpt lat="46.40259" lon="5.33041">
        <ele>248.2</ele>
        <time>2022-03-21T12:53:08Z</time>
      </trkpt>
      <trkpt lat="46.40222" lon="5.32988">
        <ele>248</ele>
        <time>2022-03-21T12:53:17Z</time>
      </trkpt>
      <trkpt lat="46.40199" lon="5.3295">
        <ele>247.4</ele>
        <time>2022-03-21T12:53:23Z</time>
      </trkpt>
      <trkpt lat="46.40185" lon="5.32925">
        <ele>247.4</ele>
        <time>2022-03-21T12:53:27Z</time>
      </trkpt>
      <trkpt lat="46.40155" lon="5.3286">
        <ele>247.6</ele>
        <time>2022-03-21T12:53:37Z</time>
      </trkpt>
      <trkpt lat="46.40126" lon="5.32795">
        <ele>247.8</ele>
        <time>2022-03-21T12:53:46Z</time>
      </trkpt>
      <trkpt lat="46.40098" lon="5.32729">
        <ele>247</ele>
        <time>2022-03-21T12:53:55Z</time>
      </trkpt>
      <trkpt lat="46.40093" lon="5.32715">
        <ele>246.8</ele>
        <time>2022-03-21T12:53:57Z</time>
      </trkpt>
      <trkpt lat="46.40076" lon="5.32659">
        <ele>246.4</ele>
        <time>2022-03-21T12:54:04Z</time>
      </trkpt>
      <trkpt lat="46.4007" lon="5.32636">
        <ele>246.4</ele>
        <time>2022-03-21T12:54:07Z</time>
      </trkpt>
      <trkpt lat="46.40062" lon="5.32625">
        <ele>246.4</ele>
        <time>2022-03-21T12:54:09Z</time>
      </trkpt>
      <trkpt lat="46.40051" lon="5.32623">
        <ele>246.6</ele>
        <time>2022-03-21T12:54:11Z</time>
      </trkpt>
      <trkpt lat="46.40045" lon="5.32625">
        <ele>246.6</ele>
        <time>2022-03-21T12:54:12Z</time>
      </trkpt>
      <trkpt lat="46.40005" lon="5.32647">
        <ele>246.6</ele>
        <time>2022-03-21T12:54:19Z</time>
      </trkpt>
      <trkpt lat="46.39955" lon="5.32671">
        <ele>246.2</ele>
        <time>2022-03-21T12:54:26Z</time>
      </trkpt>
      <trkpt lat="46.39942" lon="5.32677">
        <ele>245.8</ele>
        <time>2022-03-21T12:54:28Z</time>
      </trkpt>
      <trkpt lat="46.39894" lon="5.32699">
        <ele>245</ele>
        <time>2022-03-21T12:54:34Z</time>
      </trkpt>
      <trkpt lat="46.39837" lon="5.32725">
        <ele>244</ele>
        <time>2022-03-21T12:54:41Z</time>
      </trkpt>
      <trkpt lat="46.39829" lon="5.32729">
        <ele>243.8</ele>
        <time>2022-03-21T12:54:42Z</time>
      </trkpt>
      <trkpt lat="46.39821" lon="5.32732">
        <ele>243.6</ele>
        <time>2022-03-21T12:54:43Z</time>
      </trkpt>
      <trkpt lat="46.3979" lon="5.32747">
        <ele>242.6</ele>
        <time>2022-03-21T12:54:47Z</time>
      </trkpt>
      <trkpt lat="46.39767" lon="5.32758">
        <ele>241.2</ele>
        <time>2022-03-21T12:54:50Z</time>
      </trkpt>
      <trkpt lat="46.39759" lon="5.32763">
        <ele>241</ele>
        <time>2022-03-21T12:54:51Z</time>
      </trkpt>
      <trkpt lat="46.39725" lon="5.32781">
        <ele>240</ele>
        <time>2022-03-21T12:54:55Z</time>
      </trkpt>
      <trkpt lat="46.39691" lon="5.32801">
        <ele>238.6</ele>
        <time>2022-03-21T12:54:59Z</time>
      </trkpt>
      <trkpt lat="46.39673" lon="5.3281">
        <ele>237.8</ele>
        <time>2022-03-21T12:55:01Z</time>
      </trkpt>
      <trkpt lat="46.39655" lon="5.32819">
        <ele>236.8</ele>
        <time>2022-03-21T12:55:03Z</time>
      </trkpt>
      <trkpt lat="46.39636" lon="5.32825">
        <ele>235.6</ele>
        <time>2022-03-21T12:55:05Z</time>
      </trkpt>
      <trkpt lat="46.39626" lon="5.32827">
        <ele>235</ele>
        <time>2022-03-21T12:55:06Z</time>
      </trkpt>
      <trkpt lat="46.39607" lon="5.32832">
        <ele>234.4</ele>
        <time>2022-03-21T12:55:08Z</time>
      </trkpt>
      <trkpt lat="46.39579" lon="5.32843">
        <ele>233</ele>
        <time>2022-03-21T12:55:11Z</time>
      </trkpt>
      <trkpt lat="46.39571" lon="5.32848">
        <ele>232.6</ele>
        <time>2022-03-21T12:55:12Z</time>
      </trkpt>
      <trkpt lat="46.39555" lon="5.32857">
        <ele>232</ele>
        <time>2022-03-21T12:55:14Z</time>
      </trkpt>
      <trkpt lat="46.39527" lon="5.32871">
        <ele>231.2</ele>
        <time>2022-03-21T12:55:18Z</time>
      </trkpt>
      <trkpt lat="46.39484" lon="5.3289">
        <ele>230.8</ele>
        <time>2022-03-21T12:55:24Z</time>
      </trkpt>
      <trkpt lat="46.39476" lon="5.32893">
        <ele>230.4</ele>
        <time>2022-03-21T12:55:25Z</time>
      </trkpt>
      <trkpt lat="46.39442" lon="5.32904">
        <ele>229.6</ele>
        <time>2022-03-21T12:55:29Z</time>
      </trkpt>
      <trkpt lat="46.39434" lon="5.32906">
        <ele>229.2</ele>
        <time>2022-03-21T12:55:30Z</time>
      </trkpt>
      <trkpt lat="46.39416" lon="5.32909">
        <ele>228.4</ele>
        <time>2022-03-21T12:55:32Z</time>
      </trkpt>
      <trkpt lat="46.39407" lon="5.32909">
        <ele>228.2</ele>
        <time>2022-03-21T12:55:33Z</time>
      </trkpt>
      <trkpt lat="46.39398" lon="5.32908">
        <ele>227.8</ele>
        <time>2022-03-21T12:55:34Z</time>
      </trkpt>
      <trkpt lat="46.39389" lon="5.32904">
        <ele>227</ele>
        <time>2022-03-21T12:55:35Z</time>
      </trkpt>
      <trkpt lat="46.39376" lon="5.32894">
        <ele>225.8</ele>
        <time>2022-03-21T12:55:37Z</time>
      </trkpt>
      <trkpt lat="46.3936" lon="5.32883">
        <ele>224.8</ele>
        <time>2022-03-21T12:55:40Z</time>
      </trkpt>
      <trkpt lat="46.39356" lon="5.32884">
        <ele>224.6</ele>
        <time>2022-03-21T12:55:41Z</time>
      </trkpt>
      <trkpt lat="46.39352" lon="5.32889">
        <ele>224.6</ele>
        <time>2022-03-21T12:55:42Z</time>
      </trkpt>
      <trkpt lat="46.3935" lon="5.32896">
        <ele>224.4</ele>
        <time>2022-03-21T12:55:43Z</time>
      </trkpt>
      <trkpt lat="46.39346" lon="5.32915">
        <ele>224.2</ele>
        <time>2022-03-21T12:55:45Z</time>
      </trkpt>
      <trkpt lat="46.39342" lon="5.32924">
        <ele>224.2</ele>
        <time>2022-03-21T12:55:46Z</time>
      </trkpt>
      <trkpt lat="46.39336" lon="5.32931">
        <ele>223.8</ele>
        <time>2022-03-21T12:55:47Z</time>
      </trkpt>
      <trkpt lat="46.39327" lon="5.32936">
        <ele>223.4</ele>
        <time>2022-03-21T12:55:48Z</time>
      </trkpt>
      <trkpt lat="46.39319" lon="5.3294">
        <ele>223.2</ele>
        <time>2022-03-21T12:55:49Z</time>
      </trkpt>
      <trkpt lat="46.39303" lon="5.32949">
        <ele>222.4</ele>
        <time>2022-03-21T12:55:51Z</time>
      </trkpt>
      <trkpt lat="46.39279" lon="5.32961">
        <ele>221.2</ele>
        <time>2022-03-21T12:55:54Z</time>
      </trkpt>
      <trkpt lat="46.39252" lon="5.32974">
        <ele>220.8</ele>
        <time>2022-03-21T12:55:57Z</time>
      </trkpt>
      <trkpt lat="46.39218" lon="5.32988">
        <ele>220.2</ele>
        <time>2022-03-21T12:56:01Z</time>
      </trkpt>
      <trkpt lat="46.39178" lon="5.33004">
        <ele>219.4</ele>
        <time>2022-03-21T12:56:06Z</time>
      </trkpt>
      <trkpt lat="46.39131" lon="5.33018">
        <ele>219.4</ele>
        <time>2022-03-21T12:56:12Z</time>
      </trkpt>
      <trkpt lat="46.39092" lon="5.33025">
        <ele>219</ele>
        <time>2022-03-21T12:56:17Z</time>
      </trkpt>
      <trkpt lat="46.39085" lon="5.33024">
        <ele>219</ele>
        <time>2022-03-21T12:56:18Z</time>
      </trkpt>
      <trkpt lat="46.3904" lon="5.3301">
        <ele>218.8</ele>
        <time>2022-03-21T12:56:24Z</time>
      </trkpt>
      <trkpt lat="46.3898" lon="5.32989">
        <ele>219</ele>
        <time>2022-03-21T12:56:32Z</time>
      </trkpt>
      <trkpt lat="46.38964" lon="5.32983">
        <ele>219.2</ele>
        <time>2022-03-21T12:56:34Z</time>
      </trkpt>
      <trkpt lat="46.38916" lon="5.32965">
        <ele>218.4</ele>
        <time>2022-03-21T12:56:40Z</time>
      </trkpt>
      <trkpt lat="46.38902" lon="5.3296">
        <ele>218</ele>
        <time>2022-03-21T12:56:42Z</time>
      </trkpt>
      <trkpt lat="46.38857" lon="5.32941">
        <ele>217.8</ele>
        <time>2022-03-21T12:56:48Z</time>
      </trkpt>
      <trkpt lat="46.38801" lon="5.32918">
        <ele>217.8</ele>
        <time>2022-03-21T12:56:56Z</time>
      </trkpt>
      <trkpt lat="46.38779" lon="5.32909">
        <ele>218</ele>
        <time>2022-03-21T12:56:59Z</time>
      </trkpt>
      <trkpt lat="46.38769" lon="5.32898">
        <ele>217.8</ele>
        <time>2022-03-21T12:57:01Z</time>
      </trkpt>
      <trkpt lat="46.38763" lon="5.32876">
        <ele>217.6</ele>
        <time>2022-03-21T12:57:03Z</time>
      </trkpt>
      <trkpt lat="46.38762" lon="5.32865">
        <ele>217.6</ele>
        <time>2022-03-21T12:57:04Z</time>
      </trkpt>
      <trkpt lat="46.38764" lon="5.3283">
        <ele>217.2</ele>
        <time>2022-03-21T12:57:07Z</time>
      </trkpt>
      <trkpt lat="46.38768" lon="5.32808">
        <ele>217.2</ele>
        <time>2022-03-21T12:57:09Z</time>
      </trkpt>
      <trkpt lat="46.3877" lon="5.328">
        <ele>217</ele>
        <time>2022-03-21T12:57:10Z</time>
      </trkpt>
      <trkpt lat="46.38783" lon="5.3276">
        <ele>217</ele>
        <time>2022-03-21T12:57:14Z</time>
      </trkpt>
      <trkpt lat="46.38791" lon="5.32727">
        <ele>216.8</ele>
        <time>2022-03-21T12:57:17Z</time>
      </trkpt>
      <trkpt lat="46.38793" lon="5.32709">
        <ele>216.6</ele>
        <time>2022-03-21T12:57:19Z</time>
      </trkpt>
      <trkpt lat="46.38794" lon="5.32687">
        <ele>216.6</ele>
        <time>2022-03-21T12:57:21Z</time>
      </trkpt>
      <trkpt lat="46.38792" lon="5.3266">
        <ele>216.6</ele>
        <time>2022-03-21T12:57:24Z</time>
      </trkpt>
      <trkpt lat="46.38786" lon="5.32643">
        <ele>216.6</ele>
        <time>2022-03-21T12:57:26Z</time>
      </trkpt>
      <trkpt lat="46.38782" lon="5.32638">
        <ele>216.6</ele>
        <time>2022-03-21T12:57:27Z</time>
      </trkpt>
      <trkpt lat="46.38753" lon="5.32617">
        <ele>216.6</ele>
        <time>2022-03-21T12:57:32Z</time>
      </trkpt>
      <trkpt lat="46.38702" lon="5.32573">
        <ele>216.6</ele>
        <time>2022-03-21T12:57:41Z</time>
      </trkpt>
      <trkpt lat="46.38697" lon="5.32567">
        <ele>216.6</ele>
        <time>2022-03-21T12:57:42Z</time>
      </trkpt>
      <trkpt lat="46.38649" lon="5.32519">
        <ele>216.8</ele>
        <time>2022-03-21T12:57:51Z</time>
      </trkpt>
      <trkpt lat="46.38643" lon="5.32515">
        <ele>216.8</ele>
        <time>2022-03-21T12:57:52Z</time>
      </trkpt>
      <trkpt lat="46.38596" lon="5.32478">
        <ele>216.4</ele>
        <time>2022-03-21T12:58:00Z</time>
      </trkpt>
      <trkpt lat="46.38567" lon="5.32448">
        <ele>216.2</ele>
        <time>2022-03-21T12:58:05Z</time>
      </trkpt>
      <trkpt lat="46.38554" lon="5.32437">
        <ele>215.8</ele>
        <time>2022-03-21T12:58:07Z</time>
      </trkpt>
      <trkpt lat="46.3851" lon="5.32396">
        <ele>215.2</ele>
        <time>2022-03-21T12:58:14Z</time>
      </trkpt>
      <trkpt lat="46.38505" lon="5.32389">
        <ele>215.2</ele>
        <time>2022-03-21T12:58:15Z</time>
      </trkpt>
      <trkpt lat="46.38499" lon="5.32382">
        <ele>215</ele>
        <time>2022-03-21T12:58:16Z</time>
      </trkpt>
      <trkpt lat="46.38479" lon="5.32369">
        <ele>215</ele>
        <time>2022-03-21T12:58:19Z</time>
      </trkpt>
      <trkpt lat="46.38466" lon="5.32364">
        <ele>215</ele>
        <time>2022-03-21T12:58:21Z</time>
      </trkpt>
      <trkpt lat="46.38452" lon="5.32364">
        <ele>214.8</ele>
        <time>2022-03-21T12:58:23Z</time>
      </trkpt>
      <trkpt lat="46.38438" lon="5.32372">
        <ele>215</ele>
        <time>2022-03-21T12:58:25Z</time>
      </trkpt>
      <trkpt lat="46.38432" lon="5.32378">
        <ele>214.8</ele>
        <time>2022-03-21T12:58:26Z</time>
      </trkpt>
      <trkpt lat="46.38427" lon="5.32386">
        <ele>215</ele>
        <time>2022-03-21T12:58:27Z</time>
      </trkpt>
      <trkpt lat="46.38417" lon="5.32402">
        <ele>214.8</ele>
        <time>2022-03-21T12:58:29Z</time>
      </trkpt>
      <trkpt lat="46.38414" lon="5.3241">
        <ele>214.8</ele>
        <time>2022-03-21T12:58:30Z</time>
      </trkpt>
      <trkpt lat="46.3841" lon="5.32419">
        <ele>214.8</ele>
        <time>2022-03-21T12:58:31Z</time>
      </trkpt>
      <trkpt lat="46.38404" lon="5.32448">
        <ele>215</ele>
        <time>2022-03-21T12:58:34Z</time>
      </trkpt>
      <trkpt lat="46.38395" lon="5.32488">
        <ele>215</ele>
        <time>2022-03-21T12:58:38Z</time>
      </trkpt>
      <trkpt lat="46.3839" lon="5.32496">
        <ele>215</ele>
        <time>2022-03-21T12:58:39Z</time>
      </trkpt>
      <trkpt lat="46.38384" lon="5.32502">
        <ele>215</ele>
        <time>2022-03-21T12:58:40Z</time>
      </trkpt>
      <trkpt lat="46.38376" lon="5.32504">
        <ele>215</ele>
        <time>2022-03-21T12:58:41Z</time>
      </trkpt>
      <trkpt lat="46.38369" lon="5.32505">
        <ele>214.8</ele>
        <time>2022-03-21T12:58:42Z</time>
      </trkpt>
      <trkpt lat="46.38348" lon="5.325">
        <ele>214.4</ele>
        <time>2022-03-21T12:58:45Z</time>
      </trkpt>
      <trkpt lat="46.38307" lon="5.32484">
        <ele>214.2</ele>
        <time>2022-03-21T12:58:51Z</time>
      </trkpt>
      <trkpt lat="46.38254" lon="5.32473">
        <ele>214</ele>
        <time>2022-03-21T12:58:59Z</time>
      </trkpt>
      <trkpt lat="46.38235" lon="5.32469">
        <ele>214.2</ele>
        <time>2022-03-21T12:59:02Z</time>
      </trkpt>
      <trkpt lat="46.38222" lon="5.32461">
        <ele>214.2</ele>
        <time>2022-03-21T12:59:04Z</time>
      </trkpt>
      <trkpt lat="46.38173" lon="5.32416">
        <ele>214</ele>
        <time>2022-03-21T12:59:12Z</time>
      </trkpt>
      <trkpt lat="46.38125" lon="5.3237">
        <ele>214</ele>
        <time>2022-03-21T12:59:20Z</time>
      </trkpt>
      <trkpt lat="46.38119" lon="5.32362">
        <ele>214</ele>
        <time>2022-03-21T12:59:21Z</time>
      </trkpt>
      <trkpt lat="46.38109" lon="5.32346">
        <ele>214</ele>
        <time>2022-03-21T12:59:23Z</time>
      </trkpt>
      <trkpt lat="46.38101" lon="5.32328">
        <ele>213.8</ele>
        <time>2022-03-21T12:59:25Z</time>
      </trkpt>
      <trkpt lat="46.38097" lon="5.32319">
        <ele>213.8</ele>
        <time>2022-03-21T12:59:26Z</time>
      </trkpt>
      <trkpt lat="46.3808" lon="5.32286">
        <ele>214</ele>
        <time>2022-03-21T12:59:30Z</time>
      </trkpt>
      <trkpt lat="46.38075" lon="5.32281">
        <ele>214</ele>
        <time>2022-03-21T12:59:31Z</time>
      </trkpt>
      <trkpt lat="46.38055" lon="5.32264">
        <ele>214.4</ele>
        <time>2022-03-21T12:59:35Z</time>
      </trkpt>
      <trkpt lat="46.38049" lon="5.32251">
        <ele>215</ele>
        <time>2022-03-21T12:59:37Z</time>
      </trkpt>
      <trkpt lat="46.38045" lon="5.32235">
        <ele>214.8</ele>
        <time>2022-03-21T12:59:39Z</time>
      </trkpt>
      <trkpt lat="46.38027" lon="5.3216">
        <ele>215.2</ele>
        <time>2022-03-21T12:59:47Z</time>
      </trkpt>
      <trkpt lat="46.38007" lon="5.32117">
        <ele>215</ele>
        <time>2022-03-21T12:59:52Z</time>
      </trkpt>
      <trkpt lat="46.37972" lon="5.32061">
        <ele>213.8</ele>
        <time>2022-03-21T12:59:59Z</time>
      </trkpt>
      <trkpt lat="46.37953" lon="5.32016">
        <ele>213.4</ele>
        <time>2022-03-21T13:00:04Z</time>
      </trkpt>
      <trkpt lat="46.37935" lon="5.31942">
        <ele>212.8</ele>
        <time>2022-03-21T13:00:12Z</time>
      </trkpt>
      <trkpt lat="46.37933" lon="5.31934">
        <ele>212.8</ele>
        <time>2022-03-21T13:00:13Z</time>
      </trkpt>
      <trkpt lat="46.37924" lon="5.31909">
        <ele>213.2</ele>
        <time>2022-03-21T13:00:16Z</time>
      </trkpt>
      <trkpt lat="46.37918" lon="5.31894">
        <ele>213</ele>
        <time>2022-03-21T13:00:18Z</time>
      </trkpt>
      <trkpt lat="46.37883" lon="5.31836">
        <ele>213.6</ele>
        <time>2022-03-21T13:00:26Z</time>
      </trkpt>
      <trkpt lat="46.37841" lon="5.31774">
        <ele>212.6</ele>
        <time>2022-03-21T13:00:35Z</time>
      </trkpt>
      <trkpt lat="46.378" lon="5.31712">
        <ele>212</ele>
        <time>2022-03-21T13:00:44Z</time>
      </trkpt>
      <trkpt lat="46.37791" lon="5.31699">
        <ele>211.8</ele>
        <time>2022-03-21T13:00:46Z</time>
      </trkpt>
      <trkpt lat="46.37781" lon="5.31685">
        <ele>211.8</ele>
        <time>2022-03-21T13:00:48Z</time>
      </trkpt>
      <trkpt lat="46.37759" lon="5.31651">
        <ele>212</ele>
        <time>2022-03-21T13:00:53Z</time>
      </trkpt>
      <trkpt lat="46.37721" lon="5.31596">
        <ele>211.4</ele>
        <time>2022-03-21T13:01:01Z</time>
      </trkpt>
      <trkpt lat="46.3769" lon="5.3155">
        <ele>211.2</ele>
        <time>2022-03-21T13:01:08Z</time>
      </trkpt>
      <trkpt lat="46.37651" lon="5.31495">
        <ele>211</ele>
        <time>2022-03-21T13:01:16Z</time>
      </trkpt>
      <trkpt lat="46.37638" lon="5.31476">
        <ele>210.8</ele>
        <time>2022-03-21T13:01:19Z</time>
      </trkpt>
      <trkpt lat="46.37601" lon="5.31422">
        <ele>210.6</ele>
        <time>2022-03-21T13:01:27Z</time>
      </trkpt>
      <trkpt lat="46.37561" lon="5.31365">
        <ele>210.4</ele>
        <time>2022-03-21T13:01:36Z</time>
      </trkpt>
      <trkpt lat="46.37553" lon="5.31352">
        <ele>210.6</ele>
        <time>2022-03-21T13:01:38Z</time>
      </trkpt>
      <trkpt lat="46.37514" lon="5.31296">
        <ele>210.6</ele>
        <time>2022-03-21T13:01:47Z</time>
      </trkpt>
      <trkpt lat="46.37509" lon="5.3129">
        <ele>210.6</ele>
        <time>2022-03-21T13:01:48Z</time>
      </trkpt>
      <trkpt lat="46.3747" lon="5.31233">
        <ele>210.8</ele>
        <time>2022-03-21T13:01:57Z</time>
      </trkpt>
      <trkpt lat="46.37449" lon="5.31202">
        <ele>210.8</ele>
        <time>2022-03-21T13:02:02Z</time>
      </trkpt>
      <trkpt lat="46.37411" lon="5.31147">
        <ele>211</ele>
        <time>2022-03-21T13:02:11Z</time>
      </trkpt>
      <trkpt lat="46.37403" lon="5.31135">
        <ele>211</ele>
        <time>2022-03-21T13:02:13Z</time>
      </trkpt>
      <trkpt lat="46.37368" lon="5.31087">
        <ele>210.2</ele>
        <time>2022-03-21T13:02:20Z</time>
      </trkpt>
      <trkpt lat="46.37354" lon="5.31066">
        <ele>209.8</ele>
        <time>2022-03-21T13:02:23Z</time>
      </trkpt>
      <trkpt lat="46.3735" lon="5.31059">
        <ele>209.8</ele>
        <time>2022-03-21T13:02:24Z</time>
      </trkpt>
      <trkpt lat="46.37336" lon="5.31038">
        <ele>209.4</ele>
        <time>2022-03-21T13:02:27Z</time>
      </trkpt>
      <trkpt lat="46.37295" lon="5.30981">
        <ele>209</ele>
        <time>2022-03-21T13:02:36Z</time>
      </trkpt>
      <trkpt lat="46.37291" lon="5.30974">
        <ele>209</ele>
        <time>2022-03-21T13:02:37Z</time>
      </trkpt>
      <trkpt lat="46.37261" lon="5.30929">
        <ele>208.8</ele>
        <time>2022-03-21T13:02:44Z</time>
      </trkpt>
      <trkpt lat="46.37234" lon="5.3089">
        <ele>208.8</ele>
        <time>2022-03-21T13:02:50Z</time>
      </trkpt>
      <trkpt lat="46.37195" lon="5.3083">
        <ele>209</ele>
        <time>2022-03-21T13:02:59Z</time>
      </trkpt>
      <trkpt lat="46.37183" lon="5.3081">
        <ele>209</ele>
        <time>2022-03-21T13:03:02Z</time>
      </trkpt>
      <trkpt lat="46.37155" lon="5.30751">
        <ele>209.2</ele>
        <time>2022-03-21T13:03:10Z</time>
      </trkpt>
      <trkpt lat="46.37132" lon="5.30682">
        <ele>208.8</ele>
        <time>2022-03-21T13:03:18Z</time>
      </trkpt>
      <trkpt lat="46.37117" lon="5.30611">
        <ele>208.8</ele>
        <time>2022-03-21T13:03:26Z</time>
      </trkpt>
      <trkpt lat="46.37116" lon="5.30554">
        <ele>208.8</ele>
        <time>2022-03-21T13:03:32Z</time>
      </trkpt>
      <trkpt lat="46.37123" lon="5.3047">
        <ele>208.8</ele>
        <time>2022-03-21T13:03:41Z</time>
      </trkpt>
      <trkpt lat="46.37124" lon="5.30459">
        <ele>208.8</ele>
        <time>2022-03-21T13:03:42Z</time>
      </trkpt>
      <trkpt lat="46.3713" lon="5.30377">
        <ele>209</ele>
        <time>2022-03-21T13:03:51Z</time>
      </trkpt>
      <trkpt lat="46.37131" lon="5.30358">
        <ele>209</ele>
        <time>2022-03-21T13:03:53Z</time>
      </trkpt>
      <trkpt lat="46.37137" lon="5.30286">
        <ele>209.4</ele>
        <time>2022-03-21T13:04:01Z</time>
      </trkpt>
      <trkpt lat="46.37141" lon="5.30262">
        <ele>209.6</ele>
        <time>2022-03-21T13:04:04Z</time>
      </trkpt>
      <trkpt lat="46.37147" lon="5.30248">
        <ele>210</ele>
        <time>2022-03-21T13:04:06Z</time>
      </trkpt>
      <trkpt lat="46.3715" lon="5.30242">
        <ele>210</ele>
        <time>2022-03-21T13:04:07Z</time>
      </trkpt>
      <trkpt lat="46.37154" lon="5.30237">
        <ele>210</ele>
        <time>2022-03-21T13:04:08Z</time>
      </trkpt>
      <trkpt lat="46.37162" lon="5.30229">
        <ele>210.2</ele>
        <time>2022-03-21T13:04:10Z</time>
      </trkpt>
      <trkpt lat="46.37174" lon="5.30221">
        <ele>211.2</ele>
        <time>2022-03-21T13:04:13Z</time>
      </trkpt>
      <trkpt lat="46.37187" lon="5.30213">
        <ele>212</ele>
        <time>2022-03-21T13:04:16Z</time>
      </trkpt>
      <trkpt lat="46.37196" lon="5.30208">
        <ele>212.2</ele>
        <time>2022-03-21T13:04:18Z</time>
      </trkpt>
      <trkpt lat="46.37201" lon="5.30206">
        <ele>212.6</ele>
        <time>2022-03-21T13:04:19Z</time>
      </trkpt>
      <trkpt lat="46.3721" lon="5.30204">
        <ele>213</ele>
        <time>2022-03-21T13:04:21Z</time>
      </trkpt>
      <trkpt lat="46.37214" lon="5.30203">
        <ele>213.2</ele>
        <time>2022-03-21T13:04:22Z</time>
      </trkpt>
      <trkpt lat="46.37234" lon="5.30193">
        <ele>214.6</ele>
        <time>2022-03-21T13:04:27Z</time>
      </trkpt>
      <trkpt lat="46.3724" lon="5.30188">
        <ele>214.6</ele>
        <time>2022-03-21T13:04:29Z</time>
      </trkpt>
      <trkpt lat="46.37243" lon="5.30185">
        <ele>215.2</ele>
        <time>2022-03-21T13:04:30Z</time>
      </trkpt>
      <trkpt lat="46.37249" lon="5.30177">
        <ele>215.8</ele>
        <time>2022-03-21T13:04:32Z</time>
      </trkpt>
      <trkpt lat="46.37254" lon="5.30168">
        <ele>216.2</ele>
        <time>2022-03-21T13:04:34Z</time>
      </trkpt>
      <trkpt lat="46.37261" lon="5.30148">
        <ele>216.8</ele>
        <time>2022-03-21T13:04:38Z</time>
      </trkpt>
      <trkpt lat="46.37262" lon="5.30137">
        <ele>217.4</ele>
        <time>2022-03-21T13:04:40Z</time>
      </trkpt>
      <trkpt lat="46.37263" lon="5.30115">
        <ele>218</ele>
        <time>2022-03-21T13:04:44Z</time>
      </trkpt>
      <trkpt lat="46.37263" lon="5.30103">
        <ele>218.6</ele>
        <time>2022-03-21T13:04:46Z</time>
      </trkpt>
      <trkpt lat="46.37261" lon="5.30085">
        <ele>219.4</ele>
        <time>2022-03-21T13:04:49Z</time>
      </trkpt>
      <trkpt lat="46.37259" lon="5.30054">
        <ele>220.2</ele>
        <time>2022-03-21T13:04:55Z</time>
      </trkpt>
      <trkpt lat="46.37259" lon="5.30048">
        <ele>220.4</ele>
        <time>2022-03-21T13:04:56Z</time>
      </trkpt>
      <trkpt lat="46.37259" lon="5.30023">
        <ele>221.4</ele>
        <time>2022-03-21T13:05:01Z</time>
      </trkpt>
      <trkpt lat="46.3726" lon="5.30013">
        <ele>221.8</ele>
        <time>2022-03-21T13:05:03Z</time>
      </trkpt>
      <trkpt lat="46.37265" lon="5.29999">
        <ele>222.6</ele>
        <time>2022-03-21T13:05:06Z</time>
      </trkpt>
      <trkpt lat="46.37271" lon="5.29991">
        <ele>222.8</ele>
        <time>2022-03-21T13:05:08Z</time>
      </trkpt>
      <trkpt lat="46.37287" lon="5.29979">
        <ele>223.6</ele>
        <time>2022-03-21T13:05:13Z</time>
      </trkpt>
      <trkpt lat="46.3729" lon="5.29977">
        <ele>223.8</ele>
        <time>2022-03-21T13:05:14Z</time>
      </trkpt>
      <trkpt lat="46.37302" lon="5.2997">
        <ele>224.8</ele>
        <time>2022-03-21T13:05:18Z</time>
      </trkpt>
      <trkpt lat="46.37311" lon="5.29961">
        <ele>225.4</ele>
        <time>2022-03-21T13:05:21Z</time>
      </trkpt>
      <trkpt lat="46.37316" lon="5.29953">
        <ele>225.8</ele>
        <time>2022-03-21T13:05:23Z</time>
      </trkpt>
      <trkpt lat="46.37317" lon="5.29943">
        <ele>226.2</ele>
        <time>2022-03-21T13:05:25Z</time>
      </trkpt>
      <trkpt lat="46.37314" lon="5.29928">
        <ele>227</ele>
        <time>2022-03-21T13:05:28Z</time>
      </trkpt>
      <trkpt lat="46.37313" lon="5.29924">
        <ele>227</ele>
        <time>2022-03-21T13:05:29Z</time>
      </trkpt>
      <trkpt lat="46.37299" lon="5.29908">
        <ele>228</ele>
        <time>2022-03-21T13:05:34Z</time>
      </trkpt>
      <trkpt lat="46.37282" lon="5.29902">
        <ele>229.4</ele>
        <time>2022-03-21T13:05:39Z</time>
      </trkpt>
      <trkpt lat="46.37278" lon="5.29902">
        <ele>229.4</ele>
        <time>2022-03-21T13:05:40Z</time>
      </trkpt>
      <trkpt lat="46.37264" lon="5.29903">
        <ele>230.4</ele>
        <time>2022-03-21T13:05:44Z</time>
      </trkpt>
      <trkpt lat="46.37247" lon="5.29908">
        <ele>231.4</ele>
        <time>2022-03-21T13:05:49Z</time>
      </trkpt>
      <trkpt lat="46.37244" lon="5.29909">
        <ele>231.6</ele>
        <time>2022-03-21T13:05:50Z</time>
      </trkpt>
      <trkpt lat="46.37225" lon="5.29916">
        <ele>232.6</ele>
        <time>2022-03-21T13:05:55Z</time>
      </trkpt>
      <trkpt lat="46.37217" lon="5.29919">
        <ele>233</ele>
        <time>2022-03-21T13:05:57Z</time>
      </trkpt>
      <trkpt lat="46.37191" lon="5.2993">
        <ele>233.6</ele>
        <time>2022-03-21T13:06:03Z</time>
      </trkpt>
      <trkpt lat="46.37186" lon="5.2993">
        <ele>233.8</ele>
        <time>2022-03-21T13:06:04Z</time>
      </trkpt>
      <trkpt lat="46.37181" lon="5.2993">
        <ele>234.2</ele>
        <time>2022-03-21T13:06:05Z</time>
      </trkpt>
      <trkpt lat="46.37177" lon="5.29929">
        <ele>234</ele>
        <time>2022-03-21T13:06:06Z</time>
      </trkpt>
      <trkpt lat="46.37155" lon="5.29919">
        <ele>234.6</ele>
        <time>2022-03-21T13:06:11Z</time>
      </trkpt>
      <trkpt lat="46.3712" lon="5.29896">
        <ele>234.8</ele>
        <time>2022-03-21T13:06:18Z</time>
      </trkpt>
      <trkpt lat="46.37082" lon="5.29866">
        <ele>233.8</ele>
        <time>2022-03-21T13:06:24Z</time>
      </trkpt>
      <trkpt lat="46.37055" lon="5.29847">
        <ele>232.8</ele>
        <time>2022-03-21T13:06:28Z</time>
      </trkpt>
      <trkpt lat="46.37036" lon="5.29832">
        <ele>232</ele>
        <time>2022-03-21T13:06:31Z</time>
      </trkpt>
      <trkpt lat="46.37028" lon="5.29826">
        <ele>231.6</ele>
        <time>2022-03-21T13:06:32Z</time>
      </trkpt>
      <trkpt lat="46.37012" lon="5.29819">
        <ele>231.2</ele>
        <time>2022-03-21T13:06:34Z</time>
      </trkpt>
      <trkpt lat="46.36982" lon="5.29817">
        <ele>230.6</ele>
        <time>2022-03-21T13:06:38Z</time>
      </trkpt>
      <trkpt lat="46.3697" lon="5.29815">
        <ele>230.6</ele>
        <time>2022-03-21T13:06:40Z</time>
      </trkpt>
      <trkpt lat="46.36953" lon="5.29811">
        <ele>231</ele>
        <time>2022-03-21T13:06:43Z</time>
      </trkpt>
      <trkpt lat="46.36934" lon="5.2981">
        <ele>231.8</ele>
        <time>2022-03-21T13:06:47Z</time>
      </trkpt>
      <trkpt lat="46.36929" lon="5.2981">
        <ele>232</ele>
        <time>2022-03-21T13:06:48Z</time>
      </trkpt>
      <trkpt lat="46.36908" lon="5.29815">
        <ele>232.8</ele>
        <time>2022-03-21T13:06:53Z</time>
      </trkpt>
      <trkpt lat="46.369" lon="5.29818">
        <ele>233.2</ele>
        <time>2022-03-21T13:06:55Z</time>
      </trkpt>
      <trkpt lat="46.36887" lon="5.29822">
        <ele>234</ele>
        <time>2022-03-21T13:06:58Z</time>
      </trkpt>
      <trkpt lat="46.36868" lon="5.29827">
        <ele>235.2</ele>
        <time>2022-03-21T13:07:03Z</time>
      </trkpt>
      <trkpt lat="46.36864" lon="5.29828">
        <ele>235.2</ele>
        <time>2022-03-21T13:07:04Z</time>
      </trkpt>
      <trkpt lat="46.36852" lon="5.29833">
        <ele>236</ele>
        <time>2022-03-21T13:07:07Z</time>
      </trkpt>
      <trkpt lat="46.36843" lon="5.29836">
        <ele>236.2</ele>
        <time>2022-03-21T13:07:09Z</time>
      </trkpt>
      <trkpt lat="46.36834" lon="5.29839">
        <ele>236.4</ele>
        <time>2022-03-21T13:07:11Z</time>
      </trkpt>
      <trkpt lat="46.36803" lon="5.29843">
        <ele>237</ele>
        <time>2022-03-21T13:07:17Z</time>
      </trkpt>
      <trkpt lat="46.36797" lon="5.29842">
        <ele>237</ele>
        <time>2022-03-21T13:07:18Z</time>
      </trkpt>
      <trkpt lat="46.36778" lon="5.29834">
        <ele>237.2</ele>
        <time>2022-03-21T13:07:21Z</time>
      </trkpt>
      <trkpt lat="46.3673" lon="5.29801">
        <ele>236</ele>
        <time>2022-03-21T13:07:29Z</time>
      </trkpt>
      <trkpt lat="46.36683" lon="5.29762">
        <ele>235.4</ele>
        <time>2022-03-21T13:07:37Z</time>
      </trkpt>
      <trkpt lat="46.36671" lon="5.29754">
        <ele>235.2</ele>
        <time>2022-03-21T13:07:39Z</time>
      </trkpt>
      <trkpt lat="46.36665" lon="5.29751">
        <ele>235.2</ele>
        <time>2022-03-21T13:07:40Z</time>
      </trkpt>
      <trkpt lat="46.36612" lon="5.29724">
        <ele>235.2</ele>
        <time>2022-03-21T13:07:49Z</time>
      </trkpt>
      <trkpt lat="46.36556" lon="5.29696">
        <ele>235.8</ele>
        <time>2022-03-21T13:07:59Z</time>
      </trkpt>
      <trkpt lat="46.3655" lon="5.29694">
        <ele>235.8</ele>
        <time>2022-03-21T13:08:00Z</time>
      </trkpt>
      <trkpt lat="46.36501" lon="5.29675">
        <ele>236.4</ele>
        <time>2022-03-21T13:08:08Z</time>
      </trkpt>
      <trkpt lat="46.36453" lon="5.29648">
        <ele>236</ele>
        <time>2022-03-21T13:08:16Z</time>
      </trkpt>
      <trkpt lat="46.36426" lon="5.2963">
        <ele>236.4</ele>
        <time>2022-03-21T13:08:21Z</time>
      </trkpt>
      <trkpt lat="46.36406" lon="5.29614">
        <ele>236.8</ele>
        <time>2022-03-21T13:08:25Z</time>
      </trkpt>
      <trkpt lat="46.36376" lon="5.29582">
        <ele>237.4</ele>
        <time>2022-03-21T13:08:32Z</time>
      </trkpt>
      <trkpt lat="46.36369" lon="5.2957">
        <ele>237.6</ele>
        <time>2022-03-21T13:08:34Z</time>
      </trkpt>
      <trkpt lat="46.36357" lon="5.29544">
        <ele>238</ele>
        <time>2022-03-21T13:08:38Z</time>
      </trkpt>
      <trkpt lat="46.36342" lon="5.2952">
        <ele>238.2</ele>
        <time>2022-03-21T13:08:42Z</time>
      </trkpt>
      <trkpt lat="46.36332" lon="5.2951">
        <ele>238.2</ele>
        <time>2022-03-21T13:08:44Z</time>
      </trkpt>
      <trkpt lat="46.36297" lon="5.29481">
        <ele>237.6</ele>
        <time>2022-03-21T13:08:50Z</time>
      </trkpt>
      <trkpt lat="46.36291" lon="5.29478">
        <ele>237.4</ele>
        <time>2022-03-21T13:08:51Z</time>
      </trkpt>
      <trkpt lat="46.36269" lon="5.29469">
        <ele>237</ele>
        <time>2022-03-21T13:08:54Z</time>
      </trkpt>
      <trkpt lat="46.36253" lon="5.29465">
        <ele>236.6</ele>
        <time>2022-03-21T13:08:56Z</time>
      </trkpt>
      <trkpt lat="46.36245" lon="5.29465">
        <ele>236.2</ele>
        <time>2022-03-21T13:08:57Z</time>
      </trkpt>
      <trkpt lat="46.36237" lon="5.29466">
        <ele>235.8</ele>
        <time>2022-03-21T13:08:58Z</time>
      </trkpt>
      <trkpt lat="46.3623" lon="5.29469">
        <ele>235.4</ele>
        <time>2022-03-21T13:08:59Z</time>
      </trkpt>
      <trkpt lat="46.36223" lon="5.29472">
        <ele>235.2</ele>
        <time>2022-03-21T13:09:00Z</time>
      </trkpt>
      <trkpt lat="46.36211" lon="5.29481">
        <ele>235</ele>
        <time>2022-03-21T13:09:02Z</time>
      </trkpt>
      <trkpt lat="46.3618" lon="5.29513">
        <ele>235.4</ele>
        <time>2022-03-21T13:09:08Z</time>
      </trkpt>
      <trkpt lat="46.36161" lon="5.29523">
        <ele>236.4</ele>
        <time>2022-03-21T13:09:11Z</time>
      </trkpt>
      <trkpt lat="46.36147" lon="5.29528">
        <ele>236.8</ele>
        <time>2022-03-21T13:09:13Z</time>
      </trkpt>
      <trkpt lat="46.36099" lon="5.29534">
        <ele>236.8</ele>
        <time>2022-03-21T13:09:19Z</time>
      </trkpt>
      <trkpt lat="46.36044" lon="5.2954">
        <ele>236</ele>
        <time>2022-03-21T13:09:26Z</time>
      </trkpt>
      <trkpt lat="46.36029" lon="5.29542">
        <ele>235.8</ele>
        <time>2022-03-21T13:09:28Z</time>
      </trkpt>
      <trkpt lat="46.35999" lon="5.29546">
        <ele>235.4</ele>
        <time>2022-03-21T13:09:32Z</time>
      </trkpt>
      <trkpt lat="46.35963" lon="5.29551">
        <ele>235.2</ele>
        <time>2022-03-21T13:09:37Z</time>
      </trkpt>
      <trkpt lat="46.35909" lon="5.29554">
        <ele>235.4</ele>
        <time>2022-03-21T13:09:45Z</time>
      </trkpt>
      <trkpt lat="46.35881" lon="5.29549">
        <ele>236</ele>
        <time>2022-03-21T13:09:50Z</time>
      </trkpt>
      <trkpt lat="46.35871" lon="5.29545">
        <ele>236.2</ele>
        <time>2022-03-21T13:09:52Z</time>
      </trkpt>
      <trkpt lat="46.35857" lon="5.29541">
        <ele>236.4</ele>
        <time>2022-03-21T13:09:55Z</time>
      </trkpt>
      <trkpt lat="46.35852" lon="5.2954">
        <ele>236.6</ele>
        <time>2022-03-21T13:09:56Z</time>
      </trkpt>
      <trkpt lat="46.35832" lon="5.29537">
        <ele>237.4</ele>
        <time>2022-03-21T13:10:00Z</time>
      </trkpt>
      <trkpt lat="46.35821" lon="5.29536">
        <ele>237.6</ele>
        <time>2022-03-21T13:10:02Z</time>
      </trkpt>
      <trkpt lat="46.35794" lon="5.29537">
        <ele>238.4</ele>
        <time>2022-03-21T13:10:07Z</time>
      </trkpt>
      <trkpt lat="46.35783" lon="5.29537">
        <ele>238.6</ele>
        <time>2022-03-21T13:10:09Z</time>
      </trkpt>
      <trkpt lat="46.35762" lon="5.29537">
        <ele>239.4</ele>
        <time>2022-03-21T13:10:13Z</time>
      </trkpt>
      <trkpt lat="46.35758" lon="5.29538">
        <ele>239.6</ele>
        <time>2022-03-21T13:10:14Z</time>
      </trkpt>
      <trkpt lat="46.35736" lon="5.29543">
        <ele>240.2</ele>
        <time>2022-03-21T13:10:18Z</time>
      </trkpt>
      <trkpt lat="46.35712" lon="5.29546">
        <ele>240.4</ele>
        <time>2022-03-21T13:10:22Z</time>
      </trkpt>
      <trkpt lat="46.35702" lon="5.29551">
        <ele>240.4</ele>
        <time>2022-03-21T13:10:24Z</time>
      </trkpt>
      <trkpt lat="46.35696" lon="5.29553">
        <ele>240.6</ele>
        <time>2022-03-21T13:10:25Z</time>
      </trkpt>
      <trkpt lat="46.35691" lon="5.29556">
        <ele>240.8</ele>
        <time>2022-03-21T13:10:26Z</time>
      </trkpt>
      <trkpt lat="46.35675" lon="5.29573">
        <ele>241.2</ele>
        <time>2022-03-21T13:10:30Z</time>
      </trkpt>
      <trkpt lat="46.35652" lon="5.29595">
        <ele>241.4</ele>
        <time>2022-03-21T13:10:35Z</time>
      </trkpt>
      <trkpt lat="46.35646" lon="5.29598">
        <ele>241.4</ele>
        <time>2022-03-21T13:10:36Z</time>
      </trkpt>
      <trkpt lat="46.35591" lon="5.29628">
        <ele>241.6</ele>
        <time>2022-03-21T13:10:46Z</time>
      </trkpt>
      <trkpt lat="46.35579" lon="5.29634">
        <ele>241.6</ele>
        <time>2022-03-21T13:10:48Z</time>
      </trkpt>
      <trkpt lat="46.35541" lon="5.29646">
        <ele>242</ele>
        <time>2022-03-21T13:10:55Z</time>
      </trkpt>
      <trkpt lat="46.35502" lon="5.29653">
        <ele>241.6</ele>
        <time>2022-03-21T13:11:01Z</time>
      </trkpt>
      <trkpt lat="46.35496" lon="5.29657">
        <ele>241.6</ele>
        <time>2022-03-21T13:11:02Z</time>
      </trkpt>
      <trkpt lat="46.3549" lon="5.29663">
        <ele>241.4</ele>
        <time>2022-03-21T13:11:03Z</time>
      </trkpt>
      <trkpt lat="46.35482" lon="5.29677">
        <ele>241.2</ele>
        <time>2022-03-21T13:11:05Z</time>
      </trkpt>
      <trkpt lat="46.35478" lon="5.29685">
        <ele>241.2</ele>
        <time>2022-03-21T13:11:06Z</time>
      </trkpt>
      <trkpt lat="46.35468" lon="5.29694">
        <ele>241</ele>
        <time>2022-03-21T13:11:08Z</time>
      </trkpt>
      <trkpt lat="46.35456" lon="5.29694">
        <ele>241</ele>
        <time>2022-03-21T13:11:10Z</time>
      </trkpt>
      <trkpt lat="46.3545" lon="5.29692">
        <ele>241</ele>
        <time>2022-03-21T13:11:11Z</time>
      </trkpt>
      <trkpt lat="46.35403" lon="5.29677">
        <ele>241.4</ele>
        <time>2022-03-21T13:11:19Z</time>
      </trkpt>
      <trkpt lat="46.35345" lon="5.29658">
        <ele>242.4</ele>
        <time>2022-03-21T13:11:28Z</time>
      </trkpt>
      <trkpt lat="46.35339" lon="5.29656">
        <ele>242.4</ele>
        <time>2022-03-21T13:11:29Z</time>
      </trkpt>
      <trkpt lat="46.35281" lon="5.29644">
        <ele>242.4</ele>
        <time>2022-03-21T13:11:38Z</time>
      </trkpt>
      <trkpt lat="46.35225" lon="5.29643">
        <ele>242.2</ele>
        <time>2022-03-21T13:11:46Z</time>
      </trkpt>
      <trkpt lat="46.35219" lon="5.29644">
        <ele>242.2</ele>
        <time>2022-03-21T13:11:47Z</time>
      </trkpt>
      <trkpt lat="46.35162" lon="5.29654">
        <ele>241.8</ele>
        <time>2022-03-21T13:11:55Z</time>
      </trkpt>
      <trkpt lat="46.35114" lon="5.2966">
        <ele>240.6</ele>
        <time>2022-03-21T13:12:01Z</time>
      </trkpt>
      <trkpt lat="46.35106" lon="5.29661">
        <ele>240.2</ele>
        <time>2022-03-21T13:12:02Z</time>
      </trkpt>
      <trkpt lat="46.3509" lon="5.29661">
        <ele>239.4</ele>
        <time>2022-03-21T13:12:04Z</time>
      </trkpt>
      <trkpt lat="46.35067" lon="5.29657">
        <ele>239</ele>
        <time>2022-03-21T13:12:07Z</time>
      </trkpt>
      <trkpt lat="46.35053" lon="5.29651">
        <ele>239</ele>
        <time>2022-03-21T13:12:09Z</time>
      </trkpt>
      <trkpt lat="46.35041" lon="5.29643">
        <ele>239</ele>
        <time>2022-03-21T13:12:11Z</time>
      </trkpt>
      <trkpt lat="46.35012" lon="5.29634">
        <ele>239.6</ele>
        <time>2022-03-21T13:12:16Z</time>
      </trkpt>
      <trkpt lat="46.34978" lon="5.29633">
        <ele>240.4</ele>
        <time>2022-03-21T13:12:22Z</time>
      </trkpt>
      <trkpt lat="46.34973" lon="5.29635">
        <ele>240.6</ele>
        <time>2022-03-21T13:12:23Z</time>
      </trkpt>
      <trkpt lat="46.34962" lon="5.2964">
        <ele>241</ele>
        <time>2022-03-21T13:12:25Z</time>
      </trkpt>
      <trkpt lat="46.34957" lon="5.29645">
        <ele>241.2</ele>
        <time>2022-03-21T13:12:26Z</time>
      </trkpt>
      <trkpt lat="46.34941" lon="5.2966">
        <ele>241.4</ele>
        <time>2022-03-21T13:12:29Z</time>
      </trkpt>
      <trkpt lat="46.34934" lon="5.29664">
        <ele>241.4</ele>
        <time>2022-03-21T13:12:30Z</time>
      </trkpt>
      <trkpt lat="46.34928" lon="5.29665">
        <ele>241.6</ele>
        <time>2022-03-21T13:12:31Z</time>
      </trkpt>
      <trkpt lat="46.34915" lon="5.29663">
        <ele>241.6</ele>
        <time>2022-03-21T13:12:33Z</time>
      </trkpt>
      <trkpt lat="46.34882" lon="5.2964">
        <ele>241.4</ele>
        <time>2022-03-21T13:12:39Z</time>
      </trkpt>
      <trkpt lat="46.34841" lon="5.29619">
        <ele>241.8</ele>
        <time>2022-03-21T13:12:46Z</time>
      </trkpt>
      <trkpt lat="46.34816" lon="5.29613">
        <ele>241.8</ele>
        <time>2022-03-21T13:12:50Z</time>
      </trkpt>
      <trkpt lat="46.34804" lon="5.29613">
        <ele>241.8</ele>
        <time>2022-03-21T13:12:52Z</time>
      </trkpt>
      <trkpt lat="46.34748" lon="5.29621">
        <ele>241.6</ele>
        <time>2022-03-21T13:13:01Z</time>
      </trkpt>
      <trkpt lat="46.34742" lon="5.29624">
        <ele>241.4</ele>
        <time>2022-03-21T13:13:02Z</time>
      </trkpt>
      <trkpt lat="46.34717" lon="5.2964">
        <ele>240.8</ele>
        <time>2022-03-21T13:13:06Z</time>
      </trkpt>
      <trkpt lat="46.3471" lon="5.29643">
        <ele>240.6</ele>
        <time>2022-03-21T13:13:07Z</time>
      </trkpt>
      <trkpt lat="46.34704" lon="5.29643">
        <ele>240.6</ele>
        <time>2022-03-21T13:13:08Z</time>
      </trkpt>
      <trkpt lat="46.34682" lon="5.29639">
        <ele>240.4</ele>
        <time>2022-03-21T13:13:11Z</time>
      </trkpt>
      <trkpt lat="46.34653" lon="5.29635">
        <ele>239.8</ele>
        <time>2022-03-21T13:13:15Z</time>
      </trkpt>
      <trkpt lat="46.34646" lon="5.29634">
        <ele>239.6</ele>
        <time>2022-03-21T13:13:16Z</time>
      </trkpt>
      <trkpt lat="46.34589" lon="5.2962">
        <ele>239</ele>
        <time>2022-03-21T13:13:24Z</time>
      </trkpt>
      <trkpt lat="46.34561" lon="5.29616">
        <ele>238.8</ele>
        <time>2022-03-21T13:13:28Z</time>
      </trkpt>
      <trkpt lat="46.34522" lon="5.29609">
        <ele>238.8</ele>
        <time>2022-03-21T13:13:34Z</time>
      </trkpt>
      <trkpt lat="46.34472" lon="5.29598">
        <ele>238.8</ele>
        <time>2022-03-21T13:13:42Z</time>
      </trkpt>
      <trkpt lat="46.34461" lon="5.29589">
        <ele>238.8</ele>
        <time>2022-03-21T13:13:44Z</time>
      </trkpt>
      <trkpt lat="46.34458" lon="5.29583">
        <ele>238.8</ele>
        <time>2022-03-21T13:13:45Z</time>
      </trkpt>
      <trkpt lat="46.34455" lon="5.29574">
        <ele>239</ele>
        <time>2022-03-21T13:13:46Z</time>
      </trkpt>
      <trkpt lat="46.34455" lon="5.2956">
        <ele>239.2</ele>
        <time>2022-03-21T13:13:48Z</time>
      </trkpt>
      <trkpt lat="46.3446" lon="5.2953">
        <ele>239.8</ele>
        <time>2022-03-21T13:13:52Z</time>
      </trkpt>
      <trkpt lat="46.34464" lon="5.29508">
        <ele>240.4</ele>
        <time>2022-03-21T13:13:55Z</time>
      </trkpt>
      <trkpt lat="46.34469" lon="5.29486">
        <ele>240.6</ele>
        <time>2022-03-21T13:13:58Z</time>
      </trkpt>
      <trkpt lat="46.3447" lon="5.2947">
        <ele>241</ele>
        <time>2022-03-21T13:14:00Z</time>
      </trkpt>
      <trkpt lat="46.34469" lon="5.29463">
        <ele>241</ele>
        <time>2022-03-21T13:14:01Z</time>
      </trkpt>
      <trkpt lat="46.34468" lon="5.29456">
        <ele>241</ele>
        <time>2022-03-21T13:14:02Z</time>
      </trkpt>
      <trkpt lat="46.34461" lon="5.29445">
        <ele>241.4</ele>
        <time>2022-03-21T13:14:04Z</time>
      </trkpt>
      <trkpt lat="46.34449" lon="5.2943">
        <ele>242</ele>
        <time>2022-03-21T13:14:07Z</time>
      </trkpt>
      <trkpt lat="46.34445" lon="5.29425">
        <ele>242</ele>
        <time>2022-03-21T13:14:08Z</time>
      </trkpt>
      <trkpt lat="46.34441" lon="5.2942">
        <ele>242.2</ele>
        <time>2022-03-21T13:14:09Z</time>
      </trkpt>
      <trkpt lat="46.34438" lon="5.29414">
        <ele>242.4</ele>
        <time>2022-03-21T13:14:10Z</time>
      </trkpt>
      <trkpt lat="46.34415" lon="5.29367">
        <ele>243</ele>
        <time>2022-03-21T13:14:17Z</time>
      </trkpt>
      <trkpt lat="46.34406" lon="5.29355">
        <ele>243</ele>
        <time>2022-03-21T13:14:19Z</time>
      </trkpt>
      <trkpt lat="46.34395" lon="5.29345">
        <ele>242.8</ele>
        <time>2022-03-21T13:14:21Z</time>
      </trkpt>
      <trkpt lat="46.34389" lon="5.29342">
        <ele>242.8</ele>
        <time>2022-03-21T13:14:22Z</time>
      </trkpt>
      <trkpt lat="46.34351" lon="5.29328">
        <ele>242.2</ele>
        <time>2022-03-21T13:14:28Z</time>
      </trkpt>
      <trkpt lat="46.34333" lon="5.29314">
        <ele>242</ele>
        <time>2022-03-21T13:14:31Z</time>
      </trkpt>
      <trkpt lat="46.34321" lon="5.29305">
        <ele>241.8</ele>
        <time>2022-03-21T13:14:33Z</time>
      </trkpt>
      <trkpt lat="46.34281" lon="5.29289">
        <ele>241.2</ele>
        <time>2022-03-21T13:14:39Z</time>
      </trkpt>
      <trkpt lat="46.34246" lon="5.2928">
        <ele>241</ele>
        <time>2022-03-21T13:14:44Z</time>
      </trkpt>
      <trkpt lat="46.34232" lon="5.29276">
        <ele>240.8</ele>
        <time>2022-03-21T13:14:46Z</time>
      </trkpt>
      <trkpt lat="46.34193" lon="5.29259">
        <ele>240.6</ele>
        <time>2022-03-21T13:14:52Z</time>
      </trkpt>
      <trkpt lat="46.34178" lon="5.29258">
        <ele>240.6</ele>
        <time>2022-03-21T13:14:54Z</time>
      </trkpt>
      <trkpt lat="46.34127" lon="5.29266">
        <ele>240</ele>
        <time>2022-03-21T13:15:01Z</time>
      </trkpt>
      <trkpt lat="46.34113" lon="5.2927">
        <ele>239.8</ele>
        <time>2022-03-21T13:15:03Z</time>
      </trkpt>
      <trkpt lat="46.341" lon="5.2928">
        <ele>239.6</ele>
        <time>2022-03-21T13:15:05Z</time>
      </trkpt>
      <trkpt lat="46.34095" lon="5.29287">
        <ele>239.6</ele>
        <time>2022-03-21T13:15:06Z</time>
      </trkpt>
      <trkpt lat="46.3409" lon="5.29294">
        <ele>239.6</ele>
        <time>2022-03-21T13:15:07Z</time>
      </trkpt>
      <trkpt lat="46.34079" lon="5.29321">
        <ele>239.4</ele>
        <time>2022-03-21T13:15:10Z</time>
      </trkpt>
      <trkpt lat="46.34066" lon="5.29346">
        <ele>239.4</ele>
        <time>2022-03-21T13:15:13Z</time>
      </trkpt>
      <trkpt lat="46.34055" lon="5.29358">
        <ele>239.4</ele>
        <time>2022-03-21T13:15:15Z</time>
      </trkpt>
      <trkpt lat="46.34045" lon="5.29367">
        <ele>239.4</ele>
        <time>2022-03-21T13:15:17Z</time>
      </trkpt>
      <trkpt lat="46.34033" lon="5.29371">
        <ele>239.4</ele>
        <time>2022-03-21T13:15:19Z</time>
      </trkpt>
      <trkpt lat="46.34006" lon="5.29383">
        <ele>240</ele>
        <time>2022-03-21T13:15:24Z</time>
      </trkpt>
      <trkpt lat="46.33997" lon="5.29391">
        <ele>240.2</ele>
        <time>2022-03-21T13:15:26Z</time>
      </trkpt>
      <trkpt lat="46.33985" lon="5.29406">
        <ele>240.4</ele>
        <time>2022-03-21T13:15:29Z</time>
      </trkpt>
      <trkpt lat="46.33965" lon="5.29443">
        <ele>241.2</ele>
        <time>2022-03-21T13:15:35Z</time>
      </trkpt>
      <trkpt lat="46.33962" lon="5.29449">
        <ele>241.2</ele>
        <time>2022-03-21T13:15:36Z</time>
      </trkpt>
      <trkpt lat="46.3395" lon="5.29491">
        <ele>242.2</ele>
        <time>2022-03-21T13:15:42Z</time>
      </trkpt>
      <trkpt lat="46.33947" lon="5.29498">
        <ele>242.4</ele>
        <time>2022-03-21T13:15:43Z</time>
      </trkpt>
      <trkpt lat="46.33937" lon="5.29509">
        <ele>242.8</ele>
        <time>2022-03-21T13:15:45Z</time>
      </trkpt>
      <trkpt lat="46.33932" lon="5.29512">
        <ele>243</ele>
        <time>2022-03-21T13:15:46Z</time>
      </trkpt>
      <trkpt lat="46.33925" lon="5.29514">
        <ele>243</ele>
        <time>2022-03-21T13:15:47Z</time>
      </trkpt>
      <trkpt lat="46.339" lon="5.29516">
        <ele>243</ele>
        <time>2022-03-21T13:15:51Z</time>
      </trkpt>
      <trkpt lat="46.33844" lon="5.29516">
        <ele>242.6</ele>
        <time>2022-03-21T13:16:00Z</time>
      </trkpt>
      <trkpt lat="46.33838" lon="5.29516">
        <ele>242.6</ele>
        <time>2022-03-21T13:16:01Z</time>
      </trkpt>
      <trkpt lat="46.33808" lon="5.29513">
        <ele>242.4</ele>
        <time>2022-03-21T13:16:06Z</time>
      </trkpt>
      <trkpt lat="46.33796" lon="5.29508">
        <ele>242.4</ele>
        <time>2022-03-21T13:16:08Z</time>
      </trkpt>
      <trkpt lat="46.33764" lon="5.29484">
        <ele>242.8</ele>
        <time>2022-03-21T13:16:14Z</time>
      </trkpt>
      <trkpt lat="46.3373" lon="5.29446">
        <ele>242.8</ele>
        <time>2022-03-21T13:16:21Z</time>
      </trkpt>
      <trkpt lat="46.33697" lon="5.294">
        <ele>243.2</ele>
        <time>2022-03-21T13:16:29Z</time>
      </trkpt>
      <trkpt lat="46.33689" lon="5.29386">
        <ele>243.4</ele>
        <time>2022-03-21T13:16:31Z</time>
      </trkpt>
      <trkpt lat="46.33674" lon="5.29371">
        <ele>243.4</ele>
        <time>2022-03-21T13:16:34Z</time>
      </trkpt>
      <trkpt lat="46.33669" lon="5.29367">
        <ele>243.6</ele>
        <time>2022-03-21T13:16:35Z</time>
      </trkpt>
      <trkpt lat="46.33663" lon="5.29365">
        <ele>243.6</ele>
        <time>2022-03-21T13:16:36Z</time>
      </trkpt>
      <trkpt lat="46.33652" lon="5.29362">
        <ele>243.6</ele>
        <time>2022-03-21T13:16:38Z</time>
      </trkpt>
      <trkpt lat="46.33639" lon="5.29363">
        <ele>243.6</ele>
        <time>2022-03-21T13:16:40Z</time>
      </trkpt>
      <trkpt lat="46.33633" lon="5.29364">
        <ele>243.6</ele>
        <time>2022-03-21T13:16:41Z</time>
      </trkpt>
      <trkpt lat="46.33608" lon="5.2937">
        <ele>243.8</ele>
        <time>2022-03-21T13:16:45Z</time>
      </trkpt>
      <trkpt lat="46.33604" lon="5.2937">
        <ele>243.8</ele>
        <time>2022-03-21T13:16:46Z</time>
      </trkpt>
      <trkpt lat="46.33562" lon="5.2936">
        <ele>244.2</ele>
        <time>2022-03-21T13:16:53Z</time>
      </trkpt>
      <trkpt lat="46.33556" lon="5.29359">
        <ele>244.4</ele>
        <time>2022-03-21T13:16:54Z</time>
      </trkpt>
      <trkpt lat="46.33501" lon="5.29338">
        <ele>244.8</ele>
        <time>2022-03-21T13:17:03Z</time>
      </trkpt>
      <trkpt lat="46.33496" lon="5.29336">
        <ele>244.8</ele>
        <time>2022-03-21T13:17:04Z</time>
      </trkpt>
      <trkpt lat="46.33453" lon="5.29312">
        <ele>244.6</ele>
        <time>2022-03-21T13:17:11Z</time>
      </trkpt>
      <trkpt lat="46.33427" lon="5.29288">
        <ele>244.2</ele>
        <time>2022-03-21T13:17:16Z</time>
      </trkpt>
      <trkpt lat="46.33424" lon="5.29283">
        <ele>244</ele>
        <time>2022-03-21T13:17:17Z</time>
      </trkpt>
      <trkpt lat="46.33423" lon="5.29278">
        <ele>243.8</ele>
        <time>2022-03-21T13:17:18Z</time>
      </trkpt>
      <trkpt lat="46.33422" lon="5.29272">
        <ele>243.6</ele>
        <time>2022-03-21T13:17:19Z</time>
      </trkpt>
      <trkpt lat="46.33424" lon="5.29264">
        <ele>243.4</ele>
        <time>2022-03-21T13:17:20Z</time>
      </trkpt>
      <trkpt lat="46.33439" lon="5.29227">
        <ele>243.2</ele>
        <time>2022-03-21T13:17:25Z</time>
      </trkpt>
      <trkpt lat="46.33458" lon="5.29183">
        <ele>243.6</ele>
        <time>2022-03-21T13:17:31Z</time>
      </trkpt>
      <trkpt lat="46.33488" lon="5.2911">
        <ele>243.6</ele>
        <time>2022-03-21T13:17:40Z</time>
      </trkpt>
      <trkpt lat="46.33491" lon="5.29101">
        <ele>243.6</ele>
        <time>2022-03-21T13:17:41Z</time>
      </trkpt>
      <trkpt lat="46.33512" lon="5.29037">
        <ele>243.2</ele>
        <time>2022-03-21T13:17:48Z</time>
      </trkpt>
      <trkpt lat="46.33518" lon="5.29013">
        <ele>242.6</ele>
        <time>2022-03-21T13:17:50Z</time>
      </trkpt>
      <trkpt lat="46.33531" lon="5.28968">
        <ele>241.4</ele>
        <time>2022-03-21T13:17:54Z</time>
      </trkpt>
      <trkpt lat="46.33539" lon="5.28938">
        <ele>240.4</ele>
        <time>2022-03-21T13:17:57Z</time>
      </trkpt>
      <trkpt lat="46.33548" lon="5.28906">
        <ele>239.6</ele>
        <time>2022-03-21T13:18:00Z</time>
      </trkpt>
      <trkpt lat="46.33564" lon="5.28844">
        <ele>239.4</ele>
        <time>2022-03-21T13:18:07Z</time>
      </trkpt>
      <trkpt lat="46.33572" lon="5.28791">
        <ele>240.4</ele>
        <time>2022-03-21T13:18:13Z</time>
      </trkpt>
      <trkpt lat="46.33569" lon="5.28737">
        <ele>241</ele>
        <time>2022-03-21T13:18:19Z</time>
      </trkpt>
      <trkpt lat="46.33563" lon="5.2866">
        <ele>241.4</ele>
        <time>2022-03-21T13:18:28Z</time>
      </trkpt>
      <trkpt lat="46.33558" lon="5.28595">
        <ele>241</ele>
        <time>2022-03-21T13:18:35Z</time>
      </trkpt>
      <trkpt lat="46.33547" lon="5.28518">
        <ele>239.8</ele>
        <time>2022-03-21T13:18:43Z</time>
      </trkpt>
      <trkpt lat="46.33545" lon="5.28486">
        <ele>239.2</ele>
        <time>2022-03-21T13:18:46Z</time>
      </trkpt>
      <trkpt lat="46.33544" lon="5.28453">
        <ele>238.4</ele>
        <time>2022-03-21T13:18:49Z</time>
      </trkpt>
      <trkpt lat="46.33544" lon="5.28442">
        <ele>237.8</ele>
        <time>2022-03-21T13:18:50Z</time>
      </trkpt>
      <trkpt lat="46.33545" lon="5.28384">
        <ele>236.6</ele>
        <time>2022-03-21T13:18:55Z</time>
      </trkpt>
      <trkpt lat="46.33546" lon="5.28348">
        <ele>236</ele>
        <time>2022-03-21T13:18:58Z</time>
      </trkpt>
      <trkpt lat="46.3355" lon="5.28288">
        <ele>235.4</ele>
        <time>2022-03-21T13:19:03Z</time>
      </trkpt>
      <trkpt lat="46.33555" lon="5.28254">
        <ele>234.4</ele>
        <time>2022-03-21T13:19:06Z</time>
      </trkpt>
      <trkpt lat="46.33557" lon="5.28243">
        <ele>234.2</ele>
        <time>2022-03-21T13:19:07Z</time>
      </trkpt>
      <trkpt lat="46.3357" lon="5.28193">
        <ele>233.2</ele>
        <time>2022-03-21T13:19:12Z</time>
      </trkpt>
      <trkpt lat="46.33572" lon="5.28186">
        <ele>233</ele>
        <time>2022-03-21T13:19:13Z</time>
      </trkpt>
      <trkpt lat="46.33591" lon="5.28136">
        <ele>233.2</ele>
        <time>2022-03-21T13:19:19Z</time>
      </trkpt>
      <trkpt lat="46.33619" lon="5.28082">
        <ele>234.2</ele>
        <time>2022-03-21T13:19:27Z</time>
      </trkpt>
      <trkpt lat="46.33655" lon="5.28022">
        <ele>234.8</ele>
        <time>2022-03-21T13:19:36Z</time>
      </trkpt>
      <trkpt lat="46.33664" lon="5.28007">
        <ele>234.8</ele>
        <time>2022-03-21T13:19:38Z</time>
      </trkpt>
      <trkpt lat="46.33692" lon="5.27963">
        <ele>234.8</ele>
        <time>2022-03-21T13:19:44Z</time>
      </trkpt>
      <trkpt lat="46.33718" lon="5.27922">
        <ele>233.6</ele>
        <time>2022-03-21T13:19:49Z</time>
      </trkpt>
      <trkpt lat="46.33729" lon="5.27905">
        <ele>233</ele>
        <time>2022-03-21T13:19:51Z</time>
      </trkpt>
      <trkpt lat="46.33757" lon="5.27861">
        <ele>231.8</ele>
        <time>2022-03-21T13:19:56Z</time>
      </trkpt>
      <trkpt lat="46.33768" lon="5.27843">
        <ele>231.6</ele>
        <time>2022-03-21T13:19:58Z</time>
      </trkpt>
      <trkpt lat="46.33791" lon="5.27807">
        <ele>231</ele>
        <time>2022-03-21T13:20:02Z</time>
      </trkpt>
      <trkpt lat="46.33808" lon="5.27779">
        <ele>230.2</ele>
        <time>2022-03-21T13:20:05Z</time>
      </trkpt>
      <trkpt lat="46.33814" lon="5.2777">
        <ele>229.8</ele>
        <time>2022-03-21T13:20:06Z</time>
      </trkpt>
      <trkpt lat="46.33835" lon="5.2773">
        <ele>228.8</ele>
        <time>2022-03-21T13:20:10Z</time>
      </trkpt>
      <trkpt lat="46.33849" lon="5.27696">
        <ele>227.6</ele>
        <time>2022-03-21T13:20:13Z</time>
      </trkpt>
      <trkpt lat="46.33858" lon="5.27673">
        <ele>227.2</ele>
        <time>2022-03-21T13:20:15Z</time>
      </trkpt>
      <trkpt lat="46.33862" lon="5.27661">
        <ele>226.8</ele>
        <time>2022-03-21T13:20:16Z</time>
      </trkpt>
      <trkpt lat="46.33865" lon="5.27648">
        <ele>226.2</ele>
        <time>2022-03-21T13:20:17Z</time>
      </trkpt>
      <trkpt lat="46.33871" lon="5.2762">
        <ele>224.8</ele>
        <time>2022-03-21T13:20:19Z</time>
      </trkpt>
      <trkpt lat="46.33877" lon="5.27592">
        <ele>224.2</ele>
        <time>2022-03-21T13:20:21Z</time>
      </trkpt>
      <trkpt lat="46.33883" lon="5.27562">
        <ele>223.6</ele>
        <time>2022-03-21T13:20:23Z</time>
      </trkpt>
      <trkpt lat="46.33892" lon="5.27517">
        <ele>222</ele>
        <time>2022-03-21T13:20:26Z</time>
      </trkpt>
      <trkpt lat="46.33898" lon="5.27487">
        <ele>221</ele>
        <time>2022-03-21T13:20:28Z</time>
      </trkpt>
      <trkpt lat="46.33902" lon="5.27472">
        <ele>220.6</ele>
        <time>2022-03-21T13:20:29Z</time>
      </trkpt>
      <trkpt lat="46.3391" lon="5.27428">
        <ele>219.2</ele>
        <time>2022-03-21T13:20:32Z</time>
      </trkpt>
      <trkpt lat="46.33914" lon="5.27393">
        <ele>218.4</ele>
        <time>2022-03-21T13:20:34Z</time>
      </trkpt>
      <trkpt lat="46.33915" lon="5.27377">
        <ele>217.2</ele>
        <time>2022-03-21T13:20:35Z</time>
      </trkpt>
      <trkpt lat="46.33915" lon="5.27347">
        <ele>215.8</ele>
        <time>2022-03-21T13:20:37Z</time>
      </trkpt>
      <trkpt lat="46.33914" lon="5.27332">
        <ele>215.2</ele>
        <time>2022-03-21T13:20:38Z</time>
      </trkpt>
      <trkpt lat="46.33913" lon="5.27318">
        <ele>214.4</ele>
        <time>2022-03-21T13:20:39Z</time>
      </trkpt>
      <trkpt lat="46.33911" lon="5.27279">
        <ele>213.2</ele>
        <time>2022-03-21T13:20:42Z</time>
      </trkpt>
      <trkpt lat="46.33909" lon="5.27254">
        <ele>212.8</ele>
        <time>2022-03-21T13:20:44Z</time>
      </trkpt>
      <trkpt lat="46.33904" lon="5.27177">
        <ele>212.4</ele>
        <time>2022-03-21T13:20:51Z</time>
      </trkpt>
      <trkpt lat="46.339" lon="5.27108">
        <ele>212</ele>
        <time>2022-03-21T13:20:58Z</time>
      </trkpt>
      <trkpt lat="46.339" lon="5.2708">
        <ele>211.8</ele>
        <time>2022-03-21T13:21:01Z</time>
      </trkpt>
      <trkpt lat="46.33902" lon="5.27061">
        <ele>211.8</ele>
        <time>2022-03-21T13:21:03Z</time>
      </trkpt>
      <trkpt lat="46.33908" lon="5.27033">
        <ele>211.6</ele>
        <time>2022-03-21T13:21:06Z</time>
      </trkpt>
      <trkpt lat="46.33917" lon="5.27009">
        <ele>211.4</ele>
        <time>2022-03-21T13:21:09Z</time>
      </trkpt>
      <trkpt lat="46.33944" lon="5.26944">
        <ele>211.8</ele>
        <time>2022-03-21T13:21:17Z</time>
      </trkpt>
      <trkpt lat="46.33971" lon="5.2688">
        <ele>211.4</ele>
        <time>2022-03-21T13:21:25Z</time>
      </trkpt>
      <trkpt lat="46.33978" lon="5.26864">
        <ele>211.2</ele>
        <time>2022-03-21T13:21:27Z</time>
      </trkpt>
      <trkpt lat="46.34009" lon="5.26792">
        <ele>211.4</ele>
        <time>2022-03-21T13:21:36Z</time>
      </trkpt>
      <trkpt lat="46.34036" lon="5.26728">
        <ele>212.4</ele>
        <time>2022-03-21T13:21:45Z</time>
      </trkpt>
      <trkpt lat="46.34039" lon="5.26722">
        <ele>212.4</ele>
        <time>2022-03-21T13:21:46Z</time>
      </trkpt>
      <trkpt lat="46.34054" lon="5.26687">
        <ele>213.4</ele>
        <time>2022-03-21T13:21:52Z</time>
      </trkpt>
      <trkpt lat="46.34065" lon="5.2666">
        <ele>214.6</ele>
        <time>2022-03-21T13:21:57Z</time>
      </trkpt>
      <trkpt lat="46.3407" lon="5.2665">
        <ele>215</ele>
        <time>2022-03-21T13:21:59Z</time>
      </trkpt>
      <trkpt lat="46.34075" lon="5.26635">
        <ele>215.6</ele>
        <time>2022-03-21T13:22:02Z</time>
      </trkpt>
      <trkpt lat="46.34083" lon="5.26616">
        <ele>216.8</ele>
        <time>2022-03-21T13:22:06Z</time>
      </trkpt>
      <trkpt lat="46.34094" lon="5.26589">
        <ele>217.8</ele>
        <time>2022-03-21T13:22:12Z</time>
      </trkpt>
      <trkpt lat="46.34099" lon="5.2657">
        <ele>219</ele>
        <time>2022-03-21T13:22:16Z</time>
      </trkpt>
      <trkpt lat="46.34104" lon="5.26547">
        <ele>220</ele>
        <time>2022-03-21T13:22:21Z</time>
      </trkpt>
      <trkpt lat="46.34107" lon="5.26534">
        <ele>220.8</ele>
        <time>2022-03-21T13:22:24Z</time>
      </trkpt>
      <trkpt lat="46.34109" lon="5.26525">
        <ele>221.2</ele>
        <time>2022-03-21T13:22:26Z</time>
      </trkpt>
      <trkpt lat="46.34111" lon="5.26509">
        <ele>222.4</ele>
        <time>2022-03-21T13:22:30Z</time>
      </trkpt>
      <trkpt lat="46.34112" lon="5.26504">
        <ele>222.8</ele>
        <time>2022-03-21T13:22:31Z</time>
      </trkpt>
      <trkpt lat="46.34113" lon="5.26495">
        <ele>223.4</ele>
        <time>2022-03-21T13:22:33Z</time>
      </trkpt>
      <trkpt lat="46.34116" lon="5.2647">
        <ele>224.6</ele>
        <time>2022-03-21T13:22:38Z</time>
      </trkpt>
      <trkpt lat="46.34121" lon="5.26452">
        <ele>225.6</ele>
        <time>2022-03-21T13:22:42Z</time>
      </trkpt>
      <trkpt lat="46.34123" lon="5.26432">
        <ele>226.8</ele>
        <time>2022-03-21T13:22:46Z</time>
      </trkpt>
      <trkpt lat="46.34126" lon="5.2641">
        <ele>228.2</ele>
        <time>2022-03-21T13:22:51Z</time>
      </trkpt>
      <trkpt lat="46.34126" lon="5.264">
        <ele>228.8</ele>
        <time>2022-03-21T13:22:53Z</time>
      </trkpt>
      <trkpt lat="46.34128" lon="5.26371">
        <ele>229.2</ele>
        <time>2022-03-21T13:22:59Z</time>
      </trkpt>
      <trkpt lat="46.34129" lon="5.26354">
        <ele>230</ele>
        <time>2022-03-21T13:23:02Z</time>
      </trkpt>
      <trkpt lat="46.34131" lon="5.26333">
        <ele>230.4</ele>
        <time>2022-03-21T13:23:06Z</time>
      </trkpt>
      <trkpt lat="46.34132" lon="5.26317">
        <ele>231.4</ele>
        <time>2022-03-21T13:23:09Z</time>
      </trkpt>
      <trkpt lat="46.34133" lon="5.26313">
        <ele>231.6</ele>
        <time>2022-03-21T13:23:10Z</time>
      </trkpt>
      <trkpt lat="46.34137" lon="5.26279">
        <ele>232.6</ele>
        <time>2022-03-21T13:23:17Z</time>
      </trkpt>
      <trkpt lat="46.3414" lon="5.26241">
        <ele>233.6</ele>
        <time>2022-03-21T13:23:24Z</time>
      </trkpt>
      <trkpt lat="46.34142" lon="5.2623">
        <ele>234</ele>
        <time>2022-03-21T13:23:26Z</time>
      </trkpt>
      <trkpt lat="46.34143" lon="5.26214">
        <ele>234.8</ele>
        <time>2022-03-21T13:23:29Z</time>
      </trkpt>
      <trkpt lat="46.34146" lon="5.26173">
        <ele>235.4</ele>
        <time>2022-03-21T13:23:36Z</time>
      </trkpt>
      <trkpt lat="46.34149" lon="5.26131">
        <ele>235.8</ele>
        <time>2022-03-21T13:23:43Z</time>
      </trkpt>
      <trkpt lat="46.34156" lon="5.26097">
        <ele>236.6</ele>
        <time>2022-03-21T13:23:48Z</time>
      </trkpt>
      <trkpt lat="46.34157" lon="5.26091">
        <ele>237</ele>
        <time>2022-03-21T13:23:49Z</time>
      </trkpt>
      <trkpt lat="46.34159" lon="5.26084">
        <ele>237</ele>
        <time>2022-03-21T13:23:50Z</time>
      </trkpt>
      <trkpt lat="46.34167" lon="5.26054">
        <ele>237.8</ele>
        <time>2022-03-21T13:23:54Z</time>
      </trkpt>
      <trkpt lat="46.34173" lon="5.26041">
        <ele>237.8</ele>
        <time>2022-03-21T13:23:56Z</time>
      </trkpt>
      <trkpt lat="46.34194" lon="5.25997">
        <ele>237.6</ele>
        <time>2022-03-21T13:24:02Z</time>
      </trkpt>
      <trkpt lat="46.34228" lon="5.25926">
        <ele>235.8</ele>
        <time>2022-03-21T13:24:10Z</time>
      </trkpt>
      <trkpt lat="46.34234" lon="5.25917">
        <ele>235.8</ele>
        <time>2022-03-21T13:24:11Z</time>
      </trkpt>
      <trkpt lat="46.34247" lon="5.25903">
        <ele>235</ele>
        <time>2022-03-21T13:24:13Z</time>
      </trkpt>
      <trkpt lat="46.34254" lon="5.25897">
        <ele>234.4</ele>
        <time>2022-03-21T13:24:14Z</time>
      </trkpt>
      <trkpt lat="46.34275" lon="5.25882">
        <ele>233</ele>
        <time>2022-03-21T13:24:17Z</time>
      </trkpt>
      <trkpt lat="46.34288" lon="5.25875">
        <ele>232</ele>
        <time>2022-03-21T13:24:19Z</time>
      </trkpt>
      <trkpt lat="46.34296" lon="5.25874">
        <ele>231.8</ele>
        <time>2022-03-21T13:24:20Z</time>
      </trkpt>
      <trkpt lat="46.3432" lon="5.25873">
        <ele>230.8</ele>
        <time>2022-03-21T13:24:24Z</time>
      </trkpt>
      <trkpt lat="46.34326" lon="5.25875">
        <ele>230.6</ele>
        <time>2022-03-21T13:24:25Z</time>
      </trkpt>
      <trkpt lat="46.34332" lon="5.25875">
        <ele>230.4</ele>
        <time>2022-03-21T13:24:26Z</time>
      </trkpt>
      <trkpt lat="46.34349" lon="5.25877">
        <ele>230.2</ele>
        <time>2022-03-21T13:24:29Z</time>
      </trkpt>
      <trkpt lat="46.34362" lon="5.25878">
        <ele>229.6</ele>
        <time>2022-03-21T13:24:31Z</time>
      </trkpt>
      <trkpt lat="46.34386" lon="5.2588">
        <ele>229</ele>
        <time>2022-03-21T13:24:34Z</time>
      </trkpt>
      <trkpt lat="46.34401" lon="5.25879">
        <ele>228.6</ele>
        <time>2022-03-21T13:24:36Z</time>
      </trkpt>
      <trkpt lat="46.34408" lon="5.25878">
        <ele>228.2</ele>
        <time>2022-03-21T13:24:37Z</time>
      </trkpt>
      <trkpt lat="46.34413" lon="5.25876">
        <ele>228</ele>
        <time>2022-03-21T13:24:38Z</time>
      </trkpt>
      <trkpt lat="46.3442" lon="5.25874">
        <ele>227.8</ele>
        <time>2022-03-21T13:24:39Z</time>
      </trkpt>
      <trkpt lat="46.34425" lon="5.25873">
        <ele>227.4</ele>
        <time>2022-03-21T13:24:40Z</time>
      </trkpt>
      <trkpt lat="46.34432" lon="5.25872">
        <ele>227</ele>
        <time>2022-03-21T13:24:41Z</time>
      </trkpt>
      <trkpt lat="46.34437" lon="5.25869">
        <ele>226.4</ele>
        <time>2022-03-21T13:24:42Z</time>
      </trkpt>
      <trkpt lat="46.34441" lon="5.25865">
        <ele>226.4</ele>
        <time>2022-03-21T13:24:43Z</time>
      </trkpt>
      <trkpt lat="46.34443" lon="5.25859">
        <ele>226</ele>
        <time>2022-03-21T13:24:44Z</time>
      </trkpt>
      <trkpt lat="46.34443" lon="5.25852">
        <ele>225.8</ele>
        <time>2022-03-21T13:24:45Z</time>
      </trkpt>
      <trkpt lat="46.34439" lon="5.25839">
        <ele>225.6</ele>
        <time>2022-03-21T13:24:47Z</time>
      </trkpt>
      <trkpt lat="46.34423" lon="5.25821">
        <ele>225.6</ele>
        <time>2022-03-21T13:24:51Z</time>
      </trkpt>
      <trkpt lat="46.34395" lon="5.25791">
        <ele>225.8</ele>
        <time>2022-03-21T13:24:58Z</time>
      </trkpt>
      <trkpt lat="46.34392" lon="5.25779">
        <ele>226</ele>
        <time>2022-03-21T13:25:00Z</time>
      </trkpt>
      <trkpt lat="46.34392" lon="5.25773">
        <ele>226.2</ele>
        <time>2022-03-21T13:25:01Z</time>
      </trkpt>
      <trkpt lat="46.34392" lon="5.25767">
        <ele>226</ele>
        <time>2022-03-21T13:25:02Z</time>
      </trkpt>
      <trkpt lat="46.34391" lon="5.25748">
        <ele>226.2</ele>
        <time>2022-03-21T13:25:05Z</time>
      </trkpt>
      <trkpt lat="46.34392" lon="5.25741">
        <ele>226.2</ele>
        <time>2022-03-21T13:25:06Z</time>
      </trkpt>
      <trkpt lat="46.34395" lon="5.25728">
        <ele>226.6</ele>
        <time>2022-03-21T13:25:08Z</time>
      </trkpt>
      <trkpt lat="46.344" lon="5.2571">
        <ele>227</ele>
        <time>2022-03-21T13:25:11Z</time>
      </trkpt>
      <trkpt lat="46.34401" lon="5.25704">
        <ele>227.2</ele>
        <time>2022-03-21T13:25:12Z</time>
      </trkpt>
      <trkpt lat="46.34403" lon="5.25698">
        <ele>227.4</ele>
        <time>2022-03-21T13:25:13Z</time>
      </trkpt>
      <trkpt lat="46.34405" lon="5.25693">
        <ele>227.6</ele>
        <time>2022-03-21T13:25:14Z</time>
      </trkpt>
      <trkpt lat="46.34409" lon="5.25671">
        <ele>228.2</ele>
        <time>2022-03-21T13:25:18Z</time>
      </trkpt>
      <trkpt lat="46.3441" lon="5.25666">
        <ele>228.6</ele>
        <time>2022-03-21T13:25:19Z</time>
      </trkpt>
      <trkpt lat="46.34415" lon="5.25651">
        <ele>229.2</ele>
        <time>2022-03-21T13:25:22Z</time>
      </trkpt>
      <trkpt lat="46.34418" lon="5.25647">
        <ele>229.8</ele>
        <time>2022-03-21T13:25:23Z</time>
      </trkpt>
      <trkpt lat="46.3442" lon="5.25645">
        <ele>230.2</ele>
        <time>2022-03-21T13:25:24Z</time>
      </trkpt>
      <trkpt lat="46.34428" lon="5.25644">
        <ele>230.8</ele>
        <time>2022-03-21T13:25:26Z</time>
      </trkpt>
      <trkpt lat="46.34447" lon="5.25648">
        <ele>232.2</ele>
        <time>2022-03-21T13:25:30Z</time>
      </trkpt>
      <trkpt lat="46.34452" lon="5.25649">
        <ele>232.6</ele>
        <time>2022-03-21T13:25:31Z</time>
      </trkpt>
      <trkpt lat="46.34486" lon="5.25645">
        <ele>233.2</ele>
        <time>2022-03-21T13:25:38Z</time>
      </trkpt>
      <trkpt lat="46.34516" lon="5.25635">
        <ele>234.4</ele>
        <time>2022-03-21T13:25:45Z</time>
      </trkpt>
      <trkpt lat="46.3452" lon="5.25634">
        <ele>234.6</ele>
        <time>2022-03-21T13:25:46Z</time>
      </trkpt>
      <trkpt lat="46.34544" lon="5.25626">
        <ele>235.4</ele>
        <time>2022-03-21T13:25:51Z</time>
      </trkpt>
      <trkpt lat="46.34561" lon="5.25619">
        <ele>235.8</ele>
        <time>2022-03-21T13:25:54Z</time>
      </trkpt>
      <trkpt lat="46.34578" lon="5.25606">
        <ele>235.6</ele>
        <time>2022-03-21T13:25:57Z</time>
      </trkpt>
      <trkpt lat="46.34589" lon="5.25594">
        <ele>235.2</ele>
        <time>2022-03-21T13:25:59Z</time>
      </trkpt>
      <trkpt lat="46.34598" lon="5.25578">
        <ele>234.8</ele>
        <time>2022-03-21T13:26:01Z</time>
      </trkpt>
      <trkpt lat="46.34601" lon="5.25568">
        <ele>234.6</ele>
        <time>2022-03-21T13:26:02Z</time>
      </trkpt>
      <trkpt lat="46.34604" lon="5.25558">
        <ele>234</ele>
        <time>2022-03-21T13:26:03Z</time>
      </trkpt>
      <trkpt lat="46.34611" lon="5.25511">
        <ele>233.4</ele>
        <time>2022-03-21T13:26:07Z</time>
      </trkpt>
      <trkpt lat="46.34613" lon="5.25498">
        <ele>233</ele>
        <time>2022-03-21T13:26:08Z</time>
      </trkpt>
      <trkpt lat="46.34618" lon="5.25473">
        <ele>231.6</ele>
        <time>2022-03-21T13:26:10Z</time>
      </trkpt>
      <trkpt lat="46.34624" lon="5.25446">
        <ele>230.6</ele>
        <time>2022-03-21T13:26:12Z</time>
      </trkpt>
      <trkpt lat="46.34627" lon="5.25433">
        <ele>230.2</ele>
        <time>2022-03-21T13:26:13Z</time>
      </trkpt>
      <trkpt lat="46.3463" lon="5.25405">
        <ele>228.8</ele>
        <time>2022-03-21T13:26:15Z</time>
      </trkpt>
      <trkpt lat="46.34634" lon="5.25378">
        <ele>227.6</ele>
        <time>2022-03-21T13:26:17Z</time>
      </trkpt>
      <trkpt lat="46.34639" lon="5.25351">
        <ele>226.6</ele>
        <time>2022-03-21T13:26:19Z</time>
      </trkpt>
      <trkpt lat="46.34651" lon="5.25299">
        <ele>225.4</ele>
        <time>2022-03-21T13:26:23Z</time>
      </trkpt>
      <trkpt lat="46.34654" lon="5.25287">
        <ele>225.2</ele>
        <time>2022-03-21T13:26:24Z</time>
      </trkpt>
      <trkpt lat="46.34666" lon="5.25238">
        <ele>224.4</ele>
        <time>2022-03-21T13:26:28Z</time>
      </trkpt>
      <trkpt lat="46.34674" lon="5.25206">
        <ele>224</ele>
        <time>2022-03-21T13:26:31Z</time>
      </trkpt>
      <trkpt lat="46.34687" lon="5.25151">
        <ele>224.2</ele>
        <time>2022-03-21T13:26:37Z</time>
      </trkpt>
      <trkpt lat="46.34698" lon="5.25116">
        <ele>225</ele>
        <time>2022-03-21T13:26:42Z</time>
      </trkpt>
      <trkpt lat="46.34701" lon="5.25109">
        <ele>225.2</ele>
        <time>2022-03-21T13:26:43Z</time>
      </trkpt>
      <trkpt lat="46.34703" lon="5.25103">
        <ele>225.4</ele>
        <time>2022-03-21T13:26:44Z</time>
      </trkpt>
      <trkpt lat="46.34709" lon="5.25086">
        <ele>226.4</ele>
        <time>2022-03-21T13:26:47Z</time>
      </trkpt>
      <trkpt lat="46.34711" lon="5.25081">
        <ele>226.6</ele>
        <time>2022-03-21T13:26:48Z</time>
      </trkpt>
      <trkpt lat="46.34713" lon="5.25075">
        <ele>226.8</ele>
        <time>2022-03-21T13:26:49Z</time>
      </trkpt>
      <trkpt lat="46.34717" lon="5.25065">
        <ele>227.8</ele>
        <time>2022-03-21T13:26:51Z</time>
      </trkpt>
      <trkpt lat="46.34719" lon="5.2506">
        <ele>228</ele>
        <time>2022-03-21T13:26:52Z</time>
      </trkpt>
      <trkpt lat="46.34723" lon="5.25052">
        <ele>229</ele>
        <time>2022-03-21T13:26:54Z</time>
      </trkpt>
      <trkpt lat="46.34728" lon="5.25036">
        <ele>229.6</ele>
        <time>2022-03-21T13:26:57Z</time>
      </trkpt>
      <trkpt lat="46.34731" lon="5.25031">
        <ele>230</ele>
        <time>2022-03-21T13:26:58Z</time>
      </trkpt>
      <trkpt lat="46.34746" lon="5.24992">
        <ele>231</ele>
        <time>2022-03-21T13:27:04Z</time>
      </trkpt>
      <trkpt lat="46.34748" lon="5.24985">
        <ele>231.2</ele>
        <time>2022-03-21T13:27:05Z</time>
      </trkpt>
      <trkpt lat="46.34767" lon="5.24935">
        <ele>231.4</ele>
        <time>2022-03-21T13:27:11Z</time>
      </trkpt>
      <trkpt lat="46.34796" lon="5.24866">
        <ele>230.2</ele>
        <time>2022-03-21T13:27:19Z</time>
      </trkpt>
      <trkpt lat="46.34806" lon="5.24851">
        <ele>230</ele>
        <time>2022-03-21T13:27:21Z</time>
      </trkpt>
      <trkpt lat="46.3481" lon="5.24844">
        <ele>229.8</ele>
        <time>2022-03-21T13:27:22Z</time>
      </trkpt>
      <trkpt lat="46.3482" lon="5.24826">
        <ele>229.2</ele>
        <time>2022-03-21T13:27:24Z</time>
      </trkpt>
      <trkpt lat="46.34831" lon="5.24805">
        <ele>228.8</ele>
        <time>2022-03-21T13:27:26Z</time>
      </trkpt>
      <trkpt lat="46.34846" lon="5.24772">
        <ele>228</ele>
        <time>2022-03-21T13:27:29Z</time>
      </trkpt>
      <trkpt lat="46.3485" lon="5.2476">
        <ele>227.6</ele>
        <time>2022-03-21T13:27:30Z</time>
      </trkpt>
      <trkpt lat="46.34861" lon="5.24723">
        <ele>226.4</ele>
        <time>2022-03-21T13:27:33Z</time>
      </trkpt>
      <trkpt lat="46.34865" lon="5.24699">
        <ele>226</ele>
        <time>2022-03-21T13:27:35Z</time>
      </trkpt>
      <trkpt lat="46.34869" lon="5.24655">
        <ele>225.8</ele>
        <time>2022-03-21T13:27:39Z</time>
      </trkpt>
      <trkpt lat="46.34872" lon="5.2461">
        <ele>226</ele>
        <time>2022-03-21T13:27:44Z</time>
      </trkpt>
      <trkpt lat="46.34873" lon="5.24598">
        <ele>226.4</ele>
        <time>2022-03-21T13:27:46Z</time>
      </trkpt>
      <trkpt lat="46.34876" lon="5.24587">
        <ele>227.2</ele>
        <time>2022-03-21T13:27:48Z</time>
      </trkpt>
      <trkpt lat="46.34877" lon="5.24582">
        <ele>227.6</ele>
        <time>2022-03-21T13:27:49Z</time>
      </trkpt>
      <trkpt lat="46.34883" lon="5.24564">
        <ele>228.6</ele>
        <time>2022-03-21T13:27:53Z</time>
      </trkpt>
      <trkpt lat="46.34885" lon="5.2456">
        <ele>229.4</ele>
        <time>2022-03-21T13:27:54Z</time>
      </trkpt>
      <trkpt lat="46.34889" lon="5.2455">
        <ele>230.2</ele>
        <time>2022-03-21T13:27:56Z</time>
      </trkpt>
      <trkpt lat="46.34898" lon="5.24533">
        <ele>231.2</ele>
        <time>2022-03-21T13:28:00Z</time>
      </trkpt>
      <trkpt lat="46.34901" lon="5.24528">
        <ele>231.8</ele>
        <time>2022-03-21T13:28:01Z</time>
      </trkpt>
      <trkpt lat="46.34906" lon="5.24518">
        <ele>232.4</ele>
        <time>2022-03-21T13:28:03Z</time>
      </trkpt>
      <trkpt lat="46.34922" lon="5.24488">
        <ele>233.4</ele>
        <time>2022-03-21T13:28:08Z</time>
      </trkpt>
      <trkpt lat="46.34925" lon="5.24483">
        <ele>233.4</ele>
        <time>2022-03-21T13:28:09Z</time>
      </trkpt>
      <trkpt lat="46.34941" lon="5.2445">
        <ele>234.8</ele>
        <time>2022-03-21T13:28:15Z</time>
      </trkpt>
      <trkpt lat="46.34944" lon="5.24444">
        <ele>234.8</ele>
        <time>2022-03-21T13:28:16Z</time>
      </trkpt>
      <trkpt lat="46.34956" lon="5.24417">
        <ele>235.8</ele>
        <time>2022-03-21T13:28:21Z</time>
      </trkpt>
      <trkpt lat="46.3496" lon="5.24406">
        <ele>236.2</ele>
        <time>2022-03-21T13:28:23Z</time>
      </trkpt>
      <trkpt lat="46.34979" lon="5.24364">
        <ele>236.8</ele>
        <time>2022-03-21T13:28:30Z</time>
      </trkpt>
      <trkpt lat="46.34982" lon="5.24358">
        <ele>236.8</ele>
        <time>2022-03-21T13:28:31Z</time>
      </trkpt>
      <trkpt lat="46.35003" lon="5.24323">
        <ele>237.2</ele>
        <time>2022-03-21T13:28:37Z</time>
      </trkpt>
      <trkpt lat="46.35036" lon="5.24277">
        <ele>237.4</ele>
        <time>2022-03-21T13:28:45Z</time>
      </trkpt>
      <trkpt lat="46.35077" lon="5.2424">
        <ele>237.6</ele>
        <time>2022-03-21T13:28:53Z</time>
      </trkpt>
      <trkpt lat="46.35102" lon="5.24213">
        <ele>237.6</ele>
        <time>2022-03-21T13:28:58Z</time>
      </trkpt>
      <trkpt lat="46.35106" lon="5.24207">
        <ele>237.6</ele>
        <time>2022-03-21T13:28:59Z</time>
      </trkpt>
      <trkpt lat="46.35136" lon="5.24144">
        <ele>237.6</ele>
        <time>2022-03-21T13:29:07Z</time>
      </trkpt>
      <trkpt lat="46.35165" lon="5.24083">
        <ele>237.6</ele>
        <time>2022-03-21T13:29:15Z</time>
      </trkpt>
      <trkpt lat="46.35199" lon="5.2402">
        <ele>237.4</ele>
        <time>2022-03-21T13:29:23Z</time>
      </trkpt>
      <trkpt lat="46.35203" lon="5.24012">
        <ele>237.4</ele>
        <time>2022-03-21T13:29:24Z</time>
      </trkpt>
      <trkpt lat="46.35235" lon="5.23946">
        <ele>237.2</ele>
        <time>2022-03-21T13:29:32Z</time>
      </trkpt>
      <trkpt lat="46.35259" lon="5.23871">
        <ele>237.2</ele>
        <time>2022-03-21T13:29:40Z</time>
      </trkpt>
      <trkpt lat="46.35282" lon="5.238">
        <ele>237</ele>
        <time>2022-03-21T13:29:48Z</time>
      </trkpt>
      <trkpt lat="46.35287" lon="5.23782">
        <ele>237</ele>
        <time>2022-03-21T13:29:50Z</time>
      </trkpt>
      <trkpt lat="46.35312" lon="5.23704">
        <ele>237.4</ele>
        <time>2022-03-21T13:29:59Z</time>
      </trkpt>
      <trkpt lat="46.35314" lon="5.23695">
        <ele>237.6</ele>
        <time>2022-03-21T13:30:00Z</time>
      </trkpt>
      <trkpt lat="46.35336" lon="5.23627">
        <ele>237.4</ele>
        <time>2022-03-21T13:30:08Z</time>
      </trkpt>
      <trkpt lat="46.3534" lon="5.2362">
        <ele>237.4</ele>
        <time>2022-03-21T13:30:09Z</time>
      </trkpt>
      <trkpt lat="46.35345" lon="5.23613">
        <ele>237.6</ele>
        <time>2022-03-21T13:30:10Z</time>
      </trkpt>
      <trkpt lat="46.35355" lon="5.23603">
        <ele>237.6</ele>
        <time>2022-03-21T13:30:12Z</time>
      </trkpt>
      <trkpt lat="46.35362" lon="5.236">
        <ele>237.8</ele>
        <time>2022-03-21T13:30:13Z</time>
      </trkpt>
      <trkpt lat="46.35368" lon="5.23598">
        <ele>237.8</ele>
        <time>2022-03-21T13:30:14Z</time>
      </trkpt>
      <trkpt lat="46.35395" lon="5.23595">
        <ele>238</ele>
        <time>2022-03-21T13:30:18Z</time>
      </trkpt>
      <trkpt lat="46.35442" lon="5.23598">
        <ele>238</ele>
        <time>2022-03-21T13:30:25Z</time>
      </trkpt>
      <trkpt lat="46.35455" lon="5.23604">
        <ele>238</ele>
        <time>2022-03-21T13:30:27Z</time>
      </trkpt>
      <trkpt lat="46.35476" lon="5.23611">
        <ele>238</ele>
        <time>2022-03-21T13:30:30Z</time>
      </trkpt>
      <trkpt lat="46.35483" lon="5.23611">
        <ele>238</ele>
        <time>2022-03-21T13:30:31Z</time>
      </trkpt>
      <trkpt lat="46.35513" lon="5.23611">
        <ele>238.2</ele>
        <time>2022-03-21T13:30:35Z</time>
      </trkpt>
      <trkpt lat="46.35572" lon="5.23602">
        <ele>238</ele>
        <time>2022-03-21T13:30:43Z</time>
      </trkpt>
      <trkpt lat="46.35628" lon="5.23582">
        <ele>237.6</ele>
        <time>2022-03-21T13:30:51Z</time>
      </trkpt>
      <trkpt lat="46.35641" lon="5.23569">
        <ele>237.6</ele>
        <time>2022-03-21T13:30:53Z</time>
      </trkpt>
      <trkpt lat="46.35645" lon="5.23561">
        <ele>237.6</ele>
        <time>2022-03-21T13:30:54Z</time>
      </trkpt>
      <trkpt lat="46.35649" lon="5.23552">
        <ele>237.6</ele>
        <time>2022-03-21T13:30:55Z</time>
      </trkpt>
      <trkpt lat="46.35655" lon="5.23529">
        <ele>237.4</ele>
        <time>2022-03-21T13:30:57Z</time>
      </trkpt>
      <trkpt lat="46.35658" lon="5.23509">
        <ele>237</ele>
        <time>2022-03-21T13:30:59Z</time>
      </trkpt>
      <trkpt lat="46.35666" lon="5.23465">
        <ele>236.4</ele>
        <time>2022-03-21T13:31:03Z</time>
      </trkpt>
      <trkpt lat="46.35674" lon="5.23443">
        <ele>236.2</ele>
        <time>2022-03-21T13:31:05Z</time>
      </trkpt>
      <trkpt lat="46.35683" lon="5.23427">
        <ele>236</ele>
        <time>2022-03-21T13:31:07Z</time>
      </trkpt>
      <trkpt lat="46.35688" lon="5.23418">
        <ele>235.8</ele>
        <time>2022-03-21T13:31:08Z</time>
      </trkpt>
      <trkpt lat="46.357" lon="5.23401">
        <ele>235.6</ele>
        <time>2022-03-21T13:31:10Z</time>
      </trkpt>
      <trkpt lat="46.35722" lon="5.23352">
        <ele>235.2</ele>
        <time>2022-03-21T13:31:15Z</time>
      </trkpt>
      <trkpt lat="46.35736" lon="5.23313">
        <ele>234.8</ele>
        <time>2022-03-21T13:31:19Z</time>
      </trkpt>
      <trkpt lat="46.35745" lon="5.23285">
        <ele>234.6</ele>
        <time>2022-03-21T13:31:22Z</time>
      </trkpt>
      <trkpt lat="46.35765" lon="5.23214">
        <ele>234.4</ele>
        <time>2022-03-21T13:31:29Z</time>
      </trkpt>
      <trkpt lat="46.35785" lon="5.23161">
        <ele>233.4</ele>
        <time>2022-03-21T13:31:34Z</time>
      </trkpt>
      <trkpt lat="46.3579" lon="5.23152">
        <ele>233.2</ele>
        <time>2022-03-21T13:31:35Z</time>
      </trkpt>
      <trkpt lat="46.35803" lon="5.23137">
        <ele>233</ele>
        <time>2022-03-21T13:31:37Z</time>
      </trkpt>
      <trkpt lat="46.35817" lon="5.23125">
        <ele>232.6</ele>
        <time>2022-03-21T13:31:39Z</time>
      </trkpt>
      <trkpt lat="46.35824" lon="5.23118">
        <ele>232.4</ele>
        <time>2022-03-21T13:31:40Z</time>
      </trkpt>
      <trkpt lat="46.35849" lon="5.23085">
        <ele>231.8</ele>
        <time>2022-03-21T13:31:44Z</time>
      </trkpt>
      <trkpt lat="46.35866" lon="5.23057">
        <ele>231.4</ele>
        <time>2022-03-21T13:31:47Z</time>
      </trkpt>
      <trkpt lat="46.35888" lon="5.23018">
        <ele>231</ele>
        <time>2022-03-21T13:31:51Z</time>
      </trkpt>
      <trkpt lat="46.35905" lon="5.22986">
        <ele>230.2</ele>
        <time>2022-03-21T13:31:54Z</time>
      </trkpt>
      <trkpt lat="46.35917" lon="5.22963">
        <ele>229.8</ele>
        <time>2022-03-21T13:31:56Z</time>
      </trkpt>
      <trkpt lat="46.35924" lon="5.22952">
        <ele>229.6</ele>
        <time>2022-03-21T13:31:57Z</time>
      </trkpt>
      <trkpt lat="46.35942" lon="5.22935">
        <ele>228.6</ele>
        <time>2022-03-21T13:31:59Z</time>
      </trkpt>
      <trkpt lat="46.35974" lon="5.22919">
        <ele>227.6</ele>
        <time>2022-03-21T13:32:02Z</time>
      </trkpt>
      <trkpt lat="46.35985" lon="5.22914">
        <ele>226.8</ele>
        <time>2022-03-21T13:32:03Z</time>
      </trkpt>
      <trkpt lat="46.35996" lon="5.22908">
        <ele>225.4</ele>
        <time>2022-03-21T13:32:04Z</time>
      </trkpt>
      <trkpt lat="46.36019" lon="5.22894">
        <ele>224.2</ele>
        <time>2022-03-21T13:32:06Z</time>
      </trkpt>
      <trkpt lat="46.3603" lon="5.22885">
        <ele>223.6</ele>
        <time>2022-03-21T13:32:07Z</time>
      </trkpt>
      <trkpt lat="46.36061" lon="5.2285">
        <ele>221.6</ele>
        <time>2022-03-21T13:32:10Z</time>
      </trkpt>
      <trkpt lat="46.36071" lon="5.22837">
        <ele>220.4</ele>
        <time>2022-03-21T13:32:11Z</time>
      </trkpt>
      <trkpt lat="46.36088" lon="5.22807">
        <ele>219</ele>
        <time>2022-03-21T13:32:13Z</time>
      </trkpt>
      <trkpt lat="46.36093" lon="5.22794">
        <ele>218.6</ele>
        <time>2022-03-21T13:32:14Z</time>
      </trkpt>
      <trkpt lat="46.36099" lon="5.22778">
        <ele>217.4</ele>
        <time>2022-03-21T13:32:15Z</time>
      </trkpt>
      <trkpt lat="46.36111" lon="5.22748">
        <ele>215.4</ele>
        <time>2022-03-21T13:32:17Z</time>
      </trkpt>
      <trkpt lat="46.36126" lon="5.22719">
        <ele>214.4</ele>
        <time>2022-03-21T13:32:19Z</time>
      </trkpt>
      <trkpt lat="46.36134" lon="5.22707">
        <ele>213.8</ele>
        <time>2022-03-21T13:32:20Z</time>
      </trkpt>
      <trkpt lat="46.36156" lon="5.22674">
        <ele>213</ele>
        <time>2022-03-21T13:32:23Z</time>
      </trkpt>
      <trkpt lat="46.36161" lon="5.22662">
        <ele>212.6</ele>
        <time>2022-03-21T13:32:24Z</time>
      </trkpt>
      <trkpt lat="46.36165" lon="5.22649">
        <ele>212.2</ele>
        <time>2022-03-21T13:32:25Z</time>
      </trkpt>
      <trkpt lat="46.36168" lon="5.22637">
        <ele>212.2</ele>
        <time>2022-03-21T13:32:26Z</time>
      </trkpt>
      <trkpt lat="46.36175" lon="5.22613">
        <ele>212</ele>
        <time>2022-03-21T13:32:28Z</time>
      </trkpt>
      <trkpt lat="46.36184" lon="5.22593">
        <ele>212</ele>
        <time>2022-03-21T13:32:30Z</time>
      </trkpt>
      <trkpt lat="46.36203" lon="5.22564">
        <ele>212.6</ele>
        <time>2022-03-21T13:32:34Z</time>
      </trkpt>
      <trkpt lat="46.36222" lon="5.22542">
        <ele>213.8</ele>
        <time>2022-03-21T13:32:38Z</time>
      </trkpt>
      <trkpt lat="46.3623" lon="5.22532">
        <ele>214.6</ele>
        <time>2022-03-21T13:32:40Z</time>
      </trkpt>
      <trkpt lat="46.36235" lon="5.22527">
        <ele>215.2</ele>
        <time>2022-03-21T13:32:41Z</time>
      </trkpt>
      <trkpt lat="46.36247" lon="5.22514">
        <ele>216.4</ele>
        <time>2022-03-21T13:32:44Z</time>
      </trkpt>
      <trkpt lat="46.36257" lon="5.22499">
        <ele>217.6</ele>
        <time>2022-03-21T13:32:47Z</time>
      </trkpt>
      <trkpt lat="46.36265" lon="5.22481">
        <ele>218.4</ele>
        <time>2022-03-21T13:32:50Z</time>
      </trkpt>
      <trkpt lat="46.36267" lon="5.22473">
        <ele>218.6</ele>
        <time>2022-03-21T13:32:51Z</time>
      </trkpt>
      <trkpt lat="46.36269" lon="5.22466">
        <ele>219.2</ele>
        <time>2022-03-21T13:32:52Z</time>
      </trkpt>
      <trkpt lat="46.3627" lon="5.22458">
        <ele>219.4</ele>
        <time>2022-03-21T13:32:53Z</time>
      </trkpt>
      <trkpt lat="46.36273" lon="5.2243">
        <ele>219.6</ele>
        <time>2022-03-21T13:32:56Z</time>
      </trkpt>
      <trkpt lat="46.36281" lon="5.22363">
        <ele>218.8</ele>
        <time>2022-03-21T13:33:02Z</time>
      </trkpt>
      <trkpt lat="46.36283" lon="5.22352">
        <ele>218.8</ele>
        <time>2022-03-21T13:33:03Z</time>
      </trkpt>
      <trkpt lat="46.36291" lon="5.22331">
        <ele>218.2</ele>
        <time>2022-03-21T13:33:05Z</time>
      </trkpt>
      <trkpt lat="46.36303" lon="5.22316">
        <ele>217.6</ele>
        <time>2022-03-21T13:33:07Z</time>
      </trkpt>
      <trkpt lat="46.3631" lon="5.22312">
        <ele>217.2</ele>
        <time>2022-03-21T13:33:08Z</time>
      </trkpt>
      <trkpt lat="46.36318" lon="5.22309">
        <ele>217</ele>
        <time>2022-03-21T13:33:09Z</time>
      </trkpt>
      <trkpt lat="46.36342" lon="5.22307">
        <ele>216.8</ele>
        <time>2022-03-21T13:33:12Z</time>
      </trkpt>
      <trkpt lat="46.3635" lon="5.22306">
        <ele>216.4</ele>
        <time>2022-03-21T13:33:13Z</time>
      </trkpt>
      <trkpt lat="46.36358" lon="5.22304">
        <ele>216.4</ele>
        <time>2022-03-21T13:33:14Z</time>
      </trkpt>
      <trkpt lat="46.36373" lon="5.22297">
        <ele>216</ele>
        <time>2022-03-21T13:33:16Z</time>
      </trkpt>
      <trkpt lat="46.36412" lon="5.22265">
        <ele>215.8</ele>
        <time>2022-03-21T13:33:22Z</time>
      </trkpt>
      <trkpt lat="46.36456" lon="5.22221">
        <ele>216.6</ele>
        <time>2022-03-21T13:33:30Z</time>
      </trkpt>
      <trkpt lat="46.36478" lon="5.22202">
        <ele>217.6</ele>
        <time>2022-03-21T13:33:34Z</time>
      </trkpt>
      <trkpt lat="46.36508" lon="5.22176">
        <ele>218.2</ele>
        <time>2022-03-21T13:33:40Z</time>
      </trkpt>
      <trkpt lat="46.36523" lon="5.22163">
        <ele>218.6</ele>
        <time>2022-03-21T13:33:43Z</time>
      </trkpt>
      <trkpt lat="46.36536" lon="5.22149">
        <ele>219.2</ele>
        <time>2022-03-21T13:33:46Z</time>
      </trkpt>
      <trkpt lat="46.36546" lon="5.22133">
        <ele>219.8</ele>
        <time>2022-03-21T13:33:49Z</time>
      </trkpt>
      <trkpt lat="46.36551" lon="5.22122">
        <ele>220.4</ele>
        <time>2022-03-21T13:33:51Z</time>
      </trkpt>
      <trkpt lat="46.36553" lon="5.22116">
        <ele>220.8</ele>
        <time>2022-03-21T13:33:52Z</time>
      </trkpt>
      <trkpt lat="46.36559" lon="5.22094">
        <ele>221.6</ele>
        <time>2022-03-21T13:33:56Z</time>
      </trkpt>
      <trkpt lat="46.3656" lon="5.22088">
        <ele>222</ele>
        <time>2022-03-21T13:33:57Z</time>
      </trkpt>
      <trkpt lat="46.36566" lon="5.22062">
        <ele>223.2</ele>
        <time>2022-03-21T13:34:02Z</time>
      </trkpt>
      <trkpt lat="46.36568" lon="5.22058">
        <ele>223.4</ele>
        <time>2022-03-21T13:34:03Z</time>
      </trkpt>
      <trkpt lat="46.36571" lon="5.22045">
        <ele>224.2</ele>
        <time>2022-03-21T13:34:06Z</time>
      </trkpt>
      <trkpt lat="46.36574" lon="5.22036">
        <ele>224.8</ele>
        <time>2022-03-21T13:34:08Z</time>
      </trkpt>
      <trkpt lat="46.36578" lon="5.22019">
        <ele>225.6</ele>
        <time>2022-03-21T13:34:11Z</time>
      </trkpt>
      <trkpt lat="46.36584" lon="5.22002">
        <ele>226.6</ele>
        <time>2022-03-21T13:34:15Z</time>
      </trkpt>
      <trkpt lat="46.36585" lon="5.22">
        <ele>226.8</ele>
        <time>2022-03-21T13:34:16Z</time>
      </trkpt>
      <trkpt lat="46.36586" lon="5.22">
        <ele>227.4</ele>
        <time>2022-03-21T13:34:20Z</time>
      </trkpt>
      <trkpt lat="46.36588" lon="5.21988">
        <ele>227.6</ele>
        <time>2022-03-21T13:35:41Z</time>
      </trkpt>
      <trkpt lat="46.36589" lon="5.21983">
        <ele>227.6</ele>
        <time>2022-03-21T13:35:42Z</time>
      </trkpt>
      <trkpt lat="46.36592" lon="5.21969">
        <ele>227.6</ele>
        <time>2022-03-21T13:35:44Z</time>
      </trkpt>
      <trkpt lat="46.36595" lon="5.21946">
        <ele>227.8</ele>
        <time>2022-03-21T13:35:47Z</time>
      </trkpt>
      <trkpt lat="46.366" lon="5.21913">
        <ele>228.8</ele>
        <time>2022-03-21T13:35:51Z</time>
      </trkpt>
      <trkpt lat="46.36604" lon="5.21887">
        <ele>228.8</ele>
        <time>2022-03-21T13:35:54Z</time>
      </trkpt>
      <trkpt lat="46.36609" lon="5.21853">
        <ele>230</ele>
        <time>2022-03-21T13:35:58Z</time>
      </trkpt>
      <trkpt lat="46.36613" lon="5.21817">
        <ele>230</ele>
        <time>2022-03-21T13:36:02Z</time>
      </trkpt>
      <trkpt lat="46.3662" lon="5.21759">
        <ele>231</ele>
        <time>2022-03-21T13:36:09Z</time>
      </trkpt>
      <trkpt lat="46.36626" lon="5.21736">
        <ele>231.2</ele>
        <time>2022-03-21T13:36:12Z</time>
      </trkpt>
      <trkpt lat="46.36642" lon="5.2168">
        <ele>231.6</ele>
        <time>2022-03-21T13:36:19Z</time>
      </trkpt>
      <trkpt lat="46.36659" lon="5.21654">
        <ele>231.4</ele>
        <time>2022-03-21T13:36:23Z</time>
      </trkpt>
      <trkpt lat="46.36664" lon="5.21649">
        <ele>231.4</ele>
        <time>2022-03-21T13:36:24Z</time>
      </trkpt>
      <trkpt lat="46.36686" lon="5.21627">
        <ele>231.6</ele>
        <time>2022-03-21T13:36:28Z</time>
      </trkpt>
      <trkpt lat="46.36696" lon="5.21612">
        <ele>231.6</ele>
        <time>2022-03-21T13:36:30Z</time>
      </trkpt>
      <trkpt lat="46.36703" lon="5.21595">
        <ele>231.6</ele>
        <time>2022-03-21T13:36:32Z</time>
      </trkpt>
      <trkpt lat="46.36713" lon="5.21569">
        <ele>231.6</ele>
        <time>2022-03-21T13:36:35Z</time>
      </trkpt>
      <trkpt lat="46.36715" lon="5.21561">
        <ele>231.6</ele>
        <time>2022-03-21T13:36:36Z</time>
      </trkpt>
      <trkpt lat="46.36731" lon="5.21507">
        <ele>232</ele>
        <time>2022-03-21T13:36:42Z</time>
      </trkpt>
      <trkpt lat="46.36732" lon="5.21499">
        <ele>232</ele>
        <time>2022-03-21T13:36:43Z</time>
      </trkpt>
      <trkpt lat="46.36742" lon="5.2145">
        <ele>232.4</ele>
        <time>2022-03-21T13:36:48Z</time>
      </trkpt>
      <trkpt lat="46.36749" lon="5.21424">
        <ele>232.4</ele>
        <time>2022-03-21T13:36:51Z</time>
      </trkpt>
      <trkpt lat="46.36752" lon="5.21417">
        <ele>232.4</ele>
        <time>2022-03-21T13:36:52Z</time>
      </trkpt>
      <trkpt lat="46.36756" lon="5.21409">
        <ele>232.2</ele>
        <time>2022-03-21T13:36:53Z</time>
      </trkpt>
      <trkpt lat="46.3677" lon="5.21387">
        <ele>232</ele>
        <time>2022-03-21T13:36:56Z</time>
      </trkpt>
      <trkpt lat="46.36785" lon="5.21364">
        <ele>231.8</ele>
        <time>2022-03-21T13:36:59Z</time>
      </trkpt>
      <trkpt lat="46.36792" lon="5.21345">
        <ele>231.6</ele>
        <time>2022-03-21T13:37:01Z</time>
      </trkpt>
      <trkpt lat="46.36794" lon="5.21323">
        <ele>231.4</ele>
        <time>2022-03-21T13:37:03Z</time>
      </trkpt>
      <trkpt lat="46.36795" lon="5.21302">
        <ele>231</ele>
        <time>2022-03-21T13:37:05Z</time>
      </trkpt>
      <trkpt lat="46.36798" lon="5.2122">
        <ele>229.6</ele>
        <time>2022-03-21T13:37:11Z</time>
      </trkpt>
      <trkpt lat="46.36799" lon="5.21179">
        <ele>228.6</ele>
        <time>2022-03-21T13:37:14Z</time>
      </trkpt>
      <trkpt lat="46.36799" lon="5.21153">
        <ele>227.4</ele>
        <time>2022-03-21T13:37:16Z</time>
      </trkpt>
      <trkpt lat="46.36799" lon="5.21139">
        <ele>227.4</ele>
        <time>2022-03-21T13:37:17Z</time>
      </trkpt>
      <trkpt lat="46.36796" lon="5.21092">
        <ele>226.2</ele>
        <time>2022-03-21T13:37:20Z</time>
      </trkpt>
      <trkpt lat="46.36795" lon="5.21077">
        <ele>225.2</ele>
        <time>2022-03-21T13:37:21Z</time>
      </trkpt>
      <trkpt lat="46.36795" lon="5.21063">
        <ele>225</ele>
        <time>2022-03-21T13:37:22Z</time>
      </trkpt>
      <trkpt lat="46.36795" lon="5.21023">
        <ele>223.8</ele>
        <time>2022-03-21T13:37:25Z</time>
      </trkpt>
      <trkpt lat="46.36795" lon="5.20985">
        <ele>223.4</ele>
        <time>2022-03-21T13:37:28Z</time>
      </trkpt>
      <trkpt lat="46.36794" lon="5.20929">
        <ele>223.6</ele>
        <time>2022-03-21T13:37:33Z</time>
      </trkpt>
      <trkpt lat="46.36793" lon="5.20875">
        <ele>224.6</ele>
        <time>2022-03-21T13:37:39Z</time>
      </trkpt>
      <trkpt lat="46.36793" lon="5.20858">
        <ele>225.4</ele>
        <time>2022-03-21T13:37:41Z</time>
      </trkpt>
      <trkpt lat="46.36792" lon="5.20825">
        <ele>226.6</ele>
        <time>2022-03-21T13:37:45Z</time>
      </trkpt>
      <trkpt lat="46.36793" lon="5.20817">
        <ele>226.8</ele>
        <time>2022-03-21T13:37:46Z</time>
      </trkpt>
      <trkpt lat="46.36794" lon="5.20801">
        <ele>227</ele>
        <time>2022-03-21T13:37:48Z</time>
      </trkpt>
      <trkpt lat="46.368" lon="5.20771">
        <ele>227.6</ele>
        <time>2022-03-21T13:37:52Z</time>
      </trkpt>
      <trkpt lat="46.36803" lon="5.20763">
        <ele>227.8</ele>
        <time>2022-03-21T13:37:53Z</time>
      </trkpt>
      <trkpt lat="46.36806" lon="5.20756">
        <ele>228</ele>
        <time>2022-03-21T13:37:54Z</time>
      </trkpt>
      <trkpt lat="46.36818" lon="5.20736">
        <ele>228.4</ele>
        <time>2022-03-21T13:37:57Z</time>
      </trkpt>
      <trkpt lat="46.36848" lon="5.20702">
        <ele>228.8</ele>
        <time>2022-03-21T13:38:03Z</time>
      </trkpt>
      <trkpt lat="46.36853" lon="5.20697">
        <ele>229</ele>
        <time>2022-03-21T13:38:04Z</time>
      </trkpt>
      <trkpt lat="46.36857" lon="5.20691">
        <ele>229</ele>
        <time>2022-03-21T13:38:05Z</time>
      </trkpt>
      <trkpt lat="46.36865" lon="5.20677">
        <ele>229</ele>
        <time>2022-03-21T13:38:07Z</time>
      </trkpt>
      <trkpt lat="46.36872" lon="5.20665">
        <ele>228.8</ele>
        <time>2022-03-21T13:38:09Z</time>
      </trkpt>
      <trkpt lat="46.36879" lon="5.20653">
        <ele>228.8</ele>
        <time>2022-03-21T13:38:11Z</time>
      </trkpt>
      <trkpt lat="46.36889" lon="5.20628">
        <ele>229.2</ele>
        <time>2022-03-21T13:38:15Z</time>
      </trkpt>
      <trkpt lat="46.36891" lon="5.20622">
        <ele>229.4</ele>
        <time>2022-03-21T13:38:16Z</time>
      </trkpt>
      <trkpt lat="46.36901" lon="5.20595">
        <ele>230</ele>
        <time>2022-03-21T13:38:20Z</time>
      </trkpt>
      <trkpt lat="46.36907" lon="5.20582">
        <ele>230.2</ele>
        <time>2022-03-21T13:38:22Z</time>
      </trkpt>
      <trkpt lat="46.36926" lon="5.20543">
        <ele>230.2</ele>
        <time>2022-03-21T13:38:27Z</time>
      </trkpt>
      <trkpt lat="46.3693" lon="5.20536">
        <ele>230.2</ele>
        <time>2022-03-21T13:38:28Z</time>
      </trkpt>
      <trkpt lat="46.36935" lon="5.2052">
        <ele>230.4</ele>
        <time>2022-03-21T13:38:30Z</time>
      </trkpt>
      <trkpt lat="46.3694" lon="5.20503">
        <ele>230.6</ele>
        <time>2022-03-21T13:38:32Z</time>
      </trkpt>
      <trkpt lat="46.36945" lon="5.20477">
        <ele>230.6</ele>
        <time>2022-03-21T13:38:35Z</time>
      </trkpt>
      <trkpt lat="46.36948" lon="5.20457">
        <ele>230.6</ele>
        <time>2022-03-21T13:38:37Z</time>
      </trkpt>
      <trkpt lat="46.36951" lon="5.20399">
        <ele>230</ele>
        <time>2022-03-21T13:38:43Z</time>
      </trkpt>
      <trkpt lat="46.3695" lon="5.20348">
        <ele>229.6</ele>
        <time>2022-03-21T13:38:48Z</time>
      </trkpt>
      <trkpt lat="46.36955" lon="5.20304">
        <ele>228.8</ele>
        <time>2022-03-21T13:38:52Z</time>
      </trkpt>
      <trkpt lat="46.36956" lon="5.20283">
        <ele>228.2</ele>
        <time>2022-03-21T13:38:54Z</time>
      </trkpt>
      <trkpt lat="46.36957" lon="5.2026">
        <ele>227.6</ele>
        <time>2022-03-21T13:38:56Z</time>
      </trkpt>
      <trkpt lat="46.36959" lon="5.20235">
        <ele>226.8</ele>
        <time>2022-03-21T13:38:58Z</time>
      </trkpt>
      <trkpt lat="46.3696" lon="5.20223">
        <ele>226.4</ele>
        <time>2022-03-21T13:38:59Z</time>
      </trkpt>
      <trkpt lat="46.3696" lon="5.20187">
        <ele>225.6</ele>
        <time>2022-03-21T13:39:02Z</time>
      </trkpt>
      <trkpt lat="46.36962" lon="5.20146">
        <ele>223.8</ele>
        <time>2022-03-21T13:39:05Z</time>
      </trkpt>
      <trkpt lat="46.36966" lon="5.20118">
        <ele>223</ele>
        <time>2022-03-21T13:39:07Z</time>
      </trkpt>
      <trkpt lat="46.36972" lon="5.20091">
        <ele>221.8</ele>
        <time>2022-03-21T13:39:09Z</time>
      </trkpt>
      <trkpt lat="46.36975" lon="5.20077">
        <ele>221.2</ele>
        <time>2022-03-21T13:39:10Z</time>
      </trkpt>
      <trkpt lat="46.3698" lon="5.20062">
        <ele>221</ele>
        <time>2022-03-21T13:39:11Z</time>
      </trkpt>
      <trkpt lat="46.36989" lon="5.20022">
        <ele>219.6</ele>
        <time>2022-03-21T13:39:14Z</time>
      </trkpt>
      <trkpt lat="46.37002" lon="5.1996">
        <ele>218.6</ele>
        <time>2022-03-21T13:39:19Z</time>
      </trkpt>
      <trkpt lat="46.37004" lon="5.19948">
        <ele>218.4</ele>
        <time>2022-03-21T13:39:20Z</time>
      </trkpt>
      <trkpt lat="46.37009" lon="5.19912">
        <ele>218.4</ele>
        <time>2022-03-21T13:39:23Z</time>
      </trkpt>
      <trkpt lat="46.37012" lon="5.19901">
        <ele>218.4</ele>
        <time>2022-03-21T13:39:24Z</time>
      </trkpt>
      <trkpt lat="46.37015" lon="5.1989">
        <ele>218.4</ele>
        <time>2022-03-21T13:39:25Z</time>
      </trkpt>
      <trkpt lat="46.37024" lon="5.19872">
        <ele>218.4</ele>
        <time>2022-03-21T13:39:27Z</time>
      </trkpt>
      <trkpt lat="46.3703" lon="5.19864">
        <ele>218.4</ele>
        <time>2022-03-21T13:39:28Z</time>
      </trkpt>
      <trkpt lat="46.37057" lon="5.19829">
        <ele>218.8</ele>
        <time>2022-03-21T13:39:33Z</time>
      </trkpt>
      <trkpt lat="46.37062" lon="5.19822">
        <ele>219</ele>
        <time>2022-03-21T13:39:34Z</time>
      </trkpt>
      <trkpt lat="46.37072" lon="5.19796">
        <ele>219.2</ele>
        <time>2022-03-21T13:39:37Z</time>
      </trkpt>
      <trkpt lat="46.37075" lon="5.1978">
        <ele>219.4</ele>
        <time>2022-03-21T13:39:39Z</time>
      </trkpt>
      <trkpt lat="46.37077" lon="5.19765">
        <ele>219.6</ele>
        <time>2022-03-21T13:39:41Z</time>
      </trkpt>
      <trkpt lat="46.37078" lon="5.19755">
        <ele>219.6</ele>
        <time>2022-03-21T13:39:42Z</time>
      </trkpt>
      <trkpt lat="46.37081" lon="5.19725">
        <ele>220.6</ele>
        <time>2022-03-21T13:39:46Z</time>
      </trkpt>
      <trkpt lat="46.37083" lon="5.19709">
        <ele>221.2</ele>
        <time>2022-03-21T13:39:48Z</time>
      </trkpt>
      <trkpt lat="46.37085" lon="5.19694">
        <ele>221.8</ele>
        <time>2022-03-21T13:39:50Z</time>
      </trkpt>
      <trkpt lat="46.37087" lon="5.19671">
        <ele>222.8</ele>
        <time>2022-03-21T13:39:53Z</time>
      </trkpt>
      <trkpt lat="46.37094" lon="5.19633">
        <ele>223.6</ele>
        <time>2022-03-21T13:39:58Z</time>
      </trkpt>
      <trkpt lat="46.37101" lon="5.19602">
        <ele>223.8</ele>
        <time>2022-03-21T13:40:02Z</time>
      </trkpt>
      <trkpt lat="46.37108" lon="5.19562">
        <ele>224.8</ele>
        <time>2022-03-21T13:40:07Z</time>
      </trkpt>
      <trkpt lat="46.37109" lon="5.19552">
        <ele>225</ele>
        <time>2022-03-21T13:40:08Z</time>
      </trkpt>
      <trkpt lat="46.37109" lon="5.19512">
        <ele>225.6</ele>
        <time>2022-03-21T13:40:13Z</time>
      </trkpt>
      <trkpt lat="46.37107" lon="5.19496">
        <ele>225.8</ele>
        <time>2022-03-21T13:40:15Z</time>
      </trkpt>
      <trkpt lat="46.37102" lon="5.19442">
        <ele>226.6</ele>
        <time>2022-03-21T13:40:22Z</time>
      </trkpt>
      <trkpt lat="46.37101" lon="5.19419">
        <ele>227</ele>
        <time>2022-03-21T13:40:25Z</time>
      </trkpt>
      <trkpt lat="46.37102" lon="5.19388">
        <ele>227.4</ele>
        <time>2022-03-21T13:40:29Z</time>
      </trkpt>
      <trkpt lat="46.37114" lon="5.19321">
        <ele>227.8</ele>
        <time>2022-03-21T13:40:37Z</time>
      </trkpt>
      <trkpt lat="46.37119" lon="5.19297">
        <ele>228.2</ele>
        <time>2022-03-21T13:40:40Z</time>
      </trkpt>
      <trkpt lat="46.37138" lon="5.19216">
        <ele>228.8</ele>
        <time>2022-03-21T13:40:50Z</time>
      </trkpt>
      <trkpt lat="46.37151" lon="5.19156">
        <ele>229.6</ele>
        <time>2022-03-21T13:40:58Z</time>
      </trkpt>
      <trkpt lat="46.37153" lon="5.19147">
        <ele>229.6</ele>
        <time>2022-03-21T13:40:59Z</time>
      </trkpt>
      <trkpt lat="46.37168" lon="5.19081">
        <ele>230.4</ele>
        <time>2022-03-21T13:41:08Z</time>
      </trkpt>
      <trkpt lat="46.37169" lon="5.19072">
        <ele>230.6</ele>
        <time>2022-03-21T13:41:09Z</time>
      </trkpt>
      <trkpt lat="46.3718" lon="5.19014">
        <ele>230.6</ele>
        <time>2022-03-21T13:41:16Z</time>
      </trkpt>
      <trkpt lat="46.37191" lon="5.18948">
        <ele>229.4</ele>
        <time>2022-03-21T13:41:22Z</time>
      </trkpt>
      <trkpt lat="46.37196" lon="5.18906">
        <ele>228.2</ele>
        <time>2022-03-21T13:41:26Z</time>
      </trkpt>
      <trkpt lat="46.37202" lon="5.1887">
        <ele>227.4</ele>
        <time>2022-03-21T13:41:29Z</time>
      </trkpt>
      <trkpt lat="46.37206" lon="5.1885">
        <ele>227.2</ele>
        <time>2022-03-21T13:41:31Z</time>
      </trkpt>
      <trkpt lat="46.37215" lon="5.18808">
        <ele>226.8</ele>
        <time>2022-03-21T13:41:35Z</time>
      </trkpt>
      <trkpt lat="46.37217" lon="5.18783">
        <ele>226.6</ele>
        <time>2022-03-21T13:41:37Z</time>
      </trkpt>
      <trkpt lat="46.37216" lon="5.18764">
        <ele>226.4</ele>
        <time>2022-03-21T13:41:39Z</time>
      </trkpt>
      <trkpt lat="46.37212" lon="5.1874">
        <ele>226</ele>
        <time>2022-03-21T13:41:41Z</time>
      </trkpt>
      <trkpt lat="46.37204" lon="5.18712">
        <ele>225.8</ele>
        <time>2022-03-21T13:41:44Z</time>
      </trkpt>
      <trkpt lat="46.37197" lon="5.18661">
        <ele>225.2</ele>
        <time>2022-03-21T13:41:49Z</time>
      </trkpt>
      <trkpt lat="46.37193" lon="5.18602">
        <ele>225</ele>
        <time>2022-03-21T13:41:55Z</time>
      </trkpt>
      <trkpt lat="46.37193" lon="5.18556">
        <ele>225.4</ele>
        <time>2022-03-21T13:42:00Z</time>
      </trkpt>
      <trkpt lat="46.37204" lon="5.1852">
        <ele>225.4</ele>
        <time>2022-03-21T13:42:04Z</time>
      </trkpt>
      <trkpt lat="46.37218" lon="5.18487">
        <ele>225.2</ele>
        <time>2022-03-21T13:42:08Z</time>
      </trkpt>
      <trkpt lat="46.37223" lon="5.18465">
        <ele>225</ele>
        <time>2022-03-21T13:42:10Z</time>
      </trkpt>
      <trkpt lat="46.37224" lon="5.18443">
        <ele>224.8</ele>
        <time>2022-03-21T13:42:12Z</time>
      </trkpt>
      <trkpt lat="46.37224" lon="5.18433">
        <ele>224.8</ele>
        <time>2022-03-21T13:42:13Z</time>
      </trkpt>
      <trkpt lat="46.37224" lon="5.18418">
        <ele>224.8</ele>
        <time>2022-03-21T13:42:14Z</time>
      </trkpt>
      <trkpt lat="46.37222" lon="5.18391">
        <ele>224</ele>
        <time>2022-03-21T13:42:16Z</time>
      </trkpt>
      <trkpt lat="46.37221" lon="5.18379">
        <ele>223</ele>
        <time>2022-03-21T13:42:17Z</time>
      </trkpt>
      <trkpt lat="46.37221" lon="5.18365">
        <ele>222.6</ele>
        <time>2022-03-21T13:42:18Z</time>
      </trkpt>
      <trkpt lat="46.37221" lon="5.18333">
        <ele>221.2</ele>
        <time>2022-03-21T13:42:20Z</time>
      </trkpt>
      <trkpt lat="46.3722" lon="5.18319">
        <ele>220.4</ele>
        <time>2022-03-21T13:42:21Z</time>
      </trkpt>
      <trkpt lat="46.37219" lon="5.18308">
        <ele>219.8</ele>
        <time>2022-03-21T13:42:22Z</time>
      </trkpt>
      <trkpt lat="46.37212" lon="5.18264">
        <ele>218.8</ele>
        <time>2022-03-21T13:42:25Z</time>
      </trkpt>
      <trkpt lat="46.37211" lon="5.18253">
        <ele>218.6</ele>
        <time>2022-03-21T13:42:26Z</time>
      </trkpt>
      <trkpt lat="46.37207" lon="5.1821">
        <ele>218.2</ele>
        <time>2022-03-21T13:42:29Z</time>
      </trkpt>
      <trkpt lat="46.37208" lon="5.18186">
        <ele>217.8</ele>
        <time>2022-03-21T13:42:31Z</time>
      </trkpt>
      <trkpt lat="46.37208" lon="5.18173">
        <ele>217.6</ele>
        <time>2022-03-21T13:42:32Z</time>
      </trkpt>
      <trkpt lat="46.37207" lon="5.1816">
        <ele>217.4</ele>
        <time>2022-03-21T13:42:33Z</time>
      </trkpt>
      <trkpt lat="46.37202" lon="5.18135">
        <ele>217.2</ele>
        <time>2022-03-21T13:42:35Z</time>
      </trkpt>
      <trkpt lat="46.37194" lon="5.18116">
        <ele>217</ele>
        <time>2022-03-21T13:42:37Z</time>
      </trkpt>
      <trkpt lat="46.37188" lon="5.18105">
        <ele>217</ele>
        <time>2022-03-21T13:42:38Z</time>
      </trkpt>
      <trkpt lat="46.37182" lon="5.18098">
        <ele>217</ele>
        <time>2022-03-21T13:42:39Z</time>
      </trkpt>
      <trkpt lat="46.37161" lon="5.1808">
        <ele>216.8</ele>
        <time>2022-03-21T13:42:42Z</time>
      </trkpt>
      <trkpt lat="46.3712" lon="5.1804">
        <ele>216.6</ele>
        <time>2022-03-21T13:42:48Z</time>
      </trkpt>
      <trkpt lat="46.37113" lon="5.18032">
        <ele>216.4</ele>
        <time>2022-03-21T13:42:49Z</time>
      </trkpt>
      <trkpt lat="46.37108" lon="5.18024">
        <ele>216.2</ele>
        <time>2022-03-21T13:42:50Z</time>
      </trkpt>
      <trkpt lat="46.37099" lon="5.18005">
        <ele>216.2</ele>
        <time>2022-03-21T13:42:52Z</time>
      </trkpt>
      <trkpt lat="46.37085" lon="5.17957">
        <ele>216.2</ele>
        <time>2022-03-21T13:42:57Z</time>
      </trkpt>
      <trkpt lat="46.3707" lon="5.1789">
        <ele>216.6</ele>
        <time>2022-03-21T13:43:04Z</time>
      </trkpt>
      <trkpt lat="46.37059" lon="5.17838">
        <ele>217.4</ele>
        <time>2022-03-21T13:43:11Z</time>
      </trkpt>
      <trkpt lat="46.37053" lon="5.17809">
        <ele>218.4</ele>
        <time>2022-03-21T13:43:15Z</time>
      </trkpt>
      <trkpt lat="46.3705" lon="5.17794">
        <ele>219</ele>
        <time>2022-03-21T13:43:17Z</time>
      </trkpt>
      <trkpt lat="46.37044" lon="5.17776">
        <ele>219.6</ele>
        <time>2022-03-21T13:43:20Z</time>
      </trkpt>
      <trkpt lat="46.37037" lon="5.17751">
        <ele>220.4</ele>
        <time>2022-03-21T13:43:24Z</time>
      </trkpt>
      <trkpt lat="46.37036" lon="5.17747">
        <ele>220.8</ele>
        <time>2022-03-21T13:43:25Z</time>
      </trkpt>
      <trkpt lat="46.37029" lon="5.17724">
        <ele>221.4</ele>
        <time>2022-03-21T13:43:29Z</time>
      </trkpt>
      <trkpt lat="46.37027" lon="5.17711">
        <ele>221.8</ele>
        <time>2022-03-21T13:43:31Z</time>
      </trkpt>
      <trkpt lat="46.37024" lon="5.17698">
        <ele>223</ele>
        <time>2022-03-21T13:43:34Z</time>
      </trkpt>
      <trkpt lat="46.37021" lon="5.17685">
        <ele>223.8</ele>
        <time>2022-03-21T13:43:37Z</time>
      </trkpt>
      <trkpt lat="46.3702" lon="5.17681">
        <ele>224.2</ele>
        <time>2022-03-21T13:43:38Z</time>
      </trkpt>
      <trkpt lat="46.37022" lon="5.17671">
        <ele>225.2</ele>
        <time>2022-03-21T13:43:41Z</time>
      </trkpt>
      <trkpt lat="46.37031" lon="5.17669">
        <ele>226</ele>
        <time>2022-03-21T13:43:44Z</time>
      </trkpt>
      <trkpt lat="46.37041" lon="5.17668">
        <ele>226.6</ele>
        <time>2022-03-21T13:43:46Z</time>
      </trkpt>
      <trkpt lat="46.37053" lon="5.17663">
        <ele>227.2</ele>
        <time>2022-03-21T13:43:49Z</time>
      </trkpt>
      <trkpt lat="46.37088" lon="5.17656">
        <ele>227.6</ele>
        <time>2022-03-21T13:43:56Z</time>
      </trkpt>
      <trkpt lat="46.37104" lon="5.17658">
        <ele>227.6</ele>
        <time>2022-03-21T13:43:59Z</time>
      </trkpt>
      <trkpt lat="46.37114" lon="5.17664">
        <ele>227.6</ele>
        <time>2022-03-21T13:44:01Z</time>
      </trkpt>
      <trkpt lat="46.37118" lon="5.17667">
        <ele>227.4</ele>
        <time>2022-03-21T13:44:02Z</time>
      </trkpt>
      <trkpt lat="46.37136" lon="5.17688">
        <ele>227</ele>
        <time>2022-03-21T13:44:05Z</time>
      </trkpt>
      <trkpt lat="46.37165" lon="5.1773">
        <ele>225.8</ele>
        <time>2022-03-21T13:44:10Z</time>
      </trkpt>
      <trkpt lat="46.37172" lon="5.17742">
        <ele>225.4</ele>
        <time>2022-03-21T13:44:11Z</time>
      </trkpt>
      <trkpt lat="46.37188" lon="5.17772">
        <ele>224.4</ele>
        <time>2022-03-21T13:44:14Z</time>
      </trkpt>
      <trkpt lat="46.37198" lon="5.1779">
        <ele>224</ele>
        <time>2022-03-21T13:44:16Z</time>
      </trkpt>
      <trkpt lat="46.37232" lon="5.17853">
        <ele>223.6</ele>
        <time>2022-03-21T13:44:23Z</time>
      </trkpt>
      <trkpt lat="46.37251" lon="5.17889">
        <ele>224</ele>
        <time>2022-03-21T13:44:28Z</time>
      </trkpt>
      <trkpt lat="46.37268" lon="5.17923">
        <ele>225.6</ele>
        <time>2022-03-21T13:44:33Z</time>
      </trkpt>
      <trkpt lat="46.37275" lon="5.17934">
        <ele>226</ele>
        <time>2022-03-21T13:44:35Z</time>
      </trkpt>
      <trkpt lat="46.37286" lon="5.17955">
        <ele>226.8</ele>
        <time>2022-03-21T13:44:38Z</time>
      </trkpt>
      <trkpt lat="46.3729" lon="5.17962">
        <ele>227.2</ele>
        <time>2022-03-21T13:44:39Z</time>
      </trkpt>
      <trkpt lat="46.37297" lon="5.17973">
        <ele>227.4</ele>
        <time>2022-03-21T13:44:41Z</time>
      </trkpt>
      <trkpt lat="46.37302" lon="5.17981">
        <ele>227.6</ele>
        <time>2022-03-21T13:44:42Z</time>
      </trkpt>
      <trkpt lat="46.37306" lon="5.17988">
        <ele>227.8</ele>
        <time>2022-03-21T13:44:43Z</time>
      </trkpt>
      <trkpt lat="46.37322" lon="5.18017">
        <ele>228.8</ele>
        <time>2022-03-21T13:44:47Z</time>
      </trkpt>
      <trkpt lat="46.37356" lon="5.18076">
        <ele>229.6</ele>
        <time>2022-03-21T13:44:55Z</time>
      </trkpt>
      <trkpt lat="46.37395" lon="5.18143">
        <ele>229.4</ele>
        <time>2022-03-21T13:45:03Z</time>
      </trkpt>
      <trkpt lat="46.374" lon="5.18152">
        <ele>229.4</ele>
        <time>2022-03-21T13:45:04Z</time>
      </trkpt>
      <trkpt lat="46.37438" lon="5.18217">
        <ele>229.6</ele>
        <time>2022-03-21T13:45:12Z</time>
      </trkpt>
      <trkpt lat="46.37442" lon="5.18225">
        <ele>229.6</ele>
        <time>2022-03-21T13:45:13Z</time>
      </trkpt>
      <trkpt lat="46.37475" lon="5.18276">
        <ele>230</ele>
        <time>2022-03-21T13:45:20Z</time>
      </trkpt>
      <trkpt lat="46.37479" lon="5.18283">
        <ele>230.2</ele>
        <time>2022-03-21T13:45:21Z</time>
      </trkpt>
      <trkpt lat="46.37521" lon="5.18337">
        <ele>230.6</ele>
        <time>2022-03-21T13:45:29Z</time>
      </trkpt>
      <trkpt lat="46.37566" lon="5.18392">
        <ele>230.8</ele>
        <time>2022-03-21T13:45:37Z</time>
      </trkpt>
      <trkpt lat="46.37572" lon="5.18399">
        <ele>230.8</ele>
        <time>2022-03-21T13:45:38Z</time>
      </trkpt>
      <trkpt lat="46.37618" lon="5.18457">
        <ele>230.2</ele>
        <time>2022-03-21T13:45:46Z</time>
      </trkpt>
      <trkpt lat="46.3763" lon="5.18472">
        <ele>230</ele>
        <time>2022-03-21T13:45:48Z</time>
      </trkpt>
      <trkpt lat="46.37654" lon="5.18503">
        <ele>229.6</ele>
        <time>2022-03-21T13:45:52Z</time>
      </trkpt>
      <trkpt lat="46.37685" lon="5.18542">
        <ele>229</ele>
        <time>2022-03-21T13:45:57Z</time>
      </trkpt>
      <trkpt lat="46.37698" lon="5.18559">
        <ele>228.6</ele>
        <time>2022-03-21T13:45:59Z</time>
      </trkpt>
      <trkpt lat="46.37719" lon="5.18584">
        <ele>228</ele>
        <time>2022-03-21T13:46:02Z</time>
      </trkpt>
      <trkpt lat="46.3774" lon="5.18611">
        <ele>227</ele>
        <time>2022-03-21T13:46:05Z</time>
      </trkpt>
      <trkpt lat="46.37746" lon="5.18619">
        <ele>226.8</ele>
        <time>2022-03-21T13:46:06Z</time>
      </trkpt>
      <trkpt lat="46.37775" lon="5.18656">
        <ele>225.6</ele>
        <time>2022-03-21T13:46:10Z</time>
      </trkpt>
      <trkpt lat="46.37802" lon="5.1869">
        <ele>225</ele>
        <time>2022-03-21T13:46:14Z</time>
      </trkpt>
      <trkpt lat="46.37822" lon="5.18715">
        <ele>224.8</ele>
        <time>2022-03-21T13:46:17Z</time>
      </trkpt>
      <trkpt lat="46.37851" lon="5.18753">
        <ele>224.8</ele>
        <time>2022-03-21T13:46:22Z</time>
      </trkpt>
      <trkpt lat="46.37885" lon="5.18797">
        <ele>225.4</ele>
        <time>2022-03-21T13:46:28Z</time>
      </trkpt>
      <trkpt lat="46.37898" lon="5.18813">
        <ele>226</ele>
        <time>2022-03-21T13:46:30Z</time>
      </trkpt>
      <trkpt lat="46.37921" lon="5.18842">
        <ele>226.8</ele>
        <time>2022-03-21T13:46:34Z</time>
      </trkpt>
      <trkpt lat="46.37926" lon="5.18848">
        <ele>227</ele>
        <time>2022-03-21T13:46:35Z</time>
      </trkpt>
      <trkpt lat="46.37937" lon="5.18862">
        <ele>227.4</ele>
        <time>2022-03-21T13:46:37Z</time>
      </trkpt>
      <trkpt lat="46.37974" lon="5.18908">
        <ele>228</ele>
        <time>2022-03-21T13:46:44Z</time>
      </trkpt>
      <trkpt lat="46.37984" lon="5.18922">
        <ele>228.2</ele>
        <time>2022-03-21T13:46:46Z</time>
      </trkpt>
      <trkpt lat="46.38008" lon="5.18951">
        <ele>228.8</ele>
        <time>2022-03-21T13:46:51Z</time>
      </trkpt>
      <trkpt lat="46.38045" lon="5.18998">
        <ele>229.2</ele>
        <time>2022-03-21T13:46:59Z</time>
      </trkpt>
      <trkpt lat="46.38087" lon="5.19052">
        <ele>229.8</ele>
        <time>2022-03-21T13:47:08Z</time>
      </trkpt>
      <trkpt lat="46.38093" lon="5.19059">
        <ele>230</ele>
        <time>2022-03-21T13:47:09Z</time>
      </trkpt>
      <trkpt lat="46.38101" lon="5.1907">
        <ele>230.4</ele>
        <time>2022-03-21T13:47:11Z</time>
      </trkpt>
      <trkpt lat="46.38144" lon="5.19123">
        <ele>231.2</ele>
        <time>2022-03-21T13:47:20Z</time>
      </trkpt>
      <trkpt lat="46.38163" lon="5.19147">
        <ele>231.4</ele>
        <time>2022-03-21T13:47:24Z</time>
      </trkpt>
      <trkpt lat="46.38202" lon="5.19198">
        <ele>231.4</ele>
        <time>2022-03-21T13:47:32Z</time>
      </trkpt>
      <trkpt lat="46.38247" lon="5.19255">
        <ele>231.2</ele>
        <time>2022-03-21T13:47:40Z</time>
      </trkpt>
      <trkpt lat="46.38259" lon="5.1927">
        <ele>231</ele>
        <time>2022-03-21T13:47:42Z</time>
      </trkpt>
      <trkpt lat="46.38302" lon="5.19324">
        <ele>230.4</ele>
        <time>2022-03-21T13:47:49Z</time>
      </trkpt>
      <trkpt lat="46.38315" lon="5.19341">
        <ele>230.4</ele>
        <time>2022-03-21T13:47:51Z</time>
      </trkpt>
      <trkpt lat="46.38321" lon="5.19348">
        <ele>230.2</ele>
        <time>2022-03-21T13:47:52Z</time>
      </trkpt>
      <trkpt lat="46.38365" lon="5.19403">
        <ele>230</ele>
        <time>2022-03-21T13:47:59Z</time>
      </trkpt>
      <trkpt lat="46.38377" lon="5.19418">
        <ele>230.2</ele>
        <time>2022-03-21T13:48:01Z</time>
      </trkpt>
      <trkpt lat="46.38424" lon="5.19478">
        <ele>229.8</ele>
        <time>2022-03-21T13:48:09Z</time>
      </trkpt>
      <trkpt lat="46.38469" lon="5.19537">
        <ele>230</ele>
        <time>2022-03-21T13:48:17Z</time>
      </trkpt>
      <trkpt lat="46.38481" lon="5.19551">
        <ele>230</ele>
        <time>2022-03-21T13:48:19Z</time>
      </trkpt>
      <trkpt lat="46.38528" lon="5.19611">
        <ele>230</ele>
        <time>2022-03-21T13:48:27Z</time>
      </trkpt>
      <trkpt lat="46.38539" lon="5.19625">
        <ele>230</ele>
        <time>2022-03-21T13:48:29Z</time>
      </trkpt>
      <trkpt lat="46.38557" lon="5.19646">
        <ele>230</ele>
        <time>2022-03-21T13:48:32Z</time>
      </trkpt>
      <trkpt lat="46.38598" lon="5.19698">
        <ele>229.6</ele>
        <time>2022-03-21T13:48:39Z</time>
      </trkpt>
      <trkpt lat="46.38604" lon="5.19706">
        <ele>229.6</ele>
        <time>2022-03-21T13:48:40Z</time>
      </trkpt>
      <trkpt lat="46.38645" lon="5.19758">
        <ele>229.6</ele>
        <time>2022-03-21T13:48:47Z</time>
      </trkpt>
      <trkpt lat="46.38657" lon="5.19773">
        <ele>229.4</ele>
        <time>2022-03-21T13:48:49Z</time>
      </trkpt>
      <trkpt lat="46.38694" lon="5.19821">
        <ele>229</ele>
        <time>2022-03-21T13:48:55Z</time>
      </trkpt>
      <trkpt lat="46.38723" lon="5.19856">
        <ele>228.4</ele>
        <time>2022-03-21T13:48:59Z</time>
      </trkpt>
      <trkpt lat="46.3873" lon="5.19865">
        <ele>228</ele>
        <time>2022-03-21T13:49:00Z</time>
      </trkpt>
      <trkpt lat="46.38752" lon="5.19894">
        <ele>227.4</ele>
        <time>2022-03-21T13:49:03Z</time>
      </trkpt>
      <trkpt lat="46.38775" lon="5.19924">
        <ele>226.2</ele>
        <time>2022-03-21T13:49:06Z</time>
      </trkpt>
      <trkpt lat="46.38783" lon="5.19934">
        <ele>225.8</ele>
        <time>2022-03-21T13:49:07Z</time>
      </trkpt>
      <trkpt lat="46.38798" lon="5.19954">
        <ele>225</ele>
        <time>2022-03-21T13:49:09Z</time>
      </trkpt>
      <trkpt lat="46.38823" lon="5.19984">
        <ele>224</ele>
        <time>2022-03-21T13:49:12Z</time>
      </trkpt>
      <trkpt lat="46.38846" lon="5.20014">
        <ele>223</ele>
        <time>2022-03-21T13:49:15Z</time>
      </trkpt>
      <trkpt lat="46.38854" lon="5.20024">
        <ele>222</ele>
        <time>2022-03-21T13:49:16Z</time>
      </trkpt>
      <trkpt lat="46.38878" lon="5.20053">
        <ele>221</ele>
        <time>2022-03-21T13:49:19Z</time>
      </trkpt>
      <trkpt lat="46.38893" lon="5.20071">
        <ele>219.8</ele>
        <time>2022-03-21T13:49:21Z</time>
      </trkpt>
      <trkpt lat="46.38907" lon="5.2009">
        <ele>219.4</ele>
        <time>2022-03-21T13:49:23Z</time>
      </trkpt>
      <trkpt lat="46.3895" lon="5.20144">
        <ele>219.6</ele>
        <time>2022-03-21T13:49:29Z</time>
      </trkpt>
      <trkpt lat="46.38986" lon="5.20189">
        <ele>220.6</ele>
        <time>2022-03-21T13:49:34Z</time>
      </trkpt>
      <trkpt lat="46.39" lon="5.20207">
        <ele>221</ele>
        <time>2022-03-21T13:49:36Z</time>
      </trkpt>
      <trkpt lat="46.39028" lon="5.2024">
        <ele>222</ele>
        <time>2022-03-21T13:49:40Z</time>
      </trkpt>
      <trkpt lat="46.39037" lon="5.2025">
        <ele>222.4</ele>
        <time>2022-03-21T13:49:41Z</time>
      </trkpt>
      <trkpt lat="46.39069" lon="5.20292">
        <ele>223.2</ele>
        <time>2022-03-21T13:49:46Z</time>
      </trkpt>
      <trkpt lat="46.39076" lon="5.20301">
        <ele>223.4</ele>
        <time>2022-03-21T13:49:47Z</time>
      </trkpt>
      <trkpt lat="46.39095" lon="5.20326">
        <ele>224.4</ele>
        <time>2022-03-21T13:49:50Z</time>
      </trkpt>
      <trkpt lat="46.39115" lon="5.2035">
        <ele>225.8</ele>
        <time>2022-03-21T13:49:53Z</time>
      </trkpt>
      <trkpt lat="46.3914" lon="5.20381">
        <ele>226.8</ele>
        <time>2022-03-21T13:49:57Z</time>
      </trkpt>
      <trkpt lat="46.39165" lon="5.20413">
        <ele>227.8</ele>
        <time>2022-03-21T13:50:01Z</time>
      </trkpt>
      <trkpt lat="46.39171" lon="5.20421">
        <ele>228</ele>
        <time>2022-03-21T13:50:02Z</time>
      </trkpt>
      <trkpt lat="46.39199" lon="5.20458">
        <ele>229.2</ele>
        <time>2022-03-21T13:50:07Z</time>
      </trkpt>
      <trkpt lat="46.39215" lon="5.2048">
        <ele>229.6</ele>
        <time>2022-03-21T13:50:10Z</time>
      </trkpt>
      <trkpt lat="46.39256" lon="5.20533">
        <ele>229.8</ele>
        <time>2022-03-21T13:50:18Z</time>
      </trkpt>
      <trkpt lat="46.39261" lon="5.20539">
        <ele>229.8</ele>
        <time>2022-03-21T13:50:19Z</time>
      </trkpt>
      <trkpt lat="46.3928" lon="5.20564">
        <ele>230.2</ele>
        <time>2022-03-21T13:50:23Z</time>
      </trkpt>
      <trkpt lat="46.39315" lon="5.2061">
        <ele>230.6</ele>
        <time>2022-03-21T13:50:30Z</time>
      </trkpt>
      <trkpt lat="46.39355" lon="5.20661">
        <ele>230.8</ele>
        <time>2022-03-21T13:50:38Z</time>
      </trkpt>
      <trkpt lat="46.39396" lon="5.20715">
        <ele>231.2</ele>
        <time>2022-03-21T13:50:46Z</time>
      </trkpt>
      <trkpt lat="46.39406" lon="5.20728">
        <ele>231.2</ele>
        <time>2022-03-21T13:50:48Z</time>
      </trkpt>
      <trkpt lat="46.39412" lon="5.20735">
        <ele>231.2</ele>
        <time>2022-03-21T13:50:49Z</time>
      </trkpt>
      <trkpt lat="46.39453" lon="5.20789">
        <ele>231.6</ele>
        <time>2022-03-21T13:50:57Z</time>
      </trkpt>
      <trkpt lat="46.39458" lon="5.20795">
        <ele>231.6</ele>
        <time>2022-03-21T13:50:58Z</time>
      </trkpt>
      <trkpt lat="46.395" lon="5.20849">
        <ele>232</ele>
        <time>2022-03-21T13:51:06Z</time>
      </trkpt>
      <trkpt lat="46.39505" lon="5.20855">
        <ele>232</ele>
        <time>2022-03-21T13:51:07Z</time>
      </trkpt>
      <trkpt lat="46.39525" lon="5.20881">
        <ele>232.4</ele>
        <time>2022-03-21T13:51:11Z</time>
      </trkpt>
      <trkpt lat="46.39546" lon="5.20908">
        <ele>232.6</ele>
        <time>2022-03-21T13:51:15Z</time>
      </trkpt>
      <trkpt lat="46.39588" lon="5.20962">
        <ele>233</ele>
        <time>2022-03-21T13:51:23Z</time>
      </trkpt>
      <trkpt lat="46.39594" lon="5.20969">
        <ele>233</ele>
        <time>2022-03-21T13:51:24Z</time>
      </trkpt>
      <trkpt lat="46.3963" lon="5.21015">
        <ele>233.4</ele>
        <time>2022-03-21T13:51:31Z</time>
      </trkpt>
      <trkpt lat="46.39667" lon="5.21065">
        <ele>233.4</ele>
        <time>2022-03-21T13:51:38Z</time>
      </trkpt>
      <trkpt lat="46.39708" lon="5.21124">
        <ele>232.2</ele>
        <time>2022-03-21T13:51:45Z</time>
      </trkpt>
      <trkpt lat="46.39715" lon="5.21133">
        <ele>231.8</ele>
        <time>2022-03-21T13:51:46Z</time>
      </trkpt>
      <trkpt lat="46.39741" lon="5.21172">
        <ele>230.8</ele>
        <time>2022-03-21T13:51:50Z</time>
      </trkpt>
      <trkpt lat="46.39754" lon="5.21193">
        <ele>229.8</ele>
        <time>2022-03-21T13:51:52Z</time>
      </trkpt>
      <trkpt lat="46.39762" lon="5.21204">
        <ele>229.4</ele>
        <time>2022-03-21T13:51:53Z</time>
      </trkpt>
      <trkpt lat="46.39776" lon="5.21226">
        <ele>228.2</ele>
        <time>2022-03-21T13:51:55Z</time>
      </trkpt>
      <trkpt lat="46.39799" lon="5.21261">
        <ele>227</ele>
        <time>2022-03-21T13:51:58Z</time>
      </trkpt>
      <trkpt lat="46.39815" lon="5.21285">
        <ele>226</ele>
        <time>2022-03-21T13:52:00Z</time>
      </trkpt>
      <trkpt lat="46.39832" lon="5.21309">
        <ele>224.8</ele>
        <time>2022-03-21T13:52:02Z</time>
      </trkpt>
      <trkpt lat="46.39848" lon="5.21334">
        <ele>223.6</ele>
        <time>2022-03-21T13:52:04Z</time>
      </trkpt>
      <trkpt lat="46.39872" lon="5.2137">
        <ele>222.4</ele>
        <time>2022-03-21T13:52:07Z</time>
      </trkpt>
      <trkpt lat="46.39888" lon="5.21394">
        <ele>220.8</ele>
        <time>2022-03-21T13:52:09Z</time>
      </trkpt>
      <trkpt lat="46.39903" lon="5.21418">
        <ele>219.4</ele>
        <time>2022-03-21T13:52:11Z</time>
      </trkpt>
      <trkpt lat="46.39928" lon="5.21456">
        <ele>218.4</ele>
        <time>2022-03-21T13:52:14Z</time>
      </trkpt>
      <trkpt lat="46.39943" lon="5.21477">
        <ele>217.4</ele>
        <time>2022-03-21T13:52:16Z</time>
      </trkpt>
      <trkpt lat="46.39968" lon="5.21515">
        <ele>216.4</ele>
        <time>2022-03-21T13:52:19Z</time>
      </trkpt>
      <trkpt lat="46.40007" lon="5.21573">
        <ele>215.6</ele>
        <time>2022-03-21T13:52:24Z</time>
      </trkpt>
      <trkpt lat="46.40014" lon="5.21585">
        <ele>215.4</ele>
        <time>2022-03-21T13:52:25Z</time>
      </trkpt>
      <trkpt lat="46.40022" lon="5.21597">
        <ele>215.4</ele>
        <time>2022-03-21T13:52:26Z</time>
      </trkpt>
      <trkpt lat="46.4006" lon="5.21654">
        <ele>214.8</ele>
        <time>2022-03-21T13:52:31Z</time>
      </trkpt>
      <trkpt lat="46.40068" lon="5.21665">
        <ele>214.4</ele>
        <time>2022-03-21T13:52:32Z</time>
      </trkpt>
      <trkpt lat="46.40076" lon="5.21677">
        <ele>214.2</ele>
        <time>2022-03-21T13:52:33Z</time>
      </trkpt>
      <trkpt lat="46.40107" lon="5.21723">
        <ele>213.2</ele>
        <time>2022-03-21T13:52:37Z</time>
      </trkpt>
      <trkpt lat="46.40138" lon="5.21768">
        <ele>212</ele>
        <time>2022-03-21T13:52:41Z</time>
      </trkpt>
      <trkpt lat="46.40154" lon="5.21792">
        <ele>211.8</ele>
        <time>2022-03-21T13:52:43Z</time>
      </trkpt>
      <trkpt lat="46.40185" lon="5.21839">
        <ele>210.8</ele>
        <time>2022-03-21T13:52:47Z</time>
      </trkpt>
      <trkpt lat="46.40222" lon="5.21897">
        <ele>210.2</ele>
        <time>2022-03-21T13:52:52Z</time>
      </trkpt>
      <trkpt lat="46.40229" lon="5.21907">
        <ele>210</ele>
        <time>2022-03-21T13:52:53Z</time>
      </trkpt>
      <trkpt lat="46.40256" lon="5.21948">
        <ele>209.6</ele>
        <time>2022-03-21T13:52:57Z</time>
      </trkpt>
      <trkpt lat="46.40269" lon="5.21967">
        <ele>209.6</ele>
        <time>2022-03-21T13:52:59Z</time>
      </trkpt>
      <trkpt lat="46.40309" lon="5.22028">
        <ele>210.6</ele>
        <time>2022-03-21T13:53:06Z</time>
      </trkpt>
      <trkpt lat="46.40314" lon="5.22037">
        <ele>210.8</ele>
        <time>2022-03-21T13:53:07Z</time>
      </trkpt>
      <trkpt lat="46.40352" lon="5.22091">
        <ele>211.6</ele>
        <time>2022-03-21T13:53:14Z</time>
      </trkpt>
      <trkpt lat="46.40357" lon="5.22099">
        <ele>211.8</ele>
        <time>2022-03-21T13:53:15Z</time>
      </trkpt>
      <trkpt lat="46.40385" lon="5.22141">
        <ele>212.2</ele>
        <time>2022-03-21T13:53:21Z</time>
      </trkpt>
      <trkpt lat="46.40397" lon="5.2216">
        <ele>212.6</ele>
        <time>2022-03-21T13:53:24Z</time>
      </trkpt>
      <trkpt lat="46.40402" lon="5.22164">
        <ele>213</ele>
        <time>2022-03-21T13:53:25Z</time>
      </trkpt>
      <trkpt lat="46.40407" lon="5.22165">
        <ele>213</ele>
        <time>2022-03-21T13:53:26Z</time>
      </trkpt>
      <trkpt lat="46.40412" lon="5.22163">
        <ele>213.2</ele>
        <time>2022-03-21T13:53:27Z</time>
      </trkpt>
      <trkpt lat="46.40415" lon="5.22157">
        <ele>213.2</ele>
        <time>2022-03-21T13:53:28Z</time>
      </trkpt>
      <trkpt lat="46.40417" lon="5.22142">
        <ele>213.4</ele>
        <time>2022-03-21T13:53:30Z</time>
      </trkpt>
      <trkpt lat="46.4042" lon="5.22094">
        <ele>212.8</ele>
        <time>2022-03-21T13:53:35Z</time>
      </trkpt>
      <trkpt lat="46.40426" lon="5.22012">
        <ele>212.2</ele>
        <time>2022-03-21T13:53:43Z</time>
      </trkpt>
      <trkpt lat="46.40426" lon="5.22001">
        <ele>212.2</ele>
        <time>2022-03-21T13:53:44Z</time>
      </trkpt>
      <trkpt lat="46.40432" lon="5.21914">
        <ele>211</ele>
        <time>2022-03-21T13:53:52Z</time>
      </trkpt>
      <trkpt lat="46.40433" lon="5.21903">
        <ele>210.8</ele>
        <time>2022-03-21T13:53:53Z</time>
      </trkpt>
      <trkpt lat="46.40437" lon="5.21862">
        <ele>210.2</ele>
        <time>2022-03-21T13:53:57Z</time>
      </trkpt>
      <trkpt lat="46.40437" lon="5.21851">
        <ele>210</ele>
        <time>2022-03-21T13:53:58Z</time>
      </trkpt>
      <trkpt lat="46.40438" lon="5.2184">
        <ele>210</ele>
        <time>2022-03-21T13:53:59Z</time>
      </trkpt>
      <trkpt lat="46.40444" lon="5.21762">
        <ele>209.6</ele>
        <time>2022-03-21T13:54:06Z</time>
      </trkpt>
      <trkpt lat="46.40446" lon="5.21741">
        <ele>209.6</ele>
        <time>2022-03-21T13:54:08Z</time>
      </trkpt>
      <trkpt lat="46.40453" lon="5.21663">
        <ele>209.2</ele>
        <time>2022-03-21T13:54:16Z</time>
      </trkpt>
      <trkpt lat="46.40453" lon="5.21653">
        <ele>209.2</ele>
        <time>2022-03-21T13:54:17Z</time>
      </trkpt>
      <trkpt lat="46.40455" lon="5.21621">
        <ele>208.8</ele>
        <time>2022-03-21T13:54:20Z</time>
      </trkpt>
      <trkpt lat="46.40459" lon="5.21567">
        <ele>208.8</ele>
        <time>2022-03-21T13:54:26Z</time>
      </trkpt>
      <trkpt lat="46.40464" lon="5.21506">
        <ele>209</ele>
        <time>2022-03-21T13:54:33Z</time>
      </trkpt>
      <trkpt lat="46.4047" lon="5.21438">
        <ele>209.6</ele>
        <time>2022-03-21T13:54:41Z</time>
      </trkpt>
      <trkpt lat="46.40475" lon="5.21377">
        <ele>209.8</ele>
        <time>2022-03-21T13:54:48Z</time>
      </trkpt>
      <trkpt lat="46.4048" lon="5.21313">
        <ele>210.2</ele>
        <time>2022-03-21T13:54:56Z</time>
      </trkpt>
      <trkpt lat="46.40481" lon="5.21306">
        <ele>210.4</ele>
        <time>2022-03-21T13:54:57Z</time>
      </trkpt>
      <trkpt lat="46.40486" lon="5.21231">
        <ele>211.2</ele>
        <time>2022-03-21T13:55:06Z</time>
      </trkpt>
      <trkpt lat="46.40487" lon="5.21222">
        <ele>211.4</ele>
        <time>2022-03-21T13:55:07Z</time>
      </trkpt>
      <trkpt lat="46.40488" lon="5.21204">
        <ele>211.4</ele>
        <time>2022-03-21T13:55:09Z</time>
      </trkpt>
      <trkpt lat="46.40494" lon="5.21124">
        <ele>211</ele>
        <time>2022-03-21T13:55:18Z</time>
      </trkpt>
      <trkpt lat="46.40494" lon="5.21114">
        <ele>211</ele>
        <time>2022-03-21T13:55:19Z</time>
      </trkpt>
      <trkpt lat="46.40496" lon="5.211">
        <ele>211</ele>
        <time>2022-03-21T13:55:21Z</time>
      </trkpt>
      <trkpt lat="46.405" lon="5.21092">
        <ele>211</ele>
        <time>2022-03-21T13:55:22Z</time>
      </trkpt>
      <trkpt lat="46.40504" lon="5.2109">
        <ele>211</ele>
        <time>2022-03-21T13:55:23Z</time>
      </trkpt>
      <trkpt lat="46.40513" lon="5.21094">
        <ele>211</ele>
        <time>2022-03-21T13:55:25Z</time>
      </trkpt>
      <trkpt lat="46.40534" lon="5.2111">
        <ele>210</ele>
        <time>2022-03-21T13:55:28Z</time>
      </trkpt>
      <trkpt lat="46.4056" lon="5.2113">
        <ele>209.4</ele>
        <time>2022-03-21T13:55:32Z</time>
      </trkpt>
      <trkpt lat="46.40575" lon="5.21134">
        <ele>209.2</ele>
        <time>2022-03-21T13:55:34Z</time>
      </trkpt>
      <trkpt lat="46.406" lon="5.21128">
        <ele>209</ele>
        <time>2022-03-21T13:55:37Z</time>
      </trkpt>
      <trkpt lat="46.40608" lon="5.21124">
        <ele>209</ele>
        <time>2022-03-21T13:55:38Z</time>
      </trkpt>
      <trkpt lat="46.40661" lon="5.21101">
        <ele>209.2</ele>
        <time>2022-03-21T13:55:45Z</time>
      </trkpt>
      <trkpt lat="46.40683" lon="5.21092">
        <ele>209.2</ele>
        <time>2022-03-21T13:55:48Z</time>
      </trkpt>
      <trkpt lat="46.40737" lon="5.21067">
        <ele>209.6</ele>
        <time>2022-03-21T13:55:56Z</time>
      </trkpt>
      <trkpt lat="46.40755" lon="5.2106">
        <ele>210.2</ele>
        <time>2022-03-21T13:55:59Z</time>
      </trkpt>
      <trkpt lat="46.40779" lon="5.2105">
        <ele>210.8</ele>
        <time>2022-03-21T13:56:03Z</time>
      </trkpt>
      <trkpt lat="46.40784" lon="5.21047">
        <ele>210.8</ele>
        <time>2022-03-21T13:56:04Z</time>
      </trkpt>
      <trkpt lat="46.40807" lon="5.21038">
        <ele>211.2</ele>
        <time>2022-03-21T13:56:08Z</time>
      </trkpt>
      <trkpt lat="46.40829" lon="5.21029">
        <ele>211.6</ele>
        <time>2022-03-21T13:56:12Z</time>
      </trkpt>
      <trkpt lat="46.40868" lon="5.21013">
        <ele>212.2</ele>
        <time>2022-03-21T13:56:19Z</time>
      </trkpt>
      <trkpt lat="46.40894" lon="5.21002">
        <ele>212.8</ele>
        <time>2022-03-21T13:56:24Z</time>
      </trkpt>
      <trkpt lat="46.40914" lon="5.20993">
        <ele>213.4</ele>
        <time>2022-03-21T13:56:28Z</time>
      </trkpt>
      <trkpt lat="46.4094" lon="5.20982">
        <ele>214</ele>
        <time>2022-03-21T13:56:33Z</time>
      </trkpt>
      <trkpt lat="46.40968" lon="5.20969">
        <ele>214.6</ele>
        <time>2022-03-21T13:56:38Z</time>
      </trkpt>
      <trkpt lat="46.40999" lon="5.20956">
        <ele>215</ele>
        <time>2022-03-21T13:56:43Z</time>
      </trkpt>
      <trkpt lat="46.41055" lon="5.20934">
        <ele>215.2</ele>
        <time>2022-03-21T13:56:52Z</time>
      </trkpt>
      <trkpt lat="46.41061" lon="5.20932">
        <ele>215.2</ele>
        <time>2022-03-21T13:56:53Z</time>
      </trkpt>
      <trkpt lat="46.41098" lon="5.2092">
        <ele>215.8</ele>
        <time>2022-03-21T13:56:59Z</time>
      </trkpt>
      <trkpt lat="46.41115" lon="5.20914">
        <ele>216.2</ele>
        <time>2022-03-21T13:57:02Z</time>
      </trkpt>
      <trkpt lat="46.4114" lon="5.20905">
        <ele>216.8</ele>
        <time>2022-03-21T13:57:06Z</time>
      </trkpt>
      <trkpt lat="46.4117" lon="5.20897">
        <ele>217.2</ele>
        <time>2022-03-21T13:57:11Z</time>
      </trkpt>
      <trkpt lat="46.41195" lon="5.20889">
        <ele>217.6</ele>
        <time>2022-03-21T13:57:15Z</time>
      </trkpt>
      <trkpt lat="46.41232" lon="5.20878">
        <ele>217.6</ele>
        <time>2022-03-21T13:57:21Z</time>
      </trkpt>
      <trkpt lat="46.4129" lon="5.20862">
        <ele>217.4</ele>
        <time>2022-03-21T13:57:30Z</time>
      </trkpt>
      <trkpt lat="46.41336" lon="5.20848">
        <ele>217.6</ele>
        <time>2022-03-21T13:57:37Z</time>
      </trkpt>
      <trkpt lat="46.41375" lon="5.20834">
        <ele>217.2</ele>
        <time>2022-03-21T13:57:43Z</time>
      </trkpt>
      <trkpt lat="46.41388" lon="5.2084">
        <ele>217.2</ele>
        <time>2022-03-21T13:57:45Z</time>
      </trkpt>
      <trkpt lat="46.41394" lon="5.20846">
        <ele>217.2</ele>
        <time>2022-03-21T13:57:46Z</time>
      </trkpt>
      <trkpt lat="46.41398" lon="5.20853">
        <ele>217.2</ele>
        <time>2022-03-21T13:57:47Z</time>
      </trkpt>
      <trkpt lat="46.41412" lon="5.20883">
        <ele>217.2</ele>
        <time>2022-03-21T13:57:51Z</time>
      </trkpt>
      <trkpt lat="46.41425" lon="5.20922">
        <ele>217.8</ele>
        <time>2022-03-21T13:57:56Z</time>
      </trkpt>
      <trkpt lat="46.41428" lon="5.20938">
        <ele>218</ele>
        <time>2022-03-21T13:57:58Z</time>
      </trkpt>
      <trkpt lat="46.41432" lon="5.20969">
        <ele>218.8</ele>
        <time>2022-03-21T13:58:02Z</time>
      </trkpt>
      <trkpt lat="46.41433" lon="5.20977">
        <ele>219</ele>
        <time>2022-03-21T13:58:03Z</time>
      </trkpt>
      <trkpt lat="46.41437" lon="5.21011">
        <ele>220.4</ele>
        <time>2022-03-21T13:58:08Z</time>
      </trkpt>
      <trkpt lat="46.41442" lon="5.2103">
        <ele>221.4</ele>
        <time>2022-03-21T13:58:11Z</time>
      </trkpt>
      <trkpt lat="46.41447" lon="5.21041">
        <ele>222</ele>
        <time>2022-03-21T13:58:13Z</time>
      </trkpt>
      <trkpt lat="46.4145" lon="5.21046">
        <ele>222.2</ele>
        <time>2022-03-21T13:58:14Z</time>
      </trkpt>
      <trkpt lat="46.41453" lon="5.21051">
        <ele>222.6</ele>
        <time>2022-03-21T13:58:15Z</time>
      </trkpt>
      <trkpt lat="46.41467" lon="5.21069">
        <ele>223.6</ele>
        <time>2022-03-21T13:58:19Z</time>
      </trkpt>
      <trkpt lat="46.41475" lon="5.21078">
        <ele>223.8</ele>
        <time>2022-03-21T13:58:21Z</time>
      </trkpt>
      <trkpt lat="46.41493" lon="5.21099">
        <ele>224</ele>
        <time>2022-03-21T13:58:25Z</time>
      </trkpt>
      <trkpt lat="46.41524" lon="5.2114">
        <ele>223.8</ele>
        <time>2022-03-21T13:58:31Z</time>
      </trkpt>
      <trkpt lat="46.41548" lon="5.21183">
        <ele>222.4</ele>
        <time>2022-03-21T13:58:36Z</time>
      </trkpt>
      <trkpt lat="46.41553" lon="5.21192">
        <ele>222.4</ele>
        <time>2022-03-21T13:58:37Z</time>
      </trkpt>
      <trkpt lat="46.41557" lon="5.212">
        <ele>222.2</ele>
        <time>2022-03-21T13:58:38Z</time>
      </trkpt>
      <trkpt lat="46.41577" lon="5.21228">
        <ele>222</ele>
        <time>2022-03-21T13:58:42Z</time>
      </trkpt>
      <trkpt lat="46.4161" lon="5.21262">
        <ele>222.2</ele>
        <time>2022-03-21T13:58:48Z</time>
      </trkpt>
      <trkpt lat="46.41642" lon="5.21291">
        <ele>223</ele>
        <time>2022-03-21T13:58:54Z</time>
      </trkpt>
      <trkpt lat="46.41673" lon="5.21318">
        <ele>223.6</ele>
        <time>2022-03-21T13:59:00Z</time>
      </trkpt>
      <trkpt lat="46.41678" lon="5.21322">
        <ele>223.8</ele>
        <time>2022-03-21T13:59:01Z</time>
      </trkpt>
      <trkpt lat="46.41689" lon="5.2133">
        <ele>224</ele>
        <time>2022-03-21T13:59:03Z</time>
      </trkpt>
      <trkpt lat="46.41699" lon="5.21339">
        <ele>224.4</ele>
        <time>2022-03-21T13:59:05Z</time>
      </trkpt>
      <trkpt lat="46.41718" lon="5.21354">
        <ele>224.8</ele>
        <time>2022-03-21T13:59:09Z</time>
      </trkpt>
      <trkpt lat="46.41734" lon="5.21367">
        <ele>225.2</ele>
        <time>2022-03-21T13:59:12Z</time>
      </trkpt>
      <trkpt lat="46.41778" lon="5.21406">
        <ele>225.2</ele>
        <time>2022-03-21T13:59:20Z</time>
      </trkpt>
      <trkpt lat="46.41795" lon="5.21417">
        <ele>225.8</ele>
        <time>2022-03-21T13:59:23Z</time>
      </trkpt>
      <trkpt lat="46.41818" lon="5.21432">
        <ele>226.2</ele>
        <time>2022-03-21T13:59:27Z</time>
      </trkpt>
      <trkpt lat="46.41831" lon="5.2144">
        <ele>226.8</ele>
        <time>2022-03-21T13:59:29Z</time>
      </trkpt>
      <trkpt lat="46.41869" lon="5.21461">
        <ele>227</ele>
        <time>2022-03-21T13:59:35Z</time>
      </trkpt>
      <trkpt lat="46.41913" lon="5.21485">
        <ele>226.8</ele>
        <time>2022-03-21T13:59:42Z</time>
      </trkpt>
      <trkpt lat="46.41965" lon="5.21513">
        <ele>226.4</ele>
        <time>2022-03-21T13:59:50Z</time>
      </trkpt>
      <trkpt lat="46.41972" lon="5.21518">
        <ele>226.2</ele>
        <time>2022-03-21T13:59:51Z</time>
      </trkpt>
      <trkpt lat="46.4202" lon="5.21548">
        <ele>225.8</ele>
        <time>2022-03-21T13:59:58Z</time>
      </trkpt>
      <trkpt lat="46.42027" lon="5.21554">
        <ele>225.8</ele>
        <time>2022-03-21T13:59:59Z</time>
      </trkpt>
      <trkpt lat="46.4206" lon="5.21577">
        <ele>225.6</ele>
        <time>2022-03-21T14:00:04Z</time>
      </trkpt>
      <trkpt lat="46.42069" lon="5.21584">
        <ele>225.4</ele>
        <time>2022-03-21T14:00:05Z</time>
      </trkpt>
      <trkpt lat="46.42118" lon="5.21618">
        <ele>225</ele>
        <time>2022-03-21T14:00:12Z</time>
      </trkpt>
      <trkpt lat="46.42125" lon="5.21623">
        <ele>225</ele>
        <time>2022-03-21T14:00:13Z</time>
      </trkpt>
      <trkpt lat="46.4217" lon="5.21658">
        <ele>225.2</ele>
        <time>2022-03-21T14:00:20Z</time>
      </trkpt>
      <trkpt lat="46.42219" lon="5.21696">
        <ele>226</ele>
        <time>2022-03-21T14:00:28Z</time>
      </trkpt>
      <trkpt lat="46.42273" lon="5.21722">
        <ele>226.2</ele>
        <time>2022-03-21T14:00:36Z</time>
      </trkpt>
      <trkpt lat="46.42301" lon="5.21732">
        <ele>226.4</ele>
        <time>2022-03-21T14:00:40Z</time>
      </trkpt>
      <trkpt lat="46.42326" lon="5.21743">
        <ele>226.6</ele>
        <time>2022-03-21T14:00:44Z</time>
      </trkpt>
      <trkpt lat="46.42333" lon="5.21745">
        <ele>226.8</ele>
        <time>2022-03-21T14:00:45Z</time>
      </trkpt>
      <trkpt lat="46.42366" lon="5.21752">
        <ele>227.2</ele>
        <time>2022-03-21T14:00:50Z</time>
      </trkpt>
      <trkpt lat="46.42399" lon="5.21752">
        <ele>227.8</ele>
        <time>2022-03-21T14:00:55Z</time>
      </trkpt>
      <trkpt lat="46.42405" lon="5.21752">
        <ele>227.8</ele>
        <time>2022-03-21T14:00:56Z</time>
      </trkpt>
      <trkpt lat="46.42467" lon="5.21757">
        <ele>228</ele>
        <time>2022-03-21T14:01:05Z</time>
      </trkpt>
      <trkpt lat="46.42518" lon="5.21775">
        <ele>228.4</ele>
        <time>2022-03-21T14:01:13Z</time>
      </trkpt>
      <trkpt lat="46.42536" lon="5.21782">
        <ele>228.8</ele>
        <time>2022-03-21T14:01:16Z</time>
      </trkpt>
      <trkpt lat="46.42577" lon="5.21796">
        <ele>229.6</ele>
        <time>2022-03-21T14:01:23Z</time>
      </trkpt>
      <trkpt lat="46.42605" lon="5.21805">
        <ele>229.8</ele>
        <time>2022-03-21T14:01:28Z</time>
      </trkpt>
      <trkpt lat="46.4261" lon="5.21807">
        <ele>230</ele>
        <time>2022-03-21T14:01:29Z</time>
      </trkpt>
      <trkpt lat="46.42617" lon="5.21808">
        <ele>230</ele>
        <time>2022-03-21T14:01:30Z</time>
      </trkpt>
      <trkpt lat="46.4264" lon="5.21815">
        <ele>230.2</ele>
        <time>2022-03-21T14:01:34Z</time>
      </trkpt>
      <trkpt lat="46.42676" lon="5.21821">
        <ele>230.4</ele>
        <time>2022-03-21T14:01:40Z</time>
      </trkpt>
      <trkpt lat="46.42682" lon="5.21821">
        <ele>230.4</ele>
        <time>2022-03-21T14:01:41Z</time>
      </trkpt>
      <trkpt lat="46.42725" lon="5.21827">
        <ele>230.6</ele>
        <time>2022-03-21T14:01:48Z</time>
      </trkpt>
      <trkpt lat="46.42763" lon="5.2183">
        <ele>230.6</ele>
        <time>2022-03-21T14:01:54Z</time>
      </trkpt>
      <trkpt lat="46.42799" lon="5.21826">
        <ele>230.4</ele>
        <time>2022-03-21T14:01:59Z</time>
      </trkpt>
      <trkpt lat="46.42854" lon="5.21815">
        <ele>230.4</ele>
        <time>2022-03-21T14:02:07Z</time>
      </trkpt>
      <trkpt lat="46.42895" lon="5.21817">
        <ele>230.4</ele>
        <time>2022-03-21T14:02:13Z</time>
      </trkpt>
      <trkpt lat="46.42955" lon="5.21826">
        <ele>230.4</ele>
        <time>2022-03-21T14:02:22Z</time>
      </trkpt>
      <trkpt lat="46.42968" lon="5.21831">
        <ele>230.4</ele>
        <time>2022-03-21T14:02:24Z</time>
      </trkpt>
      <trkpt lat="46.43001" lon="5.21838">
        <ele>230.6</ele>
        <time>2022-03-21T14:02:29Z</time>
      </trkpt>
      <trkpt lat="46.43008" lon="5.21838">
        <ele>230.6</ele>
        <time>2022-03-21T14:02:30Z</time>
      </trkpt>
      <trkpt lat="46.43029" lon="5.21833">
        <ele>230.8</ele>
        <time>2022-03-21T14:02:33Z</time>
      </trkpt>
      <trkpt lat="46.43057" lon="5.21825">
        <ele>230.6</ele>
        <time>2022-03-21T14:02:37Z</time>
      </trkpt>
      <trkpt lat="46.43107" lon="5.21816">
        <ele>230.6</ele>
        <time>2022-03-21T14:02:44Z</time>
      </trkpt>
      <trkpt lat="46.43149" lon="5.21826">
        <ele>230.8</ele>
        <time>2022-03-21T14:02:50Z</time>
      </trkpt>
      <trkpt lat="46.43168" lon="5.21833">
        <ele>230.8</ele>
        <time>2022-03-21T14:02:53Z</time>
      </trkpt>
      <trkpt lat="46.43173" lon="5.21837">
        <ele>230.8</ele>
        <time>2022-03-21T14:02:54Z</time>
      </trkpt>
      <trkpt lat="46.43179" lon="5.21842">
        <ele>231</ele>
        <time>2022-03-21T14:02:55Z</time>
      </trkpt>
      <trkpt lat="46.43206" lon="5.21874">
        <ele>231</ele>
        <time>2022-03-21T14:03:00Z</time>
      </trkpt>
      <trkpt lat="46.43218" lon="5.21886">
        <ele>231</ele>
        <time>2022-03-21T14:03:02Z</time>
      </trkpt>
      <trkpt lat="46.43232" lon="5.21894">
        <ele>231</ele>
        <time>2022-03-21T14:03:04Z</time>
      </trkpt>
      <trkpt lat="46.43259" lon="5.21913">
        <ele>230.4</ele>
        <time>2022-03-21T14:03:08Z</time>
      </trkpt>
      <trkpt lat="46.43265" lon="5.2192">
        <ele>230.4</ele>
        <time>2022-03-21T14:03:09Z</time>
      </trkpt>
      <trkpt lat="46.43289" lon="5.2196">
        <ele>230.4</ele>
        <time>2022-03-21T14:03:14Z</time>
      </trkpt>
      <trkpt lat="46.43326" lon="5.22028">
        <ele>230.4</ele>
        <time>2022-03-21T14:03:22Z</time>
      </trkpt>
      <trkpt lat="46.43357" lon="5.22082">
        <ele>230</ele>
        <time>2022-03-21T14:03:28Z</time>
      </trkpt>
      <trkpt lat="46.43364" lon="5.2209">
        <ele>229.8</ele>
        <time>2022-03-21T14:03:29Z</time>
      </trkpt>
      <trkpt lat="46.43386" lon="5.22113">
        <ele>228.8</ele>
        <time>2022-03-21T14:03:32Z</time>
      </trkpt>
      <trkpt lat="46.43395" lon="5.22122">
        <ele>228.4</ele>
        <time>2022-03-21T14:03:33Z</time>
      </trkpt>
      <trkpt lat="46.43437" lon="5.22163">
        <ele>227.8</ele>
        <time>2022-03-21T14:03:39Z</time>
      </trkpt>
      <trkpt lat="46.43444" lon="5.22168">
        <ele>227.6</ele>
        <time>2022-03-21T14:03:40Z</time>
      </trkpt>
      <trkpt lat="46.43475" lon="5.22181">
        <ele>227.6</ele>
        <time>2022-03-21T14:03:44Z</time>
      </trkpt>
      <trkpt lat="46.43522" lon="5.22187">
        <ele>227.4</ele>
        <time>2022-03-21T14:03:50Z</time>
      </trkpt>
      <trkpt lat="46.4356" lon="5.22196">
        <ele>227.6</ele>
        <time>2022-03-21T14:03:55Z</time>
      </trkpt>
      <trkpt lat="46.436" lon="5.22222">
        <ele>228</ele>
        <time>2022-03-21T14:04:01Z</time>
      </trkpt>
      <trkpt lat="46.4365" lon="5.22266">
        <ele>228.6</ele>
        <time>2022-03-21T14:04:09Z</time>
      </trkpt>
      <trkpt lat="46.43656" lon="5.22272">
        <ele>228.6</ele>
        <time>2022-03-21T14:04:10Z</time>
      </trkpt>
      <trkpt lat="46.43667" lon="5.22284">
        <ele>228.6</ele>
        <time>2022-03-21T14:04:12Z</time>
      </trkpt>
      <trkpt lat="46.43705" lon="5.22323">
        <ele>229.8</ele>
        <time>2022-03-21T14:04:19Z</time>
      </trkpt>
      <trkpt lat="46.43712" lon="5.22329">
        <ele>229.8</ele>
        <time>2022-03-21T14:04:20Z</time>
      </trkpt>
      <trkpt lat="46.43759" lon="5.22375">
        <ele>230.6</ele>
        <time>2022-03-21T14:04:28Z</time>
      </trkpt>
      <trkpt lat="46.43809" lon="5.22423">
        <ele>230.2</ele>
        <time>2022-03-21T14:04:36Z</time>
      </trkpt>
      <trkpt lat="46.43857" lon="5.22461">
        <ele>230</ele>
        <time>2022-03-21T14:04:43Z</time>
      </trkpt>
      <trkpt lat="46.43877" lon="5.22474">
        <ele>229.4</ele>
        <time>2022-03-21T14:04:46Z</time>
      </trkpt>
      <trkpt lat="46.43891" lon="5.22481">
        <ele>229.4</ele>
        <time>2022-03-21T14:04:48Z</time>
      </trkpt>
      <trkpt lat="46.43914" lon="5.22486">
        <ele>229</ele>
        <time>2022-03-21T14:04:51Z</time>
      </trkpt>
      <trkpt lat="46.43928" lon="5.22488">
        <ele>229</ele>
        <time>2022-03-21T14:04:53Z</time>
      </trkpt>
      <trkpt lat="46.43942" lon="5.22488">
        <ele>229</ele>
        <time>2022-03-21T14:04:55Z</time>
      </trkpt>
      <trkpt lat="46.43991" lon="5.22487">
        <ele>228.8</ele>
        <time>2022-03-21T14:05:02Z</time>
      </trkpt>
      <trkpt lat="46.4403" lon="5.22488">
        <ele>228.6</ele>
        <time>2022-03-21T14:05:07Z</time>
      </trkpt>
      <trkpt lat="46.44045" lon="5.2249">
        <ele>228.6</ele>
        <time>2022-03-21T14:05:09Z</time>
      </trkpt>
      <trkpt lat="46.4409" lon="5.22493">
        <ele>228.4</ele>
        <time>2022-03-21T14:05:15Z</time>
      </trkpt>
      <trkpt lat="46.44097" lon="5.22491">
        <ele>228.2</ele>
        <time>2022-03-21T14:05:16Z</time>
      </trkpt>
      <trkpt lat="46.44104" lon="5.22488">
        <ele>228.4</ele>
        <time>2022-03-21T14:05:17Z</time>
      </trkpt>
      <trkpt lat="46.44116" lon="5.22476">
        <ele>228.2</ele>
        <time>2022-03-21T14:05:19Z</time>
      </trkpt>
      <trkpt lat="46.44127" lon="5.22457">
        <ele>228.2</ele>
        <time>2022-03-21T14:05:21Z</time>
      </trkpt>
      <trkpt lat="46.44131" lon="5.22448">
        <ele>228.2</ele>
        <time>2022-03-21T14:05:22Z</time>
      </trkpt>
      <trkpt lat="46.44146" lon="5.22398">
        <ele>228</ele>
        <time>2022-03-21T14:05:27Z</time>
      </trkpt>
      <trkpt lat="46.44151" lon="5.2239">
        <ele>228</ele>
        <time>2022-03-21T14:05:28Z</time>
      </trkpt>
      <trkpt lat="46.44157" lon="5.22384">
        <ele>228</ele>
        <time>2022-03-21T14:05:29Z</time>
      </trkpt>
      <trkpt lat="46.44171" lon="5.22376">
        <ele>228</ele>
        <time>2022-03-21T14:05:31Z</time>
      </trkpt>
      <trkpt lat="46.44186" lon="5.22376">
        <ele>228</ele>
        <time>2022-03-21T14:05:33Z</time>
      </trkpt>
      <trkpt lat="46.44201" lon="5.2238">
        <ele>227.8</ele>
        <time>2022-03-21T14:05:35Z</time>
      </trkpt>
      <trkpt lat="46.44261" lon="5.22394">
        <ele>227.6</ele>
        <time>2022-03-21T14:05:43Z</time>
      </trkpt>
      <trkpt lat="46.44268" lon="5.22395">
        <ele>227.6</ele>
        <time>2022-03-21T14:05:44Z</time>
      </trkpt>
      <trkpt lat="46.44312" lon="5.22406">
        <ele>227.8</ele>
        <time>2022-03-21T14:05:50Z</time>
      </trkpt>
      <trkpt lat="46.44354" lon="5.22416">
        <ele>228.2</ele>
        <time>2022-03-21T14:05:56Z</time>
      </trkpt>
      <trkpt lat="46.44361" lon="5.22418">
        <ele>228.2</ele>
        <time>2022-03-21T14:05:57Z</time>
      </trkpt>
      <trkpt lat="46.44375" lon="5.22426">
        <ele>228.2</ele>
        <time>2022-03-21T14:05:59Z</time>
      </trkpt>
      <trkpt lat="46.44382" lon="5.22431">
        <ele>228.2</ele>
        <time>2022-03-21T14:06:00Z</time>
      </trkpt>
      <trkpt lat="46.44427" lon="5.22468">
        <ele>227.4</ele>
        <time>2022-03-21T14:06:07Z</time>
      </trkpt>
      <trkpt lat="46.44484" lon="5.22494">
        <ele>227.2</ele>
        <time>2022-03-21T14:06:15Z</time>
      </trkpt>
      <trkpt lat="46.44498" lon="5.22501">
        <ele>227</ele>
        <time>2022-03-21T14:06:17Z</time>
      </trkpt>
      <trkpt lat="46.44552" lon="5.22528">
        <ele>227</ele>
        <time>2022-03-21T14:06:25Z</time>
      </trkpt>
      <trkpt lat="46.44559" lon="5.22531">
        <ele>226.8</ele>
        <time>2022-03-21T14:06:26Z</time>
      </trkpt>
      <trkpt lat="46.44572" lon="5.22539">
        <ele>226.8</ele>
        <time>2022-03-21T14:06:28Z</time>
      </trkpt>
      <trkpt lat="46.44617" lon="5.2257">
        <ele>226.6</ele>
        <time>2022-03-21T14:06:35Z</time>
      </trkpt>
      <trkpt lat="46.44654" lon="5.22583">
        <ele>226.6</ele>
        <time>2022-03-21T14:06:41Z</time>
      </trkpt>
      <trkpt lat="46.44664" lon="5.22592">
        <ele>226.6</ele>
        <time>2022-03-21T14:06:43Z</time>
      </trkpt>
      <trkpt lat="46.44668" lon="5.22599">
        <ele>226.6</ele>
        <time>2022-03-21T14:06:44Z</time>
      </trkpt>
      <trkpt lat="46.4467" lon="5.22607">
        <ele>226.6</ele>
        <time>2022-03-21T14:06:45Z</time>
      </trkpt>
      <trkpt lat="46.44671" lon="5.22625">
        <ele>226.6</ele>
        <time>2022-03-21T14:06:47Z</time>
      </trkpt>
      <trkpt lat="46.44675" lon="5.22695">
        <ele>226.4</ele>
        <time>2022-03-21T14:06:54Z</time>
      </trkpt>
      <trkpt lat="46.44678" lon="5.22782">
        <ele>227</ele>
        <time>2022-03-21T14:07:03Z</time>
      </trkpt>
      <trkpt lat="46.44679" lon="5.228">
        <ele>227</ele>
        <time>2022-03-21T14:07:05Z</time>
      </trkpt>
      <trkpt lat="46.44681" lon="5.22827">
        <ele>227</ele>
        <time>2022-03-21T14:07:08Z</time>
      </trkpt>
      <trkpt lat="46.44688" lon="5.22843">
        <ele>227</ele>
        <time>2022-03-21T14:07:10Z</time>
      </trkpt>
      <trkpt lat="46.44707" lon="5.22857">
        <ele>227</ele>
        <time>2022-03-21T14:07:13Z</time>
      </trkpt>
      <trkpt lat="46.44753" lon="5.22892">
        <ele>226.6</ele>
        <time>2022-03-21T14:07:20Z</time>
      </trkpt>
      <trkpt lat="46.44795" lon="5.22926">
        <ele>226.2</ele>
        <time>2022-03-21T14:07:27Z</time>
      </trkpt>
      <trkpt lat="46.44834" lon="5.22954">
        <ele>226.2</ele>
        <time>2022-03-21T14:07:34Z</time>
      </trkpt>
      <trkpt lat="46.44839" lon="5.22959">
        <ele>226.2</ele>
        <time>2022-03-21T14:07:35Z</time>
      </trkpt>
      <trkpt lat="46.44843" lon="5.22966">
        <ele>226.2</ele>
        <time>2022-03-21T14:07:36Z</time>
      </trkpt>
      <trkpt lat="46.44851" lon="5.22981">
        <ele>226.2</ele>
        <time>2022-03-21T14:07:38Z</time>
      </trkpt>
      <trkpt lat="46.44854" lon="5.22989">
        <ele>226.2</ele>
        <time>2022-03-21T14:07:39Z</time>
      </trkpt>
      <trkpt lat="46.44877" lon="5.23053">
        <ele>226.6</ele>
        <time>2022-03-21T14:07:47Z</time>
      </trkpt>
      <trkpt lat="46.44887" lon="5.23076">
        <ele>226.6</ele>
        <time>2022-03-21T14:07:50Z</time>
      </trkpt>
      <trkpt lat="46.44895" lon="5.23087">
        <ele>226.6</ele>
        <time>2022-03-21T14:07:52Z</time>
      </trkpt>
      <trkpt lat="46.44899" lon="5.23092">
        <ele>226.6</ele>
        <time>2022-03-21T14:07:53Z</time>
      </trkpt>
      <trkpt lat="46.44915" lon="5.23108">
        <ele>226.8</ele>
        <time>2022-03-21T14:07:57Z</time>
      </trkpt>
      <trkpt lat="46.44922" lon="5.23116">
        <ele>227</ele>
        <time>2022-03-21T14:07:59Z</time>
      </trkpt>
      <trkpt lat="46.44927" lon="5.23122">
        <ele>227.2</ele>
        <time>2022-03-21T14:08:01Z</time>
      </trkpt>
      <trkpt lat="46.4493" lon="5.23122">
        <ele>227.2</ele>
        <time>2022-03-21T14:08:02Z</time>
      </trkpt>
      <trkpt lat="46.44939" lon="5.2311">
        <ele>227.2</ele>
        <time>2022-03-21T14:08:05Z</time>
      </trkpt>
      <trkpt lat="46.44941" lon="5.23105">
        <ele>227.4</ele>
        <time>2022-03-21T14:08:06Z</time>
      </trkpt>
      <trkpt lat="46.44958" lon="5.23057">
        <ele>227.2</ele>
        <time>2022-03-21T14:08:12Z</time>
      </trkpt>
      <trkpt lat="46.44968" lon="5.22995">
        <ele>226.8</ele>
        <time>2022-03-21T14:08:18Z</time>
      </trkpt>
      <trkpt lat="46.44979" lon="5.22935">
        <ele>226</ele>
        <time>2022-03-21T14:08:24Z</time>
      </trkpt>
      <trkpt lat="46.44984" lon="5.22916">
        <ele>226</ele>
        <time>2022-03-21T14:08:26Z</time>
      </trkpt>
      <trkpt lat="46.44991" lon="5.22899">
        <ele>225.8</ele>
        <time>2022-03-21T14:08:28Z</time>
      </trkpt>
      <trkpt lat="46.45" lon="5.22883">
        <ele>225.8</ele>
        <time>2022-03-21T14:08:30Z</time>
      </trkpt>
      <trkpt lat="46.45005" lon="5.22877">
        <ele>225.8</ele>
        <time>2022-03-21T14:08:31Z</time>
      </trkpt>
      <trkpt lat="46.45016" lon="5.22866">
        <ele>225.8</ele>
        <time>2022-03-21T14:08:33Z</time>
      </trkpt>
      <trkpt lat="46.45022" lon="5.22862">
        <ele>226</ele>
        <time>2022-03-21T14:08:34Z</time>
      </trkpt>
      <trkpt lat="46.45066" lon="5.22835">
        <ele>226.2</ele>
        <time>2022-03-21T14:08:41Z</time>
      </trkpt>
      <trkpt lat="46.45071" lon="5.22829">
        <ele>226.2</ele>
        <time>2022-03-21T14:08:42Z</time>
      </trkpt>
      <trkpt lat="46.45075" lon="5.22822">
        <ele>226.2</ele>
        <time>2022-03-21T14:08:43Z</time>
      </trkpt>
      <trkpt lat="46.45079" lon="5.22805">
        <ele>226.2</ele>
        <time>2022-03-21T14:08:45Z</time>
      </trkpt>
      <trkpt lat="46.45094" lon="5.2272">
        <ele>226.8</ele>
        <time>2022-03-21T14:08:54Z</time>
      </trkpt>
      <trkpt lat="46.45096" lon="5.22711">
        <ele>226.8</ele>
        <time>2022-03-21T14:08:55Z</time>
      </trkpt>
      <trkpt lat="46.45118" lon="5.22651">
        <ele>227</ele>
        <time>2022-03-21T14:09:02Z</time>
      </trkpt>
      <trkpt lat="46.45121" lon="5.22642">
        <ele>227</ele>
        <time>2022-03-21T14:09:03Z</time>
      </trkpt>
      <trkpt lat="46.45142" lon="5.22573">
        <ele>227.2</ele>
        <time>2022-03-21T14:09:11Z</time>
      </trkpt>
      <trkpt lat="46.45163" lon="5.22492">
        <ele>227.2</ele>
        <time>2022-03-21T14:09:20Z</time>
      </trkpt>
      <trkpt lat="46.45165" lon="5.22483">
        <ele>227.2</ele>
        <time>2022-03-21T14:09:21Z</time>
      </trkpt>
      <trkpt lat="46.45188" lon="5.22414">
        <ele>226.8</ele>
        <time>2022-03-21T14:09:29Z</time>
      </trkpt>
      <trkpt lat="46.45205" lon="5.22366">
        <ele>227</ele>
        <time>2022-03-21T14:09:35Z</time>
      </trkpt>
      <trkpt lat="46.45211" lon="5.2235">
        <ele>227</ele>
        <time>2022-03-21T14:09:37Z</time>
      </trkpt>
      <trkpt lat="46.45217" lon="5.22334">
        <ele>227</ele>
        <time>2022-03-21T14:09:39Z</time>
      </trkpt>
      <trkpt lat="46.45226" lon="5.22318">
        <ele>227</ele>
        <time>2022-03-21T14:09:41Z</time>
      </trkpt>
      <trkpt lat="46.45231" lon="5.22312">
        <ele>227</ele>
        <time>2022-03-21T14:09:42Z</time>
      </trkpt>
      <trkpt lat="46.45236" lon="5.22308">
        <ele>227</ele>
        <time>2022-03-21T14:09:43Z</time>
      </trkpt>
      <trkpt lat="46.45261" lon="5.2229">
        <ele>226.8</ele>
        <time>2022-03-21T14:09:47Z</time>
      </trkpt>
      <trkpt lat="46.4531" lon="5.22259">
        <ele>226.6</ele>
        <time>2022-03-21T14:09:55Z</time>
      </trkpt>
      <trkpt lat="46.45317" lon="5.22255">
        <ele>226.6</ele>
        <time>2022-03-21T14:09:56Z</time>
      </trkpt>
      <trkpt lat="46.45373" lon="5.22224">
        <ele>226.4</ele>
        <time>2022-03-21T14:10:05Z</time>
      </trkpt>
      <trkpt lat="46.45405" lon="5.22201">
        <ele>226.4</ele>
        <time>2022-03-21T14:10:10Z</time>
      </trkpt>
      <trkpt lat="46.45416" lon="5.22189">
        <ele>226</ele>
        <time>2022-03-21T14:10:12Z</time>
      </trkpt>
      <trkpt lat="46.45422" lon="5.22181">
        <ele>226</ele>
        <time>2022-03-21T14:10:13Z</time>
      </trkpt>
      <trkpt lat="46.4544" lon="5.22148">
        <ele>225.8</ele>
        <time>2022-03-21T14:10:17Z</time>
      </trkpt>
      <trkpt lat="46.45462" lon="5.22088">
        <ele>225</ele>
        <time>2022-03-21T14:10:23Z</time>
      </trkpt>
      <trkpt lat="46.45469" lon="5.22067">
        <ele>225</ele>
        <time>2022-03-21T14:10:25Z</time>
      </trkpt>
      <trkpt lat="46.45479" lon="5.22037">
        <ele>225</ele>
        <time>2022-03-21T14:10:28Z</time>
      </trkpt>
      <trkpt lat="46.45493" lon="5.21998">
        <ele>225</ele>
        <time>2022-03-21T14:10:32Z</time>
      </trkpt>
      <trkpt lat="46.45519" lon="5.21924">
        <ele>225</ele>
        <time>2022-03-21T14:10:40Z</time>
      </trkpt>
      <trkpt lat="46.45549" lon="5.21857">
        <ele>225.2</ele>
        <time>2022-03-21T14:10:48Z</time>
      </trkpt>
      <trkpt lat="46.4558" lon="5.21783">
        <ele>225.8</ele>
        <time>2022-03-21T14:10:56Z</time>
      </trkpt>
      <trkpt lat="46.45611" lon="5.21709">
        <ele>226</ele>
        <time>2022-03-21T14:11:04Z</time>
      </trkpt>
      <trkpt lat="46.45615" lon="5.21699">
        <ele>226</ele>
        <time>2022-03-21T14:11:05Z</time>
      </trkpt>
      <trkpt lat="46.45648" lon="5.21639">
        <ele>225.2</ele>
        <time>2022-03-21T14:11:12Z</time>
      </trkpt>
      <trkpt lat="46.45683" lon="5.21577">
        <ele>225.2</ele>
        <time>2022-03-21T14:11:20Z</time>
      </trkpt>
      <trkpt lat="46.45717" lon="5.21535">
        <ele>225.6</ele>
        <time>2022-03-21T14:11:27Z</time>
      </trkpt>
      <trkpt lat="46.4575" lon="5.21512">
        <ele>226.2</ele>
        <time>2022-03-21T14:11:33Z</time>
      </trkpt>
      <trkpt lat="46.45781" lon="5.21496">
        <ele>226.2</ele>
        <time>2022-03-21T14:11:38Z</time>
      </trkpt>
      <trkpt lat="46.45794" lon="5.21492">
        <ele>226.4</ele>
        <time>2022-03-21T14:11:40Z</time>
      </trkpt>
      <trkpt lat="46.45808" lon="5.2149">
        <ele>226.4</ele>
        <time>2022-03-21T14:11:42Z</time>
      </trkpt>
      <trkpt lat="46.45829" lon="5.2149">
        <ele>226.4</ele>
        <time>2022-03-21T14:11:45Z</time>
      </trkpt>
      <trkpt lat="46.45875" lon="5.21499">
        <ele>226.2</ele>
        <time>2022-03-21T14:11:51Z</time>
      </trkpt>
      <trkpt lat="46.4593" lon="5.21515">
        <ele>225.2</ele>
        <time>2022-03-21T14:11:58Z</time>
      </trkpt>
      <trkpt lat="46.45938" lon="5.21518">
        <ele>225</ele>
        <time>2022-03-21T14:11:59Z</time>
      </trkpt>
      <trkpt lat="46.45995" lon="5.21546">
        <ele>224.4</ele>
        <time>2022-03-21T14:12:06Z</time>
      </trkpt>
      <trkpt lat="46.46011" lon="5.21558">
        <ele>224</ele>
        <time>2022-03-21T14:12:08Z</time>
      </trkpt>
      <trkpt lat="46.46034" lon="5.21579">
        <ele>223.6</ele>
        <time>2022-03-21T14:12:11Z</time>
      </trkpt>
      <trkpt lat="46.46063" lon="5.21611">
        <ele>222.8</ele>
        <time>2022-03-21T14:12:15Z</time>
      </trkpt>
      <trkpt lat="46.46083" lon="5.21636">
        <ele>222.4</ele>
        <time>2022-03-21T14:12:18Z</time>
      </trkpt>
      <trkpt lat="46.46116" lon="5.21676">
        <ele>222.2</ele>
        <time>2022-03-21T14:12:23Z</time>
      </trkpt>
      <trkpt lat="46.46122" lon="5.21684">
        <ele>222.2</ele>
        <time>2022-03-21T14:12:24Z</time>
      </trkpt>
      <trkpt lat="46.46148" lon="5.21727">
        <ele>222.2</ele>
        <time>2022-03-21T14:12:29Z</time>
      </trkpt>
      <trkpt lat="46.46182" lon="5.21784">
        <ele>221.8</ele>
        <time>2022-03-21T14:12:35Z</time>
      </trkpt>
      <trkpt lat="46.46209" lon="5.21825">
        <ele>220.6</ele>
        <time>2022-03-21T14:12:39Z</time>
      </trkpt>
      <trkpt lat="46.46217" lon="5.21836">
        <ele>220.4</ele>
        <time>2022-03-21T14:12:40Z</time>
      </trkpt>
      <trkpt lat="46.46238" lon="5.21867">
        <ele>219.2</ele>
        <time>2022-03-21T14:12:43Z</time>
      </trkpt>
      <trkpt lat="46.46252" lon="5.21888">
        <ele>218</ele>
        <time>2022-03-21T14:12:45Z</time>
      </trkpt>
      <trkpt lat="46.46266" lon="5.21908">
        <ele>217.4</ele>
        <time>2022-03-21T14:12:47Z</time>
      </trkpt>
      <trkpt lat="46.46282" lon="5.21925">
        <ele>217</ele>
        <time>2022-03-21T14:12:49Z</time>
      </trkpt>
      <trkpt lat="46.4629" lon="5.21932">
        <ele>216.8</ele>
        <time>2022-03-21T14:12:50Z</time>
      </trkpt>
      <trkpt lat="46.46299" lon="5.21938">
        <ele>216.8</ele>
        <time>2022-03-21T14:12:51Z</time>
      </trkpt>
      <trkpt lat="46.46331" lon="5.21958">
        <ele>217.2</ele>
        <time>2022-03-21T14:12:55Z</time>
      </trkpt>
      <trkpt lat="46.46368" lon="5.21977">
        <ele>217.8</ele>
        <time>2022-03-21T14:13:00Z</time>
      </trkpt>
      <trkpt lat="46.46384" lon="5.21984">
        <ele>218.6</ele>
        <time>2022-03-21T14:13:02Z</time>
      </trkpt>
      <trkpt lat="46.46399" lon="5.2199">
        <ele>219</ele>
        <time>2022-03-21T14:13:04Z</time>
      </trkpt>
      <trkpt lat="46.46421" lon="5.21994">
        <ele>219.4</ele>
        <time>2022-03-21T14:13:07Z</time>
      </trkpt>
      <trkpt lat="46.46443" lon="5.21997">
        <ele>220.2</ele>
        <time>2022-03-21T14:13:10Z</time>
      </trkpt>
      <trkpt lat="46.4648" lon="5.22003">
        <ele>221.4</ele>
        <time>2022-03-21T14:13:15Z</time>
      </trkpt>
      <trkpt lat="46.46487" lon="5.22006">
        <ele>221.4</ele>
        <time>2022-03-21T14:13:16Z</time>
      </trkpt>
      <trkpt lat="46.46545" lon="5.22025">
        <ele>222.2</ele>
        <time>2022-03-21T14:13:24Z</time>
      </trkpt>
      <trkpt lat="46.46552" lon="5.22028">
        <ele>222.2</ele>
        <time>2022-03-21T14:13:25Z</time>
      </trkpt>
      <trkpt lat="46.4656" lon="5.2203">
        <ele>222.2</ele>
        <time>2022-03-21T14:13:26Z</time>
      </trkpt>
      <trkpt lat="46.46575" lon="5.22032">
        <ele>222.2</ele>
        <time>2022-03-21T14:13:28Z</time>
      </trkpt>
      <trkpt lat="46.46583" lon="5.22031">
        <ele>222.2</ele>
        <time>2022-03-21T14:13:29Z</time>
      </trkpt>
      <trkpt lat="46.46636" lon="5.22018">
        <ele>221.6</ele>
        <time>2022-03-21T14:13:36Z</time>
      </trkpt>
      <trkpt lat="46.46693" lon="5.22015">
        <ele>220.8</ele>
        <time>2022-03-21T14:13:43Z</time>
      </trkpt>
      <trkpt lat="46.4671" lon="5.22014">
        <ele>220</ele>
        <time>2022-03-21T14:13:45Z</time>
      </trkpt>
      <trkpt lat="46.46736" lon="5.22014">
        <ele>218.6</ele>
        <time>2022-03-21T14:13:48Z</time>
      </trkpt>
      <trkpt lat="46.46754" lon="5.22011">
        <ele>218.2</ele>
        <time>2022-03-21T14:13:50Z</time>
      </trkpt>
      <trkpt lat="46.46779" lon="5.22002">
        <ele>217.6</ele>
        <time>2022-03-21T14:13:53Z</time>
      </trkpt>
      <trkpt lat="46.46788" lon="5.21999">
        <ele>217.2</ele>
        <time>2022-03-21T14:13:54Z</time>
      </trkpt>
      <trkpt lat="46.46797" lon="5.21997">
        <ele>217.2</ele>
        <time>2022-03-21T14:13:55Z</time>
      </trkpt>
      <trkpt lat="46.46807" lon="5.21998">
        <ele>217</ele>
        <time>2022-03-21T14:13:56Z</time>
      </trkpt>
      <trkpt lat="46.46826" lon="5.22008">
        <ele>217</ele>
        <time>2022-03-21T14:13:58Z</time>
      </trkpt>
      <trkpt lat="46.46834" lon="5.22018">
        <ele>216.4</ele>
        <time>2022-03-21T14:13:59Z</time>
      </trkpt>
      <trkpt lat="46.46841" lon="5.22029">
        <ele>216</ele>
        <time>2022-03-21T14:14:00Z</time>
      </trkpt>
      <trkpt lat="46.46847" lon="5.22041">
        <ele>215.2</ele>
        <time>2022-03-21T14:14:01Z</time>
      </trkpt>
      <trkpt lat="46.46854" lon="5.22055">
        <ele>214.2</ele>
        <time>2022-03-21T14:14:02Z</time>
      </trkpt>
      <trkpt lat="46.46865" lon="5.22082">
        <ele>213.2</ele>
        <time>2022-03-21T14:14:04Z</time>
      </trkpt>
      <trkpt lat="46.46879" lon="5.22108">
        <ele>212.4</ele>
        <time>2022-03-21T14:14:06Z</time>
      </trkpt>
      <trkpt lat="46.46887" lon="5.22118">
        <ele>212</ele>
        <time>2022-03-21T14:14:07Z</time>
      </trkpt>
      <trkpt lat="46.46897" lon="5.22126">
        <ele>211.2</ele>
        <time>2022-03-21T14:14:08Z</time>
      </trkpt>
      <trkpt lat="46.46908" lon="5.2213">
        <ele>210.4</ele>
        <time>2022-03-21T14:14:09Z</time>
      </trkpt>
      <trkpt lat="46.4692" lon="5.22132">
        <ele>210.2</ele>
        <time>2022-03-21T14:14:10Z</time>
      </trkpt>
      <trkpt lat="46.46942" lon="5.22132">
        <ele>209.2</ele>
        <time>2022-03-21T14:14:12Z</time>
      </trkpt>
      <trkpt lat="46.46952" lon="5.22131">
        <ele>208.6</ele>
        <time>2022-03-21T14:14:13Z</time>
      </trkpt>
      <trkpt lat="46.46971" lon="5.2213">
        <ele>207.8</ele>
        <time>2022-03-21T14:14:15Z</time>
      </trkpt>
      <trkpt lat="46.46998" lon="5.2213">
        <ele>207.6</ele>
        <time>2022-03-21T14:14:18Z</time>
      </trkpt>
      <trkpt lat="46.47045" lon="5.22128">
        <ele>208.4</ele>
        <time>2022-03-21T14:14:24Z</time>
      </trkpt>
      <trkpt lat="46.4706" lon="5.22131">
        <ele>209.2</ele>
        <time>2022-03-21T14:14:26Z</time>
      </trkpt>
      <trkpt lat="46.47082" lon="5.22138">
        <ele>210.4</ele>
        <time>2022-03-21T14:14:29Z</time>
      </trkpt>
      <trkpt lat="46.47117" lon="5.22153">
        <ele>211.8</ele>
        <time>2022-03-21T14:14:34Z</time>
      </trkpt>
      <trkpt lat="46.4713" lon="5.22157">
        <ele>212.2</ele>
        <time>2022-03-21T14:14:36Z</time>
      </trkpt>
      <trkpt lat="46.47143" lon="5.22162">
        <ele>212.8</ele>
        <time>2022-03-21T14:14:38Z</time>
      </trkpt>
      <trkpt lat="46.47175" lon="5.22174">
        <ele>213.8</ele>
        <time>2022-03-21T14:14:43Z</time>
      </trkpt>
      <trkpt lat="46.47181" lon="5.22177">
        <ele>213.8</ele>
        <time>2022-03-21T14:14:44Z</time>
      </trkpt>
      <trkpt lat="46.47217" lon="5.2219">
        <ele>214.4</ele>
        <time>2022-03-21T14:14:50Z</time>
      </trkpt>
      <trkpt lat="46.47234" lon="5.22197">
        <ele>214.8</ele>
        <time>2022-03-21T14:14:53Z</time>
      </trkpt>
      <trkpt lat="46.47256" lon="5.22205">
        <ele>216</ele>
        <time>2022-03-21T14:14:57Z</time>
      </trkpt>
      <trkpt lat="46.47261" lon="5.22207">
        <ele>216</ele>
        <time>2022-03-21T14:14:58Z</time>
      </trkpt>
      <trkpt lat="46.47292" lon="5.22218">
        <ele>216.8</ele>
        <time>2022-03-21T14:15:04Z</time>
      </trkpt>
      <trkpt lat="46.47297" lon="5.2222">
        <ele>217</ele>
        <time>2022-03-21T14:15:05Z</time>
      </trkpt>
      <trkpt lat="46.47343" lon="5.22237">
        <ele>218</ele>
        <time>2022-03-21T14:15:14Z</time>
      </trkpt>
      <trkpt lat="46.47348" lon="5.22239">
        <ele>218</ele>
        <time>2022-03-21T14:15:15Z</time>
      </trkpt>
      <trkpt lat="46.47382" lon="5.22256">
        <ele>219.2</ele>
        <time>2022-03-21T14:15:22Z</time>
      </trkpt>
      <trkpt lat="46.47392" lon="5.22262">
        <ele>219.4</ele>
        <time>2022-03-21T14:15:24Z</time>
      </trkpt>
      <trkpt lat="46.47432" lon="5.22283">
        <ele>219.6</ele>
        <time>2022-03-21T14:15:31Z</time>
      </trkpt>
      <trkpt lat="46.47468" lon="5.22303">
        <ele>219.8</ele>
        <time>2022-03-21T14:15:37Z</time>
      </trkpt>
      <trkpt lat="46.47519" lon="5.22332">
        <ele>220</ele>
        <time>2022-03-21T14:15:45Z</time>
      </trkpt>
      <trkpt lat="46.47525" lon="5.22335">
        <ele>220</ele>
        <time>2022-03-21T14:15:46Z</time>
      </trkpt>
      <trkpt lat="46.47569" lon="5.22359">
        <ele>220.2</ele>
        <time>2022-03-21T14:15:53Z</time>
      </trkpt>
      <trkpt lat="46.47576" lon="5.22362">
        <ele>220.4</ele>
        <time>2022-03-21T14:15:54Z</time>
      </trkpt>
      <trkpt lat="46.47627" lon="5.22381">
        <ele>220.8</ele>
        <time>2022-03-21T14:16:02Z</time>
      </trkpt>
      <trkpt lat="46.47669" lon="5.22394">
        <ele>221</ele>
        <time>2022-03-21T14:16:09Z</time>
      </trkpt>
      <trkpt lat="46.47704" lon="5.22397">
        <ele>221.6</ele>
        <time>2022-03-21T14:16:15Z</time>
      </trkpt>
      <trkpt lat="46.47715" lon="5.22397">
        <ele>222.2</ele>
        <time>2022-03-21T14:16:17Z</time>
      </trkpt>
      <trkpt lat="46.47768" lon="5.22401">
        <ele>222.4</ele>
        <time>2022-03-21T14:16:26Z</time>
      </trkpt>
      <trkpt lat="46.47772" lon="5.22403">
        <ele>222.2</ele>
        <time>2022-03-21T14:16:27Z</time>
      </trkpt>
      <trkpt lat="46.47776" lon="5.22406">
        <ele>222</ele>
        <time>2022-03-21T14:16:28Z</time>
      </trkpt>
      <trkpt lat="46.4778" lon="5.22418">
        <ele>221.8</ele>
        <time>2022-03-21T14:16:30Z</time>
      </trkpt>
      <trkpt lat="46.47785" lon="5.22452">
        <ele>221.8</ele>
        <time>2022-03-21T14:16:34Z</time>
      </trkpt>
      <trkpt lat="46.47798" lon="5.22517">
        <ele>222</ele>
        <time>2022-03-21T14:16:41Z</time>
      </trkpt>
      <trkpt lat="46.47813" lon="5.22563">
        <ele>222</ele>
        <time>2022-03-21T14:16:46Z</time>
      </trkpt>
      <trkpt lat="46.47817" lon="5.22572">
        <ele>222</ele>
        <time>2022-03-21T14:16:47Z</time>
      </trkpt>
      <trkpt lat="46.47848" lon="5.22609">
        <ele>221.6</ele>
        <time>2022-03-21T14:16:52Z</time>
      </trkpt>
      <trkpt lat="46.4787" lon="5.22633">
        <ele>220.6</ele>
        <time>2022-03-21T14:16:55Z</time>
      </trkpt>
      <trkpt lat="46.47886" lon="5.22649">
        <ele>220</ele>
        <time>2022-03-21T14:16:57Z</time>
      </trkpt>
      <trkpt lat="46.47901" lon="5.22666">
        <ele>219.4</ele>
        <time>2022-03-21T14:16:59Z</time>
      </trkpt>
      <trkpt lat="46.47926" lon="5.22692">
        <ele>218.2</ele>
        <time>2022-03-21T14:17:02Z</time>
      </trkpt>
      <trkpt lat="46.47943" lon="5.2271">
        <ele>217.2</ele>
        <time>2022-03-21T14:17:04Z</time>
      </trkpt>
      <trkpt lat="46.47968" lon="5.22741">
        <ele>215.8</ele>
        <time>2022-03-21T14:17:07Z</time>
      </trkpt>
      <trkpt lat="46.47975" lon="5.22754">
        <ele>215.2</ele>
        <time>2022-03-21T14:17:08Z</time>
      </trkpt>
      <trkpt lat="46.47981" lon="5.22767">
        <ele>215</ele>
        <time>2022-03-21T14:17:09Z</time>
      </trkpt>
      <trkpt lat="46.47986" lon="5.2278">
        <ele>214.4</ele>
        <time>2022-03-21T14:17:10Z</time>
      </trkpt>
      <trkpt lat="46.47997" lon="5.22809">
        <ele>213.6</ele>
        <time>2022-03-21T14:17:12Z</time>
      </trkpt>
      <trkpt lat="46.48002" lon="5.22822">
        <ele>213.4</ele>
        <time>2022-03-21T14:17:13Z</time>
      </trkpt>
      <trkpt lat="46.48026" lon="5.2289">
        <ele>212.2</ele>
        <time>2022-03-21T14:17:18Z</time>
      </trkpt>
      <trkpt lat="46.48035" lon="5.22917">
        <ele>211.6</ele>
        <time>2022-03-21T14:17:20Z</time>
      </trkpt>
      <trkpt lat="46.48042" lon="5.22945">
        <ele>211</ele>
        <time>2022-03-21T14:17:22Z</time>
      </trkpt>
      <trkpt lat="46.48046" lon="5.22977">
        <ele>210.6</ele>
        <time>2022-03-21T14:17:24Z</time>
      </trkpt>
      <trkpt lat="46.48046" lon="5.22989">
        <ele>209.6</ele>
        <time>2022-03-21T14:17:25Z</time>
      </trkpt>
      <trkpt lat="46.48048" lon="5.23061">
        <ele>208.8</ele>
        <time>2022-03-21T14:17:30Z</time>
      </trkpt>
      <trkpt lat="46.48048" lon="5.23076">
        <ele>208.6</ele>
        <time>2022-03-21T14:17:31Z</time>
      </trkpt>
      <trkpt lat="46.4805" lon="5.23149">
        <ele>207.2</ele>
        <time>2022-03-21T14:17:36Z</time>
      </trkpt>
      <trkpt lat="46.4805" lon="5.23194">
        <ele>205.8</ele>
        <time>2022-03-21T14:17:39Z</time>
      </trkpt>
      <trkpt lat="46.48051" lon="5.23239">
        <ele>204.8</ele>
        <time>2022-03-21T14:17:42Z</time>
      </trkpt>
      <trkpt lat="46.48051" lon="5.23253">
        <ele>204.2</ele>
        <time>2022-03-21T14:17:43Z</time>
      </trkpt>
      <trkpt lat="46.48052" lon="5.23281">
        <ele>203.6</ele>
        <time>2022-03-21T14:17:45Z</time>
      </trkpt>
      <trkpt lat="46.48054" lon="5.23349">
        <ele>202.4</ele>
        <time>2022-03-21T14:17:50Z</time>
      </trkpt>
      <trkpt lat="46.48056" lon="5.23438">
        <ele>202.2</ele>
        <time>2022-03-21T14:17:57Z</time>
      </trkpt>
      <trkpt lat="46.48058" lon="5.23522">
        <ele>201.4</ele>
        <time>2022-03-21T14:18:04Z</time>
      </trkpt>
      <trkpt lat="46.4806" lon="5.23604">
        <ele>201</ele>
        <time>2022-03-21T14:18:11Z</time>
      </trkpt>
      <trkpt lat="46.48061" lon="5.23625">
        <ele>201.2</ele>
        <time>2022-03-21T14:18:13Z</time>
      </trkpt>
      <trkpt lat="46.48073" lon="5.23686">
        <ele>201.4</ele>
        <time>2022-03-21T14:18:19Z</time>
      </trkpt>
      <trkpt lat="46.48082" lon="5.23714">
        <ele>201.4</ele>
        <time>2022-03-21T14:18:22Z</time>
      </trkpt>
      <trkpt lat="46.4809" lon="5.23731">
        <ele>201.4</ele>
        <time>2022-03-21T14:18:24Z</time>
      </trkpt>
      <trkpt lat="46.48098" lon="5.23747">
        <ele>201.4</ele>
        <time>2022-03-21T14:18:26Z</time>
      </trkpt>
      <trkpt lat="46.48123" lon="5.23783">
        <ele>201.8</ele>
        <time>2022-03-21T14:18:31Z</time>
      </trkpt>
      <trkpt lat="46.48159" lon="5.23827">
        <ele>202</ele>
        <time>2022-03-21T14:18:38Z</time>
      </trkpt>
      <trkpt lat="46.48179" lon="5.23852">
        <ele>202.2</ele>
        <time>2022-03-21T14:18:42Z</time>
      </trkpt>
      <trkpt lat="46.48189" lon="5.23859">
        <ele>202.4</ele>
        <time>2022-03-21T14:18:44Z</time>
      </trkpt>
      <trkpt lat="46.48195" lon="5.23862">
        <ele>202.4</ele>
        <time>2022-03-21T14:18:45Z</time>
      </trkpt>
      <trkpt lat="46.48199" lon="5.23864">
        <ele>202.6</ele>
        <time>2022-03-21T14:18:46Z</time>
      </trkpt>
      <trkpt lat="46.48217" lon="5.23877">
        <ele>203.2</ele>
        <time>2022-03-21T14:18:50Z</time>
      </trkpt>
      <trkpt lat="46.48226" lon="5.23883">
        <ele>203.6</ele>
        <time>2022-03-21T14:18:52Z</time>
      </trkpt>
      <trkpt lat="46.48245" lon="5.23898">
        <ele>204.8</ele>
        <time>2022-03-21T14:18:57Z</time>
      </trkpt>
      <trkpt lat="46.48249" lon="5.23901">
        <ele>205</ele>
        <time>2022-03-21T14:18:58Z</time>
      </trkpt>
      <trkpt lat="46.4826" lon="5.2391">
        <ele>205.8</ele>
        <time>2022-03-21T14:19:01Z</time>
      </trkpt>
      <trkpt lat="46.48267" lon="5.23918">
        <ele>206.4</ele>
        <time>2022-03-21T14:19:03Z</time>
      </trkpt>
      <trkpt lat="46.48274" lon="5.23927">
        <ele>206.6</ele>
        <time>2022-03-21T14:19:05Z</time>
      </trkpt>
      <trkpt lat="46.48276" lon="5.23932">
        <ele>207.2</ele>
        <time>2022-03-21T14:19:06Z</time>
      </trkpt>
      <trkpt lat="46.48283" lon="5.23948">
        <ele>207.6</ele>
        <time>2022-03-21T14:19:09Z</time>
      </trkpt>
      <trkpt lat="46.48287" lon="5.23965">
        <ele>208.2</ele>
        <time>2022-03-21T14:19:12Z</time>
      </trkpt>
      <trkpt lat="46.4829" lon="5.24011">
        <ele>209.2</ele>
        <time>2022-03-21T14:19:19Z</time>
      </trkpt>
      <trkpt lat="46.48291" lon="5.24017">
        <ele>209.6</ele>
        <time>2022-03-21T14:19:20Z</time>
      </trkpt>
      <trkpt lat="46.48292" lon="5.24029">
        <ele>210</ele>
        <time>2022-03-21T14:19:22Z</time>
      </trkpt>
      <trkpt lat="46.48291" lon="5.24041">
        <ele>210.6</ele>
        <time>2022-03-21T14:19:24Z</time>
      </trkpt>
      <trkpt lat="46.48292" lon="5.24054">
        <ele>211</ele>
        <time>2022-03-21T14:19:26Z</time>
      </trkpt>
      <trkpt lat="46.48292" lon="5.2406">
        <ele>211.4</ele>
        <time>2022-03-21T14:19:27Z</time>
      </trkpt>
      <trkpt lat="46.48293" lon="5.24066">
        <ele>211.6</ele>
        <time>2022-03-21T14:19:28Z</time>
      </trkpt>
      <trkpt lat="46.48295" lon="5.24086">
        <ele>212.2</ele>
        <time>2022-03-21T14:19:31Z</time>
      </trkpt>
      <trkpt lat="46.48296" lon="5.24092">
        <ele>212.4</ele>
        <time>2022-03-21T14:19:32Z</time>
      </trkpt>
      <trkpt lat="46.48298" lon="5.24098">
        <ele>212.6</ele>
        <time>2022-03-21T14:19:33Z</time>
      </trkpt>
      <trkpt lat="46.483" lon="5.24103">
        <ele>213</ele>
        <time>2022-03-21T14:19:34Z</time>
      </trkpt>
      <trkpt lat="46.48304" lon="5.24114">
        <ele>213.4</ele>
        <time>2022-03-21T14:19:36Z</time>
      </trkpt>
      <trkpt lat="46.48307" lon="5.24119">
        <ele>213.6</ele>
        <time>2022-03-21T14:19:37Z</time>
      </trkpt>
      <trkpt lat="46.4831" lon="5.24123">
        <ele>213.6</ele>
        <time>2022-03-21T14:19:38Z</time>
      </trkpt>
      <trkpt lat="46.48318" lon="5.24136">
        <ele>214.2</ele>
        <time>2022-03-21T14:19:41Z</time>
      </trkpt>
      <trkpt lat="46.48328" lon="5.24145">
        <ele>214.4</ele>
        <time>2022-03-21T14:19:44Z</time>
      </trkpt>
      <trkpt lat="46.48335" lon="5.24152">
        <ele>214.8</ele>
        <time>2022-03-21T14:19:46Z</time>
      </trkpt>
      <trkpt lat="46.48357" lon="5.24172">
        <ele>215.8</ele>
        <time>2022-03-21T14:19:52Z</time>
      </trkpt>
      <trkpt lat="46.4836" lon="5.24175">
        <ele>215.8</ele>
        <time>2022-03-21T14:19:53Z</time>
      </trkpt>
      <trkpt lat="46.48377" lon="5.24193">
        <ele>216.8</ele>
        <time>2022-03-21T14:19:58Z</time>
      </trkpt>
      <trkpt lat="46.48389" lon="5.24208">
        <ele>217.4</ele>
        <time>2022-03-21T14:20:02Z</time>
      </trkpt>
      <trkpt lat="46.48397" lon="5.24221">
        <ele>217.8</ele>
        <time>2022-03-21T14:20:05Z</time>
      </trkpt>
      <trkpt lat="46.48403" lon="5.24235">
        <ele>218.8</ele>
        <time>2022-03-21T14:20:08Z</time>
      </trkpt>
      <trkpt lat="46.48405" lon="5.24246">
        <ele>219</ele>
        <time>2022-03-21T14:20:10Z</time>
      </trkpt>
      <trkpt lat="46.48406" lon="5.24253">
        <ele>219.2</ele>
        <time>2022-03-21T14:20:12Z</time>
      </trkpt>
      <trkpt lat="46.48409" lon="5.24259">
        <ele>219.6</ele>
        <time>2022-03-21T14:20:16Z</time>
      </trkpt>
      <trkpt lat="46.48409" lon="5.24259">
        <ele>219.6</ele>
        <time>2022-03-21T14:20:17Z</time>
      </trkpt>
      <trkpt lat="46.48413" lon="5.24266">
        <ele>219.2</ele>
        <time>2022-03-21T14:20:30Z</time>
      </trkpt>
      <trkpt lat="46.48417" lon="5.24274">
        <ele>219.2</ele>
        <time>2022-03-21T14:20:32Z</time>
      </trkpt>
      <trkpt lat="46.48419" lon="5.2428">
        <ele>219.2</ele>
        <time>2022-03-21T14:20:33Z</time>
      </trkpt>
      <trkpt lat="46.48428" lon="5.24306">
        <ele>219.2</ele>
        <time>2022-03-21T14:20:37Z</time>
      </trkpt>
      <trkpt lat="46.48442" lon="5.24347">
        <ele>219.6</ele>
        <time>2022-03-21T14:20:42Z</time>
      </trkpt>
      <trkpt lat="46.48453" lon="5.24385">
        <ele>219.8</ele>
        <time>2022-03-21T14:20:47Z</time>
      </trkpt>
      <trkpt lat="46.48454" lon="5.2439">
        <ele>219.8</ele>
        <time>2022-03-21T14:20:48Z</time>
      </trkpt>
      <trkpt lat="46.48456" lon="5.24405">
        <ele>220</ele>
        <time>2022-03-21T14:20:52Z</time>
      </trkpt>
      <trkpt lat="46.48461" lon="5.24415">
        <ele>220</ele>
        <time>2022-03-21T14:20:54Z</time>
      </trkpt>
      <trkpt lat="46.48469" lon="5.24426">
        <ele>220</ele>
        <time>2022-03-21T14:20:56Z</time>
      </trkpt>
      <trkpt lat="46.48479" lon="5.24437">
        <ele>220</ele>
        <time>2022-03-21T14:20:58Z</time>
      </trkpt>
      <trkpt lat="46.48493" lon="5.24456">
        <ele>220.2</ele>
        <time>2022-03-21T14:21:01Z</time>
      </trkpt>
      <trkpt lat="46.48523" lon="5.24492">
        <ele>221</ele>
        <time>2022-03-21T14:21:07Z</time>
      </trkpt>
      <trkpt lat="46.48533" lon="5.24504">
        <ele>221.4</ele>
        <time>2022-03-21T14:21:09Z</time>
      </trkpt>
      <trkpt lat="46.48551" lon="5.24526">
        <ele>222.2</ele>
        <time>2022-03-21T14:21:13Z</time>
      </trkpt>
      <trkpt lat="46.48565" lon="5.24543">
        <ele>222.4</ele>
        <time>2022-03-21T14:21:15Z</time>
      </trkpt>
      <trkpt lat="46.4857" lon="5.24548">
        <ele>222.6</ele>
        <time>2022-03-21T14:21:16Z</time>
      </trkpt>
      <trkpt lat="46.48591" lon="5.24566">
        <ele>223.2</ele>
        <time>2022-03-21T14:21:21Z</time>
      </trkpt>
      <trkpt lat="46.48603" lon="5.24573">
        <ele>223.4</ele>
        <time>2022-03-21T14:21:22Z</time>
      </trkpt>
      <trkpt lat="46.48603" lon="5.24573">
        <ele>223.4</ele>
        <time>2022-03-21T14:21:23Z</time>
      </trkpt>
      <trkpt lat="46.48643" lon="5.24595">
        <ele>223.2</ele>
        <time>2022-03-21T14:21:29Z</time>
      </trkpt>
      <trkpt lat="46.487" lon="5.24624">
        <ele>222.8</ele>
        <time>2022-03-21T14:21:36Z</time>
      </trkpt>
      <trkpt lat="46.48743" lon="5.24638">
        <ele>222.6</ele>
        <time>2022-03-21T14:21:42Z</time>
      </trkpt>
      <trkpt lat="46.48754" lon="5.24649">
        <ele>222.8</ele>
        <time>2022-03-21T14:21:45Z</time>
      </trkpt>
      <trkpt lat="46.48781" lon="5.24677">
        <ele>223</ele>
        <time>2022-03-21T14:21:49Z</time>
      </trkpt>
      <trkpt lat="46.4882" lon="5.24716">
        <ele>223.2</ele>
        <time>2022-03-21T14:21:56Z</time>
      </trkpt>
      <trkpt lat="46.48867" lon="5.24766">
        <ele>223.2</ele>
        <time>2022-03-21T14:22:04Z</time>
      </trkpt>
      <trkpt lat="46.48873" lon="5.24773">
        <ele>223.2</ele>
        <time>2022-03-21T14:22:05Z</time>
      </trkpt>
      <trkpt lat="46.48919" lon="5.24827">
        <ele>222.8</ele>
        <time>2022-03-21T14:22:13Z</time>
      </trkpt>
      <trkpt lat="46.48928" lon="5.24837">
        <ele>222.8</ele>
        <time>2022-03-21T14:22:15Z</time>
      </trkpt>
      <trkpt lat="46.48931" lon="5.2484">
        <ele>222.8</ele>
        <time>2022-03-21T14:22:16Z</time>
      </trkpt>
      <trkpt lat="46.48935" lon="5.2484">
        <ele>222.6</ele>
        <time>2022-03-21T14:22:18Z</time>
      </trkpt>
      <trkpt lat="46.48929" lon="5.24834">
        <ele>222.2</ele>
        <time>2022-03-21T14:22:21Z</time>
      </trkpt>
      <trkpt lat="46.4891" lon="5.24813">
        <ele>221.6</ele>
        <time>2022-03-21T14:22:26Z</time>
      </trkpt>
      <trkpt lat="46.48891" lon="5.24788">
        <ele>221.8</ele>
        <time>2022-03-21T14:22:32Z</time>
      </trkpt>
      <trkpt lat="46.48882" lon="5.24776">
        <ele>222</ele>
        <time>2022-03-21T14:22:34Z</time>
      </trkpt>
      <trkpt lat="46.48877" lon="5.24771">
        <ele>222</ele>
        <time>2022-03-21T14:22:36Z</time>
      </trkpt>
      <trkpt lat="46.48875" lon="5.24775">
        <ele>222.2</ele>
        <time>2022-03-21T14:22:38Z</time>
      </trkpt>
      <trkpt lat="46.48878" lon="5.24781">
        <ele>222.2</ele>
        <time>2022-03-21T14:22:40Z</time>
      </trkpt>
      <trkpt lat="46.48881" lon="5.24784">
        <ele>222.2</ele>
        <time>2022-03-21T14:22:42Z</time>
      </trkpt>
      <trkpt lat="46.48898" lon="5.24804">
        <ele>222.4</ele>
        <time>2022-03-21T14:22:45Z</time>
      </trkpt>
      <trkpt lat="46.48935" lon="5.24847">
        <ele>222.2</ele>
        <time>2022-03-21T14:22:52Z</time>
      </trkpt>
      <trkpt lat="46.4897" lon="5.24892">
        <ele>221.8</ele>
        <time>2022-03-21T14:22:58Z</time>
      </trkpt>
      <trkpt lat="46.48975" lon="5.24902">
        <ele>221.6</ele>
        <time>2022-03-21T14:22:59Z</time>
      </trkpt>
      <trkpt lat="46.48989" lon="5.24934">
        <ele>221.4</ele>
        <time>2022-03-21T14:23:02Z</time>
      </trkpt>
      <trkpt lat="46.48992" lon="5.24946">
        <ele>221.2</ele>
        <time>2022-03-21T14:23:03Z</time>
      </trkpt>
      <trkpt lat="46.48998" lon="5.24972">
        <ele>220.6</ele>
        <time>2022-03-21T14:23:06Z</time>
      </trkpt>
      <trkpt lat="46.49004" lon="5.25013">
        <ele>220</ele>
        <time>2022-03-21T14:23:08Z</time>
      </trkpt>
      <trkpt lat="46.49011" lon="5.25072">
        <ele>218.6</ele>
        <time>2022-03-21T14:23:12Z</time>
      </trkpt>
      <trkpt lat="46.49017" lon="5.25124">
        <ele>217.2</ele>
        <time>2022-03-21T14:23:16Z</time>
      </trkpt>
      <trkpt lat="46.49023" lon="5.25165">
        <ele>216.2</ele>
        <time>2022-03-21T14:23:19Z</time>
      </trkpt>
      <trkpt lat="46.49026" lon="5.25191">
        <ele>215.4</ele>
        <time>2022-03-21T14:23:21Z</time>
      </trkpt>
      <trkpt lat="46.49028" lon="5.25205">
        <ele>215</ele>
        <time>2022-03-21T14:23:22Z</time>
      </trkpt>
      <trkpt lat="46.49036" lon="5.25265">
        <ele>214.6</ele>
        <time>2022-03-21T14:23:27Z</time>
      </trkpt>
      <trkpt lat="46.49045" lon="5.25338">
        <ele>215.2</ele>
        <time>2022-03-21T14:23:34Z</time>
      </trkpt>
      <trkpt lat="46.4905" lon="5.25368">
        <ele>215.8</ele>
        <time>2022-03-21T14:23:37Z</time>
      </trkpt>
      <trkpt lat="46.49054" lon="5.25399">
        <ele>215.8</ele>
        <time>2022-03-21T14:23:40Z</time>
      </trkpt>
      <trkpt lat="46.49062" lon="5.25473">
        <ele>215.8</ele>
        <time>2022-03-21T14:23:46Z</time>
      </trkpt>
      <trkpt lat="46.49068" lon="5.25509">
        <ele>215</ele>
        <time>2022-03-21T14:23:49Z</time>
      </trkpt>
      <trkpt lat="46.49075" lon="5.25534">
        <ele>214.8</ele>
        <time>2022-03-21T14:23:51Z</time>
      </trkpt>
      <trkpt lat="46.49086" lon="5.25556">
        <ele>214.2</ele>
        <time>2022-03-21T14:23:54Z</time>
      </trkpt>
      <trkpt lat="46.49093" lon="5.25565">
        <ele>213.6</ele>
        <time>2022-03-21T14:23:55Z</time>
      </trkpt>
      <trkpt lat="46.49116" lon="5.25589">
        <ele>212.4</ele>
        <time>2022-03-21T14:23:58Z</time>
      </trkpt>
      <trkpt lat="46.4914" lon="5.25613">
        <ele>211.2</ele>
        <time>2022-03-21T14:24:01Z</time>
      </trkpt>
      <trkpt lat="46.49188" lon="5.25658">
        <ele>210.4</ele>
        <time>2022-03-21T14:24:06Z</time>
      </trkpt>
      <trkpt lat="46.49195" lon="5.25666">
        <ele>209.8</ele>
        <time>2022-03-21T14:24:08Z</time>
      </trkpt>
      <trkpt lat="46.49231" lon="5.25703">
        <ele>209.4</ele>
        <time>2022-03-21T14:24:13Z</time>
      </trkpt>
      <trkpt lat="46.49244" lon="5.25717">
        <ele>209</ele>
        <time>2022-03-21T14:24:14Z</time>
      </trkpt>
      <trkpt lat="46.49257" lon="5.25731">
        <ele>208.8</ele>
        <time>2022-03-21T14:24:17Z</time>
      </trkpt>
      <trkpt lat="46.49277" lon="5.25752">
        <ele>208.8</ele>
        <time>2022-03-21T14:24:19Z</time>
      </trkpt>
      <trkpt lat="46.49322" lon="5.25797">
        <ele>208.6</ele>
        <time>2022-03-21T14:24:26Z</time>
      </trkpt>
      <trkpt lat="46.49328" lon="5.25803">
        <ele>208.6</ele>
        <time>2022-03-21T14:24:27Z</time>
      </trkpt>
      <trkpt lat="46.49352" lon="5.25828">
        <ele>208.6</ele>
        <time>2022-03-21T14:24:32Z</time>
      </trkpt>
      <trkpt lat="46.49399" lon="5.25878">
        <ele>208.4</ele>
        <time>2022-03-21T14:24:39Z</time>
      </trkpt>
      <trkpt lat="46.49441" lon="5.25921">
        <ele>208.4</ele>
        <time>2022-03-21T14:24:46Z</time>
      </trkpt>
      <trkpt lat="46.49489" lon="5.25969">
        <ele>208.6</ele>
        <time>2022-03-21T14:24:54Z</time>
      </trkpt>
      <trkpt lat="46.49495" lon="5.25975">
        <ele>208.6</ele>
        <time>2022-03-21T14:24:56Z</time>
      </trkpt>
      <trkpt lat="46.49541" lon="5.26022">
        <ele>208.8</ele>
        <time>2022-03-21T14:25:03Z</time>
      </trkpt>
      <trkpt lat="46.49582" lon="5.26079">
        <ele>209</ele>
        <time>2022-03-21T14:25:11Z</time>
      </trkpt>
      <trkpt lat="46.49594" lon="5.26102">
        <ele>208.8</ele>
        <time>2022-03-21T14:25:14Z</time>
      </trkpt>
      <trkpt lat="46.49603" lon="5.26129">
        <ele>208.8</ele>
        <time>2022-03-21T14:25:17Z</time>
      </trkpt>
      <trkpt lat="46.49615" lon="5.26187">
        <ele>208.6</ele>
        <time>2022-03-21T14:25:23Z</time>
      </trkpt>
      <trkpt lat="46.4962" lon="5.26265">
        <ele>208.4</ele>
        <time>2022-03-21T14:25:31Z</time>
      </trkpt>
      <trkpt lat="46.49626" lon="5.26335">
        <ele>208.8</ele>
        <time>2022-03-21T14:25:39Z</time>
      </trkpt>
      <trkpt lat="46.4963" lon="5.26383">
        <ele>209.8</ele>
        <time>2022-03-21T14:25:46Z</time>
      </trkpt>
      <trkpt lat="46.49632" lon="5.26396">
        <ele>210.2</ele>
        <time>2022-03-21T14:25:48Z</time>
      </trkpt>
      <trkpt lat="46.49638" lon="5.26427">
        <ele>211.2</ele>
        <time>2022-03-21T14:25:53Z</time>
      </trkpt>
      <trkpt lat="46.49642" lon="5.26444">
        <ele>212.2</ele>
        <time>2022-03-21T14:25:56Z</time>
      </trkpt>
      <trkpt lat="46.49643" lon="5.2645">
        <ele>212.4</ele>
        <time>2022-03-21T14:25:57Z</time>
      </trkpt>
      <trkpt lat="46.49649" lon="5.26467">
        <ele>213.2</ele>
        <time>2022-03-21T14:26:00Z</time>
      </trkpt>
      <trkpt lat="46.49651" lon="5.26472">
        <ele>213.6</ele>
        <time>2022-03-21T14:26:01Z</time>
      </trkpt>
      <trkpt lat="46.49658" lon="5.26494">
        <ele>214.6</ele>
        <time>2022-03-21T14:26:05Z</time>
      </trkpt>
      <trkpt lat="46.4966" lon="5.265">
        <ele>214.8</ele>
        <time>2022-03-21T14:26:06Z</time>
      </trkpt>
      <trkpt lat="46.49662" lon="5.26505">
        <ele>215</ele>
        <time>2022-03-21T14:26:07Z</time>
      </trkpt>
      <trkpt lat="46.49666" lon="5.26514">
        <ele>215.6</ele>
        <time>2022-03-21T14:26:09Z</time>
      </trkpt>
      <trkpt lat="46.49675" lon="5.26538">
        <ele>216.6</ele>
        <time>2022-03-21T14:26:14Z</time>
      </trkpt>
      <trkpt lat="46.49679" lon="5.26548">
        <ele>217.2</ele>
        <time>2022-03-21T14:26:16Z</time>
      </trkpt>
      <trkpt lat="46.49685" lon="5.26561">
        <ele>218</ele>
        <time>2022-03-21T14:26:19Z</time>
      </trkpt>
      <trkpt lat="46.49694" lon="5.26583">
        <ele>219</ele>
        <time>2022-03-21T14:26:24Z</time>
      </trkpt>
      <trkpt lat="46.49696" lon="5.26587">
        <ele>219</ele>
        <time>2022-03-21T14:26:25Z</time>
      </trkpt>
      <trkpt lat="46.49702" lon="5.26606">
        <ele>220</ele>
        <time>2022-03-21T14:26:29Z</time>
      </trkpt>
      <trkpt lat="46.49705" lon="5.26616">
        <ele>220.4</ele>
        <time>2022-03-21T14:26:31Z</time>
      </trkpt>
      <trkpt lat="46.49715" lon="5.26634">
        <ele>221.4</ele>
        <time>2022-03-21T14:26:35Z</time>
      </trkpt>
      <trkpt lat="46.49723" lon="5.26659">
        <ele>222.4</ele>
        <time>2022-03-21T14:26:40Z</time>
      </trkpt>
      <trkpt lat="46.49725" lon="5.26665">
        <ele>222.4</ele>
        <time>2022-03-21T14:26:41Z</time>
      </trkpt>
      <trkpt lat="46.49731" lon="5.267">
        <ele>223.2</ele>
        <time>2022-03-21T14:26:47Z</time>
      </trkpt>
      <trkpt lat="46.49733" lon="5.26719">
        <ele>223.6</ele>
        <time>2022-03-21T14:26:50Z</time>
      </trkpt>
      <trkpt lat="46.49735" lon="5.26754">
        <ele>224.2</ele>
        <time>2022-03-21T14:26:55Z</time>
      </trkpt>
      <trkpt lat="46.49732" lon="5.26809">
        <ele>224.6</ele>
        <time>2022-03-21T14:27:02Z</time>
      </trkpt>
      <trkpt lat="46.4973" lon="5.26817">
        <ele>224.6</ele>
        <time>2022-03-21T14:27:03Z</time>
      </trkpt>
      <trkpt lat="46.49717" lon="5.2687">
        <ele>224.2</ele>
        <time>2022-03-21T14:27:09Z</time>
      </trkpt>
      <trkpt lat="46.49697" lon="5.26933">
        <ele>223.6</ele>
        <time>2022-03-21T14:27:16Z</time>
      </trkpt>
      <trkpt lat="46.49689" lon="5.26958">
        <ele>223.6</ele>
        <time>2022-03-21T14:27:19Z</time>
      </trkpt>
      <trkpt lat="46.49683" lon="5.26973">
        <ele>223.6</ele>
        <time>2022-03-21T14:27:21Z</time>
      </trkpt>
      <trkpt lat="46.4967" lon="5.27018">
        <ele>224.6</ele>
        <time>2022-03-21T14:27:27Z</time>
      </trkpt>
      <trkpt lat="46.49661" lon="5.2705">
        <ele>225.6</ele>
        <time>2022-03-21T14:27:31Z</time>
      </trkpt>
      <trkpt lat="46.49648" lon="5.2709">
        <ele>226.4</ele>
        <time>2022-03-21T14:27:36Z</time>
      </trkpt>
      <trkpt lat="46.49637" lon="5.27131">
        <ele>226.6</ele>
        <time>2022-03-21T14:27:41Z</time>
      </trkpt>
      <trkpt lat="46.49634" lon="5.27149">
        <ele>227.2</ele>
        <time>2022-03-21T14:27:43Z</time>
      </trkpt>
      <trkpt lat="46.49633" lon="5.27206">
        <ele>227</ele>
        <time>2022-03-21T14:27:49Z</time>
      </trkpt>
      <trkpt lat="46.4964" lon="5.27248">
        <ele>226.6</ele>
        <time>2022-03-21T14:27:53Z</time>
      </trkpt>
      <trkpt lat="46.49645" lon="5.27269">
        <ele>225.6</ele>
        <time>2022-03-21T14:27:55Z</time>
      </trkpt>
      <trkpt lat="46.49658" lon="5.27302">
        <ele>224</ele>
        <time>2022-03-21T14:27:58Z</time>
      </trkpt>
      <trkpt lat="46.49673" lon="5.27335">
        <ele>222.8</ele>
        <time>2022-03-21T14:28:01Z</time>
      </trkpt>
      <trkpt lat="46.49684" lon="5.27357">
        <ele>222.2</ele>
        <time>2022-03-21T14:28:03Z</time>
      </trkpt>
      <trkpt lat="46.49695" lon="5.2738">
        <ele>221.4</ele>
        <time>2022-03-21T14:28:05Z</time>
      </trkpt>
      <trkpt lat="46.49709" lon="5.27418">
        <ele>220</ele>
        <time>2022-03-21T14:28:08Z</time>
      </trkpt>
      <trkpt lat="46.49713" lon="5.27432">
        <ele>219.8</ele>
        <time>2022-03-21T14:28:09Z</time>
      </trkpt>
      <trkpt lat="46.4972" lon="5.27475">
        <ele>218.6</ele>
        <time>2022-03-21T14:28:12Z</time>
      </trkpt>
      <trkpt lat="46.4972" lon="5.27475">
        <ele>218.2</ele>
        <time>2022-03-21T14:28:13Z</time>
      </trkpt>
      <trkpt lat="46.49721" lon="5.27505">
        <ele>218</ele>
        <time>2022-03-21T14:28:14Z</time>
      </trkpt>
      <trkpt lat="46.49721" lon="5.2752">
        <ele>217</ele>
        <time>2022-03-21T14:28:15Z</time>
      </trkpt>
      <trkpt lat="46.4972" lon="5.27535">
        <ele>216</ele>
        <time>2022-03-21T14:28:17Z</time>
      </trkpt>
      <trkpt lat="46.4972" lon="5.27564">
        <ele>215.8</ele>
        <time>2022-03-21T14:28:18Z</time>
      </trkpt>
      <trkpt lat="46.4972" lon="5.27594">
        <ele>214.8</ele>
        <time>2022-03-21T14:28:20Z</time>
      </trkpt>
      <trkpt lat="46.49722" lon="5.27639">
        <ele>213.2</ele>
        <time>2022-03-21T14:28:23Z</time>
      </trkpt>
      <trkpt lat="46.49724" lon="5.27653">
        <ele>212.6</ele>
        <time>2022-03-21T14:28:24Z</time>
      </trkpt>
      <trkpt lat="46.49726" lon="5.27667">
        <ele>212.2</ele>
        <time>2022-03-21T14:28:25Z</time>
      </trkpt>
      <trkpt lat="46.49731" lon="5.27697">
        <ele>210</ele>
        <time>2022-03-21T14:28:27Z</time>
      </trkpt>
      <trkpt lat="46.49742" lon="5.27756">
        <ele>208.8</ele>
        <time>2022-03-21T14:28:31Z</time>
      </trkpt>
      <trkpt lat="46.4975" lon="5.27801">
        <ele>207.4</ele>
        <time>2022-03-21T14:28:34Z</time>
      </trkpt>
      <trkpt lat="46.49755" lon="5.2783">
        <ele>206.2</ele>
        <time>2022-03-21T14:28:36Z</time>
      </trkpt>
      <trkpt lat="46.4976" lon="5.27874">
        <ele>205.6</ele>
        <time>2022-03-21T14:28:39Z</time>
      </trkpt>
      <trkpt lat="46.4976" lon="5.27887">
        <ele>205.2</ele>
        <time>2022-03-21T14:28:41Z</time>
      </trkpt>
      <trkpt lat="46.49761" lon="5.27941">
        <ele>204.6</ele>
        <time>2022-03-21T14:28:44Z</time>
      </trkpt>
      <trkpt lat="46.49762" lon="5.28006">
        <ele>204.2</ele>
        <time>2022-03-21T14:28:49Z</time>
      </trkpt>
      <trkpt lat="46.49763" lon="5.28045">
        <ele>203.4</ele>
        <time>2022-03-21T14:28:52Z</time>
      </trkpt>
      <trkpt lat="46.49762" lon="5.2807">
        <ele>203</ele>
        <time>2022-03-21T14:28:54Z</time>
      </trkpt>
      <trkpt lat="46.49758" lon="5.28119">
        <ele>202.4</ele>
        <time>2022-03-21T14:28:58Z</time>
      </trkpt>
      <trkpt lat="46.49753" lon="5.28154">
        <ele>202</ele>
        <time>2022-03-21T14:29:01Z</time>
      </trkpt>
      <trkpt lat="46.49746" lon="5.28198">
        <ele>201.6</ele>
        <time>2022-03-21T14:29:05Z</time>
      </trkpt>
      <trkpt lat="46.4973" lon="5.2828">
        <ele>201.8</ele>
        <time>2022-03-21T14:29:13Z</time>
      </trkpt>
      <trkpt lat="46.49728" lon="5.2829">
        <ele>201.8</ele>
        <time>2022-03-21T14:29:14Z</time>
      </trkpt>
      <trkpt lat="46.49707" lon="5.28363">
        <ele>201.6</ele>
        <time>2022-03-21T14:29:22Z</time>
      </trkpt>
      <trkpt lat="46.49705" lon="5.28372">
        <ele>201.6</ele>
        <time>2022-03-21T14:29:23Z</time>
      </trkpt>
      <trkpt lat="46.49694" lon="5.28432">
        <ele>201.6</ele>
        <time>2022-03-21T14:29:29Z</time>
      </trkpt>
      <trkpt lat="46.49691" lon="5.28469">
        <ele>201.8</ele>
        <time>2022-03-21T14:29:34Z</time>
      </trkpt>
      <trkpt lat="46.49689" lon="5.28496">
        <ele>201.8</ele>
        <time>2022-03-21T14:29:39Z</time>
      </trkpt>
      <trkpt lat="46.49687" lon="5.28503">
        <ele>201.6</ele>
        <time>2022-03-21T14:29:40Z</time>
      </trkpt>
      <trkpt lat="46.49685" lon="5.28509">
        <ele>201.6</ele>
        <time>2022-03-21T14:29:41Z</time>
      </trkpt>
      <trkpt lat="46.49681" lon="5.28527">
        <ele>201.6</ele>
        <time>2022-03-21T14:29:43Z</time>
      </trkpt>
      <trkpt lat="46.49679" lon="5.28536">
        <ele>201.6</ele>
        <time>2022-03-21T14:29:44Z</time>
      </trkpt>
      <trkpt lat="46.49667" lon="5.28593">
        <ele>202.6</ele>
        <time>2022-03-21T14:29:50Z</time>
      </trkpt>
      <trkpt lat="46.49647" lon="5.28677">
        <ele>202.6</ele>
        <time>2022-03-21T14:29:58Z</time>
      </trkpt>
      <trkpt lat="46.49642" lon="5.28696">
        <ele>202.4</ele>
        <time>2022-03-21T14:30:00Z</time>
      </trkpt>
      <trkpt lat="46.49624" lon="5.28779">
        <ele>201.2</ele>
        <time>2022-03-21T14:30:08Z</time>
      </trkpt>
      <trkpt lat="46.4962" lon="5.28799">
        <ele>201.4</ele>
        <time>2022-03-21T14:30:10Z</time>
      </trkpt>
      <trkpt lat="46.49616" lon="5.28819">
        <ele>201</ele>
        <time>2022-03-21T14:30:12Z</time>
      </trkpt>
      <trkpt lat="46.49605" lon="5.28879">
        <ele>201.4</ele>
        <time>2022-03-21T14:30:18Z</time>
      </trkpt>
      <trkpt lat="46.49591" lon="5.28959">
        <ele>201.4</ele>
        <time>2022-03-21T14:30:27Z</time>
      </trkpt>
      <trkpt lat="46.49583" lon="5.29005">
        <ele>202</ele>
        <time>2022-03-21T14:30:34Z</time>
      </trkpt>
      <trkpt lat="46.49581" lon="5.29013">
        <ele>202.2</ele>
        <time>2022-03-21T14:30:35Z</time>
      </trkpt>
      <trkpt lat="46.49578" lon="5.2903">
        <ele>203.6</ele>
        <time>2022-03-21T14:30:38Z</time>
      </trkpt>
      <trkpt lat="46.49575" lon="5.29048">
        <ele>204</ele>
        <time>2022-03-21T14:30:41Z</time>
      </trkpt>
      <trkpt lat="46.49572" lon="5.2907">
        <ele>204.8</ele>
        <time>2022-03-21T14:30:45Z</time>
      </trkpt>
      <trkpt lat="46.49568" lon="5.29089">
        <ele>205.6</ele>
        <time>2022-03-21T14:30:49Z</time>
      </trkpt>
      <trkpt lat="46.49566" lon="5.29101">
        <ele>206</ele>
        <time>2022-03-21T14:30:51Z</time>
      </trkpt>
      <trkpt lat="46.49561" lon="5.29125">
        <ele>207</ele>
        <time>2022-03-21T14:30:56Z</time>
      </trkpt>
      <trkpt lat="46.49558" lon="5.29139">
        <ele>207.8</ele>
        <time>2022-03-21T14:30:59Z</time>
      </trkpt>
      <trkpt lat="46.49556" lon="5.29148">
        <ele>208.4</ele>
        <time>2022-03-21T14:31:01Z</time>
      </trkpt>
      <trkpt lat="46.49546" lon="5.29173">
        <ele>209.4</ele>
        <time>2022-03-21T14:31:07Z</time>
      </trkpt>
      <trkpt lat="46.49544" lon="5.29177">
        <ele>209.6</ele>
        <time>2022-03-21T14:31:08Z</time>
      </trkpt>
      <trkpt lat="46.49536" lon="5.29193">
        <ele>210.4</ele>
        <time>2022-03-21T14:31:12Z</time>
      </trkpt>
      <trkpt lat="46.4953" lon="5.29204">
        <ele>211.4</ele>
        <time>2022-03-21T14:31:15Z</time>
      </trkpt>
      <trkpt lat="46.49527" lon="5.29211">
        <ele>211.8</ele>
        <time>2022-03-21T14:31:17Z</time>
      </trkpt>
      <trkpt lat="46.4952" lon="5.29227">
        <ele>213</ele>
        <time>2022-03-21T14:31:21Z</time>
      </trkpt>
      <trkpt lat="46.49518" lon="5.29237">
        <ele>213.4</ele>
        <time>2022-03-21T14:31:23Z</time>
      </trkpt>
      <trkpt lat="46.49514" lon="5.29251">
        <ele>214</ele>
        <time>2022-03-21T14:31:26Z</time>
      </trkpt>
      <trkpt lat="46.49509" lon="5.2928">
        <ele>215.2</ele>
        <time>2022-03-21T14:31:32Z</time>
      </trkpt>
      <trkpt lat="46.49509" lon="5.29285">
        <ele>215.4</ele>
        <time>2022-03-21T14:31:33Z</time>
      </trkpt>
      <trkpt lat="46.49509" lon="5.29299">
        <ele>216.4</ele>
        <time>2022-03-21T14:31:36Z</time>
      </trkpt>
      <trkpt lat="46.49511" lon="5.29323">
        <ele>217.4</ele>
        <time>2022-03-21T14:31:41Z</time>
      </trkpt>
      <trkpt lat="46.49512" lon="5.29328">
        <ele>217.6</ele>
        <time>2022-03-21T14:31:42Z</time>
      </trkpt>
      <trkpt lat="46.49515" lon="5.29347">
        <ele>218.4</ele>
        <time>2022-03-21T14:31:46Z</time>
      </trkpt>
      <trkpt lat="46.49523" lon="5.2937">
        <ele>219.2</ele>
        <time>2022-03-21T14:31:51Z</time>
      </trkpt>
      <trkpt lat="46.49525" lon="5.29375">
        <ele>219.4</ele>
        <time>2022-03-21T14:31:52Z</time>
      </trkpt>
      <trkpt lat="46.49532" lon="5.29392">
        <ele>220</ele>
        <time>2022-03-21T14:31:56Z</time>
      </trkpt>
      <trkpt lat="46.49539" lon="5.29404">
        <ele>220.6</ele>
        <time>2022-03-21T14:31:59Z</time>
      </trkpt>
      <trkpt lat="46.49547" lon="5.29422">
        <ele>221.6</ele>
        <time>2022-03-21T14:32:03Z</time>
      </trkpt>
      <trkpt lat="46.49552" lon="5.29431">
        <ele>222</ele>
        <time>2022-03-21T14:32:05Z</time>
      </trkpt>
      <trkpt lat="46.49559" lon="5.29445">
        <ele>223</ele>
        <time>2022-03-21T14:32:08Z</time>
      </trkpt>
      <trkpt lat="46.49575" lon="5.29471">
        <ele>223.6</ele>
        <time>2022-03-21T14:32:13Z</time>
      </trkpt>
      <trkpt lat="46.496" lon="5.29515">
        <ele>223.8</ele>
        <time>2022-03-21T14:32:20Z</time>
      </trkpt>
      <trkpt lat="46.49626" lon="5.2956">
        <ele>223.8</ele>
        <time>2022-03-21T14:32:26Z</time>
      </trkpt>
      <trkpt lat="46.49656" lon="5.29615">
        <ele>224.4</ele>
        <time>2022-03-21T14:32:33Z</time>
      </trkpt>
      <trkpt lat="46.49679" lon="5.29654">
        <ele>224.8</ele>
        <time>2022-03-21T14:32:38Z</time>
      </trkpt>
      <trkpt lat="46.49717" lon="5.29723">
        <ele>224</ele>
        <time>2022-03-21T14:32:46Z</time>
      </trkpt>
      <trkpt lat="46.49742" lon="5.29774">
        <ele>223.4</ele>
        <time>2022-03-21T14:32:52Z</time>
      </trkpt>
      <trkpt lat="46.49747" lon="5.29781">
        <ele>223.4</ele>
        <time>2022-03-21T14:32:53Z</time>
      </trkpt>
      <trkpt lat="46.49758" lon="5.29791">
        <ele>223.4</ele>
        <time>2022-03-21T14:32:55Z</time>
      </trkpt>
      <trkpt lat="46.49765" lon="5.29792">
        <ele>223.6</ele>
        <time>2022-03-21T14:32:56Z</time>
      </trkpt>
      <trkpt lat="46.49819" lon="5.29805">
        <ele>223.8</ele>
        <time>2022-03-21T14:33:04Z</time>
      </trkpt>
      <trkpt lat="46.49876" lon="5.29825">
        <ele>223.6</ele>
        <time>2022-03-21T14:33:12Z</time>
      </trkpt>
      <trkpt lat="46.4989" lon="5.29831">
        <ele>223.4</ele>
        <time>2022-03-21T14:33:14Z</time>
      </trkpt>
      <trkpt lat="46.49913" lon="5.2984">
        <ele>223.4</ele>
        <time>2022-03-21T14:33:17Z</time>
      </trkpt>
      <trkpt lat="46.49945" lon="5.29852">
        <ele>222.4</ele>
        <time>2022-03-21T14:33:21Z</time>
      </trkpt>
      <trkpt lat="46.49977" lon="5.29857">
        <ele>221.4</ele>
        <time>2022-03-21T14:33:25Z</time>
      </trkpt>
      <trkpt lat="46.49993" lon="5.29859">
        <ele>221</ele>
        <time>2022-03-21T14:33:27Z</time>
      </trkpt>
      <trkpt lat="46.50009" lon="5.29865">
        <ele>220.8</ele>
        <time>2022-03-21T14:33:29Z</time>
      </trkpt>
      <trkpt lat="46.50022" lon="5.29876">
        <ele>220.4</ele>
        <time>2022-03-21T14:33:31Z</time>
      </trkpt>
      <trkpt lat="46.50034" lon="5.2989">
        <ele>220.4</ele>
        <time>2022-03-21T14:33:33Z</time>
      </trkpt>
      <trkpt lat="46.50051" lon="5.29911">
        <ele>220.2</ele>
        <time>2022-03-21T14:33:36Z</time>
      </trkpt>
      <trkpt lat="46.50072" lon="5.29954">
        <ele>220.4</ele>
        <time>2022-03-21T14:33:41Z</time>
      </trkpt>
      <trkpt lat="46.50077" lon="5.29973">
        <ele>220.4</ele>
        <time>2022-03-21T14:33:43Z</time>
      </trkpt>
      <trkpt lat="46.50082" lon="5.30002">
        <ele>220.6</ele>
        <time>2022-03-21T14:33:46Z</time>
      </trkpt>
      <trkpt lat="46.50085" lon="5.30062">
        <ele>221.4</ele>
        <time>2022-03-21T14:33:52Z</time>
      </trkpt>
      <trkpt lat="46.50085" lon="5.30082">
        <ele>221.4</ele>
        <time>2022-03-21T14:33:54Z</time>
      </trkpt>
      <trkpt lat="46.50084" lon="5.30168">
        <ele>221.6</ele>
        <time>2022-03-21T14:34:02Z</time>
      </trkpt>
      <trkpt lat="46.50084" lon="5.3018">
        <ele>221.6</ele>
        <time>2022-03-21T14:34:03Z</time>
      </trkpt>
      <trkpt lat="46.50083" lon="5.30256">
        <ele>221.2</ele>
        <time>2022-03-21T14:34:10Z</time>
      </trkpt>
      <trkpt lat="46.50074" lon="5.30323">
        <ele>220.4</ele>
        <time>2022-03-21T14:34:16Z</time>
      </trkpt>
      <trkpt lat="46.5007" lon="5.30334">
        <ele>220.2</ele>
        <time>2022-03-21T14:34:17Z</time>
      </trkpt>
      <trkpt lat="46.50062" lon="5.30356">
        <ele>219.8</ele>
        <time>2022-03-21T14:34:19Z</time>
      </trkpt>
      <trkpt lat="46.50056" lon="5.30366">
        <ele>219.8</ele>
        <time>2022-03-21T14:34:20Z</time>
      </trkpt>
      <trkpt lat="46.5005" lon="5.30375">
        <ele>219.6</ele>
        <time>2022-03-21T14:34:21Z</time>
      </trkpt>
      <trkpt lat="46.50038" lon="5.30391">
        <ele>219.4</ele>
        <time>2022-03-21T14:34:23Z</time>
      </trkpt>
      <trkpt lat="46.50031" lon="5.30398">
        <ele>219</ele>
        <time>2022-03-21T14:34:24Z</time>
      </trkpt>
      <trkpt lat="46.49996" lon="5.30425">
        <ele>218</ele>
        <time>2022-03-21T14:34:29Z</time>
      </trkpt>
      <trkpt lat="46.4999" lon="5.3043">
        <ele>218</ele>
        <time>2022-03-21T14:34:30Z</time>
      </trkpt>
      <trkpt lat="46.49959" lon="5.30461">
        <ele>218.2</ele>
        <time>2022-03-21T14:34:36Z</time>
      </trkpt>
      <trkpt lat="46.49955" lon="5.30468">
        <ele>218.2</ele>
        <time>2022-03-21T14:34:37Z</time>
      </trkpt>
      <trkpt lat="46.49943" lon="5.30495">
        <ele>219</ele>
        <time>2022-03-21T14:34:41Z</time>
      </trkpt>
      <trkpt lat="46.49933" lon="5.30531">
        <ele>220</ele>
        <time>2022-03-21T14:34:46Z</time>
      </trkpt>
      <trkpt lat="46.49932" lon="5.30538">
        <ele>220.2</ele>
        <time>2022-03-21T14:34:47Z</time>
      </trkpt>
      <trkpt lat="46.4993" lon="5.30567">
        <ele>221</ele>
        <time>2022-03-21T14:34:51Z</time>
      </trkpt>
      <trkpt lat="46.4993" lon="5.30575">
        <ele>221.2</ele>
        <time>2022-03-21T14:34:52Z</time>
      </trkpt>
      <trkpt lat="46.4993" lon="5.30582">
        <ele>221.2</ele>
        <time>2022-03-21T14:34:53Z</time>
      </trkpt>
      <trkpt lat="46.49934" lon="5.30616">
        <ele>222.4</ele>
        <time>2022-03-21T14:34:58Z</time>
      </trkpt>
      <trkpt lat="46.49935" lon="5.30623">
        <ele>222.4</ele>
        <time>2022-03-21T14:34:59Z</time>
      </trkpt>
      <trkpt lat="46.49936" lon="5.3063">
        <ele>222.6</ele>
        <time>2022-03-21T14:35:00Z</time>
      </trkpt>
      <trkpt lat="46.49942" lon="5.30658">
        <ele>223.4</ele>
        <time>2022-03-21T14:35:04Z</time>
      </trkpt>
      <trkpt lat="46.49943" lon="5.30665">
        <ele>223.6</ele>
        <time>2022-03-21T14:35:05Z</time>
      </trkpt>
      <trkpt lat="46.49946" lon="5.30687">
        <ele>224.4</ele>
        <time>2022-03-21T14:35:08Z</time>
      </trkpt>
      <trkpt lat="46.49952" lon="5.3072">
        <ele>225.6</ele>
        <time>2022-03-21T14:35:13Z</time>
      </trkpt>
      <trkpt lat="46.49955" lon="5.30733">
        <ele>225.8</ele>
        <time>2022-03-21T14:35:15Z</time>
      </trkpt>
      <trkpt lat="46.49966" lon="5.30793">
        <ele>226.6</ele>
        <time>2022-03-21T14:35:23Z</time>
      </trkpt>
      <trkpt lat="46.49983" lon="5.30853">
        <ele>226.2</ele>
        <time>2022-03-21T14:35:30Z</time>
      </trkpt>
      <trkpt lat="46.50004" lon="5.3091">
        <ele>225.6</ele>
        <time>2022-03-21T14:35:36Z</time>
      </trkpt>
      <trkpt lat="46.5002" lon="5.30954">
        <ele>224.6</ele>
        <time>2022-03-21T14:35:40Z</time>
      </trkpt>
      <trkpt lat="46.50028" lon="5.30979">
        <ele>224</ele>
        <time>2022-03-21T14:35:42Z</time>
      </trkpt>
      <trkpt lat="46.50033" lon="5.30992">
        <ele>223.4</ele>
        <time>2022-03-21T14:35:43Z</time>
      </trkpt>
      <trkpt lat="46.50047" lon="5.31032">
        <ele>222.2</ele>
        <time>2022-03-21T14:35:46Z</time>
      </trkpt>
      <trkpt lat="46.50056" lon="5.31061">
        <ele>221.4</ele>
        <time>2022-03-21T14:35:48Z</time>
      </trkpt>
      <trkpt lat="46.50062" lon="5.31076">
        <ele>220.8</ele>
        <time>2022-03-21T14:35:49Z</time>
      </trkpt>
      <trkpt lat="46.50071" lon="5.31106">
        <ele>219.2</ele>
        <time>2022-03-21T14:35:51Z</time>
      </trkpt>
      <trkpt lat="46.50087" lon="5.31149">
        <ele>217.6</ele>
        <time>2022-03-21T14:35:54Z</time>
      </trkpt>
      <trkpt lat="46.50092" lon="5.31164">
        <ele>217.4</ele>
        <time>2022-03-21T14:35:55Z</time>
      </trkpt>
      <trkpt lat="46.50096" lon="5.31178">
        <ele>216.6</ele>
        <time>2022-03-21T14:35:56Z</time>
      </trkpt>
      <trkpt lat="46.50118" lon="5.31242">
        <ele>215.8</ele>
        <time>2022-03-21T14:36:01Z</time>
      </trkpt>
      <trkpt lat="46.50146" lon="5.31322">
        <ele>216.4</ele>
        <time>2022-03-21T14:36:08Z</time>
      </trkpt>
      <trkpt lat="46.5015" lon="5.31333">
        <ele>216.6</ele>
        <time>2022-03-21T14:36:09Z</time>
      </trkpt>
      <trkpt lat="46.50173" lon="5.31404">
        <ele>217.2</ele>
        <time>2022-03-21T14:36:15Z</time>
      </trkpt>
      <trkpt lat="46.50178" lon="5.31417">
        <ele>217</ele>
        <time>2022-03-21T14:36:16Z</time>
      </trkpt>
      <trkpt lat="46.50205" lon="5.31497">
        <ele>215.6</ele>
        <time>2022-03-21T14:36:22Z</time>
      </trkpt>
      <trkpt lat="46.5021" lon="5.31511">
        <ele>215.4</ele>
        <time>2022-03-21T14:36:23Z</time>
      </trkpt>
      <trkpt lat="46.50228" lon="5.31549">
        <ele>214</ele>
        <time>2022-03-21T14:36:26Z</time>
      </trkpt>
      <trkpt lat="46.50235" lon="5.3156">
        <ele>213.8</ele>
        <time>2022-03-21T14:36:27Z</time>
      </trkpt>
      <trkpt lat="46.50252" lon="5.3158">
        <ele>212.6</ele>
        <time>2022-03-21T14:36:29Z</time>
      </trkpt>
      <trkpt lat="46.50268" lon="5.31596">
        <ele>211.8</ele>
        <time>2022-03-21T14:36:31Z</time>
      </trkpt>
      <trkpt lat="46.50277" lon="5.31603">
        <ele>211.6</ele>
        <time>2022-03-21T14:36:32Z</time>
      </trkpt>
      <trkpt lat="46.5031" lon="5.3163">
        <ele>210.6</ele>
        <time>2022-03-21T14:36:36Z</time>
      </trkpt>
      <trkpt lat="46.50334" lon="5.31647">
        <ele>210.2</ele>
        <time>2022-03-21T14:36:39Z</time>
      </trkpt>
      <trkpt lat="46.50369" lon="5.31682">
        <ele>210</ele>
        <time>2022-03-21T14:36:44Z</time>
      </trkpt>
      <trkpt lat="46.50394" lon="5.31727">
        <ele>210.2</ele>
        <time>2022-03-21T14:36:49Z</time>
      </trkpt>
      <trkpt lat="46.50413" lon="5.31777">
        <ele>210.4</ele>
        <time>2022-03-21T14:36:54Z</time>
      </trkpt>
      <trkpt lat="46.50432" lon="5.31859">
        <ele>210.6</ele>
        <time>2022-03-21T14:37:02Z</time>
      </trkpt>
      <trkpt lat="46.50435" lon="5.31912">
        <ele>210.6</ele>
        <time>2022-03-21T14:37:07Z</time>
      </trkpt>
      <trkpt lat="46.50433" lon="5.31995">
        <ele>210.8</ele>
        <time>2022-03-21T14:37:15Z</time>
      </trkpt>
      <trkpt lat="46.50432" lon="5.32017">
        <ele>210.8</ele>
        <time>2022-03-21T14:37:17Z</time>
      </trkpt>
      <trkpt lat="46.5043" lon="5.32097">
        <ele>211.4</ele>
        <time>2022-03-21T14:37:25Z</time>
      </trkpt>
      <trkpt lat="46.50429" lon="5.32134">
        <ele>211.6</ele>
        <time>2022-03-21T14:37:29Z</time>
      </trkpt>
      <trkpt lat="46.50429" lon="5.3216">
        <ele>212.2</ele>
        <time>2022-03-21T14:37:32Z</time>
      </trkpt>
      <trkpt lat="46.50427" lon="5.32195">
        <ele>212.8</ele>
        <time>2022-03-21T14:37:36Z</time>
      </trkpt>
      <trkpt lat="46.50427" lon="5.32255">
        <ele>213.6</ele>
        <time>2022-03-21T14:37:43Z</time>
      </trkpt>
      <trkpt lat="46.50428" lon="5.32263">
        <ele>213.8</ele>
        <time>2022-03-21T14:37:44Z</time>
      </trkpt>
      <trkpt lat="46.50435" lon="5.32313">
        <ele>214.8</ele>
        <time>2022-03-21T14:37:50Z</time>
      </trkpt>
      <trkpt lat="46.50453" lon="5.32397">
        <ele>214.6</ele>
        <time>2022-03-21T14:37:59Z</time>
      </trkpt>
      <trkpt lat="46.50465" lon="5.3247">
        <ele>214.2</ele>
        <time>2022-03-21T14:38:07Z</time>
      </trkpt>
      <trkpt lat="46.50469" lon="5.32533">
        <ele>214.6</ele>
        <time>2022-03-21T14:38:14Z</time>
      </trkpt>
      <trkpt lat="46.50471" lon="5.32577">
        <ele>215</ele>
        <time>2022-03-21T14:38:19Z</time>
      </trkpt>
      <trkpt lat="46.50473" lon="5.32638">
        <ele>215.6</ele>
        <time>2022-03-21T14:38:26Z</time>
      </trkpt>
      <trkpt lat="46.50473" lon="5.32665">
        <ele>216.2</ele>
        <time>2022-03-21T14:38:29Z</time>
      </trkpt>
      <trkpt lat="46.50472" lon="5.32744">
        <ele>217</ele>
        <time>2022-03-21T14:38:38Z</time>
      </trkpt>
      <trkpt lat="46.50472" lon="5.32753">
        <ele>217</ele>
        <time>2022-03-21T14:38:39Z</time>
      </trkpt>
      <trkpt lat="46.50471" lon="5.3277">
        <ele>217.2</ele>
        <time>2022-03-21T14:38:41Z</time>
      </trkpt>
      <trkpt lat="46.5047" lon="5.32834">
        <ele>217.8</ele>
        <time>2022-03-21T14:38:48Z</time>
      </trkpt>
      <trkpt lat="46.50469" lon="5.32892">
        <ele>218.2</ele>
        <time>2022-03-21T14:38:55Z</time>
      </trkpt>
      <trkpt lat="46.50469" lon="5.32899">
        <ele>218.4</ele>
        <time>2022-03-21T14:38:56Z</time>
      </trkpt>
      <trkpt lat="46.50468" lon="5.3292">
        <ele>219.2</ele>
        <time>2022-03-21T14:38:59Z</time>
      </trkpt>
      <trkpt lat="46.50468" lon="5.32952">
        <ele>220.2</ele>
        <time>2022-03-21T14:39:04Z</time>
      </trkpt>
      <trkpt lat="46.50468" lon="5.32959">
        <ele>220.4</ele>
        <time>2022-03-21T14:39:05Z</time>
      </trkpt>
      <trkpt lat="46.50468" lon="5.32984">
        <ele>221.4</ele>
        <time>2022-03-21T14:39:09Z</time>
      </trkpt>
      <trkpt lat="46.50468" lon="5.33004">
        <ele>222</ele>
        <time>2022-03-21T14:39:12Z</time>
      </trkpt>
      <trkpt lat="46.50469" lon="5.33023">
        <ele>222.4</ele>
        <time>2022-03-21T14:39:15Z</time>
      </trkpt>
      <trkpt lat="46.50468" lon="5.33048">
        <ele>223.2</ele>
        <time>2022-03-21T14:39:19Z</time>
      </trkpt>
      <trkpt lat="46.50467" lon="5.33066">
        <ele>223.6</ele>
        <time>2022-03-21T14:39:22Z</time>
      </trkpt>
      <trkpt lat="46.50467" lon="5.33083">
        <ele>224.4</ele>
        <time>2022-03-21T14:39:25Z</time>
      </trkpt>
      <trkpt lat="46.50467" lon="5.33088">
        <ele>224.6</ele>
        <time>2022-03-21T14:39:26Z</time>
      </trkpt>
      <trkpt lat="46.50468" lon="5.33094">
        <ele>224.6</ele>
        <time>2022-03-21T14:39:27Z</time>
      </trkpt>
      <trkpt lat="46.50468" lon="5.3311">
        <ele>225.6</ele>
        <time>2022-03-21T14:39:30Z</time>
      </trkpt>
      <trkpt lat="46.50467" lon="5.33121">
        <ele>226.4</ele>
        <time>2022-03-21T14:39:32Z</time>
      </trkpt>
      <trkpt lat="46.50466" lon="5.33128">
        <ele>226.8</ele>
        <time>2022-03-21T14:39:33Z</time>
      </trkpt>
      <trkpt lat="46.50465" lon="5.33146">
        <ele>227.4</ele>
        <time>2022-03-21T14:39:36Z</time>
      </trkpt>
      <trkpt lat="46.50464" lon="5.33158">
        <ele>227.8</ele>
        <time>2022-03-21T14:39:38Z</time>
      </trkpt>
      <trkpt lat="46.50464" lon="5.33175">
        <ele>228.6</ele>
        <time>2022-03-21T14:39:41Z</time>
      </trkpt>
      <trkpt lat="46.50463" lon="5.33182">
        <ele>228.8</ele>
        <time>2022-03-21T14:39:42Z</time>
      </trkpt>
      <trkpt lat="46.50464" lon="5.3319">
        <ele>229.2</ele>
        <time>2022-03-21T14:39:43Z</time>
      </trkpt>
      <trkpt lat="46.50465" lon="5.33206">
        <ele>229.4</ele>
        <time>2022-03-21T14:39:45Z</time>
      </trkpt>
      <trkpt lat="46.50466" lon="5.33214">
        <ele>229.8</ele>
        <time>2022-03-21T14:39:46Z</time>
      </trkpt>
      <trkpt lat="46.50466" lon="5.33222">
        <ele>230</ele>
        <time>2022-03-21T14:39:47Z</time>
      </trkpt>
      <trkpt lat="46.50463" lon="5.33245">
        <ele>230.4</ele>
        <time>2022-03-21T14:39:50Z</time>
      </trkpt>
      <trkpt lat="46.50463" lon="5.33253">
        <ele>230.4</ele>
        <time>2022-03-21T14:39:51Z</time>
      </trkpt>
      <trkpt lat="46.50462" lon="5.33277">
        <ele>230.6</ele>
        <time>2022-03-21T14:39:54Z</time>
      </trkpt>
      <trkpt lat="46.50459" lon="5.33347">
        <ele>230.6</ele>
        <time>2022-03-21T14:40:02Z</time>
      </trkpt>
      <trkpt lat="46.50458" lon="5.33365">
        <ele>230.4</ele>
        <time>2022-03-21T14:40:04Z</time>
      </trkpt>
      <trkpt lat="46.50453" lon="5.33391">
        <ele>230.2</ele>
        <time>2022-03-21T14:40:07Z</time>
      </trkpt>
      <trkpt lat="46.50451" lon="5.33399">
        <ele>230.2</ele>
        <time>2022-03-21T14:40:08Z</time>
      </trkpt>
      <trkpt lat="46.50441" lon="5.33421">
        <ele>230.2</ele>
        <time>2022-03-21T14:40:11Z</time>
      </trkpt>
      <trkpt lat="46.50437" lon="5.33426">
        <ele>230.2</ele>
        <time>2022-03-21T14:40:12Z</time>
      </trkpt>
      <trkpt lat="46.5042" lon="5.33447">
        <ele>230.6</ele>
        <time>2022-03-21T14:40:16Z</time>
      </trkpt>
      <trkpt lat="46.504" lon="5.33471">
        <ele>230.8</ele>
        <time>2022-03-21T14:40:21Z</time>
      </trkpt>
      <trkpt lat="46.50396" lon="5.33475">
        <ele>231</ele>
        <time>2022-03-21T14:40:22Z</time>
      </trkpt>
      <trkpt lat="46.50392" lon="5.33478">
        <ele>231</ele>
        <time>2022-03-21T14:40:23Z</time>
      </trkpt>
      <trkpt lat="46.5038" lon="5.33492">
        <ele>231.2</ele>
        <time>2022-03-21T14:40:26Z</time>
      </trkpt>
      <trkpt lat="46.5037" lon="5.33503">
        <ele>231.6</ele>
        <time>2022-03-21T14:40:28Z</time>
      </trkpt>
      <trkpt lat="46.50366" lon="5.33507">
        <ele>231.6</ele>
        <time>2022-03-21T14:40:29Z</time>
      </trkpt>
      <trkpt lat="46.50361" lon="5.33511">
        <ele>231.8</ele>
        <time>2022-03-21T14:40:30Z</time>
      </trkpt>
      <trkpt lat="46.50357" lon="5.33516">
        <ele>232</ele>
        <time>2022-03-21T14:40:31Z</time>
      </trkpt>
      <trkpt lat="46.50338" lon="5.33538">
        <ele>232.4</ele>
        <time>2022-03-21T14:40:35Z</time>
      </trkpt>
      <trkpt lat="46.50324" lon="5.33553">
        <ele>232.6</ele>
        <time>2022-03-21T14:40:38Z</time>
      </trkpt>
      <trkpt lat="46.5031" lon="5.33568">
        <ele>232.8</ele>
        <time>2022-03-21T14:40:41Z</time>
      </trkpt>
      <trkpt lat="46.50293" lon="5.33586">
        <ele>233</ele>
        <time>2022-03-21T14:40:45Z</time>
      </trkpt>
      <trkpt lat="46.50269" lon="5.33613">
        <ele>233.2</ele>
        <time>2022-03-21T14:40:50Z</time>
      </trkpt>
      <trkpt lat="46.50235" lon="5.33652">
        <ele>233.8</ele>
        <time>2022-03-21T14:40:58Z</time>
      </trkpt>
      <trkpt lat="46.50217" lon="5.33668">
        <ele>234</ele>
        <time>2022-03-21T14:41:02Z</time>
      </trkpt>
      <trkpt lat="46.50213" lon="5.33672">
        <ele>234</ele>
        <time>2022-03-21T14:41:03Z</time>
      </trkpt>
      <trkpt lat="46.50195" lon="5.3369">
        <ele>234.4</ele>
        <time>2022-03-21T14:41:07Z</time>
      </trkpt>
      <trkpt lat="46.50182" lon="5.33705">
        <ele>234.4</ele>
        <time>2022-03-21T14:41:10Z</time>
      </trkpt>
      <trkpt lat="46.50158" lon="5.33731">
        <ele>234.8</ele>
        <time>2022-03-21T14:41:15Z</time>
      </trkpt>
      <trkpt lat="46.50148" lon="5.33741">
        <ele>234.8</ele>
        <time>2022-03-21T14:41:17Z</time>
      </trkpt>
      <trkpt lat="46.50137" lon="5.33754">
        <ele>234.6</ele>
        <time>2022-03-21T14:41:19Z</time>
      </trkpt>
      <trkpt lat="46.50119" lon="5.33774">
        <ele>234.4</ele>
        <time>2022-03-21T14:41:22Z</time>
      </trkpt>
      <trkpt lat="46.50086" lon="5.33809">
        <ele>234</ele>
        <time>2022-03-21T14:41:28Z</time>
      </trkpt>
      <trkpt lat="46.50048" lon="5.3385">
        <ele>234.6</ele>
        <time>2022-03-21T14:41:36Z</time>
      </trkpt>
      <trkpt lat="46.50033" lon="5.33864">
        <ele>235</ele>
        <time>2022-03-21T14:41:40Z</time>
      </trkpt>
      <trkpt lat="46.50027" lon="5.33869">
        <ele>235.2</ele>
        <time>2022-03-21T14:41:41Z</time>
      </trkpt>
      <trkpt lat="46.50009" lon="5.33889">
        <ele>236</ele>
        <time>2022-03-21T14:41:46Z</time>
      </trkpt>
      <trkpt lat="46.50005" lon="5.33894">
        <ele>236.2</ele>
        <time>2022-03-21T14:41:47Z</time>
      </trkpt>
      <trkpt lat="46.49989" lon="5.33911">
        <ele>236.8</ele>
        <time>2022-03-21T14:41:50Z</time>
      </trkpt>
      <trkpt lat="46.49955" lon="5.3395">
        <ele>237</ele>
        <time>2022-03-21T14:41:56Z</time>
      </trkpt>
      <trkpt lat="46.49912" lon="5.33999">
        <ele>236.4</ele>
        <time>2022-03-21T14:42:03Z</time>
      </trkpt>
      <trkpt lat="46.4988" lon="5.34034">
        <ele>235.4</ele>
        <time>2022-03-21T14:42:09Z</time>
      </trkpt>
      <trkpt lat="46.49861" lon="5.34058">
        <ele>235</ele>
        <time>2022-03-21T14:42:11Z</time>
      </trkpt>
      <trkpt lat="46.4984" lon="5.34086">
        <ele>234.4</ele>
        <time>2022-03-21T14:42:15Z</time>
      </trkpt>
      <trkpt lat="46.49808" lon="5.34138">
        <ele>234.4</ele>
        <time>2022-03-21T14:42:22Z</time>
      </trkpt>
      <trkpt lat="46.49794" lon="5.3416">
        <ele>234.6</ele>
        <time>2022-03-21T14:42:25Z</time>
      </trkpt>
      <trkpt lat="46.4978" lon="5.34184">
        <ele>234.6</ele>
        <time>2022-03-21T14:42:28Z</time>
      </trkpt>
      <trkpt lat="46.49741" lon="5.34249">
        <ele>234.6</ele>
        <time>2022-03-21T14:42:36Z</time>
      </trkpt>
      <trkpt lat="46.49718" lon="5.34289">
        <ele>234.4</ele>
        <time>2022-03-21T14:42:41Z</time>
      </trkpt>
      <trkpt lat="46.49709" lon="5.34309">
        <ele>234.4</ele>
        <time>2022-03-21T14:42:43Z</time>
      </trkpt>
      <trkpt lat="46.49692" lon="5.34364">
        <ele>234.4</ele>
        <time>2022-03-21T14:42:49Z</time>
      </trkpt>
      <trkpt lat="46.49679" lon="5.34416">
        <ele>233.8</ele>
        <time>2022-03-21T14:42:54Z</time>
      </trkpt>
      <trkpt lat="46.49674" lon="5.34434">
        <ele>233</ele>
        <time>2022-03-21T14:42:56Z</time>
      </trkpt>
      <trkpt lat="46.49671" lon="5.34445">
        <ele>232.6</ele>
        <time>2022-03-21T14:42:57Z</time>
      </trkpt>
      <trkpt lat="46.49653" lon="5.34507">
        <ele>231.4</ele>
        <time>2022-03-21T14:43:03Z</time>
      </trkpt>
      <trkpt lat="46.4965" lon="5.34518">
        <ele>230.8</ele>
        <time>2022-03-21T14:43:04Z</time>
      </trkpt>
      <trkpt lat="46.49641" lon="5.34536">
        <ele>230.4</ele>
        <time>2022-03-21T14:43:06Z</time>
      </trkpt>
      <trkpt lat="46.49621" lon="5.34558">
        <ele>229.8</ele>
        <time>2022-03-21T14:43:09Z</time>
      </trkpt>
      <trkpt lat="46.49616" lon="5.34564">
        <ele>229.6</ele>
        <time>2022-03-21T14:43:10Z</time>
      </trkpt>
      <trkpt lat="46.49606" lon="5.34581">
        <ele>229.2</ele>
        <time>2022-03-21T14:43:12Z</time>
      </trkpt>
      <trkpt lat="46.4959" lon="5.34604">
        <ele>228.8</ele>
        <time>2022-03-21T14:43:15Z</time>
      </trkpt>
      <trkpt lat="46.49565" lon="5.34636">
        <ele>229</ele>
        <time>2022-03-21T14:43:20Z</time>
      </trkpt>
      <trkpt lat="46.49551" lon="5.34653">
        <ele>229.2</ele>
        <time>2022-03-21T14:43:23Z</time>
      </trkpt>
      <trkpt lat="46.49544" lon="5.34661">
        <ele>230</ele>
        <time>2022-03-21T14:43:25Z</time>
      </trkpt>
      <trkpt lat="46.49532" lon="5.34673">
        <ele>230.4</ele>
        <time>2022-03-21T14:43:28Z</time>
      </trkpt>
      <trkpt lat="46.49529" lon="5.34676">
        <ele>230.6</ele>
        <time>2022-03-21T14:43:29Z</time>
      </trkpt>
      <trkpt lat="46.49526" lon="5.3468">
        <ele>230.6</ele>
        <time>2022-03-21T14:43:30Z</time>
      </trkpt>
      <trkpt lat="46.49514" lon="5.34692">
        <ele>231.8</ele>
        <time>2022-03-21T14:43:33Z</time>
      </trkpt>
      <trkpt lat="46.49509" lon="5.34697">
        <ele>232.2</ele>
        <time>2022-03-21T14:43:35Z</time>
      </trkpt>
      <trkpt lat="46.49497" lon="5.3471">
        <ele>232.8</ele>
        <time>2022-03-21T14:43:39Z</time>
      </trkpt>
      <trkpt lat="46.49489" lon="5.34719">
        <ele>233.4</ele>
        <time>2022-03-21T14:43:42Z</time>
      </trkpt>
      <trkpt lat="46.49487" lon="5.34722">
        <ele>233.8</ele>
        <time>2022-03-21T14:43:43Z</time>
      </trkpt>
      <trkpt lat="46.4947" lon="5.3474">
        <ele>235</ele>
        <time>2022-03-21T14:43:49Z</time>
      </trkpt>
      <trkpt lat="46.49457" lon="5.34757">
        <ele>236.4</ele>
        <time>2022-03-21T14:43:54Z</time>
      </trkpt>
      <trkpt lat="46.49448" lon="5.34766">
        <ele>237.2</ele>
        <time>2022-03-21T14:43:57Z</time>
      </trkpt>
      <trkpt lat="46.49445" lon="5.34769">
        <ele>237.4</ele>
        <time>2022-03-21T14:43:58Z</time>
      </trkpt>
      <trkpt lat="46.49433" lon="5.34782">
        <ele>238.8</ele>
        <time>2022-03-21T14:44:04Z</time>
      </trkpt>
      <trkpt lat="46.49427" lon="5.34788">
        <ele>239.2</ele>
        <time>2022-03-21T14:44:06Z</time>
      </trkpt>
      <trkpt lat="46.49411" lon="5.348">
        <ele>239.8</ele>
        <time>2022-03-21T14:44:10Z</time>
      </trkpt>
      <trkpt lat="46.49382" lon="5.34811">
        <ele>240.4</ele>
        <time>2022-03-21T14:44:16Z</time>
      </trkpt>
      <trkpt lat="46.49352" lon="5.34821">
        <ele>240.6</ele>
        <time>2022-03-21T14:44:21Z</time>
      </trkpt>
      <trkpt lat="46.49314" lon="5.34831">
        <ele>240.6</ele>
        <time>2022-03-21T14:44:27Z</time>
      </trkpt>
      <trkpt lat="46.49292" lon="5.3484">
        <ele>240.6</ele>
        <time>2022-03-21T14:44:31Z</time>
      </trkpt>
      <trkpt lat="46.49287" lon="5.34844">
        <ele>240.6</ele>
        <time>2022-03-21T14:44:32Z</time>
      </trkpt>
      <trkpt lat="46.49269" lon="5.34862">
        <ele>240.4</ele>
        <time>2022-03-21T14:44:35Z</time>
      </trkpt>
      <trkpt lat="46.49248" lon="5.3489">
        <ele>240.4</ele>
        <time>2022-03-21T14:44:40Z</time>
      </trkpt>
      <trkpt lat="46.49244" lon="5.34896">
        <ele>240.4</ele>
        <time>2022-03-21T14:44:41Z</time>
      </trkpt>
      <trkpt lat="46.49229" lon="5.34919">
        <ele>240.4</ele>
        <time>2022-03-21T14:44:45Z</time>
      </trkpt>
      <trkpt lat="46.4922" lon="5.34933">
        <ele>240.4</ele>
        <time>2022-03-21T14:44:47Z</time>
      </trkpt>
      <trkpt lat="46.49207" lon="5.34953">
        <ele>240.6</ele>
        <time>2022-03-21T14:44:50Z</time>
      </trkpt>
      <trkpt lat="46.49198" lon="5.34966">
        <ele>240.8</ele>
        <time>2022-03-21T14:44:52Z</time>
      </trkpt>
      <trkpt lat="46.49189" lon="5.34978">
        <ele>240.8</ele>
        <time>2022-03-21T14:44:54Z</time>
      </trkpt>
      <trkpt lat="46.49174" lon="5.34993">
        <ele>241.2</ele>
        <time>2022-03-21T14:44:57Z</time>
      </trkpt>
      <trkpt lat="46.49164" lon="5.35001">
        <ele>241.4</ele>
        <time>2022-03-21T14:44:59Z</time>
      </trkpt>
      <trkpt lat="46.49146" lon="5.35018">
        <ele>241.6</ele>
        <time>2022-03-21T14:45:03Z</time>
      </trkpt>
      <trkpt lat="46.49115" lon="5.35046">
        <ele>241.8</ele>
        <time>2022-03-21T14:45:10Z</time>
      </trkpt>
      <trkpt lat="46.49111" lon="5.35049">
        <ele>241.8</ele>
        <time>2022-03-21T14:45:11Z</time>
      </trkpt>
      <trkpt lat="46.49087" lon="5.3507">
        <ele>242.4</ele>
        <time>2022-03-21T14:45:17Z</time>
      </trkpt>
      <trkpt lat="46.49071" lon="5.35087">
        <ele>242.8</ele>
        <time>2022-03-21T14:45:22Z</time>
      </trkpt>
      <trkpt lat="46.49052" lon="5.35104">
        <ele>242.6</ele>
        <time>2022-03-21T14:45:26Z</time>
      </trkpt>
      <trkpt lat="46.49038" lon="5.35121">
        <ele>243</ele>
        <time>2022-03-21T14:45:29Z</time>
      </trkpt>
      <trkpt lat="46.49029" lon="5.35137">
        <ele>243.2</ele>
        <time>2022-03-21T14:45:31Z</time>
      </trkpt>
      <trkpt lat="46.49008" lon="5.35182">
        <ele>243.6</ele>
        <time>2022-03-21T14:45:37Z</time>
      </trkpt>
      <trkpt lat="46.48978" lon="5.35245">
        <ele>243.4</ele>
        <time>2022-03-21T14:45:44Z</time>
      </trkpt>
      <trkpt lat="46.48948" lon="5.35311">
        <ele>242.4</ele>
        <time>2022-03-21T14:45:51Z</time>
      </trkpt>
      <trkpt lat="46.48943" lon="5.35322">
        <ele>242.4</ele>
        <time>2022-03-21T14:45:52Z</time>
      </trkpt>
      <trkpt lat="46.48928" lon="5.35356">
        <ele>241.8</ele>
        <time>2022-03-21T14:45:56Z</time>
      </trkpt>
      <trkpt lat="46.48901" lon="5.35416">
        <ele>241.8</ele>
        <time>2022-03-21T14:46:03Z</time>
      </trkpt>
      <trkpt lat="46.48872" lon="5.35482">
        <ele>242.4</ele>
        <time>2022-03-21T14:46:11Z</time>
      </trkpt>
      <trkpt lat="46.48854" lon="5.35521">
        <ele>242.8</ele>
        <time>2022-03-21T14:46:16Z</time>
      </trkpt>
      <trkpt lat="46.48841" lon="5.35551">
        <ele>243</ele>
        <time>2022-03-21T14:46:20Z</time>
      </trkpt>
      <trkpt lat="46.48812" lon="5.35618">
        <ele>243.2</ele>
        <time>2022-03-21T14:46:28Z</time>
      </trkpt>
      <trkpt lat="46.48809" lon="5.35626">
        <ele>243.4</ele>
        <time>2022-03-21T14:46:29Z</time>
      </trkpt>
      <trkpt lat="46.48799" lon="5.35652">
        <ele>243.2</ele>
        <time>2022-03-21T14:46:32Z</time>
      </trkpt>
      <trkpt lat="46.48789" lon="5.35675">
        <ele>243.4</ele>
        <time>2022-03-21T14:46:35Z</time>
      </trkpt>
      <trkpt lat="46.48767" lon="5.35721">
        <ele>243.2</ele>
        <time>2022-03-21T14:46:41Z</time>
      </trkpt>
      <trkpt lat="46.48756" lon="5.35744">
        <ele>243.2</ele>
        <time>2022-03-21T14:46:44Z</time>
      </trkpt>
      <trkpt lat="46.48746" lon="5.35766">
        <ele>243</ele>
        <time>2022-03-21T14:46:47Z</time>
      </trkpt>
      <trkpt lat="46.48735" lon="5.35789">
        <ele>242.8</ele>
        <time>2022-03-21T14:46:50Z</time>
      </trkpt>
      <trkpt lat="46.4873" lon="5.35801">
        <ele>242.8</ele>
        <time>2022-03-21T14:46:52Z</time>
      </trkpt>
      <trkpt lat="46.4871" lon="5.35848">
        <ele>243</ele>
        <time>2022-03-21T14:46:59Z</time>
      </trkpt>
      <trkpt lat="46.48707" lon="5.35856">
        <ele>243</ele>
        <time>2022-03-21T14:47:00Z</time>
      </trkpt>
      <trkpt lat="46.48699" lon="5.35872">
        <ele>243.4</ele>
        <time>2022-03-21T14:47:03Z</time>
      </trkpt>
      <trkpt lat="46.48696" lon="5.35878">
        <ele>243.4</ele>
        <time>2022-03-21T14:47:04Z</time>
      </trkpt>
      <trkpt lat="46.48688" lon="5.35905">
        <ele>243.8</ele>
        <time>2022-03-21T14:47:08Z</time>
      </trkpt>
      <trkpt lat="46.48684" lon="5.35919">
        <ele>244</ele>
        <time>2022-03-21T14:47:10Z</time>
      </trkpt>
      <trkpt lat="46.48683" lon="5.35927">
        <ele>244.6</ele>
        <time>2022-03-21T14:47:11Z</time>
      </trkpt>
      <trkpt lat="46.48677" lon="5.35969">
        <ele>245.2</ele>
        <time>2022-03-21T14:47:16Z</time>
      </trkpt>
      <trkpt lat="46.48669" lon="5.36028">
        <ele>246</ele>
        <time>2022-03-21T14:47:23Z</time>
      </trkpt>
      <trkpt lat="46.48658" lon="5.36079">
        <ele>246</ele>
        <time>2022-03-21T14:47:28Z</time>
      </trkpt>
      <trkpt lat="46.48641" lon="5.36163">
        <ele>244.6</ele>
        <time>2022-03-21T14:47:36Z</time>
      </trkpt>
      <trkpt lat="46.48635" lon="5.3624">
        <ele>244.4</ele>
        <time>2022-03-21T14:47:44Z</time>
      </trkpt>
      <trkpt lat="46.48625" lon="5.36297">
        <ele>245.2</ele>
        <time>2022-03-21T14:47:51Z</time>
      </trkpt>
      <trkpt lat="46.4862" lon="5.36309">
        <ele>245.6</ele>
        <time>2022-03-21T14:47:53Z</time>
      </trkpt>
      <trkpt lat="46.48613" lon="5.36317">
        <ele>245.8</ele>
        <time>2022-03-21T14:47:55Z</time>
      </trkpt>
      <trkpt lat="46.48595" lon="5.36324">
        <ele>246.2</ele>
        <time>2022-03-21T14:47:59Z</time>
      </trkpt>
      <trkpt lat="46.48591" lon="5.36325">
        <ele>246.4</ele>
        <time>2022-03-21T14:48:00Z</time>
      </trkpt>
      <trkpt lat="46.48578" lon="5.36328">
        <ele>247.4</ele>
        <time>2022-03-21T14:48:03Z</time>
      </trkpt>
      <trkpt lat="46.48551" lon="5.36332">
        <ele>248.2</ele>
        <time>2022-03-21T14:48:09Z</time>
      </trkpt>
      <trkpt lat="46.48547" lon="5.36333">
        <ele>248.6</ele>
        <time>2022-03-21T14:48:10Z</time>
      </trkpt>
      <trkpt lat="46.48513" lon="5.36337">
        <ele>249.6</ele>
        <time>2022-03-21T14:48:17Z</time>
      </trkpt>
      <trkpt lat="46.48509" lon="5.36337">
        <ele>249.8</ele>
        <time>2022-03-21T14:48:18Z</time>
      </trkpt>
      <trkpt lat="46.4847" lon="5.36343">
        <ele>250.6</ele>
        <time>2022-03-21T14:48:26Z</time>
      </trkpt>
      <trkpt lat="46.48422" lon="5.36353">
        <ele>250.6</ele>
        <time>2022-03-21T14:48:35Z</time>
      </trkpt>
      <trkpt lat="46.48397" lon="5.36368">
        <ele>251</ele>
        <time>2022-03-21T14:48:40Z</time>
      </trkpt>
      <trkpt lat="46.48392" lon="5.36373">
        <ele>251.2</ele>
        <time>2022-03-21T14:48:41Z</time>
      </trkpt>
      <trkpt lat="46.48358" lon="5.36409">
        <ele>251.8</ele>
        <time>2022-03-21T14:48:49Z</time>
      </trkpt>
      <trkpt lat="46.48346" lon="5.36423">
        <ele>252</ele>
        <time>2022-03-21T14:48:52Z</time>
      </trkpt>
      <trkpt lat="46.48323" lon="5.36447">
        <ele>252.4</ele>
        <time>2022-03-21T14:48:58Z</time>
      </trkpt>
      <trkpt lat="46.48303" lon="5.36469">
        <ele>253.2</ele>
        <time>2022-03-21T14:49:04Z</time>
      </trkpt>
      <trkpt lat="46.48296" lon="5.36477">
        <ele>253.4</ele>
        <time>2022-03-21T14:49:06Z</time>
      </trkpt>
      <trkpt lat="46.4828" lon="5.36496">
        <ele>254.2</ele>
        <time>2022-03-21T14:49:11Z</time>
      </trkpt>
      <trkpt lat="46.48266" lon="5.3651">
        <ele>254.6</ele>
        <time>2022-03-21T14:49:15Z</time>
      </trkpt>
      <trkpt lat="46.48249" lon="5.36529">
        <ele>255.4</ele>
        <time>2022-03-21T14:49:20Z</time>
      </trkpt>
      <trkpt lat="46.48231" lon="5.36548">
        <ele>256</ele>
        <time>2022-03-21T14:49:25Z</time>
      </trkpt>
      <trkpt lat="46.48224" lon="5.36554">
        <ele>256.2</ele>
        <time>2022-03-21T14:49:27Z</time>
      </trkpt>
      <trkpt lat="46.48216" lon="5.36557">
        <ele>256.4</ele>
        <time>2022-03-21T14:49:29Z</time>
      </trkpt>
      <trkpt lat="46.48211" lon="5.36557">
        <ele>256.6</ele>
        <time>2022-03-21T14:49:30Z</time>
      </trkpt>
      <trkpt lat="46.48202" lon="5.36557">
        <ele>257</ele>
        <time>2022-03-21T14:49:32Z</time>
      </trkpt>
      <trkpt lat="46.48195" lon="5.36562">
        <ele>257</ele>
        <time>2022-03-21T14:49:34Z</time>
      </trkpt>
      <trkpt lat="46.48189" lon="5.36572">
        <ele>257.2</ele>
        <time>2022-03-21T14:49:36Z</time>
      </trkpt>
      <trkpt lat="46.48186" lon="5.36584">
        <ele>257.2</ele>
        <time>2022-03-21T14:49:38Z</time>
      </trkpt>
      <trkpt lat="46.48183" lon="5.36591">
        <ele>257.4</ele>
        <time>2022-03-21T14:49:39Z</time>
      </trkpt>
      <trkpt lat="46.48181" lon="5.36597">
        <ele>257.6</ele>
        <time>2022-03-21T14:49:40Z</time>
      </trkpt>
      <trkpt lat="46.48177" lon="5.36602">
        <ele>257.6</ele>
        <time>2022-03-21T14:49:41Z</time>
      </trkpt>
      <trkpt lat="46.48174" lon="5.36607">
        <ele>257.8</ele>
        <time>2022-03-21T14:49:42Z</time>
      </trkpt>
      <trkpt lat="46.48156" lon="5.36628">
        <ele>258.2</ele>
        <time>2022-03-21T14:49:47Z</time>
      </trkpt>
      <trkpt lat="46.4815" lon="5.36636">
        <ele>258.2</ele>
        <time>2022-03-21T14:49:49Z</time>
      </trkpt>
      <trkpt lat="46.48145" lon="5.36638">
        <ele>258.4</ele>
        <time>2022-03-21T14:49:52Z</time>
      </trkpt>
      <trkpt lat="46.48135" lon="5.3665">
        <ele>258.8</ele>
        <time>2022-03-21T14:49:55Z</time>
      </trkpt>
      <trkpt lat="46.48132" lon="5.36653">
        <ele>258.8</ele>
        <time>2022-03-21T14:49:56Z</time>
      </trkpt>
      <trkpt lat="46.48129" lon="5.36657">
        <ele>258.8</ele>
        <time>2022-03-21T14:49:57Z</time>
      </trkpt>
      <trkpt lat="46.4812" lon="5.36667">
        <ele>259</ele>
        <time>2022-03-21T14:49:59Z</time>
      </trkpt>
      <trkpt lat="46.48114" lon="5.36679">
        <ele>259</ele>
        <time>2022-03-21T14:50:01Z</time>
      </trkpt>
      <trkpt lat="46.48113" lon="5.36686">
        <ele>259.2</ele>
        <time>2022-03-21T14:50:02Z</time>
      </trkpt>
      <trkpt lat="46.48117" lon="5.36702">
        <ele>259.6</ele>
        <time>2022-03-21T14:50:05Z</time>
      </trkpt>
      <trkpt lat="46.4812" lon="5.36706">
        <ele>259.8</ele>
        <time>2022-03-21T14:50:06Z</time>
      </trkpt>
      <trkpt lat="46.48142" lon="5.36726">
        <ele>260.8</ele>
        <time>2022-03-21T14:50:12Z</time>
      </trkpt>
      <trkpt lat="46.48146" lon="5.36729">
        <ele>261</ele>
        <time>2022-03-21T14:50:13Z</time>
      </trkpt>
      <trkpt lat="46.4816" lon="5.36741">
        <ele>261.8</ele>
        <time>2022-03-21T14:50:17Z</time>
      </trkpt>
      <trkpt lat="46.48184" lon="5.36761">
        <ele>263</ele>
        <time>2022-03-21T14:50:24Z</time>
      </trkpt>
      <trkpt lat="46.4819" lon="5.36768">
        <ele>263.2</ele>
        <time>2022-03-21T14:50:26Z</time>
      </trkpt>
      <trkpt lat="46.482" lon="5.36777">
        <ele>264.2</ele>
        <time>2022-03-21T14:50:29Z</time>
      </trkpt>
      <trkpt lat="46.48217" lon="5.3679">
        <ele>265.4</ele>
        <time>2022-03-21T14:50:34Z</time>
      </trkpt>
      <trkpt lat="46.48233" lon="5.36805">
        <ele>266.4</ele>
        <time>2022-03-21T14:50:39Z</time>
      </trkpt>
      <trkpt lat="46.48239" lon="5.36811">
        <ele>267</ele>
        <time>2022-03-21T14:50:41Z</time>
      </trkpt>
      <trkpt lat="46.48245" lon="5.36817">
        <ele>267.4</ele>
        <time>2022-03-21T14:50:43Z</time>
      </trkpt>
      <trkpt lat="46.4826" lon="5.36833">
        <ele>268.8</ele>
        <time>2022-03-21T14:50:48Z</time>
      </trkpt>
    </trkseg>
  </trk>
</gpx>